﻿<?xml version="1.0" encoding="utf-8"?><gpx creator="Garmin Desktop App" version="1.1" xsi:schemaLocation="http://www.topografix.com/GPX/1/1 http://www.topografix.com/GPX/1/1/gpx.xsd http://www.garmin.com/xmlschemas/WaypointExtension/v1 http://www8.garmin.com/xmlschemas/WaypointExtensionv1.xsd http://www.garmin.com/xmlschemas/TrackPointExtension/v1 http://www.garmin.com/xmlschemas/TrackPointExtensionv1.xsd http://www.garmin.com/xmlschemas/GpxExtensions/v3 http://www8.garmin.com/xmlschemas/GpxExtensionsv3.xsd http://www.garmin.com/xmlschemas/ActivityExtension/v1 http://www8.garmin.com/xmlschemas/ActivityExtensionv1.xsd http://www.garmin.com/xmlschemas/AdventuresExtensions/v1 http://www8.garmin.com/xmlschemas/AdventuresExtensionv1.xsd http://www.garmin.com/xmlschemas/PressureExtension/v1 http://www.garmin.com/xmlschemas/PressureExtensionv1.xsd http://www.garmin.com/xmlschemas/TripExtensions/v1 http://www.garmin.com/xmlschemas/TripExtensionsv1.xsd http://www.garmin.com/xmlschemas/TripMetaDataExtensions/v1 http://www.garmin.com/xmlschemas/TripMetaDataExtensionsv1.xsd http://www.garmin.com/xmlschemas/ViaPointTransportationModeExtensions/v1 http://www.garmin.com/xmlschemas/ViaPointTransportationModeExtensionsv1.xsd http://www.garmin.com/xmlschemas/CreationTimeExtension/v1 http://www.garmin.com/xmlschemas/CreationTimeExtensionsv1.xsd http://www.garmin.com/xmlschemas/AccelerationExtension/v1 http://www.garmin.com/xmlschemas/AccelerationExtensionv1.xsd http://www.garmin.com/xmlschemas/PowerExtension/v1 http://www.garmin.com/xmlschemas/PowerExtensionv1.xsd http://www.garmin.com/xmlschemas/VideoExtension/v1 http://www.garmin.com/xmlschemas/VideoExtensionv1.xsd" xmlns="http://www.topografix.com/GPX/1/1" xmlns:xsi="http://www.w3.org/2001/XMLSchema-instance" xmlns:wptx1="http://www.garmin.com/xmlschemas/WaypointExtension/v1" xmlns:gpxtrx="http://www.garmin.com/xmlschemas/GpxExtensions/v3" xmlns:gpxtpx="http://www.garmin.com/xmlschemas/TrackPointExtension/v1" xmlns:gpxx="http://www.garmin.com/xmlschemas/GpxExtensions/v3" xmlns:trp="http://www.garmin.com/xmlschemas/TripExtensions/v1" xmlns:adv="http://www.garmin.com/xmlschemas/AdventuresExtensions/v1" xmlns:prs="http://www.garmin.com/xmlschemas/PressureExtension/v1" xmlns:tmd="http://www.garmin.com/xmlschemas/TripMetaDataExtensions/v1" xmlns:vptm="http://www.garmin.com/xmlschemas/ViaPointTransportationModeExtensions/v1" xmlns:ctx="http://www.garmin.com/xmlschemas/CreationTimeExtension/v1" xmlns:gpxacc="http://www.garmin.com/xmlschemas/AccelerationExtension/v1" xmlns:gpxpx="http://www.garmin.com/xmlschemas/PowerExtension/v1" xmlns:vidx1="http://www.garmin.com/xmlschemas/VideoExtension/v1">

  <metadata>
    <link href="http://www.garmin.com">
      <text>Garmin International</text>
    </link>
    <time>2021-02-20T10:37:44Z</time>
    <bounds maxlat="46.46311710588634" maxlon="10.618758453056216" minlat="46.420486159622669" minlon="10.555354049429297" />
  </metadata>

  <trk>
    <name>casati-cevedale2013-07-14</name>
    <extensions>
      <gpxx:TrackExtension>
        <gpxx:DisplayColor>Yellow</gpxx:DisplayColor>
      </gpxx:TrackExtension>
    </extensions>
    <trkseg>
      <trkpt lat="46.46304577589035" lon="10.602468978613615">
        <ele>3260.9299999999998</ele>
        <time>2013-07-14T04:06:43Z</time>
      </trkpt>
      <trkpt lat="46.463047452270985" lon="10.602422626689076">
        <ele>3260.9299999999998</ele>
        <time>2013-07-14T04:07:09Z</time>
      </trkpt>
      <trkpt lat="46.463055163621902" lon="10.602438468486071">
        <ele>3259.9699999999998</ele>
        <time>2013-07-14T04:07:23Z</time>
      </trkpt>
      <trkpt lat="46.463077124208212" lon="10.602456741034985">
        <ele>3260.4499999999998</ele>
        <time>2013-07-14T04:07:48Z</time>
      </trkpt>
      <trkpt lat="46.463073687627912" lon="10.602475767955184">
        <ele>3260.4499999999998</ele>
        <time>2013-07-14T04:08:06Z</time>
      </trkpt>
      <trkpt lat="46.463056337088346" lon="10.602441821247339">
        <ele>3260.4499999999998</ele>
        <time>2013-07-14T04:08:27Z</time>
      </trkpt>
      <trkpt lat="46.463069999590516" lon="10.602416172623634">
        <ele>3260.4499999999998</ele>
        <time>2013-07-14T04:08:53Z</time>
      </trkpt>
      <trkpt lat="46.463061617687345" lon="10.602446012198925">
        <ele>3260.4499999999998</ele>
        <time>2013-07-14T04:09:29Z</time>
      </trkpt>
      <trkpt lat="46.463046446442604" lon="10.602470152080059">
        <ele>3259.9699999999998</ele>
        <time>2013-07-14T04:09:59Z</time>
      </trkpt>
      <trkpt lat="46.463047536090016" lon="10.602474259212613">
        <ele>3259.9699999999998</ele>
        <time>2013-07-14T04:10:25Z</time>
      </trkpt>
      <trkpt lat="46.463038651272655" lon="10.60249806381762">
        <ele>3259.9699999999998</ele>
        <time>2013-07-14T04:10:53Z</time>
      </trkpt>
      <trkpt lat="46.463054325431585" lon="10.602514240890741">
        <ele>3259.9699999999998</ele>
        <time>2013-07-14T04:11:22Z</time>
      </trkpt>
      <trkpt lat="46.463051559403539" lon="10.602522706612945">
        <ele>3260.4499999999998</ele>
        <time>2013-07-14T04:11:44Z</time>
      </trkpt>
      <trkpt lat="46.46308776922524" lon="10.602543661370873">
        <ele>3260.4499999999998</ele>
        <time>2013-07-14T04:12:16Z</time>
      </trkpt>
      <trkpt lat="46.463086176663637" lon="10.602545253932476">
        <ele>3260.4499999999998</ele>
        <time>2013-07-14T04:12:38Z</time>
      </trkpt>
      <trkpt lat="46.463083829730749" lon="10.60252832248807">
        <ele>3260.4499999999998</ele>
        <time>2013-07-14T04:13:04Z</time>
      </trkpt>
      <trkpt lat="46.463026246055961" lon="10.602527651935816">
        <ele>3260.4499999999998</ele>
        <time>2013-07-14T04:13:23Z</time>
      </trkpt>
      <trkpt lat="46.463069831952453" lon="10.602525724098086">
        <ele>3260.4499999999998</ele>
        <time>2013-07-14T04:13:45Z</time>
      </trkpt>
      <trkpt lat="46.463044015690684" lon="10.602467050775886">
        <ele>3260.4499999999998</ele>
        <time>2013-07-14T04:13:56Z</time>
      </trkpt>
      <trkpt lat="46.463027922436595" lon="10.60239739716053">
        <ele>3260.4499999999998</ele>
        <time>2013-07-14T04:14:00Z</time>
      </trkpt>
      <trkpt lat="46.462973859161139" lon="10.602304106578231">
        <ele>3259.9699999999998</ele>
        <time>2013-07-14T04:14:15Z</time>
      </trkpt>
      <trkpt lat="46.462914096191525" lon="10.602363031357527">
        <ele>3259.4899999999998</ele>
        <time>2013-07-14T04:14:29Z</time>
      </trkpt>
      <trkpt lat="46.462845616042614" lon="10.602431511506438">
        <ele>3257.0799999999999</ele>
        <time>2013-07-14T04:14:43Z</time>
      </trkpt>
      <trkpt lat="46.462759533897042" lon="10.602506194263697">
        <ele>3258.0500000000002</ele>
        <time>2013-07-14T04:14:53Z</time>
      </trkpt>
      <trkpt lat="46.462725838646293" lon="10.602557240054011">
        <ele>3258.5300000000002</ele>
        <time>2013-07-14T04:14:59Z</time>
      </trkpt>
      <trkpt lat="46.462645456194878" lon="10.602591605857015">
        <ele>3258.0500000000002</ele>
        <time>2013-07-14T04:15:14Z</time>
      </trkpt>
      <trkpt lat="46.46261771209538" lon="10.602557994425297">
        <ele>3258.0500000000002</ele>
        <time>2013-07-14T04:16:03Z</time>
      </trkpt>
      <trkpt lat="46.462615616619587" lon="10.602566041052341">
        <ele>3258.5300000000002</ele>
        <time>2013-07-14T04:16:47Z</time>
      </trkpt>
      <trkpt lat="46.462614191696048" lon="10.602561850100756">
        <ele>3258.0500000000002</ele>
        <time>2013-07-14T04:17:34Z</time>
      </trkpt>
      <trkpt lat="46.462612431496382" lon="10.602555396035314">
        <ele>3257.5599999999999</ele>
        <time>2013-07-14T04:18:29Z</time>
      </trkpt>
      <trkpt lat="46.462619723752141" lon="10.602556653320789">
        <ele>3258.0500000000002</ele>
        <time>2013-07-14T04:19:01Z</time>
      </trkpt>
      <trkpt lat="46.462605725973845" lon="10.602556737139821">
        <ele>3258.0500000000002</ele>
        <time>2013-07-14T04:19:42Z</time>
      </trkpt>
      <trkpt lat="46.462621567770839" lon="10.602550618350506">
        <ele>3258.0500000000002</ele>
        <time>2013-07-14T04:20:22Z</time>
      </trkpt>
      <trkpt lat="46.462605474516749" lon="10.602554474025965">
        <ele>3258.0500000000002</ele>
        <time>2013-07-14T04:21:12Z</time>
      </trkpt>
      <trkpt lat="46.462613353505731" lon="10.602528657764196">
        <ele>3257.0799999999999</ele>
        <time>2013-07-14T04:21:56Z</time>
      </trkpt>
      <trkpt lat="46.46260354667902" lon="10.602536620572209">
        <ele>3258.5300000000002</ele>
        <time>2013-07-14T04:22:30Z</time>
      </trkpt>
      <trkpt lat="46.462613102048635" lon="10.60256008990109">
        <ele>3258.5300000000002</ele>
        <time>2013-07-14T04:23:09Z</time>
      </trkpt>
      <trkpt lat="46.462618047371507" lon="10.602567130699754">
        <ele>3258.0500000000002</ele>
        <time>2013-07-14T04:23:51Z</time>
      </trkpt>
      <trkpt lat="46.462607486173511" lon="10.602558245882392">
        <ele>3258.0500000000002</ele>
        <time>2013-07-14T04:24:16Z</time>
      </trkpt>
      <trkpt lat="46.462641935795546" lon="10.602605100721121">
        <ele>3258.0500000000002</ele>
        <time>2013-07-14T04:24:29Z</time>
      </trkpt>
      <trkpt lat="46.462641013786197" lon="10.60259428806603">
        <ele>3257.5599999999999</ele>
        <time>2013-07-14T04:25:04Z</time>
      </trkpt>
      <trkpt lat="46.462642690166831" lon="10.602612141519785">
        <ele>3258.0500000000002</ele>
        <time>2013-07-14T04:25:32Z</time>
      </trkpt>
      <trkpt lat="46.462609497830272" lon="10.602588839828968">
        <ele>3258.5300000000002</ele>
        <time>2013-07-14T04:25:56Z</time>
      </trkpt>
      <trkpt lat="46.462630536407232" lon="10.602586744353175">
        <ele>3258.0500000000002</ele>
        <time>2013-07-14T04:26:26Z</time>
      </trkpt>
      <trkpt lat="46.462638331577182" lon="10.602606274187565">
        <ele>3258.5300000000002</ele>
        <time>2013-07-14T04:26:36Z</time>
      </trkpt>
      <trkpt lat="46.462617544457316" lon="10.602614656090736">
        <ele>3259.4899999999998</ele>
        <time>2013-07-14T04:26:58Z</time>
      </trkpt>
      <trkpt lat="46.462616706266999" lon="10.602619266137481">
        <ele>3259.0100000000002</ele>
        <time>2013-07-14T04:27:16Z</time>
      </trkpt>
      <trkpt lat="46.462613772600889" lon="10.602624630555511">
        <ele>3259.4899999999998</ele>
        <time>2013-07-14T04:27:38Z</time>
      </trkpt>
      <trkpt lat="46.462606061249971" lon="10.602618427947164">
        <ele>3259.4899999999998</ele>
        <time>2013-07-14T04:27:59Z</time>
      </trkpt>
      <trkpt lat="46.462604887783527" lon="10.602594874799252">
        <ele>3259.4899999999998</ele>
        <time>2013-07-14T04:28:21Z</time>
      </trkpt>
      <trkpt lat="46.462615365162492" lon="10.602616500109434">
        <ele>3259.0100000000002</ele>
        <time>2013-07-14T04:28:39Z</time>
      </trkpt>
      <trkpt lat="46.462622741237283" lon="10.602614488452673">
        <ele>3259.0100000000002</ele>
        <time>2013-07-14T04:28:56Z</time>
      </trkpt>
      <trkpt lat="46.462613437324762" lon="10.602638376876712">
        <ele>3259.0100000000002</ele>
        <time>2013-07-14T04:29:22Z</time>
      </trkpt>
      <trkpt lat="46.462615951895714" lon="10.602636868134141">
        <ele>3259.0100000000002</ele>
        <time>2013-07-14T04:29:56Z</time>
      </trkpt>
      <trkpt lat="46.462621567770839" lon="10.602618511766195">
        <ele>3259.4899999999998</ele>
        <time>2013-07-14T04:30:17Z</time>
      </trkpt>
      <trkpt lat="46.462625842541456" lon="10.602588756009936">
        <ele>3259.4899999999998</ele>
        <time>2013-07-14T04:30:28Z</time>
      </trkpt>
      <trkpt lat="46.462622908875346" lon="10.602617589756846">
        <ele>3258.5300000000002</ele>
        <time>2013-07-14T04:30:44Z</time>
      </trkpt>
      <trkpt lat="46.462616370990872" lon="10.602647764608264">
        <ele>3259.4899999999998</ele>
        <time>2013-07-14T04:30:57Z</time>
      </trkpt>
      <trkpt lat="46.46262894384563" lon="10.602623708546162">
        <ele>3259.0100000000002</ele>
        <time>2013-07-14T04:31:24Z</time>
      </trkpt>
      <trkpt lat="46.462633218616247" lon="10.602632844820619">
        <ele>3259.9699999999998</ele>
        <time>2013-07-14T04:31:45Z</time>
      </trkpt>
      <trkpt lat="46.462629614397883" lon="10.602616667747498">
        <ele>3259.0100000000002</ele>
        <time>2013-07-14T04:32:06Z</time>
      </trkpt>
      <trkpt lat="46.462615113705397" lon="10.602593617513776">
        <ele>3259.4899999999998</ele>
        <time>2013-07-14T04:32:25Z</time>
      </trkpt>
      <trkpt lat="46.462619807571173" lon="10.602609207853675">
        <ele>3259.4899999999998</ele>
        <time>2013-07-14T04:32:52Z</time>
      </trkpt>
      <trkpt lat="46.462621400132775" lon="10.602596383541822">
        <ele>3259.0100000000002</ele>
        <time>2013-07-14T04:33:11Z</time>
      </trkpt>
      <trkpt lat="46.462633805349469" lon="10.602595629170537">
        <ele>3259.4899999999998</ele>
        <time>2013-07-14T04:33:33Z</time>
      </trkpt>
      <trkpt lat="46.462635146453977" lon="10.602622870355844">
        <ele>3259.4899999999998</ele>
        <time>2013-07-14T04:33:52Z</time>
      </trkpt>
      <trkpt lat="46.462631290778518" lon="10.602638041600585">
        <ele>3259.4899999999998</ele>
        <time>2013-07-14T04:34:08Z</time>
      </trkpt>
      <trkpt lat="46.462620561942458" lon="10.602636532858014">
        <ele>3259.9699999999998</ele>
        <time>2013-07-14T04:34:21Z</time>
      </trkpt>
      <trkpt lat="46.462621903046966" lon="10.602647177875042">
        <ele>3259.4899999999998</ele>
        <time>2013-07-14T04:34:40Z</time>
      </trkpt>
      <trkpt lat="46.462631374597549" lon="10.602618176490068">
        <ele>3259.4899999999998</ele>
        <time>2013-07-14T04:35:02Z</time>
      </trkpt>
      <trkpt lat="46.46262408234179" lon="10.60261725448072">
        <ele>3259.4899999999998</ele>
        <time>2013-07-14T04:35:28Z</time>
      </trkpt>
      <trkpt lat="46.462634559720755" lon="10.602610968053341">
        <ele>3259.4899999999998</ele>
        <time>2013-07-14T04:35:48Z</time>
      </trkpt>
      <trkpt lat="46.462619891390204" lon="10.602582218125463">
        <ele>3259.9699999999998</ele>
        <time>2013-07-14T04:36:06Z</time>
      </trkpt>
      <trkpt lat="46.462611760944128" lon="10.602552210912108">
        <ele>3258.5300000000002</ele>
        <time>2013-07-14T04:36:26Z</time>
      </trkpt>
      <trkpt lat="46.46259575150907" lon="10.602553719654679">
        <ele>3259.9699999999998</ele>
        <time>2013-07-14T04:36:45Z</time>
      </trkpt>
      <trkpt lat="46.462608659639955" lon="10.602561598643661">
        <ele>3259.4899999999998</ele>
        <time>2013-07-14T04:37:16Z</time>
      </trkpt>
      <trkpt lat="46.462627351284027" lon="10.602656984701753">
        <ele>3259.4899999999998</ele>
        <time>2013-07-14T04:37:29Z</time>
      </trkpt>
      <trkpt lat="46.462621903046966" lon="10.602668887004256">
        <ele>3259.9699999999998</ele>
        <time>2013-07-14T04:37:45Z</time>
      </trkpt>
      <trkpt lat="46.46262944675982" lon="10.602659918367863">
        <ele>3259.4899999999998</ele>
        <time>2013-07-14T04:37:59Z</time>
      </trkpt>
      <trkpt lat="46.462618885561824" lon="10.60267785564065">
        <ele>3259.4899999999998</ele>
        <time>2013-07-14T04:38:16Z</time>
      </trkpt>
      <trkpt lat="46.462609246373177" lon="10.602679532021284">
        <ele>3260.9299999999998</ele>
        <time>2013-07-14T04:38:26Z</time>
      </trkpt>
      <trkpt lat="46.462582005187869" lon="10.602715741842985">
        <ele>3260.4499999999998</ele>
        <time>2013-07-14T04:38:38Z</time>
      </trkpt>
      <trkpt lat="46.462573623284698" lon="10.602710461243987">
        <ele>3260.4499999999998</ele>
        <time>2013-07-14T04:38:56Z</time>
      </trkpt>
      <trkpt lat="46.462576473131776" lon="10.602756980806589">
        <ele>3260.4499999999998</ele>
        <time>2013-07-14T04:39:07Z</time>
      </trkpt>
      <trkpt lat="46.462531881406903" lon="10.602907603606582">
        <ele>3259.9699999999998</ele>
        <time>2013-07-14T04:39:22Z</time>
      </trkpt>
      <trkpt lat="46.462479243054986" lon="10.60306828469038">
        <ele>3258.5300000000002</ele>
        <time>2013-07-14T04:39:38Z</time>
      </trkpt>
      <trkpt lat="46.46245401352644" lon="10.603115558624268">
        <ele>3258.0500000000002</ele>
        <time>2013-07-14T04:39:49Z</time>
      </trkpt>
      <trkpt lat="46.462426604703069" lon="10.603194264695048">
        <ele>3257.5599999999999</ele>
        <time>2013-07-14T04:39:57Z</time>
      </trkpt>
      <trkpt lat="46.462358376011252" lon="10.603344636037946">
        <ele>3257.5599999999999</ele>
        <time>2013-07-14T04:40:13Z</time>
      </trkpt>
      <trkpt lat="46.462277742102742" lon="10.603481847792864">
        <ele>3255.6399999999999</ele>
        <time>2013-07-14T04:40:29Z</time>
      </trkpt>
      <trkpt lat="46.462268941104412" lon="10.603499701246619">
        <ele>3254.6799999999998</ele>
        <time>2013-07-14T04:40:31Z</time>
      </trkpt>
      <trkpt lat="46.462201215326786" lon="10.603613527491689">
        <ele>3253.2399999999998</ele>
        <time>2013-07-14T04:40:44Z</time>
      </trkpt>
      <trkpt lat="46.462165089324117" lon="10.60371327213943">
        <ele>3252.7600000000002</ele>
        <time>2013-07-14T04:40:55Z</time>
      </trkpt>
      <trkpt lat="46.462141368538141" lon="10.603754846379161">
        <ele>3252.2800000000002</ele>
        <time>2013-07-14T04:41:08Z</time>
      </trkpt>
      <trkpt lat="46.462102895602584" lon="10.603869762271643">
        <ele>3252.7600000000002</ele>
        <time>2013-07-14T04:41:20Z</time>
      </trkpt>
      <trkpt lat="46.462070625275373" lon="10.603903876617551">
        <ele>3252.7600000000002</ele>
        <time>2013-07-14T04:41:33Z</time>
      </trkpt>
      <trkpt lat="46.462063081562519" lon="10.603921394795179">
        <ele>3252.7600000000002</ele>
        <time>2013-07-14T04:41:50Z</time>
      </trkpt>
      <trkpt lat="46.462070373818278" lon="10.603925250470638">
        <ele>3252.7600000000002</ele>
        <time>2013-07-14T04:42:08Z</time>
      </trkpt>
      <trkpt lat="46.462037013843656" lon="10.604027425870299">
        <ele>3254.6799999999998</ele>
        <time>2013-07-14T04:42:21Z</time>
      </trkpt>
      <trkpt lat="46.462005916982889" lon="10.604114346206188">
        <ele>3256.1199999999999</ele>
        <time>2013-07-14T04:42:35Z</time>
      </trkpt>
      <trkpt lat="46.461976580321789" lon="10.604193806648254">
        <ele>3258.0500000000002</ele>
        <time>2013-07-14T04:42:52Z</time>
      </trkpt>
      <trkpt lat="46.461945902556181" lon="10.604259604588151">
        <ele>3259.9699999999998</ele>
        <time>2013-07-14T04:43:05Z</time>
      </trkpt>
      <trkpt lat="46.461912542581558" lon="10.604316517710686">
        <ele>3261.8899999999999</ele>
        <time>2013-07-14T04:43:20Z</time>
      </trkpt>
      <trkpt lat="46.461865352466702" lon="10.604397235438228">
        <ele>3262.8499999999999</ele>
        <time>2013-07-14T04:43:33Z</time>
      </trkpt>
      <trkpt lat="46.461813887581229" lon="10.604473343119025">
        <ele>3264.29</ele>
        <time>2013-07-14T04:43:47Z</time>
      </trkpt>
      <trkpt lat="46.461782287806273" lon="10.604532016441226">
        <ele>3265.7399999999998</ele>
        <time>2013-07-14T04:44:01Z</time>
      </trkpt>
      <trkpt lat="46.461760913953185" lon="10.6045678909868">
        <ele>3266.6999999999998</ele>
        <time>2013-07-14T04:44:17Z</time>
      </trkpt>
      <trkpt lat="46.461727805435658" lon="10.604647602885962">
        <ele>3267.1799999999998</ele>
        <time>2013-07-14T04:44:32Z</time>
      </trkpt>
      <trkpt lat="46.461716573685408" lon="10.604641484096646">
        <ele>3267.6599999999999</ele>
        <time>2013-07-14T04:44:45Z</time>
      </trkpt>
      <trkpt lat="46.461709532886744" lon="10.604667132720351">
        <ele>3268.1399999999999</ele>
        <time>2013-07-14T04:44:53Z</time>
      </trkpt>
      <trkpt lat="46.461655218154192" lon="10.60477752238512">
        <ele>3269.0999999999999</ele>
        <time>2013-07-14T04:45:09Z</time>
      </trkpt>
      <trkpt lat="46.461606351658702" lon="10.604891013354063">
        <ele>3270.0599999999999</ele>
        <time>2013-07-14T04:45:28Z</time>
      </trkpt>
      <trkpt lat="46.461558490991592" lon="10.605000648647547">
        <ele>3271.02</ele>
        <time>2013-07-14T04:45:44Z</time>
      </trkpt>
      <trkpt lat="46.461553294211626" lon="10.605011628940701">
        <ele>3271.02</ele>
        <time>2013-07-14T04:45:45Z</time>
      </trkpt>
      <trkpt lat="46.461491771042347" lon="10.605122270062566">
        <ele>3272.46</ele>
        <time>2013-07-14T04:46:03Z</time>
      </trkpt>
      <trkpt lat="46.461443742737174" lon="10.605224026367068">
        <ele>3273.4299999999998</ele>
        <time>2013-07-14T04:46:20Z</time>
      </trkpt>
      <trkpt lat="46.461383560672402" lon="10.60535310767591">
        <ele>3274.3899999999999</ele>
        <time>2013-07-14T04:46:38Z</time>
      </trkpt>
      <trkpt lat="46.46132287569344" lon="10.605469280853868">
        <ele>3276.3099999999999</ele>
        <time>2013-07-14T04:46:55Z</time>
      </trkpt>
      <trkpt lat="46.461280379444361" lon="10.60556810349226">
        <ele>3277.27</ele>
        <time>2013-07-14T04:47:13Z</time>
      </trkpt>
      <trkpt lat="46.46122514270246" lon="10.605669608339667">
        <ele>3278.71</ele>
        <time>2013-07-14T04:47:30Z</time>
      </trkpt>
      <trkpt lat="46.461202343925834" lon="10.605742447078228">
        <ele>3280.1599999999999</ele>
        <time>2013-07-14T04:47:47Z</time>
      </trkpt>
      <trkpt lat="46.461164457723498" lon="10.605824841186404">
        <ele>3282.0799999999999</ele>
        <time>2013-07-14T04:48:01Z</time>
      </trkpt>
      <trkpt lat="46.461125900968909" lon="10.605920981615782">
        <ele>3284</ele>
        <time>2013-07-14T04:48:19Z</time>
      </trkpt>
      <trkpt lat="46.461077034473419" lon="10.606006141752005">
        <ele>3285.4400000000001</ele>
        <time>2013-07-14T04:48:35Z</time>
      </trkpt>
      <trkpt lat="46.461060857400298" lon="10.606042854487896">
        <ele>3286.8899999999999</ele>
        <time>2013-07-14T04:48:53Z</time>
      </trkpt>
      <trkpt lat="46.461035627871752" lon="10.606089876964688">
        <ele>3286.8899999999999</ele>
        <time>2013-07-14T04:49:10Z</time>
      </trkpt>
      <trkpt lat="46.460999753326178" lon="10.60616422444582">
        <ele>3288.3299999999999</ele>
        <time>2013-07-14T04:49:25Z</time>
      </trkpt>
      <trkpt lat="46.460957508534193" lon="10.606288276612759">
        <ele>3290.73</ele>
        <time>2013-07-14T04:49:46Z</time>
      </trkpt>
      <trkpt lat="46.460900846868753" lon="10.606410484761">
        <ele>3292.1700000000001</ele>
        <time>2013-07-14T04:50:05Z</time>
      </trkpt>
      <trkpt lat="46.460857260972261" lon="10.606472594663501">
        <ele>3293.1300000000001</ele>
        <time>2013-07-14T04:50:18Z</time>
      </trkpt>
      <trkpt lat="46.460787355899811" lon="10.606557838618755">
        <ele>3294.5799999999999</ele>
        <time>2013-07-14T04:50:36Z</time>
      </trkpt>
      <trkpt lat="46.460708733648062" lon="10.606648195534945">
        <ele>3296.02</ele>
        <time>2013-07-14T04:50:54Z</time>
      </trkpt>
      <trkpt lat="46.460691131651402" lon="10.606671161949635">
        <ele>3296.5</ele>
        <time>2013-07-14T04:51:06Z</time>
      </trkpt>
      <trkpt lat="46.460686270147562" lon="10.606749784201384">
        <ele>3296.98</ele>
        <time>2013-07-14T04:51:17Z</time>
      </trkpt>
      <trkpt lat="46.460703788325191" lon="10.60680971480906">
        <ele>3296.5</ele>
        <time>2013-07-14T04:51:26Z</time>
      </trkpt>
      <trkpt lat="46.460745362564921" lon="10.606901245191693">
        <ele>3296.5</ele>
        <time>2013-07-14T04:51:39Z</time>
      </trkpt>
      <trkpt lat="46.460810489952564" lon="10.607038792222738">
        <ele>3296.5</ele>
        <time>2013-07-14T04:51:54Z</time>
      </trkpt>
      <trkpt lat="46.460857596248388" lon="10.607149936258793">
        <ele>3296.98</ele>
        <time>2013-07-14T04:52:06Z</time>
      </trkpt>
      <trkpt lat="46.460914509370923" lon="10.607305923476815">
        <ele>3296.5</ele>
        <time>2013-07-14T04:52:21Z</time>
      </trkpt>
      <trkpt lat="46.460962705314159" lon="10.607425617054105">
        <ele>3296.02</ele>
        <time>2013-07-14T04:52:34Z</time>
      </trkpt>
      <trkpt lat="46.46099790930748" lon="10.607611695304513">
        <ele>3296.02</ele>
        <time>2013-07-14T04:52:49Z</time>
      </trkpt>
      <trkpt lat="46.461033783853054" lon="10.607775980606675">
        <ele>3296.5</ele>
        <time>2013-07-14T04:53:04Z</time>
      </trkpt>
      <trkpt lat="46.461045937612653" lon="10.607929956167936">
        <ele>3296.5</ele>
        <time>2013-07-14T04:53:18Z</time>
      </trkpt>
      <trkpt lat="46.46097544580698" lon="10.60800589621067">
        <ele>3297.9400000000001</ele>
        <time>2013-07-14T04:53:34Z</time>
      </trkpt>
      <trkpt lat="46.46090998314321" lon="10.608040345832705">
        <ele>3300.3400000000001</ele>
        <time>2013-07-14T04:53:52Z</time>
      </trkpt>
      <trkpt lat="46.460893722251058" lon="10.608025845140219">
        <ele>3300.8200000000002</ele>
        <time>2013-07-14T04:54:03Z</time>
      </trkpt>
      <trkpt lat="46.460884585976601" lon="10.608031712472439">
        <ele>3300.8200000000002</ele>
        <time>2013-07-14T04:54:20Z</time>
      </trkpt>
      <trkpt lat="46.460857009515166" lon="10.608056271448731">
        <ele>3301.79</ele>
        <time>2013-07-14T04:54:51Z</time>
      </trkpt>
      <trkpt lat="46.460830690339208" lon="10.608104048296809">
        <ele>3303.71</ele>
        <time>2013-07-14T04:55:03Z</time>
      </trkpt>
      <trkpt lat="46.460786769166589" lon="10.608123661950231">
        <ele>3305.6300000000001</ele>
        <time>2013-07-14T04:55:22Z</time>
      </trkpt>
      <trkpt lat="46.460733292624354" lon="10.608139587566257">
        <ele>3307.5500000000002</ele>
        <time>2013-07-14T04:55:38Z</time>
      </trkpt>
      <trkpt lat="46.460667997598648" lon="10.608128104358912">
        <ele>3309.48</ele>
        <time>2013-07-14T04:55:51Z</time>
      </trkpt>
      <trkpt lat="46.460624495521188" lon="10.608130283653736">
        <ele>3311.4000000000001</ele>
        <time>2013-07-14T04:56:06Z</time>
      </trkpt>
      <trkpt lat="46.460574874654412" lon="10.608138497918844">
        <ele>3312.8400000000001</ele>
        <time>2013-07-14T04:56:20Z</time>
      </trkpt>
      <trkpt lat="46.460524247959256" lon="10.608148807659745">
        <ele>3315.2399999999998</ele>
        <time>2013-07-14T04:56:35Z</time>
      </trkpt>
      <trkpt lat="46.460474794730544" lon="10.608161883428693">
        <ele>3317.1700000000001</ele>
        <time>2013-07-14T04:56:50Z</time>
      </trkpt>
      <trkpt lat="46.460420731455088" lon="10.608164062723517">
        <ele>3319.0900000000001</ele>
        <time>2013-07-14T04:57:04Z</time>
      </trkpt>
      <trkpt lat="46.460392400622368" lon="10.60817101970315">
        <ele>3319.5700000000002</ele>
        <time>2013-07-14T04:57:18Z</time>
      </trkpt>
      <trkpt lat="46.460347222164273" lon="10.608177138492465">
        <ele>3320.5300000000002</ele>
        <time>2013-07-14T04:57:37Z</time>
      </trkpt>
      <trkpt lat="46.460306067019701" lon="10.608183844015002">
        <ele>3322.4499999999998</ele>
        <time>2013-07-14T04:57:50Z</time>
      </trkpt>
      <trkpt lat="46.460247226059437" lon="10.608197003602982">
        <ele>3324.8600000000001</ele>
        <time>2013-07-14T04:58:05Z</time>
      </trkpt>
      <trkpt lat="46.460182098671794" lon="10.608200607821345">
        <ele>3326.3000000000002</ele>
        <time>2013-07-14T04:58:19Z</time>
      </trkpt>
      <trkpt lat="46.460109176114202" lon="10.608218125998974">
        <ele>3328.2199999999998</ele>
        <time>2013-07-14T04:58:37Z</time>
      </trkpt>
      <trkpt lat="46.460029799491167" lon="10.60822625644505">
        <ele>3330.1399999999999</ele>
        <time>2013-07-14T04:58:52Z</time>
      </trkpt>
      <trkpt lat="46.459959810599685" lon="10.608237823471427">
        <ele>3331.1100000000001</ele>
        <time>2013-07-14T04:59:06Z</time>
      </trkpt>
      <trkpt lat="46.459898706525564" lon="10.608267914503813">
        <ele>3333.0300000000002</ele>
        <time>2013-07-14T04:59:22Z</time>
      </trkpt>
      <trkpt lat="46.459830226376653" lon="10.608297670260072">
        <ele>3334.4699999999998</ele>
        <time>2013-07-14T04:59:38Z</time>
      </trkpt>
      <trkpt lat="46.459770882502198" lon="10.608317200094461">
        <ele>3336.3899999999999</ele>
        <time>2013-07-14T04:59:53Z</time>
      </trkpt>
      <trkpt lat="46.459716064855456" lon="10.60832985676825">
        <ele>3337.8299999999999</ele>
        <time>2013-07-14T05:00:06Z</time>
      </trkpt>
      <trkpt lat="46.459651188924909" lon="10.608353661373258">
        <ele>3338.8000000000002</ele>
        <time>2013-07-14T05:00:21Z</time>
      </trkpt>
      <trkpt lat="46.45957013592124" lon="10.608388613909483">
        <ele>3340.2399999999998</ele>
        <time>2013-07-14T05:00:37Z</time>
      </trkpt>
      <trkpt lat="46.459541888907552" lon="10.608354667201638">
        <ele>3341.1999999999998</ele>
        <time>2013-07-14T05:00:53Z</time>
      </trkpt>
      <trkpt lat="46.45954423584044" lon="10.608336059376597">
        <ele>3341.1999999999998</ele>
        <time>2013-07-14T05:01:06Z</time>
      </trkpt>
      <trkpt lat="46.459477264434099" lon="10.608369335532188">
        <ele>3341.1999999999998</ele>
        <time>2013-07-14T05:01:23Z</time>
      </trkpt>
      <trkpt lat="46.459408449009061" lon="10.608420046046376">
        <ele>3343.1199999999999</ele>
        <time>2013-07-14T05:01:36Z</time>
      </trkpt>
      <trkpt lat="46.459335526451468" lon="10.608451645821333">
        <ele>3344.5599999999999</ele>
        <time>2013-07-14T05:01:54Z</time>
      </trkpt>
      <trkpt lat="46.459239302203059" lon="10.608486346900463">
        <ele>3346.4899999999998</ele>
        <time>2013-07-14T05:02:11Z</time>
      </trkpt>
      <trkpt lat="46.459152465686202" lon="10.608506044372916">
        <ele>3348.4099999999999</ele>
        <time>2013-07-14T05:02:25Z</time>
      </trkpt>
      <trkpt lat="46.45909421145916" lon="10.60853605158627">
        <ele>3349.3699999999999</ele>
        <time>2013-07-14T05:02:40Z</time>
      </trkpt>
      <trkpt lat="46.459036376327276" lon="10.60857318341732">
        <ele>3351.77</ele>
        <time>2013-07-14T05:02:54Z</time>
      </trkpt>
      <trkpt lat="46.459005866199732" lon="10.608616014942527">
        <ele>3352.7399999999998</ele>
        <time>2013-07-14T05:03:06Z</time>
      </trkpt>
      <trkpt lat="46.45895347930491" lon="10.608677286654711">
        <ele>3354.1799999999998</ele>
        <time>2013-07-14T05:03:20Z</time>
      </trkpt>
      <trkpt lat="46.458910312503576" lon="10.608722800388932">
        <ele>3356.0999999999999</ele>
        <time>2013-07-14T05:03:30Z</time>
      </trkpt>
      <trkpt lat="46.458865804597735" lon="10.608771331608295">
        <ele>3357.54</ele>
        <time>2013-07-14T05:03:44Z</time>
      </trkpt>
      <trkpt lat="46.458810064941645" lon="10.608841069042683">
        <ele>3359.46</ele>
        <time>2013-07-14T05:03:59Z</time>
      </trkpt>
      <trkpt lat="46.4587726816535" lon="10.608877027407289">
        <ele>3360.9099999999999</ele>
        <time>2013-07-14T05:04:13Z</time>
      </trkpt>
      <trkpt lat="46.45876782014966" lon="10.608843918889761">
        <ele>3360.9099999999999</ele>
        <time>2013-07-14T05:04:29Z</time>
      </trkpt>
      <trkpt lat="46.458770837634802" lon="10.608841823413968">
        <ele>3360.4299999999998</ele>
        <time>2013-07-14T05:04:41Z</time>
      </trkpt>
      <trkpt lat="46.458772849291563" lon="10.60888004489243">
        <ele>3359.46</ele>
        <time>2013-07-14T05:04:56Z</time>
      </trkpt>
      <trkpt lat="46.45876731723547" lon="10.60886294580996">
        <ele>3360.4299999999998</ele>
        <time>2013-07-14T05:05:17Z</time>
      </trkpt>
      <trkpt lat="46.458769161254168" lon="10.608862610533834">
        <ele>3359.9499999999998</ele>
        <time>2013-07-14T05:05:35Z</time>
      </trkpt>
      <trkpt lat="46.45878785289824" lon="10.608861856162548">
        <ele>3360.9099999999999</ele>
        <time>2013-07-14T05:05:56Z</time>
      </trkpt>
      <trkpt lat="46.458778129890561" lon="10.608852216973901">
        <ele>3359.9499999999998</ele>
        <time>2013-07-14T05:06:12Z</time>
      </trkpt>
      <trkpt lat="46.458774609491229" lon="10.608854731544852">
        <ele>3359.9499999999998</ele>
        <time>2013-07-14T05:06:31Z</time>
      </trkpt>
      <trkpt lat="46.458785505965352" lon="10.608865208923817">
        <ele>3360.4299999999998</ele>
        <time>2013-07-14T05:06:52Z</time>
      </trkpt>
      <trkpt lat="46.45878785289824" lon="10.608858251944184">
        <ele>3360.4299999999998</ele>
        <time>2013-07-14T05:07:07Z</time>
      </trkpt>
      <trkpt lat="46.458766562864184" lon="10.608866550028324">
        <ele>3360.4299999999998</ele>
        <time>2013-07-14T05:07:21Z</time>
      </trkpt>
      <trkpt lat="46.458739992231131" lon="10.608913907781243">
        <ele>3360.9099999999999</ele>
        <time>2013-07-14T05:07:34Z</time>
      </trkpt>
      <trkpt lat="46.458669165149331" lon="10.609022872522473">
        <ele>3362.8299999999999</ele>
        <time>2013-07-14T05:07:49Z</time>
      </trkpt>
      <trkpt lat="46.458616442978382" lon="10.609133597463369">
        <ele>3364.27</ele>
        <time>2013-07-14T05:08:05Z</time>
      </trkpt>
      <trkpt lat="46.458552405238152" lon="10.609235521405935">
        <ele>3365.23</ele>
        <time>2013-07-14T05:08:20Z</time>
      </trkpt>
      <trkpt lat="46.458499683067203" lon="10.609371308237314">
        <ele>3367.1500000000001</ele>
        <time>2013-07-14T05:08:38Z</time>
      </trkpt>
      <trkpt lat="46.458448804914951" lon="10.609535425901413">
        <ele>3367.6399999999999</ele>
        <time>2013-07-14T05:08:55Z</time>
      </trkpt>
      <trkpt lat="46.458419384434819" lon="10.609669201076031">
        <ele>3369.5599999999999</ele>
        <time>2013-07-14T05:09:09Z</time>
      </trkpt>
      <trkpt lat="46.458392646163702" lon="10.609837677329779">
        <ele>3371</ele>
        <time>2013-07-14T05:09:26Z</time>
      </trkpt>
      <trkpt lat="46.458348976448178" lon="10.609934153035283">
        <ele>3373.8800000000001</ele>
        <time>2013-07-14T05:09:44Z</time>
      </trkpt>
      <trkpt lat="46.458338666707277" lon="10.610008416697383">
        <ele>3374.8499999999999</ele>
        <time>2013-07-14T05:09:57Z</time>
      </trkpt>
      <trkpt lat="46.458302959799767" lon="10.610133474692702">
        <ele>3377.73</ele>
        <time>2013-07-14T05:10:19Z</time>
      </trkpt>
      <trkpt lat="46.458280244842172" lon="10.610281331464648">
        <ele>3379.1700000000001</ele>
        <time>2013-07-14T05:10:38Z</time>
      </trkpt>
      <trkpt lat="46.458263648673892" lon="10.610375963151455">
        <ele>3382.0599999999999</ele>
        <time>2013-07-14T05:10:57Z</time>
      </trkpt>
      <trkpt lat="46.458239005878568" lon="10.610482580959797">
        <ele>3383.5</ele>
        <time>2013-07-14T05:11:14Z</time>
      </trkpt>
      <trkpt lat="46.458218134939671" lon="10.610600598156452">
        <ele>3385.9000000000001</ele>
        <time>2013-07-14T05:11:32Z</time>
      </trkpt>
      <trkpt lat="46.458190474659204" lon="10.610695900395513">
        <ele>3387.8200000000002</ele>
        <time>2013-07-14T05:11:47Z</time>
      </trkpt>
      <trkpt lat="46.458165496587753" lon="10.610790867358446">
        <ele>3390.23</ele>
        <time>2013-07-14T05:12:04Z</time>
      </trkpt>
      <trkpt lat="46.458128364756703" lon="10.610901759937406">
        <ele>3392.6300000000001</ele>
        <time>2013-07-14T05:12:22Z</time>
      </trkpt>
      <trkpt lat="46.458103805780411" lon="10.610999492928386">
        <ele>3393.5900000000001</ele>
        <time>2013-07-14T05:12:36Z</time>
      </trkpt>
      <trkpt lat="46.45807446911931" lon="10.611112732440233">
        <ele>3395.9899999999998</ele>
        <time>2013-07-14T05:12:53Z</time>
      </trkpt>
      <trkpt lat="46.458037588745356" lon="10.611218679696321">
        <ele>3397.4400000000001</ele>
        <time>2013-07-14T05:13:08Z</time>
      </trkpt>
      <trkpt lat="46.458007916808128" lon="10.611319430172443">
        <ele>3400.3200000000002</ele>
        <time>2013-07-14T05:13:27Z</time>
      </trkpt>
      <trkpt lat="46.457960307598114" lon="10.611445913091302">
        <ele>3402.7199999999998</ele>
        <time>2013-07-14T05:13:48Z</time>
      </trkpt>
      <trkpt lat="46.457926109433174" lon="10.611493438482285">
        <ele>3404.1700000000001</ele>
        <time>2013-07-14T05:14:00Z</time>
      </trkpt>
      <trkpt lat="46.457879925146699" lon="10.611504754051566">
        <ele>3406.0900000000001</ele>
        <time>2013-07-14T05:14:13Z</time>
      </trkpt>
      <trkpt lat="46.457821503281593" lon="10.611472986638546">
        <ele>3408.9699999999998</ele>
        <time>2013-07-14T05:14:26Z</time>
      </trkpt>
      <trkpt lat="46.457781689241529" lon="10.611456977203488">
        <ele>3410.4099999999999</ele>
        <time>2013-07-14T05:14:39Z</time>
      </trkpt>
      <trkpt lat="46.457722513005137" lon="10.611434429883957">
        <ele>3412.3400000000001</ele>
        <time>2013-07-14T05:14:56Z</time>
      </trkpt>
      <trkpt lat="46.457670293748379" lon="10.611398555338383">
        <ele>3414.7399999999998</ele>
        <time>2013-07-14T05:15:11Z</time>
      </trkpt>
      <trkpt lat="46.457620672881603" lon="10.611380115151405">
        <ele>3417.1399999999999</ele>
        <time>2013-07-14T05:15:29Z</time>
      </trkpt>
      <trkpt lat="46.457621762529016" lon="10.611382042989135">
        <ele>3417.1399999999999</ele>
        <time>2013-07-14T05:15:45Z</time>
      </trkpt>
      <trkpt lat="46.457583121955395" lon="10.611367290839553">
        <ele>3418.5900000000001</ele>
        <time>2013-07-14T05:16:00Z</time>
      </trkpt>
      <trkpt lat="46.457524951547384" lon="10.611358322203159">
        <ele>3420.9899999999998</ele>
        <time>2013-07-14T05:16:17Z</time>
      </trkpt>
      <trkpt lat="46.45747784525156" lon="10.611332505941391">
        <ele>3422.9099999999999</ele>
        <time>2013-07-14T05:16:33Z</time>
      </trkpt>
      <trkpt lat="46.457403413951397" lon="10.611306270584464">
        <ele>3426.2800000000002</ele>
        <time>2013-07-14T05:16:52Z</time>
      </trkpt>
      <trkpt lat="46.457325043156743" lon="10.611293194815516">
        <ele>3428.6799999999998</ele>
        <time>2013-07-14T05:17:10Z</time>
      </trkpt>
      <trkpt lat="46.457278607413173" lon="10.61124156229198">
        <ele>3430.1199999999999</ele>
        <time>2013-07-14T05:17:25Z</time>
      </trkpt>
      <trkpt lat="46.457215240225196" lon="10.611191857606173">
        <ele>3431.5599999999999</ele>
        <time>2013-07-14T05:17:39Z</time>
      </trkpt>
      <trkpt lat="46.457134941592813" lon="10.61113846488297">
        <ele>3433.9699999999998</ele>
        <time>2013-07-14T05:17:56Z</time>
      </trkpt>
      <trkpt lat="46.45705564878881" lon="10.611098818480968">
        <ele>3436.3699999999999</ele>
        <time>2013-07-14T05:18:16Z</time>
      </trkpt>
      <trkpt lat="46.456986665725708" lon="10.611065542325377">
        <ele>3437.8099999999999</ele>
        <time>2013-07-14T05:18:32Z</time>
      </trkpt>
      <trkpt lat="46.456894548609853" lon="10.611103260889649">
        <ele>3441.1799999999998</ele>
        <time>2013-07-14T05:18:51Z</time>
      </trkpt>
      <trkpt lat="46.45683285780251" lon="10.611142907291651">
        <ele>3442.6199999999999</ele>
        <time>2013-07-14T05:19:04Z</time>
      </trkpt>
      <trkpt lat="46.456790864467621" lon="10.611202418804169">
        <ele>3445.02</ele>
        <time>2013-07-14T05:19:19Z</time>
      </trkpt>
      <trkpt lat="46.456695478409529" lon="10.611285148188472">
        <ele>3446.46</ele>
        <time>2013-07-14T05:19:36Z</time>
      </trkpt>
      <trkpt lat="46.456611072644591" lon="10.611351281404495">
        <ele>3448.3899999999999</ele>
        <time>2013-07-14T05:19:57Z</time>
      </trkpt>
      <trkpt lat="46.456616437062621" lon="10.611342312768102">
        <ele>3448.8699999999999</ele>
        <time>2013-07-14T05:20:11Z</time>
      </trkpt>
      <trkpt lat="46.456614090129733" lon="10.611331751570106">
        <ele>3448.3899999999999</ele>
        <time>2013-07-14T05:20:25Z</time>
      </trkpt>
      <trkpt lat="46.456606797873974" lon="10.61133099719882">
        <ele>3447.9099999999999</ele>
        <time>2013-07-14T05:20:39Z</time>
      </trkpt>
      <trkpt lat="46.456614006310701" lon="10.61133636161685">
        <ele>3447.9099999999999</ele>
        <time>2013-07-14T05:20:57Z</time>
      </trkpt>
      <trkpt lat="46.456621969118714" lon="10.611347258090973">
        <ele>3447.9099999999999</ele>
        <time>2013-07-14T05:21:10Z</time>
      </trkpt>
      <trkpt lat="46.456622136756778" lon="10.611341893672943">
        <ele>3447.9099999999999</ele>
        <time>2013-07-14T05:21:23Z</time>
      </trkpt>
      <trkpt lat="46.456616520881653" lon="10.611337786540389">
        <ele>3447.4299999999998</ele>
        <time>2013-07-14T05:21:34Z</time>
      </trkpt>
      <trkpt lat="46.456621214747429" lon="10.611336696892977">
        <ele>3447.4299999999998</ele>
        <time>2013-07-14T05:21:52Z</time>
      </trkpt>
      <trkpt lat="46.456620208919048" lon="10.611353041604161">
        <ele>3447.9099999999999</ele>
        <time>2013-07-14T05:22:01Z</time>
      </trkpt>
      <trkpt lat="46.456610653549433" lon="10.611359160393476">
        <ele>3448.3899999999999</ele>
        <time>2013-07-14T05:22:20Z</time>
      </trkpt>
      <trkpt lat="46.456614090129733" lon="10.611336696892977">
        <ele>3448.3899999999999</ele>
        <time>2013-07-14T05:22:41Z</time>
      </trkpt>
      <trkpt lat="46.456619538366795" lon="10.611343737691641">
        <ele>3448.8699999999999</ele>
        <time>2013-07-14T05:22:56Z</time>
      </trkpt>
      <trkpt lat="46.456619706004858" lon="10.611351281404495">
        <ele>3448.8699999999999</ele>
        <time>2013-07-14T05:23:15Z</time>
      </trkpt>
      <trkpt lat="46.456610402092338" lon="10.611335523426533">
        <ele>3448.3899999999999</ele>
        <time>2013-07-14T05:23:29Z</time>
      </trkpt>
      <trkpt lat="46.456563966348767" lon="10.611355053260922">
        <ele>3448.8699999999999</ele>
        <time>2013-07-14T05:23:45Z</time>
      </trkpt>
      <trkpt lat="46.456496408209205" lon="10.611442057415843">
        <ele>3450.3099999999999</ele>
        <time>2013-07-14T05:23:58Z</time>
      </trkpt>
      <trkpt lat="46.456435220316052" lon="10.611517913639545">
        <ele>3451.75</ele>
        <time>2013-07-14T05:24:13Z</time>
      </trkpt>
      <trkpt lat="46.456376127898693" lon="10.611569965258241">
        <ele>3452.23</ele>
        <time>2013-07-14T05:24:27Z</time>
      </trkpt>
      <trkpt lat="46.45630856975913" lon="10.611625956371427">
        <ele>3453.1900000000001</ele>
        <time>2013-07-14T05:24:39Z</time>
      </trkpt>
      <trkpt lat="46.45623086951673" lon="10.611736094579101">
        <ele>3453.6700000000001</ele>
        <time>2013-07-14T05:24:55Z</time>
      </trkpt>
      <trkpt lat="46.456142691895366" lon="10.611814465373755">
        <ele>3454.6399999999999</ele>
        <time>2013-07-14T05:25:09Z</time>
      </trkpt>
      <trkpt lat="46.456065410748124" lon="10.611930470913649">
        <ele>3455.5999999999999</ele>
        <time>2013-07-14T05:25:26Z</time>
      </trkpt>
      <trkpt lat="46.455970779061317" lon="10.612049410119653">
        <ele>3457.04</ele>
        <time>2013-07-14T05:25:44Z</time>
      </trkpt>
      <trkpt lat="46.455888971686363" lon="10.612122919410467">
        <ele>3457.04</ele>
        <time>2013-07-14T05:26:00Z</time>
      </trkpt>
      <trkpt lat="46.455781850963831" lon="10.612228279933333">
        <ele>3458</ele>
        <time>2013-07-14T05:26:16Z</time>
      </trkpt>
      <trkpt lat="46.455682693049312" lon="10.612305477261543">
        <ele>3458.48</ele>
        <time>2013-07-14T05:26:32Z</time>
      </trkpt>
      <trkpt lat="46.455595856532454" lon="10.612391643226147">
        <ele>3458.96</ele>
        <time>2013-07-14T05:26:46Z</time>
      </trkpt>
      <trkpt lat="46.455518156290054" lon="10.612506726756692">
        <ele>3459.9200000000001</ele>
        <time>2013-07-14T05:27:02Z</time>
      </trkpt>
      <trkpt lat="46.45543048158288" lon="10.612581828609109">
        <ele>3460.4000000000001</ele>
        <time>2013-07-14T05:27:16Z</time>
      </trkpt>
      <trkpt lat="46.455313805490732" lon="10.612657014280558">
        <ele>3461.3600000000001</ele>
        <time>2013-07-14T05:27:33Z</time>
      </trkpt>
      <trkpt lat="46.455220682546496" lon="10.612738989293575">
        <ele>3462.8099999999999</ele>
        <time>2013-07-14T05:27:50Z</time>
      </trkpt>
      <trkpt lat="46.455139797180891" lon="10.612827837467194">
        <ele>3464.73</ele>
        <time>2013-07-14T05:28:06Z</time>
      </trkpt>
      <trkpt lat="46.455029407516122" lon="10.61290679499507">
        <ele>3466.6500000000001</ele>
        <time>2013-07-14T05:28:25Z</time>
      </trkpt>
      <trkpt lat="46.454952629283071" lon="10.612979549914598">
        <ele>3467.6100000000001</ele>
        <time>2013-07-14T05:28:42Z</time>
      </trkpt>
      <trkpt lat="46.454861601814628" lon="10.613043587654829">
        <ele>3469.54</ele>
        <time>2013-07-14T05:29:01Z</time>
      </trkpt>
      <trkpt lat="46.454770993441343" lon="10.613103434443474">
        <ele>3471.46</ele>
        <time>2013-07-14T05:29:16Z</time>
      </trkpt>
      <trkpt lat="46.454695472493768" lon="10.613138638436794">
        <ele>3472.9000000000001</ele>
        <time>2013-07-14T05:29:31Z</time>
      </trkpt>
      <trkpt lat="46.45462766289711" lon="10.613189768046141">
        <ele>3473.8600000000001</ele>
        <time>2013-07-14T05:29:45Z</time>
      </trkpt>
      <trkpt lat="46.454547867178917" lon="10.61325958929956">
        <ele>3475.7800000000002</ele>
        <time>2013-07-14T05:30:00Z</time>
      </trkpt>
      <trkpt lat="46.454463629052043" lon="10.613315999507904">
        <ele>3477.71</ele>
        <time>2013-07-14T05:30:15Z</time>
      </trkpt>
      <trkpt lat="46.454373607411981" lon="10.613380204886198">
        <ele>3478.6700000000001</ele>
        <time>2013-07-14T05:30:33Z</time>
      </trkpt>
      <trkpt lat="46.454279227182269" lon="10.613457905128598">
        <ele>3480.1100000000001</ele>
        <time>2013-07-14T05:30:50Z</time>
      </trkpt>
      <trkpt lat="46.454173866659403" lon="10.613531330600381">
        <ele>3482.0300000000002</ele>
        <time>2013-07-14T05:31:09Z</time>
      </trkpt>
      <trkpt lat="46.454075295478106" lon="10.613619005307555">
        <ele>3482.9899999999998</ele>
        <time>2013-07-14T05:31:27Z</time>
      </trkpt>
      <trkpt lat="46.453992398455739" lon="10.613677510991693">
        <ele>3484.4400000000001</ele>
        <time>2013-07-14T05:31:41Z</time>
      </trkpt>
      <trkpt lat="46.453896425664425" lon="10.613741045817733">
        <ele>3485.8800000000001</ele>
        <time>2013-07-14T05:31:56Z</time>
      </trkpt>
      <trkpt lat="46.45383607596159" lon="10.613797707483172">
        <ele>3486.3600000000001</ele>
        <time>2013-07-14T05:32:09Z</time>
      </trkpt>
      <trkpt lat="46.453737169504166" lon="10.613845819607377">
        <ele>3487.8000000000002</ele>
        <time>2013-07-14T05:32:25Z</time>
      </trkpt>
      <trkpt lat="46.453639520332217" lon="10.61388898640871">
        <ele>3488.2800000000002</ele>
        <time>2013-07-14T05:32:40Z</time>
      </trkpt>
      <trkpt lat="46.453510858118534" lon="10.61395637691021">
        <ele>3489.2399999999998</ele>
        <time>2013-07-14T05:32:59Z</time>
      </trkpt>
      <trkpt lat="46.453406168147922" lon="10.614002728834748">
        <ele>3490.1999999999998</ele>
        <time>2013-07-14T05:33:13Z</time>
      </trkpt>
      <trkpt lat="46.453314889222383" lon="10.61404044739902">
        <ele>3490.6799999999998</ele>
        <time>2013-07-14T05:33:27Z</time>
      </trkpt>
      <trkpt lat="46.453212546184659" lon="10.614083698019385">
        <ele>3491.6500000000001</ele>
        <time>2013-07-14T05:33:41Z</time>
      </trkpt>
      <trkpt lat="46.453111292794347" lon="10.614125858992338">
        <ele>3492.1300000000001</ele>
        <time>2013-07-14T05:33:55Z</time>
      </trkpt>
      <trkpt lat="46.453016493469477" lon="10.614199200645089">
        <ele>3492.1300000000001</ele>
        <time>2013-07-14T05:34:09Z</time>
      </trkpt>
      <trkpt lat="46.452915156260133" lon="10.614244295284152">
        <ele>3493.0900000000001</ele>
        <time>2013-07-14T05:34:24Z</time>
      </trkpt>
      <trkpt lat="46.452857907861471" lon="10.614281427115202">
        <ele>3492.6100000000001</ele>
        <time>2013-07-14T05:34:33Z</time>
      </trkpt>
      <trkpt lat="46.452771238982677" lon="10.614335741847754">
        <ele>3492.6100000000001</ele>
        <time>2013-07-14T05:34:46Z</time>
      </trkpt>
      <trkpt lat="46.452732011675835" lon="10.614356193691492">
        <ele>3493.0900000000001</ele>
        <time>2013-07-14T05:34:52Z</time>
      </trkpt>
      <trkpt lat="46.452628411352634" lon="10.614398857578635">
        <ele>3493.5700000000002</ele>
        <time>2013-07-14T05:35:05Z</time>
      </trkpt>
      <trkpt lat="46.452610306441784" lon="10.614402880892158">
        <ele>3493.0900000000001</ele>
        <time>2013-07-14T05:35:07Z</time>
      </trkpt>
      <trkpt lat="46.452548196539283" lon="10.614429786801338">
        <ele>3493.0900000000001</ele>
        <time>2013-07-14T05:35:15Z</time>
      </trkpt>
      <trkpt lat="46.452418193221092" lon="10.614484688267112">
        <ele>3493.0900000000001</ele>
        <time>2013-07-14T05:35:31Z</time>
      </trkpt>
      <trkpt lat="46.452311910688877" lon="10.614519976079464">
        <ele>3493.5700000000002</ele>
        <time>2013-07-14T05:35:45Z</time>
      </trkpt>
      <trkpt lat="46.452201521024108" lon="10.61459843069315">
        <ele>3494.5300000000002</ele>
        <time>2013-07-14T05:36:01Z</time>
      </trkpt>
      <trkpt lat="46.452097753062844" lon="10.614688536152244">
        <ele>3495.4899999999998</ele>
        <time>2013-07-14T05:36:18Z</time>
      </trkpt>
      <trkpt lat="46.452032290399075" lon="10.614766320213675">
        <ele>3495.9699999999998</ele>
        <time>2013-07-14T05:36:33Z</time>
      </trkpt>
      <trkpt lat="46.451943861320615" lon="10.614846032112837">
        <ele>3497.8899999999999</ele>
        <time>2013-07-14T05:36:50Z</time>
      </trkpt>
      <trkpt lat="46.451841937378049" lon="10.614955415949225">
        <ele>3499.8200000000002</ele>
        <time>2013-07-14T05:37:10Z</time>
      </trkpt>
      <trkpt lat="46.451760968193412" lon="10.61503722332418">
        <ele>3501.7399999999998</ele>
        <time>2013-07-14T05:37:29Z</time>
      </trkpt>
      <trkpt lat="46.451706737279892" lon="10.615082904696465">
        <ele>3504.1399999999999</ele>
        <time>2013-07-14T05:37:43Z</time>
      </trkpt>
      <trkpt lat="46.45162551663816" lon="10.61516965739429">
        <ele>3506.0700000000002</ele>
        <time>2013-07-14T05:38:01Z</time>
      </trkpt>
      <trkpt lat="46.451549995690584" lon="10.615233108401299">
        <ele>3508.4699999999998</ele>
        <time>2013-07-14T05:38:19Z</time>
      </trkpt>
      <trkpt lat="46.451478749513626" lon="10.615287842229009">
        <ele>3510.3899999999999</ele>
        <time>2013-07-14T05:38:36Z</time>
      </trkpt>
      <trkpt lat="46.451392751187086" lon="10.61534458771348">
        <ele>3512.79</ele>
        <time>2013-07-14T05:38:55Z</time>
      </trkpt>
      <trkpt lat="46.451325612142682" lon="10.615399153903127">
        <ele>3515.1999999999998</ele>
        <time>2013-07-14T05:39:14Z</time>
      </trkpt>
      <trkpt lat="46.45126442424953" lon="10.615440225228667">
        <ele>3517.1199999999999</ele>
        <time>2013-07-14T05:39:28Z</time>
      </trkpt>
      <trkpt lat="46.451217737048864" lon="10.615486660972238">
        <ele>3518.0799999999999</ele>
        <time>2013-07-14T05:39:43Z</time>
      </trkpt>
      <trkpt lat="46.451160572469234" lon="10.615500658750534">
        <ele>3520</ele>
        <time>2013-07-14T05:39:56Z</time>
      </trkpt>
      <trkpt lat="46.451107095927" lon="10.615552794188261">
        <ele>3520.9699999999998</ele>
        <time>2013-07-14T05:40:07Z</time>
      </trkpt>
      <trkpt lat="46.451030988246202" lon="10.615616077557206">
        <ele>3523.3699999999999</ele>
        <time>2013-07-14T05:40:26Z</time>
      </trkpt>
      <trkpt lat="46.450961837545037" lon="10.615667207166553">
        <ele>3524.8099999999999</ele>
        <time>2013-07-14T05:40:39Z</time>
      </trkpt>
      <trkpt lat="46.450865780934691" lon="10.615756474435329">
        <ele>3526.25</ele>
        <time>2013-07-14T05:40:54Z</time>
      </trkpt>
      <trkpt lat="46.450797384604812" lon="10.615798300132155">
        <ele>3528.1799999999998</ele>
        <time>2013-07-14T05:41:12Z</time>
      </trkpt>
      <trkpt lat="46.450711637735367" lon="10.615861332044005">
        <ele>3530.0999999999999</ele>
        <time>2013-07-14T05:41:29Z</time>
      </trkpt>
      <trkpt lat="46.450635446235538" lon="10.615912629291415">
        <ele>3531.0599999999999</ele>
        <time>2013-07-14T05:41:42Z</time>
      </trkpt>
      <trkpt lat="46.450545340776443" lon="10.615962417796254">
        <ele>3532.5</ele>
        <time>2013-07-14T05:41:58Z</time>
      </trkpt>
      <trkpt lat="46.4504733402282" lon="10.616015559062362">
        <ele>3533.9400000000001</ele>
        <time>2013-07-14T05:42:14Z</time>
      </trkpt>
      <trkpt lat="46.450435454025865" lon="10.616051936522126">
        <ele>3534.4200000000001</ele>
        <time>2013-07-14T05:42:20Z</time>
      </trkpt>
      <trkpt lat="46.450323220342398" lon="10.616123182699084">
        <ele>3535.8699999999999</ele>
        <time>2013-07-14T05:42:36Z</time>
      </trkpt>
      <trkpt lat="46.45025490783155" lon="10.616170037537813">
        <ele>3537.3099999999999</ele>
        <time>2013-07-14T05:42:52Z</time>
      </trkpt>
      <trkpt lat="46.450168071314692" lon="10.616242792457342">
        <ele>3539.23</ele>
        <time>2013-07-14T05:43:10Z</time>
      </trkpt>
      <trkpt lat="46.450065644457936" lon="10.616307584568858">
        <ele>3540.6700000000001</ele>
        <time>2013-07-14T05:43:26Z</time>
      </trkpt>
      <trkpt lat="46.449999008327723" lon="10.61636726371944">
        <ele>3542.5999999999999</ele>
        <time>2013-07-14T05:43:41Z</time>
      </trkpt>
      <trkpt lat="46.449922900646925" lon="10.616420740261674">
        <ele>3544.04</ele>
        <time>2013-07-14T05:43:57Z</time>
      </trkpt>
      <trkpt lat="46.449846709147096" lon="10.616474635899067">
        <ele>3545.48</ele>
        <time>2013-07-14T05:44:12Z</time>
      </trkpt>
      <trkpt lat="46.449760878458619" lon="10.616539092734456">
        <ele>3546.9200000000001</ele>
        <time>2013-07-14T05:44:29Z</time>
      </trkpt>
      <trkpt lat="46.449673874303699" lon="10.616599610075355">
        <ele>3548.3600000000001</ele>
        <time>2013-07-14T05:44:44Z</time>
      </trkpt>
      <trkpt lat="46.449568932875991" lon="10.616658953949809">
        <ele>3549.8099999999999</ele>
        <time>2013-07-14T05:45:01Z</time>
      </trkpt>
      <trkpt lat="46.449491903185844" lon="10.61671519652009">
        <ele>3551.25</ele>
        <time>2013-07-14T05:45:16Z</time>
      </trkpt>
      <trkpt lat="46.44939785823226" lon="10.616794908419251">
        <ele>3553.1700000000001</ele>
        <time>2013-07-14T05:45:33Z</time>
      </trkpt>
      <trkpt lat="46.449314542114735" lon="10.616854755207896">
        <ele>3554.6100000000001</ele>
        <time>2013-07-14T05:45:50Z</time>
      </trkpt>
      <trkpt lat="46.449249917641282" lon="10.616905884817243">
        <ele>3555.5700000000002</ele>
        <time>2013-07-14T05:46:07Z</time>
      </trkpt>
      <trkpt lat="46.449160566553473" lon="10.616973275318742">
        <ele>3557.5</ele>
        <time>2013-07-14T05:46:25Z</time>
      </trkpt>
      <trkpt lat="46.449057469144464" lon="10.617052735760808">
        <ele>3559.4200000000001</ele>
        <time>2013-07-14T05:46:44Z</time>
      </trkpt>
      <trkpt lat="46.448972309008241" lon="10.617101853713393">
        <ele>3559.9000000000001</ele>
        <time>2013-07-14T05:46:58Z</time>
      </trkpt>
      <trkpt lat="46.448937859386206" lon="10.617102440446615">
        <ele>3560.8600000000001</ele>
        <time>2013-07-14T05:47:11Z</time>
      </trkpt>
      <trkpt lat="46.448922771960497" lon="10.617123059928417">
        <ele>3561.3400000000001</ele>
        <time>2013-07-14T05:47:28Z</time>
      </trkpt>
      <trkpt lat="46.448926795274019" lon="10.61710168607533">
        <ele>3560.8600000000001</ele>
        <time>2013-07-14T05:47:44Z</time>
      </trkpt>
      <trkpt lat="46.448932243511081" lon="10.617094058543444">
        <ele>3561.3400000000001</ele>
        <time>2013-07-14T05:47:57Z</time>
      </trkpt>
      <trkpt lat="46.448937607929111" lon="10.61709682457149">
        <ele>3560.8600000000001</ele>
        <time>2013-07-14T05:48:00Z</time>
      </trkpt>
      <trkpt lat="46.448945738375187" lon="10.617097998037934">
        <ele>3560.3800000000001</ele>
        <time>2013-07-14T05:48:14Z</time>
      </trkpt>
      <trkpt lat="46.448934422805905" lon="10.617105374112725">
        <ele>3560.3800000000001</ele>
        <time>2013-07-14T05:48:50Z</time>
      </trkpt>
      <trkpt lat="46.448943056166172" lon="10.617083162069321">
        <ele>3560.3800000000001</ele>
        <time>2013-07-14T05:49:32Z</time>
      </trkpt>
      <trkpt lat="46.448933416977525" lon="10.617072600871325">
        <ele>3560.8600000000001</ele>
        <time>2013-07-14T05:49:40Z</time>
      </trkpt>
      <trkpt lat="46.44894246943295" lon="10.617101266980171">
        <ele>3561.3400000000001</ele>
        <time>2013-07-14T05:49:55Z</time>
      </trkpt>
      <trkpt lat="46.448946492746472" lon="10.617110319435596">
        <ele>3561.3400000000001</ele>
        <time>2013-07-14T05:50:34Z</time>
      </trkpt>
      <trkpt lat="46.448925202712417" lon="10.617105457931757">
        <ele>3561.3400000000001</ele>
        <time>2013-07-14T05:50:54Z</time>
      </trkpt>
      <trkpt lat="46.448925957083702" lon="10.617107385769486">
        <ele>3561.3400000000001</ele>
        <time>2013-07-14T05:51:07Z</time>
      </trkpt>
      <trkpt lat="46.448935680091381" lon="10.617136303335428">
        <ele>3561.3400000000001</ele>
        <time>2013-07-14T05:51:23Z</time>
      </trkpt>
      <trkpt lat="46.448932914063334" lon="10.617145355790854">
        <ele>3560.3800000000001</ele>
        <time>2013-07-14T05:51:40Z</time>
      </trkpt>
      <trkpt lat="46.448955880478024" lon="10.617147283628583">
        <ele>3560.3800000000001</ele>
        <time>2013-07-14T05:51:58Z</time>
      </trkpt>
      <trkpt lat="46.448936350643635" lon="10.617144349962473">
        <ele>3559.9000000000001</ele>
        <time>2013-07-14T05:52:13Z</time>
      </trkpt>
      <trkpt lat="46.448897877708077" lon="10.617221966385841">
        <ele>3560.8600000000001</ele>
        <time>2013-07-14T05:52:24Z</time>
      </trkpt>
      <trkpt lat="46.448885053396225" lon="10.617234790697694">
        <ele>3561.3400000000001</ele>
        <time>2013-07-14T05:52:26Z</time>
      </trkpt>
      <trkpt lat="46.448879605159163" lon="10.617244346067309">
        <ele>3561.8200000000002</ele>
        <time>2013-07-14T05:52:36Z</time>
      </trkpt>
      <trkpt lat="46.448831409215927" lon="10.61729958280921">
        <ele>3562.7800000000002</ele>
        <time>2013-07-14T05:52:48Z</time>
      </trkpt>
      <trkpt lat="46.448774663731456" lon="10.617349287495017">
        <ele>3563.2600000000002</ele>
        <time>2013-07-14T05:53:00Z</time>
      </trkpt>
      <trkpt lat="46.448727557435632" lon="10.617379629984498">
        <ele>3564.23</ele>
        <time>2013-07-14T05:53:12Z</time>
      </trkpt>
      <trkpt lat="46.448660083115101" lon="10.617444925010204">
        <ele>3564.71</ele>
        <time>2013-07-14T05:53:28Z</time>
      </trkpt>
      <trkpt lat="46.4486238732934" lon="10.617467975243926">
        <ele>3566.1500000000001</ele>
        <time>2013-07-14T05:53:39Z</time>
      </trkpt>
      <trkpt lat="46.448582215234637" lon="10.617512734606862">
        <ele>3566.6300000000001</ele>
        <time>2013-07-14T05:53:52Z</time>
      </trkpt>
      <trkpt lat="46.448511723428965" lon="10.617555733770132">
        <ele>3569.0300000000002</ele>
        <time>2013-07-14T05:54:09Z</time>
      </trkpt>
      <trkpt lat="46.448459504172206" lon="10.617603426799178">
        <ele>3569.9899999999998</ele>
        <time>2013-07-14T05:54:24Z</time>
      </trkpt>
      <trkpt lat="46.448424551635981" lon="10.617623459547758">
        <ele>3570.9499999999998</ele>
        <time>2013-07-14T05:54:35Z</time>
      </trkpt>
      <trkpt lat="46.448367638513446" lon="10.617659920826554">
        <ele>3571.9200000000001</ele>
        <time>2013-07-14T05:54:49Z</time>
      </trkpt>
      <trkpt lat="46.448322711512446" lon="10.617689676582813">
        <ele>3574.3200000000002</ele>
        <time>2013-07-14T05:55:04Z</time>
      </trkpt>
      <trkpt lat="46.448267139494419" lon="10.61772714368999">
        <ele>3575.2800000000002</ele>
        <time>2013-07-14T05:55:19Z</time>
      </trkpt>
      <trkpt lat="46.448211399838328" lon="10.617757653817534">
        <ele>3576.7199999999998</ele>
        <time>2013-07-14T05:55:34Z</time>
      </trkpt>
      <trkpt lat="46.448154235258698" lon="10.617800485342741">
        <ele>3578.1599999999999</ele>
        <time>2013-07-14T05:55:49Z</time>
      </trkpt>
      <trkpt lat="46.448106039315462" lon="10.617815069854259">
        <ele>3579.1300000000001</ele>
        <time>2013-07-14T05:56:03Z</time>
      </trkpt>
      <trkpt lat="46.448054658249021" lon="10.617846082895994">
        <ele>3581.0500000000002</ele>
        <time>2013-07-14T05:56:17Z</time>
      </trkpt>
      <trkpt lat="46.448006713762879" lon="10.617889165878296">
        <ele>3582.4899999999998</ele>
        <time>2013-07-14T05:56:31Z</time>
      </trkpt>
      <trkpt lat="46.447944771498442" lon="10.617899559438229">
        <ele>3583.9299999999998</ele>
        <time>2013-07-14T05:56:46Z</time>
      </trkpt>
      <trkpt lat="46.447900682687759" lon="10.617933589965105">
        <ele>3585.8499999999999</ele>
        <time>2013-07-14T05:57:00Z</time>
      </trkpt>
      <trkpt lat="46.447869166731834" lon="10.617991676554084">
        <ele>3587.3000000000002</ele>
        <time>2013-07-14T05:57:15Z</time>
      </trkpt>
      <trkpt lat="46.44782105460763" lon="10.618031742051244">
        <ele>3588.7399999999998</ele>
        <time>2013-07-14T05:57:30Z</time>
      </trkpt>
      <trkpt lat="46.447763303294778" lon="10.61807943508029">
        <ele>3590.6599999999999</ele>
        <time>2013-07-14T05:57:49Z</time>
      </trkpt>
      <trkpt lat="46.447719717398286" lon="10.618125200271606">
        <ele>3592.0999999999999</ele>
        <time>2013-07-14T05:58:03Z</time>
      </trkpt>
      <trkpt lat="46.447665905579925" lon="10.618166355416179">
        <ele>3594.0300000000002</ele>
        <time>2013-07-14T05:58:17Z</time>
      </trkpt>
      <trkpt lat="46.447624415159225" lon="10.618204912170768">
        <ele>3595.4699999999998</ele>
        <time>2013-07-14T05:58:29Z</time>
      </trkpt>
      <trkpt lat="46.447569765150547" lon="10.618245732039213">
        <ele>3596.9099999999999</ele>
        <time>2013-07-14T05:58:42Z</time>
      </trkpt>
      <trkpt lat="46.447511427104473" lon="10.618282528594136">
        <ele>3598.8299999999999</ele>
        <time>2013-07-14T05:58:56Z</time>
      </trkpt>
      <trkpt lat="46.44745702855289" lon="10.618320750072598">
        <ele>3599.79</ele>
        <time>2013-07-14T05:59:09Z</time>
      </trkpt>
      <trkpt lat="46.447396343573928" lon="10.618326114490628">
        <ele>3600.27</ele>
        <time>2013-07-14T05:59:22Z</time>
      </trkpt>
      <trkpt lat="46.447357451543212" lon="10.61832913197577">
        <ele>3601.7199999999998</ele>
        <time>2013-07-14T05:59:34Z</time>
      </trkpt>
      <trkpt lat="46.447280254215002" lon="10.61832862906158">
        <ele>3602.6799999999998</ele>
        <time>2013-07-14T05:59:48Z</time>
      </trkpt>
      <trkpt lat="46.447217725217342" lon="10.618324941024184">
        <ele>3604.5999999999999</ele>
        <time>2013-07-14T06:00:04Z</time>
      </trkpt>
      <trkpt lat="46.447167098522186" lon="10.618334747850895">
        <ele>3606.04</ele>
        <time>2013-07-14T06:00:19Z</time>
      </trkpt>
      <trkpt lat="46.447114627808332" lon="10.618342543020844">
        <ele>3607.48</ele>
        <time>2013-07-14T06:00:33Z</time>
      </trkpt>
      <trkpt lat="46.447067437693477" lon="10.618345644325018">
        <ele>3608.9299999999998</ele>
        <time>2013-07-14T06:00:46Z</time>
      </trkpt>
      <trkpt lat="46.447018487378955" lon="10.618354361504316">
        <ele>3609.8899999999999</ele>
        <time>2013-07-14T06:01:01Z</time>
      </trkpt>
      <trkpt lat="46.446967190131545" lon="10.618353774771094">
        <ele>3611.3299999999999</ele>
        <time>2013-07-14T06:01:14Z</time>
      </trkpt>
      <trkpt lat="46.446934165433049" lon="10.618344722315669">
        <ele>3612.77</ele>
        <time>2013-07-14T06:01:38Z</time>
      </trkpt>
      <trkpt lat="46.446874151006341" lon="10.618344387039542">
        <ele>3614.21</ele>
        <time>2013-07-14T06:01:51Z</time>
      </trkpt>
      <trkpt lat="46.446825871244073" lon="10.618330305442214">
        <ele>3615.6599999999999</ele>
        <time>2013-07-14T06:02:05Z</time>
      </trkpt>
      <trkpt lat="46.446798630058765" lon="10.618301387876272">
        <ele>3616.6199999999999</ele>
        <time>2013-07-14T06:02:25Z</time>
      </trkpt>
      <trkpt lat="46.446801815181971" lon="10.618309769779444">
        <ele>3616.6199999999999</ele>
        <time>2013-07-14T06:02:39Z</time>
      </trkpt>
      <trkpt lat="46.446800893172622" lon="10.618303148075938">
        <ele>3617.0999999999999</ele>
        <time>2013-07-14T06:02:57Z</time>
      </trkpt>
      <trkpt lat="46.446758983656764" lon="10.618286803364754">
        <ele>3618.0599999999999</ele>
        <time>2013-07-14T06:03:14Z</time>
      </trkpt>
      <trkpt lat="46.446741046383977" lon="10.618278672918677">
        <ele>3618.54</ele>
        <time>2013-07-14T06:03:32Z</time>
      </trkpt>
      <trkpt lat="46.446727635338902" lon="10.618252689018846">
        <ele>3619.98</ele>
        <time>2013-07-14T06:03:48Z</time>
      </trkpt>
      <trkpt lat="46.446683881804347" lon="10.618210611864924">
        <ele>3621.4200000000001</ele>
        <time>2013-07-14T06:04:03Z</time>
      </trkpt>
      <trkpt lat="46.446685055270791" lon="10.618204325437546">
        <ele>3621.4200000000001</ele>
        <time>2013-07-14T06:04:33Z</time>
      </trkpt>
      <trkpt lat="46.44664004445076" lon="10.618151435628533">
        <ele>3622.3800000000001</ele>
        <time>2013-07-14T06:04:50Z</time>
      </trkpt>
      <trkpt lat="46.446630572900176" lon="10.618172055110335">
        <ele>3624.3099999999999</ele>
        <time>2013-07-14T06:05:04Z</time>
      </trkpt>
      <trkpt lat="46.446637529879808" lon="10.618200721219182">
        <ele>3626.23</ele>
        <time>2013-07-14T06:05:19Z</time>
      </trkpt>
      <trkpt lat="46.446622777730227" lon="10.618269201368093">
        <ele>3628.6300000000001</ele>
        <time>2013-07-14T06:05:34Z</time>
      </trkpt>
      <trkpt lat="46.446623113006353" lon="10.618280684575438">
        <ele>3629.5900000000001</ele>
        <time>2013-07-14T06:05:47Z</time>
      </trkpt>
      <trkpt lat="46.446600565686822" lon="10.618362408131361">
        <ele>3631.52</ele>
        <time>2013-07-14T06:06:01Z</time>
      </trkpt>
      <trkpt lat="46.446590423583984" lon="10.618391828611493">
        <ele>3633.4400000000001</ele>
        <time>2013-07-14T06:06:13Z</time>
      </trkpt>
      <trkpt lat="46.446582963690162" lon="10.618393169716001">
        <ele>3633.4400000000001</ele>
        <time>2013-07-14T06:06:32Z</time>
      </trkpt>
      <trkpt lat="46.44657357595861" lon="10.618441449478269">
        <ele>3634.8800000000001</ele>
        <time>2013-07-14T06:06:45Z</time>
      </trkpt>
      <trkpt lat="46.446570223197341" lon="10.618462236598134">
        <ele>3635.8400000000001</ele>
        <time>2013-07-14T06:07:01Z</time>
      </trkpt>
      <trkpt lat="46.446561254560947" lon="10.618499284610152">
        <ele>3636.8099999999999</ele>
        <time>2013-07-14T06:07:15Z</time>
      </trkpt>
      <trkpt lat="46.446552621200681" lon="10.618530130013824">
        <ele>3638.25</ele>
        <time>2013-07-14T06:07:30Z</time>
      </trkpt>
      <trkpt lat="46.446544993668795" lon="10.61855879612267">
        <ele>3639.6900000000001</ele>
        <time>2013-07-14T06:07:48Z</time>
      </trkpt>
      <trkpt lat="46.446529487147927" lon="10.618618810549378">
        <ele>3641.6100000000001</ele>
        <time>2013-07-14T06:08:02Z</time>
      </trkpt>
      <trkpt lat="46.446527475491166" lon="10.618625516071916">
        <ele>3643.0500000000002</ele>
        <time>2013-07-14T06:08:20Z</time>
      </trkpt>
      <trkpt lat="46.446520267054439" lon="10.618637669831514">
        <ele>3644.0100000000002</ele>
        <time>2013-07-14T06:08:39Z</time>
      </trkpt>
      <trkpt lat="46.44651741720736" lon="10.618687961250544">
        <ele>3644.98</ele>
        <time>2013-07-14T06:08:56Z</time>
      </trkpt>
      <trkpt lat="46.446506520733237" lon="10.618719309568405">
        <ele>3646.4200000000001</ele>
        <time>2013-07-14T06:09:07Z</time>
      </trkpt>
      <trkpt lat="46.446477435529232" lon="10.618758453056216">
        <ele>3648.3400000000001</ele>
        <time>2013-07-14T06:09:17Z</time>
      </trkpt>
      <trkpt lat="46.446459330618382" lon="10.618717968463898">
        <ele>3649.3000000000002</ele>
        <time>2013-07-14T06:09:35Z</time>
      </trkpt>
      <trkpt lat="46.446455055847764" lon="10.618681255728006">
        <ele>3650.2600000000002</ele>
        <time>2013-07-14T06:09:55Z</time>
      </trkpt>
      <trkpt lat="46.446454636752605" lon="10.618673041462898">
        <ele>3650.7399999999998</ele>
        <time>2013-07-14T06:10:12Z</time>
      </trkpt>
      <trkpt lat="46.446439884603024" lon="10.61866533011198">
        <ele>3651.2199999999998</ele>
        <time>2013-07-14T06:10:38Z</time>
      </trkpt>
      <trkpt lat="46.446441058069468" lon="10.618667174130678">
        <ele>3650.2600000000002</ele>
        <time>2013-07-14T06:11:04Z</time>
      </trkpt>
      <trkpt lat="46.446447344496846" lon="10.618651499971747">
        <ele>3650.7399999999998</ele>
        <time>2013-07-14T06:11:25Z</time>
      </trkpt>
      <trkpt lat="46.446443405002356" lon="10.61867262236774">
        <ele>3651.71</ele>
        <time>2013-07-14T06:11:53Z</time>
      </trkpt>
      <trkpt lat="46.446415660902858" lon="10.618643201887608">
        <ele>3654.1100000000001</ele>
        <time>2013-07-14T06:12:01Z</time>
      </trkpt>
      <trkpt lat="46.446389174088836" lon="10.618596347048879">
        <ele>3657.4699999999998</ele>
        <time>2013-07-14T06:12:12Z</time>
      </trkpt>
      <trkpt lat="46.446366040036082" lon="10.618567513301969">
        <ele>3657.9499999999998</ele>
        <time>2013-07-14T06:12:31Z</time>
      </trkpt>
      <trkpt lat="46.446353970095515" lon="10.618538428097963">
        <ele>3658.9200000000001</ele>
        <time>2013-07-14T06:12:46Z</time>
      </trkpt>
      <trkpt lat="46.44633418880403" lon="10.618542870506644">
        <ele>3659.4000000000001</ele>
        <time>2013-07-14T06:13:06Z</time>
      </trkpt>
      <trkpt lat="46.4462960511446" lon="10.618472546339035">
        <ele>3661.3200000000002</ele>
        <time>2013-07-14T06:13:22Z</time>
      </trkpt>
      <trkpt lat="46.446293704211712" lon="10.618443712592125">
        <ele>3662.2800000000002</ele>
        <time>2013-07-14T06:13:34Z</time>
      </trkpt>
      <trkpt lat="46.446272078901529" lon="10.618426278233528">
        <ele>3662.7600000000002</ele>
        <time>2013-07-14T06:13:50Z</time>
      </trkpt>
      <trkpt lat="46.446243999525905" lon="10.618360647931695">
        <ele>3664.6799999999998</ele>
        <time>2013-07-14T06:14:06Z</time>
      </trkpt>
      <trkpt lat="46.446216171607375" lon="10.618292670696974">
        <ele>3665.1599999999999</ele>
        <time>2013-07-14T06:14:19Z</time>
      </trkpt>
      <trkpt lat="46.446190942078829" lon="10.618209103122354">
        <ele>3665.6399999999999</ele>
        <time>2013-07-14T06:14:33Z</time>
      </trkpt>
      <trkpt lat="46.446177866309881" lon="10.618165517225862">
        <ele>3667.0900000000001</ele>
        <time>2013-07-14T06:14:47Z</time>
      </trkpt>
      <trkpt lat="46.446149200201035" lon="10.618132241070271">
        <ele>3669.4899999999998</ele>
        <time>2013-07-14T06:15:00Z</time>
      </trkpt>
      <trkpt lat="46.446105530485511" lon="10.61811757273972">
        <ele>3671.8899999999999</ele>
        <time>2013-07-14T06:15:12Z</time>
      </trkpt>
      <trkpt lat="46.446063704788685" lon="10.618099300190806">
        <ele>3674.7800000000002</ele>
        <time>2013-07-14T06:15:26Z</time>
      </trkpt>
      <trkpt lat="46.446037385612726" lon="10.618081111460924">
        <ele>3676.2199999999998</ele>
        <time>2013-07-14T06:15:38Z</time>
      </trkpt>
      <trkpt lat="46.44600628875196" lon="10.618058396503329">
        <ele>3677.1799999999998</ele>
        <time>2013-07-14T06:15:49Z</time>
      </trkpt>
      <trkpt lat="46.445983406156301" lon="10.618048757314682">
        <ele>3679.0999999999999</ele>
        <time>2013-07-14T06:16:02Z</time>
      </trkpt>
      <trkpt lat="46.445943927392364" lon="10.618044901639223">
        <ele>3680.54</ele>
        <time>2013-07-14T06:16:16Z</time>
      </trkpt>
      <trkpt lat="46.445919703692198" lon="10.618046578019857">
        <ele>3682.4699999999998</ele>
        <time>2013-07-14T06:16:29Z</time>
      </trkpt>
      <trkpt lat="46.445900006219745" lon="10.618046242743731">
        <ele>3683.9099999999999</ele>
        <time>2013-07-14T06:16:42Z</time>
      </trkpt>
      <trkpt lat="46.445903861895204" lon="10.618055546656251">
        <ele>3685.3499999999999</ele>
        <time>2013-07-14T06:16:56Z</time>
      </trkpt>
      <trkpt lat="46.445890367031097" lon="10.618015984073281">
        <ele>3685.8299999999999</ele>
        <time>2013-07-14T06:17:08Z</time>
      </trkpt>
      <trkpt lat="46.445852564647794" lon="10.618020677939057">
        <ele>3688.2399999999998</ele>
        <time>2013-07-14T06:17:21Z</time>
      </trkpt>
      <trkpt lat="46.445827670395374" lon="10.618046326562762">
        <ele>3690.1599999999999</ele>
        <time>2013-07-14T06:17:33Z</time>
      </trkpt>
      <trkpt lat="46.445812582969666" lon="10.618084883317351">
        <ele>3692.0799999999999</ele>
        <time>2013-07-14T06:17:43Z</time>
      </trkpt>
      <trkpt lat="46.445787604898214" lon="10.618072897195816">
        <ele>3693.04</ele>
        <time>2013-07-14T06:17:56Z</time>
      </trkpt>
      <trkpt lat="46.445754496380687" lon="10.618078429251909">
        <ele>3694.48</ele>
        <time>2013-07-14T06:18:11Z</time>
      </trkpt>
      <trkpt lat="46.445740666240454" lon="10.618087146431208">
        <ele>3696.8899999999999</ele>
        <time>2013-07-14T06:18:22Z</time>
      </trkpt>
      <trkpt lat="46.445711748674512" lon="10.61808186583221">
        <ele>3697.8499999999999</ele>
        <time>2013-07-14T06:18:33Z</time>
      </trkpt>
      <trkpt lat="46.445689536631107" lon="10.618086224421859">
        <ele>3699.77</ele>
        <time>2013-07-14T06:18:45Z</time>
      </trkpt>
      <trkpt lat="46.445674365386367" lon="10.618092091754079">
        <ele>3700.73</ele>
        <time>2013-07-14T06:18:55Z</time>
      </trkpt>
      <trkpt lat="46.445653075352311" lon="10.618097120895982">
        <ele>3703.1399999999999</ele>
        <time>2013-07-14T06:19:07Z</time>
      </trkpt>
      <trkpt lat="46.445625415071845" lon="10.618109107017517">
        <ele>3704.5799999999999</ele>
        <time>2013-07-14T06:19:18Z</time>
      </trkpt>
      <trkpt lat="46.445595240220428" lon="10.618103658780456">
        <ele>3706.02</ele>
        <time>2013-07-14T06:19:30Z</time>
      </trkpt>
      <trkpt lat="46.44557872787118" lon="10.618109526112676">
        <ele>3707.46</ele>
        <time>2013-07-14T06:19:44Z</time>
      </trkpt>
      <trkpt lat="46.44555676728487" lon="10.618129726499319">
        <ele>3709.8699999999999</ele>
        <time>2013-07-14T06:19:56Z</time>
      </trkpt>
      <trkpt lat="46.445562718436122" lon="10.61814783141017">
        <ele>3709.8699999999999</ele>
        <time>2013-07-14T06:20:07Z</time>
      </trkpt>
      <trkpt lat="46.445563891902566" lon="10.61820256523788">
        <ele>3710.3499999999999</ele>
        <time>2013-07-14T06:20:22Z</time>
      </trkpt>
      <trkpt lat="46.445567747578025" lon="10.618230644613504">
        <ele>3712.27</ele>
        <time>2013-07-14T06:20:32Z</time>
      </trkpt>
      <trkpt lat="46.445566657930613" lon="10.618241038173437">
        <ele>3711.3099999999999</ele>
        <time>2013-07-14T06:20:37Z</time>
      </trkpt>
      <trkpt lat="46.445567831397057" lon="10.618243385106325">
        <ele>3712.75</ele>
        <time>2013-07-14T06:20:39Z</time>
      </trkpt>
      <trkpt lat="46.445557186380029" lon="10.618234248831868">
        <ele>3714.1900000000001</ele>
        <time>2013-07-14T06:20:54Z</time>
      </trkpt>
      <trkpt lat="46.44555919803679" lon="10.618225280195475">
        <ele>3712.27</ele>
        <time>2013-07-14T06:21:04Z</time>
      </trkpt>
      <trkpt lat="46.445560455322266" lon="10.618242211639881">
        <ele>3713.71</ele>
        <time>2013-07-14T06:21:07Z</time>
      </trkpt>
      <trkpt lat="46.445557605475187" lon="10.618295185267925">
        <ele>3715.6300000000001</ele>
        <time>2013-07-14T06:21:12Z</time>
      </trkpt>
      <trkpt lat="46.445534639060497" lon="10.618298035115004">
        <ele>3717.5599999999999</ele>
        <time>2013-07-14T06:21:23Z</time>
      </trkpt>
      <trkpt lat="46.44549029879272" lon="10.618282444775105">
        <ele>3719</ele>
        <time>2013-07-14T06:21:39Z</time>
      </trkpt>
      <trkpt lat="46.445487281307578" lon="10.618282528594136">
        <ele>3719.48</ele>
        <time>2013-07-14T06:21:40Z</time>
      </trkpt>
      <trkpt lat="46.445466158911586" lon="10.618252521380782">
        <ele>3719</ele>
        <time>2013-07-14T06:21:51Z</time>
      </trkpt>
      <trkpt lat="46.445466494187713" lon="10.618245899677277">
        <ele>3720.9200000000001</ele>
        <time>2013-07-14T06:22:01Z</time>
      </trkpt>
      <trkpt lat="46.445466158911586" lon="10.61823240481317">
        <ele>3719.48</ele>
        <time>2013-07-14T06:22:20Z</time>
      </trkpt>
      <trkpt lat="46.445465655997396" lon="10.618233326822519">
        <ele>3720.9200000000001</ele>
        <time>2013-07-14T06:22:24Z</time>
      </trkpt>
      <trkpt lat="46.445446712896228" lon="10.618239361792803">
        <ele>3721.8800000000001</ele>
        <time>2013-07-14T06:22:37Z</time>
      </trkpt>
      <trkpt lat="46.445391476154327" lon="10.618239948526025">
        <ele>3724.77</ele>
        <time>2013-07-14T06:22:50Z</time>
      </trkpt>
      <trkpt lat="46.445378568023443" lon="10.618223184719682">
        <ele>3725.25</ele>
        <time>2013-07-14T06:23:08Z</time>
      </trkpt>
      <trkpt lat="46.445361049845815" lon="10.618213042616844">
        <ele>3723.8000000000002</ele>
        <time>2013-07-14T06:23:20Z</time>
      </trkpt>
      <trkpt lat="46.445347722619772" lon="10.61822846531868">
        <ele>3723.8000000000002</ele>
        <time>2013-07-14T06:23:38Z</time>
      </trkpt>
      <trkpt lat="46.445306148380041" lon="10.61820357106626">
        <ele>3724.2800000000002</ele>
        <time>2013-07-14T06:23:50Z</time>
      </trkpt>
      <trkpt lat="46.445279326289892" lon="10.618155207484961">
        <ele>3724.77</ele>
        <time>2013-07-14T06:24:02Z</time>
      </trkpt>
      <trkpt lat="46.445276057347655" lon="10.61812930740416">
        <ele>3728.6100000000001</ele>
        <time>2013-07-14T06:24:21Z</time>
      </trkpt>
      <trkpt lat="46.445263400673866" lon="10.61812000349164">
        <ele>3731.4899999999998</ele>
        <time>2013-07-14T06:24:24Z</time>
      </trkpt>
      <trkpt lat="46.445207074284554" lon="10.618048505857587">
        <ele>3734.8600000000001</ele>
        <time>2013-07-14T06:24:38Z</time>
      </trkpt>
      <trkpt lat="46.445201877504587" lon="10.618042470887303">
        <ele>3734.8600000000001</ele>
        <time>2013-07-14T06:24:39Z</time>
      </trkpt>
      <trkpt lat="46.44516390748322" lon="10.618002573028207">
        <ele>3731.0100000000002</ele>
        <time>2013-07-14T06:24:47Z</time>
      </trkpt>
      <trkpt lat="46.445157453417778" lon="10.617996118962765">
        <ele>3731.0100000000002</ele>
        <time>2013-07-14T06:24:48Z</time>
      </trkpt>
      <trkpt lat="46.445085452869534" lon="10.617905929684639">
        <ele>3731.4899999999998</ele>
        <time>2013-07-14T06:25:04Z</time>
      </trkpt>
      <trkpt lat="46.445037927478552" lon="10.617855722084641">
        <ele>3733.4200000000001</ele>
        <time>2013-07-14T06:25:19Z</time>
      </trkpt>
      <trkpt lat="46.44497087225318" lon="10.617811214178801">
        <ele>3732.46</ele>
        <time>2013-07-14T06:25:34Z</time>
      </trkpt>
      <trkpt lat="46.444927286356688" lon="10.617789588868618">
        <ele>3730.0500000000002</ele>
        <time>2013-07-14T06:25:48Z</time>
      </trkpt>
      <trkpt lat="46.444919072091579" lon="10.617783889174461">
        <ele>3731.98</ele>
        <time>2013-07-14T06:25:55Z</time>
      </trkpt>
      <trkpt lat="46.444865595549345" lon="10.617810459807515">
        <ele>3734.3800000000001</ele>
        <time>2013-07-14T06:26:09Z</time>
      </trkpt>
      <trkpt lat="46.444780016317964" lon="10.617815069854259">
        <ele>3736.7800000000002</ele>
        <time>2013-07-14T06:26:24Z</time>
      </trkpt>
      <trkpt lat="46.444743806496263" lon="10.617801072075963">
        <ele>3739.6700000000001</ele>
        <time>2013-07-14T06:26:34Z</time>
      </trkpt>
      <trkpt lat="46.444721091538668" lon="10.617775255814195">
        <ele>3742.0700000000002</ele>
        <time>2013-07-14T06:26:47Z</time>
      </trkpt>
      <trkpt lat="46.444681528955698" lon="10.617740303277969">
        <ele>3743.5100000000002</ele>
        <time>2013-07-14T06:27:02Z</time>
      </trkpt>
      <trkpt lat="46.444635428488255" lon="10.617711553350091">
        <ele>3745.4299999999998</ele>
        <time>2013-07-14T06:27:17Z</time>
      </trkpt>
      <trkpt lat="46.444606427103281" lon="10.617715828120708">
        <ele>3747.8400000000001</ele>
        <time>2013-07-14T06:27:29Z</time>
      </trkpt>
      <trkpt lat="46.444573067128658" lon="10.617729993537068">
        <ele>3749.2800000000002</ele>
        <time>2013-07-14T06:27:40Z</time>
      </trkpt>
      <trkpt lat="46.444560410454869" lon="10.617747595533729">
        <ele>3750.7199999999998</ele>
        <time>2013-07-14T06:27:44Z</time>
      </trkpt>
      <trkpt lat="46.444554124027491" lon="10.617737621068954">
        <ele>3752.1599999999999</ele>
        <time>2013-07-14T06:27:48Z</time>
      </trkpt>
      <trkpt lat="46.444531073793769" lon="10.617743907496333">
        <ele>3754.5700000000002</ele>
        <time>2013-07-14T06:28:01Z</time>
      </trkpt>
      <trkpt lat="46.444521183148026" lon="10.617744494229555">
        <ele>3755.5300000000002</ele>
        <time>2013-07-14T06:28:03Z</time>
      </trkpt>
      <trkpt lat="46.444508191198111" lon="10.61773250810802">
        <ele>3757.9299999999998</ele>
        <time>2013-07-14T06:28:11Z</time>
      </trkpt>
      <trkpt lat="46.444475082680583" lon="10.617701914161444">
        <ele>3756.9699999999998</ele>
        <time>2013-07-14T06:28:30Z</time>
      </trkpt>
      <trkpt lat="46.44448472186923" lon="10.617677858099341">
        <ele>3756.4899999999998</ele>
        <time>2013-07-14T06:28:49Z</time>
      </trkpt>
      <trkpt lat="46.444480950012803" lon="10.617668805643916">
        <ele>3755.5300000000002</ele>
        <time>2013-07-14T06:28:51Z</time>
      </trkpt>
      <trkpt lat="46.444480028003454" lon="10.617666877806187">
        <ele>3756.9699999999998</ele>
        <time>2013-07-14T06:28:54Z</time>
      </trkpt>
      <trkpt lat="46.444464772939682" lon="10.617665201425552">
        <ele>3757.4499999999998</ele>
        <time>2013-07-14T06:29:02Z</time>
      </trkpt>
      <trkpt lat="46.444446668028831" lon="10.617651622742414">
        <ele>3760.8099999999999</ele>
        <time>2013-07-14T06:29:08Z</time>
      </trkpt>
      <trkpt lat="46.44438698887825" lon="10.617602001875639">
        <ele>3760.8099999999999</ele>
        <time>2013-07-14T06:29:23Z</time>
      </trkpt>
      <trkpt lat="46.444356562569737" lon="10.617576856166124">
        <ele>3763.2199999999998</ele>
        <time>2013-07-14T06:29:34Z</time>
      </trkpt>
      <trkpt lat="46.444319011643529" lon="10.617530504241586">
        <ele>3766.0999999999999</ele>
        <time>2013-07-14T06:29:44Z</time>
      </trkpt>
      <trkpt lat="46.44428095780313" lon="10.617465293034911">
        <ele>3766.5799999999999</ele>
        <time>2013-07-14T06:29:58Z</time>
      </trkpt>
      <trkpt lat="46.444235779345036" lon="10.617355657741427">
        <ele>3769.4699999999998</ele>
        <time>2013-07-14T06:30:14Z</time>
      </trkpt>
      <trkpt lat="46.444179369136691" lon="10.617281729355454">
        <ele>3771.8699999999999</ele>
        <time>2013-07-14T06:30:30Z</time>
      </trkpt>
      <trkpt lat="46.444127736613154" lon="10.617240741848946">
        <ele>3772.3499999999999</ele>
        <time>2013-07-14T06:30:44Z</time>
      </trkpt>
      <trkpt lat="46.44412069581449" lon="10.617216601967812">
        <ele>3772.3499999999999</ele>
        <time>2013-07-14T06:30:58Z</time>
      </trkpt>
      <trkpt lat="46.444106949493289" lon="10.617207465693355">
        <ele>3771.3899999999999</ele>
        <time>2013-07-14T06:31:21Z</time>
      </trkpt>
      <trkpt lat="46.444051880389452" lon="10.617124987766147">
        <ele>3769.9499999999998</ele>
        <time>2013-07-14T06:31:34Z</time>
      </trkpt>
      <trkpt lat="46.444040900096297" lon="10.617111744359136">
        <ele>3770.9099999999999</ele>
        <time>2013-07-14T06:31:36Z</time>
      </trkpt>
      <trkpt lat="46.44401466473937" lon="10.61708165332675">
        <ele>3769.4699999999998</ele>
        <time>2013-07-14T06:31:41Z</time>
      </trkpt>
      <trkpt lat="46.444006366655231" lon="10.617068996652961">
        <ele>3770.4299999999998</ele>
        <time>2013-07-14T06:31:43Z</time>
      </trkpt>
      <trkpt lat="46.443974347785115" lon="10.617035888135433">
        <ele>3771.3899999999999</ele>
        <time>2013-07-14T06:31:49Z</time>
      </trkpt>
      <trkpt lat="46.443905783817172" lon="10.616946285590529">
        <ele>3770.4299999999998</ele>
        <time>2013-07-14T06:32:05Z</time>
      </trkpt>
      <trkpt lat="46.443812074139714" lon="10.616812678053975">
        <ele>3770.4299999999998</ele>
        <time>2013-07-14T06:32:22Z</time>
      </trkpt>
      <trkpt lat="46.443767063319683" lon="10.616758279502392">
        <ele>3770.9099999999999</ele>
        <time>2013-07-14T06:32:30Z</time>
      </trkpt>
      <trkpt lat="46.443741247057915" lon="10.616713436320424">
        <ele>3770.4299999999998</ele>
        <time>2013-07-14T06:32:44Z</time>
      </trkpt>
      <trkpt lat="46.443715346977115" lon="10.616683848202229">
        <ele>3771.8699999999999</ele>
        <time>2013-07-14T06:32:49Z</time>
      </trkpt>
      <trkpt lat="46.443700343370438" lon="10.616663647815585">
        <ele>3770.9099999999999</ele>
        <time>2013-07-14T06:33:04Z</time>
      </trkpt>
      <trkpt lat="46.443704282864928" lon="10.616669515147805">
        <ele>3769.9499999999998</ele>
        <time>2013-07-14T06:33:11Z</time>
      </trkpt>
      <trkpt lat="46.443704031407833" lon="10.616668341681361">
        <ele>3771.3899999999999</ele>
        <time>2013-07-14T06:33:31Z</time>
      </trkpt>
      <trkpt lat="46.443698834627867" lon="10.616668844595551">
        <ele>3769.9499999999998</ele>
        <time>2013-07-14T06:33:51Z</time>
      </trkpt>
      <trkpt lat="46.443696906790137" lon="10.616671442985535">
        <ele>3770.4299999999998</ele>
        <time>2013-07-14T06:34:05Z</time>
      </trkpt>
      <trkpt lat="46.443700846284628" lon="10.616657612845302">
        <ele>3772.3499999999999</ele>
        <time>2013-07-14T06:34:22Z</time>
      </trkpt>
      <trkpt lat="46.44370780326426" lon="10.616642273962498">
        <ele>3771.8699999999999</ele>
        <time>2013-07-14T06:34:32Z</time>
      </trkpt>
      <trkpt lat="46.443710066378117" lon="10.616650320589542">
        <ele>3772.8299999999999</ele>
        <time>2013-07-14T06:34:40Z</time>
      </trkpt>
      <trkpt lat="46.443709395825863" lon="10.616650152951479">
        <ele>3772.3499999999999</ele>
        <time>2013-07-14T06:34:45Z</time>
      </trkpt>
      <trkpt lat="46.443717023357749" lon="10.616641519591212">
        <ele>3770.9099999999999</ele>
        <time>2013-07-14T06:34:58Z</time>
      </trkpt>
      <trkpt lat="46.443715430796146" lon="10.616644369438291">
        <ele>3770.9099999999999</ele>
        <time>2013-07-14T06:34:59Z</time>
      </trkpt>
      <trkpt lat="46.443709814921021" lon="10.616673622280359">
        <ele>3769.9499999999998</ele>
        <time>2013-07-14T06:35:17Z</time>
      </trkpt>
      <trkpt lat="46.443704282864928" lon="10.616672951728106">
        <ele>3770.9099999999999</ele>
        <time>2013-07-14T06:35:26Z</time>
      </trkpt>
      <trkpt lat="46.443703109398484" lon="10.61666876077652">
        <ele>3769.9499999999998</ele>
        <time>2013-07-14T06:35:28Z</time>
      </trkpt>
      <trkpt lat="46.443704199045897" lon="10.616646464914083">
        <ele>3771.8699999999999</ele>
        <time>2013-07-14T06:35:43Z</time>
      </trkpt>
      <trkpt lat="46.443709228187799" lon="10.616653924807906">
        <ele>3770.9099999999999</ele>
        <time>2013-07-14T06:35:50Z</time>
      </trkpt>
      <trkpt lat="46.443703779950738" lon="10.616662474349141">
        <ele>3769.9499999999998</ele>
        <time>2013-07-14T06:36:05Z</time>
      </trkpt>
      <trkpt lat="46.443698918446898" lon="10.616671275347471">
        <ele>3769.4699999999998</ele>
        <time>2013-07-14T06:36:21Z</time>
      </trkpt>
      <trkpt lat="46.443699169903994" lon="10.616668006405234">
        <ele>3769.4699999999998</ele>
        <time>2013-07-14T06:36:37Z</time>
      </trkpt>
      <trkpt lat="46.443690452724695" lon="10.61663162894547">
        <ele>3768.9899999999998</ele>
        <time>2013-07-14T06:36:52Z</time>
      </trkpt>
      <trkpt lat="46.443677293136716" lon="10.616607991978526">
        <ele>3770.4299999999998</ele>
        <time>2013-07-14T06:37:06Z</time>
      </trkpt>
      <trkpt lat="46.443682154640555" lon="10.616602292284369">
        <ele>3768.02</ele>
        <time>2013-07-14T06:37:10Z</time>
      </trkpt>
      <trkpt lat="46.443683663383126" lon="10.616608494892716">
        <ele>3768.9899999999998</ele>
        <time>2013-07-14T06:37:20Z</time>
      </trkpt>
      <trkpt lat="46.44369799643755" lon="10.616636825725436">
        <ele>3769.9499999999998</ele>
        <time>2013-07-14T06:37:37Z</time>
      </trkpt>
      <trkpt lat="46.443688357248902" lon="10.616610590368509">
        <ele>3768.9899999999998</ele>
        <time>2013-07-14T06:37:47Z</time>
      </trkpt>
      <trkpt lat="46.443699086084962" lon="10.616632383316755">
        <ele>3768.5100000000002</ele>
        <time>2013-07-14T06:38:06Z</time>
      </trkpt>
      <trkpt lat="46.443689530715346" lon="10.616642441600561">
        <ele>3769.4699999999998</ele>
        <time>2013-07-14T06:38:16Z</time>
      </trkpt>
      <trkpt lat="46.443692296743393" lon="10.616623414680362">
        <ele>3770.9099999999999</ele>
        <time>2013-07-14T06:38:31Z</time>
      </trkpt>
      <trkpt lat="46.44368726760149" lon="10.616634478792548">
        <ele>3769.4699999999998</ele>
        <time>2013-07-14T06:38:47Z</time>
      </trkpt>
      <trkpt lat="46.443691458553076" lon="10.616633472964168">
        <ele>3768.9899999999998</ele>
        <time>2013-07-14T06:38:58Z</time>
      </trkpt>
      <trkpt lat="46.443691039457917" lon="10.616628360003233">
        <ele>3769.4699999999998</ele>
        <time>2013-07-14T06:39:03Z</time>
      </trkpt>
      <trkpt lat="46.443700678646564" lon="10.616641519591212">
        <ele>3769.9499999999998</ele>
        <time>2013-07-14T06:39:19Z</time>
      </trkpt>
      <trkpt lat="46.443700678646564" lon="10.616649398580194">
        <ele>3769.4699999999998</ele>
        <time>2013-07-14T06:39:24Z</time>
      </trkpt>
      <trkpt lat="46.443697744980454" lon="10.616651577875018">
        <ele>3769.9499999999998</ele>
        <time>2013-07-14T06:39:43Z</time>
      </trkpt>
      <trkpt lat="46.443704115226865" lon="10.616649482399225">
        <ele>3770.4299999999998</ele>
        <time>2013-07-14T06:39:54Z</time>
      </trkpt>
      <trkpt lat="46.443711239844561" lon="10.616655349731445">
        <ele>3770.4299999999998</ele>
        <time>2013-07-14T06:40:09Z</time>
      </trkpt>
      <trkpt lat="46.443708054721355" lon="10.616649482399225">
        <ele>3768.9899999999998</ele>
        <time>2013-07-14T06:40:13Z</time>
      </trkpt>
      <trkpt lat="46.443697074428201" lon="10.616654176265001">
        <ele>3769.4699999999998</ele>
        <time>2013-07-14T06:40:28Z</time>
      </trkpt>
      <trkpt lat="46.443693218752742" lon="10.61665409244597">
        <ele>3769.4699999999998</ele>
        <time>2013-07-14T06:40:43Z</time>
      </trkpt>
      <trkpt lat="46.443694978952408" lon="10.616655768826604">
        <ele>3769.9499999999998</ele>
        <time>2013-07-14T06:41:01Z</time>
      </trkpt>
      <trkpt lat="46.443700091913342" lon="10.61665509827435">
        <ele>3769.9499999999998</ele>
        <time>2013-07-14T06:41:14Z</time>
      </trkpt>
      <trkpt lat="46.443702187389135" lon="10.616654762998223">
        <ele>3771.3899999999999</ele>
        <time>2013-07-14T06:41:21Z</time>
      </trkpt>
      <trkpt lat="46.443694727495313" lon="10.616659708321095">
        <ele>3771.8699999999999</ele>
        <time>2013-07-14T06:41:39Z</time>
      </trkpt>
      <trkpt lat="46.443713922053576" lon="10.616645123809576">
        <ele>3771.8699999999999</ele>
        <time>2013-07-14T06:41:59Z</time>
      </trkpt>
      <trkpt lat="46.443702941760421" lon="10.616648979485035">
        <ele>3770.9099999999999</ele>
        <time>2013-07-14T06:42:11Z</time>
      </trkpt>
      <trkpt lat="46.443705456331372" lon="10.616654260084033">
        <ele>3768.9899999999998</ele>
        <time>2013-07-14T06:42:30Z</time>
      </trkpt>
      <trkpt lat="46.443724483251572" lon="10.616660127416253">
        <ele>3768.9899999999998</ele>
        <time>2013-07-14T06:42:46Z</time>
      </trkpt>
      <trkpt lat="46.443721214309335" lon="10.616659624502063">
        <ele>3770.4299999999998</ele>
        <time>2013-07-14T06:42:49Z</time>
      </trkpt>
      <trkpt lat="46.443731943145394" lon="10.616692900657654">
        <ele>3769.4699999999998</ele>
        <time>2013-07-14T06:42:58Z</time>
      </trkpt>
      <trkpt lat="46.443762872368097" lon="10.616713184863329">
        <ele>3769.4699999999998</ele>
        <time>2013-07-14T06:43:14Z</time>
      </trkpt>
      <trkpt lat="46.443782150745392" lon="10.616734977811575">
        <ele>3770.4299999999998</ele>
        <time>2013-07-14T06:43:19Z</time>
      </trkpt>
      <trkpt lat="46.443793885409832" lon="10.616750735789537">
        <ele>3767.0599999999999</ele>
        <time>2013-07-14T06:43:24Z</time>
      </trkpt>
      <trkpt lat="46.443797405809164" lon="10.616756100207567">
        <ele>3768.5100000000002</ele>
        <time>2013-07-14T06:43:25Z</time>
      </trkpt>
      <trkpt lat="46.44381869584322" lon="10.616780994459987">
        <ele>3768.9899999999998</ele>
        <time>2013-07-14T06:43:32Z</time>
      </trkpt>
      <trkpt lat="46.443819785490632" lon="10.616786610335112">
        <ele>3768.9899999999998</ele>
        <time>2013-07-14T06:43:47Z</time>
      </trkpt>
      <trkpt lat="46.44382556900382" lon="10.616795578971505">
        <ele>3768.9899999999998</ele>
        <time>2013-07-14T06:43:54Z</time>
      </trkpt>
      <trkpt lat="46.443884493783116" lon="10.616852827370167">
        <ele>3768.5100000000002</ele>
        <time>2013-07-14T06:44:06Z</time>
      </trkpt>
      <trkpt lat="46.443892121315002" lon="10.616860035806894">
        <ele>3767.54</ele>
        <time>2013-07-14T06:44:07Z</time>
      </trkpt>
      <trkpt lat="46.443931264802814" lon="10.616909908130765">
        <ele>3768.5100000000002</ele>
        <time>2013-07-14T06:44:14Z</time>
      </trkpt>
      <trkpt lat="46.443958589807153" lon="10.616943184286356">
        <ele>3768.9899999999998</ele>
        <time>2013-07-14T06:44:26Z</time>
      </trkpt>
      <trkpt lat="46.443993290886283" lon="10.616972185671329">
        <ele>3768.5100000000002</ele>
        <time>2013-07-14T06:44:42Z</time>
      </trkpt>
      <trkpt lat="46.444040732458234" lon="10.617042845115066">
        <ele>3768.5100000000002</ele>
        <time>2013-07-14T06:44:54Z</time>
      </trkpt>
      <trkpt lat="46.444048192352057" lon="10.617063632234931">
        <ele>3765.1399999999999</ele>
        <time>2013-07-14T06:45:00Z</time>
      </trkpt>
      <trkpt lat="46.444050204008818" lon="10.617061285302043">
        <ele>3768.5100000000002</ele>
        <time>2013-07-14T06:45:02Z</time>
      </trkpt>
      <trkpt lat="46.444049198180437" lon="10.61705868691206">
        <ele>3768.5100000000002</ele>
        <time>2013-07-14T06:45:03Z</time>
      </trkpt>
      <trkpt lat="46.444048611447215" lon="10.617057261988521">
        <ele>3764.1799999999998</ele>
        <time>2013-07-14T06:45:05Z</time>
      </trkpt>
      <trkpt lat="46.444052383303642" lon="10.617062542587519">
        <ele>3768.9899999999998</ele>
        <time>2013-07-14T06:45:07Z</time>
      </trkpt>
      <trkpt lat="46.444053808227181" lon="10.617062291130424">
        <ele>3765.6199999999999</ele>
        <time>2013-07-14T06:45:09Z</time>
      </trkpt>
      <trkpt lat="46.444053556770086" lon="10.61706405133009">
        <ele>3766.0999999999999</ele>
        <time>2013-07-14T06:45:10Z</time>
      </trkpt>
      <trkpt lat="46.444053137674928" lon="10.617065224796534">
        <ele>3767.54</ele>
        <time>2013-07-14T06:45:12Z</time>
      </trkpt>
      <trkpt lat="46.444054311141372" lon="10.617069751024246">
        <ele>3769.9499999999998</ele>
        <time>2013-07-14T06:45:19Z</time>
      </trkpt>
      <trkpt lat="46.444052802398801" lon="10.617066230624914">
        <ele>3766.5799999999999</ele>
        <time>2013-07-14T06:45:23Z</time>
      </trkpt>
      <trkpt lat="46.444056155160069" lon="10.617061955854297">
        <ele>3770.4299999999998</ele>
        <time>2013-07-14T06:45:25Z</time>
      </trkpt>
      <trkpt lat="46.444053137674928" lon="10.617062877863646">
        <ele>3766.5799999999999</ele>
        <time>2013-07-14T06:45:27Z</time>
      </trkpt>
      <trkpt lat="46.444067303091288" lon="10.617066398262978">
        <ele>3764.1799999999998</ele>
        <time>2013-07-14T06:45:45Z</time>
      </trkpt>
      <trkpt lat="46.444067051634192" lon="10.617067823186517">
        <ele>3764.6599999999999</ele>
        <time>2013-07-14T06:45:51Z</time>
      </trkpt>
      <trkpt lat="46.444091442972422" lon="10.617102440446615">
        <ele>3768.5100000000002</ele>
        <time>2013-07-14T06:45:58Z</time>
      </trkpt>
      <trkpt lat="46.444096472114325" lon="10.617107888683677">
        <ele>3768.5100000000002</ele>
        <time>2013-07-14T06:45:59Z</time>
      </trkpt>
      <trkpt lat="46.444107117131352" lon="10.617125909775496">
        <ele>3767.0599999999999</ele>
        <time>2013-07-14T06:46:01Z</time>
      </trkpt>
      <trkpt lat="46.444151205942035" lon="10.617186594754457">
        <ele>3764.1799999999998</ele>
        <time>2013-07-14T06:46:10Z</time>
      </trkpt>
      <trkpt lat="46.444157660007477" lon="10.617201430723071">
        <ele>3762.7399999999998</ele>
        <time>2013-07-14T06:46:12Z</time>
      </trkpt>
      <trkpt lat="46.444208873435855" lon="10.617270413786173">
        <ele>3764.1799999999998</ele>
        <time>2013-07-14T06:46:26Z</time>
      </trkpt>
      <trkpt lat="46.444252543151379" lon="10.617338474839926">
        <ele>3760.8099999999999</ele>
        <time>2013-07-14T06:46:39Z</time>
      </trkpt>
      <trkpt lat="46.444292105734348" lon="10.61740955337882">
        <ele>3765.1399999999999</ele>
        <time>2013-07-14T06:46:54Z</time>
      </trkpt>
      <trkpt lat="46.444296548143029" lon="10.617419527843595">
        <ele>3760.8099999999999</ele>
        <time>2013-07-14T06:47:03Z</time>
      </trkpt>
      <trkpt lat="46.444300571456552" lon="10.617424389347434">
        <ele>3760.8099999999999</ele>
        <time>2013-07-14T06:47:04Z</time>
      </trkpt>
      <trkpt lat="46.444323202595115" lon="10.617463868111372">
        <ele>3758.4099999999999</ele>
        <time>2013-07-14T06:47:14Z</time>
      </trkpt>
      <trkpt lat="46.444339128211141" lon="10.617467137053609">
        <ele>3757.4499999999998</ele>
        <time>2013-07-14T06:47:20Z</time>
      </trkpt>
      <trkpt lat="46.444341894239187" lon="10.617477614432573">
        <ele>3756.0100000000002</ele>
        <time>2013-07-14T06:47:23Z</time>
      </trkpt>
      <trkpt lat="46.444351365789771" lon="10.617516422644258">
        <ele>3759.3699999999999</ele>
        <time>2013-07-14T06:47:35Z</time>
      </trkpt>
      <trkpt lat="46.444347845390439" lon="10.617516590282321">
        <ele>3761.3000000000002</ele>
        <time>2013-07-14T06:47:37Z</time>
      </trkpt>
      <trkpt lat="46.444354047998786" lon="10.617519272491336">
        <ele>3756.4899999999998</ele>
        <time>2013-07-14T06:47:42Z</time>
      </trkpt>
      <trkpt lat="46.444357316941023" lon="10.617525307461619">
        <ele>3756.0100000000002</ele>
        <time>2013-07-14T06:47:43Z</time>
      </trkpt>
      <trkpt lat="46.444386066868901" lon="10.617554057389498">
        <ele>3754.5700000000002</ele>
        <time>2013-07-14T06:47:56Z</time>
      </trkpt>
      <trkpt lat="46.444391515105963" lon="10.61754584312439">
        <ele>3754.5700000000002</ele>
        <time>2013-07-14T06:48:03Z</time>
      </trkpt>
      <trkpt lat="46.444420432671905" lon="10.617593368515372">
        <ele>3753.5999999999999</ele>
        <time>2013-07-14T06:48:17Z</time>
      </trkpt>
      <trkpt lat="46.44445781596005" lon="10.617651538923383">
        <ele>3751.6799999999998</ele>
        <time>2013-07-14T06:48:33Z</time>
      </trkpt>
      <trkpt lat="46.444477429613471" lon="10.617675427347422">
        <ele>3750.2399999999998</ele>
        <time>2013-07-14T06:48:47Z</time>
      </trkpt>
      <trkpt lat="46.444494277238846" lon="10.617696633562446">
        <ele>3750.7199999999998</ele>
        <time>2013-07-14T06:49:04Z</time>
      </trkpt>
      <trkpt lat="46.444508358836174" lon="10.617702333256602">
        <ele>3748.3200000000002</ele>
        <time>2013-07-14T06:49:07Z</time>
      </trkpt>
      <trkpt lat="46.444521518424153" lon="10.617709793150425">
        <ele>3748.8000000000002</ele>
        <time>2013-07-14T06:49:21Z</time>
      </trkpt>
      <trkpt lat="46.444542221724987" lon="10.61768950894475">
        <ele>3746.8800000000001</ele>
        <time>2013-07-14T06:49:45Z</time>
      </trkpt>
      <trkpt lat="46.444607935845852" lon="10.617690095677972">
        <ele>3743.5100000000002</ele>
        <time>2013-07-14T06:49:58Z</time>
      </trkpt>
      <trkpt lat="46.444630483165383" lon="10.617704344913363">
        <ele>3741.5900000000001</ele>
        <time>2013-07-14T06:50:02Z</time>
      </trkpt>
      <trkpt lat="46.444683624431491" lon="10.617731837555766">
        <ele>3738.6999999999998</ele>
        <time>2013-07-14T06:50:11Z</time>
      </trkpt>
      <trkpt lat="46.444690162315965" lon="10.617733765393496">
        <ele>3738.2199999999998</ele>
        <time>2013-07-14T06:50:12Z</time>
      </trkpt>
      <trkpt lat="46.444722348824143" lon="10.617752205580473">
        <ele>3737.2600000000002</ele>
        <time>2013-07-14T06:50:27Z</time>
      </trkpt>
      <trkpt lat="46.444759983569384" lon="10.617781793698668">
        <ele>3736.3000000000002</ele>
        <time>2013-07-14T06:50:41Z</time>
      </trkpt>
      <trkpt lat="46.444772304967046" lon="10.617787325754762">
        <ele>3734.8600000000001</ele>
        <time>2013-07-14T06:51:04Z</time>
      </trkpt>
      <trkpt lat="46.444781692698598" lon="10.617777267470956">
        <ele>3734.8600000000001</ele>
        <time>2013-07-14T06:51:19Z</time>
      </trkpt>
      <trkpt lat="46.444799629971385" lon="10.617779195308685">
        <ele>3733.9000000000001</ele>
        <time>2013-07-14T06:51:47Z</time>
      </trkpt>
      <trkpt lat="46.444813376292586" lon="10.617773747071624">
        <ele>3733.4200000000001</ele>
        <time>2013-07-14T06:52:06Z</time>
      </trkpt>
      <trkpt lat="46.444821674376726" lon="10.617778524756432">
        <ele>3732.9400000000001</ele>
        <time>2013-07-14T06:52:25Z</time>
      </trkpt>
      <trkpt lat="46.444838270545006" lon="10.617774836719036">
        <ele>3732.9400000000001</ele>
        <time>2013-07-14T06:52:49Z</time>
      </trkpt>
      <trkpt lat="46.444854866713285" lon="10.617777016013861">
        <ele>3732.9400000000001</ele>
        <time>2013-07-14T06:53:05Z</time>
      </trkpt>
      <trkpt lat="46.444874480366707" lon="10.617772825062275">
        <ele>3731.0100000000002</ele>
        <time>2013-07-14T06:53:20Z</time>
      </trkpt>
      <trkpt lat="46.44494597800076" lon="10.617748852819204">
        <ele>3729.5700000000002</ele>
        <time>2013-07-14T06:53:35Z</time>
      </trkpt>
      <trkpt lat="46.445001130923629" lon="10.617772825062275">
        <ele>3729.0900000000001</ele>
        <time>2013-07-14T06:53:47Z</time>
      </trkpt>
      <trkpt lat="46.445072880014777" lon="10.617853123694658">
        <ele>3728.1300000000001</ele>
        <time>2013-07-14T06:54:01Z</time>
      </trkpt>
      <trkpt lat="46.445096852257848" lon="10.617873910814524">
        <ele>3726.6900000000001</ele>
        <time>2013-07-14T06:54:05Z</time>
      </trkpt>
      <trkpt lat="46.445102384313941" lon="10.617905678227544">
        <ele>3729.5700000000002</ele>
        <time>2013-07-14T06:54:09Z</time>
      </trkpt>
      <trkpt lat="46.445113783702254" lon="10.617917915806174">
        <ele>3725.73</ele>
        <time>2013-07-14T06:54:12Z</time>
      </trkpt>
      <trkpt lat="46.445114789530635" lon="10.617923196405172">
        <ele>3726.6900000000001</ele>
        <time>2013-07-14T06:54:31Z</time>
      </trkpt>
      <trkpt lat="46.445108922198415" lon="10.61789670959115">
        <ele>3726.21</ele>
        <time>2013-07-14T06:54:50Z</time>
      </trkpt>
      <trkpt lat="46.445111352950335" lon="10.617901235818863">
        <ele>3728.6100000000001</ele>
        <time>2013-07-14T06:54:54Z</time>
      </trkpt>
      <trkpt lat="46.445126188918948" lon="10.617908863350749">
        <ele>3725.25</ele>
        <time>2013-07-14T06:55:04Z</time>
      </trkpt>
      <trkpt lat="46.44513507373631" lon="10.617931326851249">
        <ele>3726.21</ele>
        <time>2013-07-14T06:55:35Z</time>
      </trkpt>
      <trkpt lat="46.44517857581377" lon="10.617998046800494">
        <ele>3725.73</ele>
        <time>2013-07-14T06:55:50Z</time>
      </trkpt>
      <trkpt lat="46.445205984637141" lon="10.618024282157421">
        <ele>3725.25</ele>
        <time>2013-07-14T06:56:00Z</time>
      </trkpt>
      <trkpt lat="46.445204811170697" lon="10.618036519736052">
        <ele>3726.6900000000001</ele>
        <time>2013-07-14T06:56:18Z</time>
      </trkpt>
      <trkpt lat="46.445210007950664" lon="10.618031490594149">
        <ele>3724.77</ele>
        <time>2013-07-14T06:56:35Z</time>
      </trkpt>
      <trkpt lat="46.445226520299911" lon="10.618057139217854">
        <ele>3723.8000000000002</ele>
        <time>2013-07-14T06:56:54Z</time>
      </trkpt>
      <trkpt lat="46.44525183364749" lon="10.618091756477952">
        <ele>3723.3200000000002</ele>
        <time>2013-07-14T06:57:22Z</time>
      </trkpt>
      <trkpt lat="46.445284690707922" lon="10.618140120059252">
        <ele>3722.3600000000001</ele>
        <time>2013-07-14T06:57:34Z</time>
      </trkpt>
      <trkpt lat="46.445297934114933" lon="10.618157386779785">
        <ele>3722.8400000000001</ele>
        <time>2013-07-14T06:57:42Z</time>
      </trkpt>
      <trkpt lat="46.445313859730959" lon="10.618168450891972">
        <ele>3723.3200000000002</ele>
        <time>2013-07-14T06:57:56Z</time>
      </trkpt>
      <trkpt lat="46.445314111188054" lon="10.618167109787464">
        <ele>3724.2800000000002</ele>
        <time>2013-07-14T06:57:58Z</time>
      </trkpt>
      <trkpt lat="46.445310087874532" lon="10.618164846673608">
        <ele>3722.8400000000001</ele>
        <time>2013-07-14T06:58:00Z</time>
      </trkpt>
      <trkpt lat="46.445312350988388" lon="10.618169205263257">
        <ele>3724.2800000000002</ele>
        <time>2013-07-14T06:58:08Z</time>
      </trkpt>
      <trkpt lat="46.445305813103914" lon="10.618169708177447">
        <ele>3722.8400000000001</ele>
        <time>2013-07-14T06:58:35Z</time>
      </trkpt>
      <trkpt lat="46.445311848074198" lon="10.618178676813841">
        <ele>3723.8000000000002</ele>
        <time>2013-07-14T06:58:53Z</time>
      </trkpt>
      <trkpt lat="46.445324337109923" lon="10.618166103959084">
        <ele>3722.3600000000001</ele>
        <time>2013-07-14T06:59:07Z</time>
      </trkpt>
      <trkpt lat="46.445315452292562" lon="10.618160823360085">
        <ele>3722.3600000000001</ele>
        <time>2013-07-14T06:59:32Z</time>
      </trkpt>
      <trkpt lat="46.445331377908587" lon="10.618163337931037">
        <ele>3722.8400000000001</ele>
        <time>2013-07-14T07:00:09Z</time>
      </trkpt>
      <trkpt lat="46.445339843630791" lon="10.618201391771436">
        <ele>3722.8400000000001</ele>
        <time>2013-07-14T07:00:26Z</time>
      </trkpt>
      <trkpt lat="46.445364989340305" lon="10.618206253275275">
        <ele>3721.4000000000001</ele>
        <time>2013-07-14T07:00:39Z</time>
      </trkpt>
      <trkpt lat="46.445378484204412" lon="10.618208181113005">
        <ele>3720.4400000000001</ele>
        <time>2013-07-14T07:00:52Z</time>
      </trkpt>
      <trkpt lat="46.445389799773693" lon="10.618231650441885">
        <ele>3720.4400000000001</ele>
        <time>2013-07-14T07:01:10Z</time>
      </trkpt>
      <trkpt lat="46.445399606600404" lon="10.618223855271935">
        <ele>3720.9200000000001</ele>
        <time>2013-07-14T07:01:26Z</time>
      </trkpt>
      <trkpt lat="46.445407653227448" lon="10.618222849443555">
        <ele>3719.96</ele>
        <time>2013-07-14T07:01:46Z</time>
      </trkpt>
      <trkpt lat="46.445455178618431" lon="10.61822653748095">
        <ele>3716.5900000000001</ele>
        <time>2013-07-14T07:02:05Z</time>
      </trkpt>
      <trkpt lat="46.445472529157996" lon="10.618234416469932">
        <ele>3717.0700000000002</ele>
        <time>2013-07-14T07:02:17Z</time>
      </trkpt>
      <trkpt lat="46.445455513894558" lon="10.618242211639881">
        <ele>3717.0700000000002</ele>
        <time>2013-07-14T07:02:39Z</time>
      </trkpt>
      <trkpt lat="46.445462722331285" lon="10.618252018466592">
        <ele>3717.5599999999999</ele>
        <time>2013-07-14T07:02:52Z</time>
      </trkpt>
      <trkpt lat="46.44549566321075" lon="10.618247408419847">
        <ele>3716.5900000000001</ele>
        <time>2013-07-14T07:03:04Z</time>
      </trkpt>
      <trkpt lat="46.445513935759664" lon="10.61825729906559">
        <ele>3715.6300000000001</ele>
        <time>2013-07-14T07:03:20Z</time>
      </trkpt>
      <trkpt lat="46.445505805313587" lon="10.618261406198144">
        <ele>3715.6300000000001</ele>
        <time>2013-07-14T07:03:39Z</time>
      </trkpt>
      <trkpt lat="46.445522988215089" lon="10.618264591321349">
        <ele>3715.1500000000001</ele>
        <time>2013-07-14T07:03:55Z</time>
      </trkpt>
      <trkpt lat="46.445534052327275" lon="10.618240619078279">
        <ele>3714.1900000000001</ele>
        <time>2013-07-14T07:04:10Z</time>
      </trkpt>
      <trkpt lat="46.445534471422434" lon="10.618196194991469">
        <ele>3712.27</ele>
        <time>2013-07-14T07:04:24Z</time>
      </trkpt>
      <trkpt lat="46.445539332926273" lon="10.618182113394141">
        <ele>3713.23</ele>
        <time>2013-07-14T07:04:47Z</time>
      </trkpt>
      <trkpt lat="46.445535980165005" lon="10.61815177090466">
        <ele>3711.79</ele>
        <time>2013-07-14T07:05:12Z</time>
      </trkpt>
      <trkpt lat="46.445533214136958" lon="10.618086559697986">
        <ele>3710.3499999999999</ele>
        <time>2013-07-14T07:05:24Z</time>
      </trkpt>
      <trkpt lat="46.445540087297559" lon="10.618070131167769">
        <ele>3708.9000000000001</ele>
        <time>2013-07-14T07:05:28Z</time>
      </trkpt>
      <trkpt lat="46.445549307391047" lon="10.61806183308363">
        <ele>3708.9000000000001</ele>
        <time>2013-07-14T07:05:46Z</time>
      </trkpt>
      <trkpt lat="46.445567831397057" lon="10.618063593283296">
        <ele>3707.46</ele>
        <time>2013-07-14T07:05:58Z</time>
      </trkpt>
      <trkpt lat="46.445595156401396" lon="10.618066191673279">
        <ele>3706.98</ele>
        <time>2013-07-14T07:06:09Z</time>
      </trkpt>
      <trkpt lat="46.445620469748974" lon="10.618062252178788">
        <ele>3705.0599999999999</ele>
        <time>2013-07-14T07:06:19Z</time>
      </trkpt>
      <trkpt lat="46.445625079795718" lon="10.618063258007169">
        <ele>3705.0599999999999</ele>
        <time>2013-07-14T07:06:29Z</time>
      </trkpt>
      <trkpt lat="46.445655506104231" lon="10.618053618818521">
        <ele>3703.1399999999999</ele>
        <time>2013-07-14T07:06:43Z</time>
      </trkpt>
      <trkpt lat="46.445679310709238" lon="10.618049008771777">
        <ele>3701.6900000000001</ele>
        <time>2013-07-14T07:06:53Z</time>
      </trkpt>
      <trkpt lat="46.445698421448469" lon="10.618052780628204">
        <ele>3700.73</ele>
        <time>2013-07-14T07:07:09Z</time>
      </trkpt>
      <trkpt lat="46.445720214396715" lon="10.618042470887303">
        <ele>3699.29</ele>
        <time>2013-07-14T07:07:21Z</time>
      </trkpt>
      <trkpt lat="46.445737145841122" lon="10.61803593300283">
        <ele>3698.3299999999999</ele>
        <time>2013-07-14T07:07:32Z</time>
      </trkpt>
      <trkpt lat="46.445754831656814" lon="10.618040710687637">
        <ele>3696.8899999999999</ele>
        <time>2013-07-14T07:07:41Z</time>
      </trkpt>
      <trkpt lat="46.445779977366328" lon="10.618028556928039">
        <ele>3695.4400000000001</ele>
        <time>2013-07-14T07:07:47Z</time>
      </trkpt>
      <trkpt lat="46.44579816609621" lon="10.618032496422529">
        <ele>3694.48</ele>
        <time>2013-07-14T07:08:01Z</time>
      </trkpt>
      <trkpt lat="46.445808559656143" lon="10.618025874719024">
        <ele>3693.52</ele>
        <time>2013-07-14T07:08:11Z</time>
      </trkpt>
      <trkpt lat="46.445825155824423" lon="10.61798807233572">
        <ele>3691.1199999999999</ele>
        <time>2013-07-14T07:08:26Z</time>
      </trkpt>
      <trkpt lat="46.445855163037777" lon="10.617983546108007">
        <ele>3689.6799999999998</ele>
        <time>2013-07-14T07:08:44Z</time>
      </trkpt>
      <trkpt lat="46.445875028148293" lon="10.617994777858257">
        <ele>3687.75</ele>
        <time>2013-07-14T07:08:59Z</time>
      </trkpt>
      <trkpt lat="46.445908974856138" lon="10.618003578856587">
        <ele>3686.3099999999999</ele>
        <time>2013-07-14T07:09:16Z</time>
      </trkpt>
      <trkpt lat="46.445940909907222" lon="10.618000896647573">
        <ele>3684.8699999999999</ele>
        <time>2013-07-14T07:09:31Z</time>
      </trkpt>
      <trkpt lat="46.445966558530927" lon="10.61801640316844">
        <ele>3682.9499999999998</ele>
        <time>2013-07-14T07:09:43Z</time>
      </trkpt>
      <trkpt lat="46.446004277095199" lon="10.618031155318022">
        <ele>3680.54</ele>
        <time>2013-07-14T07:09:59Z</time>
      </trkpt>
      <trkpt lat="46.44604685716331" lon="10.61805160716176">
        <ele>3678.1399999999999</ele>
        <time>2013-07-14T07:10:11Z</time>
      </trkpt>
      <trkpt lat="46.446086587384343" lon="10.61806870624423">
        <ele>3676.2199999999998</ele>
        <time>2013-07-14T07:10:24Z</time>
      </trkpt>
      <trkpt lat="46.446142829954624" lon="10.61809997074306">
        <ele>3672.8499999999999</ele>
        <time>2013-07-14T07:10:37Z</time>
      </trkpt>
      <trkpt lat="46.446174848824739" lon="10.618134839460254">
        <ele>3669.4899999999998</ele>
        <time>2013-07-14T07:10:48Z</time>
      </trkpt>
      <trkpt lat="46.446182476356626" lon="10.618184292688966">
        <ele>3668.5300000000002</ele>
        <time>2013-07-14T07:11:06Z</time>
      </trkpt>
      <trkpt lat="46.44620074890554" lon="10.618219077587128">
        <ele>3668.5300000000002</ele>
        <time>2013-07-14T07:11:18Z</time>
      </trkpt>
      <trkpt lat="46.446202341467142" lon="10.618202649056911">
        <ele>3669.4899999999998</ele>
        <time>2013-07-14T07:11:36Z</time>
      </trkpt>
      <trkpt lat="46.446208041161299" lon="10.618190914392471">
        <ele>3668.5300000000002</ele>
        <time>2013-07-14T07:11:58Z</time>
      </trkpt>
      <trkpt lat="46.446240646764636" lon="10.618264926597476">
        <ele>3667.0900000000001</ele>
        <time>2013-07-14T07:12:13Z</time>
      </trkpt>
      <trkpt lat="46.446242826059461" lon="10.618271883577108">
        <ele>3667.0900000000001</ele>
        <time>2013-07-14T07:12:26Z</time>
      </trkpt>
      <trkpt lat="46.44624961540103" lon="10.618315553292632">
        <ele>3667.0900000000001</ele>
        <time>2013-07-14T07:12:40Z</time>
      </trkpt>
      <trkpt lat="46.446258584037423" lon="10.618335418403149">
        <ele>3666.6100000000001</ele>
        <time>2013-07-14T07:13:00Z</time>
      </trkpt>
      <trkpt lat="46.446274593472481" lon="10.618363413959742">
        <ele>3667.5700000000002</ele>
        <time>2013-07-14T07:13:12Z</time>
      </trkpt>
      <trkpt lat="46.446288842707872" lon="10.618376405909657">
        <ele>3667.5700000000002</ele>
        <time>2013-07-14T07:13:27Z</time>
      </trkpt>
      <trkpt lat="46.446289764717221" lon="10.61839266680181">
        <ele>3666.6100000000001</ele>
        <time>2013-07-14T07:13:39Z</time>
      </trkpt>
      <trkpt lat="46.446274509653449" lon="10.618407167494297">
        <ele>3665.6399999999999</ele>
        <time>2013-07-14T07:13:52Z</time>
      </trkpt>
      <trkpt lat="46.446289177983999" lon="10.618434073403478">
        <ele>3665.6399999999999</ele>
        <time>2013-07-14T07:14:14Z</time>
      </trkpt>
      <trkpt lat="46.446311473846436" lon="10.618451340124011">
        <ele>3665.1599999999999</ele>
        <time>2013-07-14T07:14:31Z</time>
      </trkpt>
      <trkpt lat="46.446339972317219" lon="10.618505571037531">
        <ele>3664.1999999999998</ele>
        <time>2013-07-14T07:14:43Z</time>
      </trkpt>
      <trkpt lat="46.446356987580657" lon="10.618539098650217">
        <ele>3662.7600000000002</ele>
        <time>2013-07-14T07:14:58Z</time>
      </trkpt>
      <trkpt lat="46.446377942338586" lon="10.618564244359732">
        <ele>3661.8000000000002</ele>
        <time>2013-07-14T07:15:12Z</time>
      </trkpt>
      <trkpt lat="46.446385402232409" lon="10.618578493595123">
        <ele>3660.3600000000001</ele>
        <time>2013-07-14T07:15:27Z</time>
      </trkpt>
      <trkpt lat="46.446389341726899" lon="10.618597017601132">
        <ele>3659.4000000000001</ele>
        <time>2013-07-14T07:15:40Z</time>
      </trkpt>
      <trkpt lat="46.446406859904528" lon="10.618630796670914">
        <ele>3658.4299999999998</ele>
        <time>2013-07-14T07:15:51Z</time>
      </trkpt>
      <trkpt lat="46.446411972865462" lon="10.618616212159395">
        <ele>3658.4299999999998</ele>
        <time>2013-07-14T07:16:03Z</time>
      </trkpt>
      <trkpt lat="46.446445249021053" lon="10.618643872439861">
        <ele>3656.9899999999998</ele>
        <time>2013-07-14T07:16:17Z</time>
      </trkpt>
      <trkpt lat="46.446436364203691" lon="10.618648985400796">
        <ele>3656.0300000000002</ele>
        <time>2013-07-14T07:16:31Z</time>
      </trkpt>
      <trkpt lat="46.446458827704191" lon="10.618648398667574">
        <ele>3656.5100000000002</ele>
        <time>2013-07-14T07:16:58Z</time>
      </trkpt>
      <trkpt lat="46.446471568197012" lon="10.618673460558057">
        <ele>3655.0700000000002</ele>
        <time>2013-07-14T07:17:18Z</time>
      </trkpt>
      <trkpt lat="46.44650811329484" lon="10.618699695914984">
        <ele>3653.1500000000001</ele>
        <time>2013-07-14T07:17:29Z</time>
      </trkpt>
      <trkpt lat="46.44654281437397" lon="10.618704138323665">
        <ele>3651.2199999999998</ele>
        <time>2013-07-14T07:17:38Z</time>
      </trkpt>
      <trkpt lat="46.446572402492166" lon="10.618686536327004">
        <ele>3647.8600000000001</ele>
        <time>2013-07-14T07:17:47Z</time>
      </trkpt>
      <trkpt lat="46.446605678647757" lon="10.618665078654885">
        <ele>3644.5</ele>
        <time>2013-07-14T07:17:58Z</time>
      </trkpt>
      <trkpt lat="46.446623783558607" lon="10.618654517456889">
        <ele>3643.0500000000002</ele>
        <time>2013-07-14T07:18:03Z</time>
      </trkpt>
      <trkpt lat="46.446680361405015" lon="10.618647811934352">
        <ele>3639.21</ele>
        <time>2013-07-14T07:18:12Z</time>
      </trkpt>
      <trkpt lat="46.446697376668453" lon="10.618644962087274">
        <ele>3638.73</ele>
        <time>2013-07-14T07:18:14Z</time>
      </trkpt>
      <trkpt lat="46.446706764400005" lon="10.618639849126339">
        <ele>3637.77</ele>
        <time>2013-07-14T07:18:16Z</time>
      </trkpt>
      <trkpt lat="46.446756972000003" lon="10.618619816377759">
        <ele>3634.4000000000001</ele>
        <time>2013-07-14T07:18:25Z</time>
      </trkpt>
      <trkpt lat="46.446766443550587" lon="10.618612859398127">
        <ele>3633.4400000000001</ele>
        <time>2013-07-14T07:18:27Z</time>
      </trkpt>
      <trkpt lat="46.446815561503172" lon="10.618587462231517">
        <ele>3630.0799999999999</ele>
        <time>2013-07-14T07:18:35Z</time>
      </trkpt>
      <trkpt lat="46.44686727784574" lon="10.618556030094624">
        <ele>3626.71</ele>
        <time>2013-07-14T07:18:44Z</time>
      </trkpt>
      <trkpt lat="46.446916898712516" lon="10.618534991517663">
        <ele>3624.3099999999999</ele>
        <time>2013-07-14T07:18:53Z</time>
      </trkpt>
      <trkpt lat="46.446989821270108" lon="10.618524262681603">
        <ele>3621.4200000000001</ele>
        <time>2013-07-14T07:19:03Z</time>
      </trkpt>
      <trkpt lat="46.447057463228703" lon="10.618488220497966">
        <ele>3618.54</ele>
        <time>2013-07-14T07:19:14Z</time>
      </trkpt>
      <trkpt lat="46.447138180956244" lon="10.618464164435863">
        <ele>3615.1799999999998</ele>
        <time>2013-07-14T07:19:24Z</time>
      </trkpt>
      <trkpt lat="46.447238679975271" lon="10.61840683221817">
        <ele>3611.8099999999999</ele>
        <time>2013-07-14T07:19:37Z</time>
      </trkpt>
      <trkpt lat="46.447334317490458" lon="10.618355451151729">
        <ele>3608.9299999999998</ele>
        <time>2013-07-14T07:19:50Z</time>
      </trkpt>
      <trkpt lat="46.447414364665747" lon="10.618307087570429">
        <ele>3607.48</ele>
        <time>2013-07-14T07:20:03Z</time>
      </trkpt>
      <trkpt lat="46.447474714368582" lon="10.618279594928026">
        <ele>3605.5599999999999</ele>
        <time>2013-07-14T07:20:12Z</time>
      </trkpt>
      <trkpt lat="46.447513438761234" lon="10.618251347914338">
        <ele>3604.5999999999999</ele>
        <time>2013-07-14T07:20:24Z</time>
      </trkpt>
      <trkpt lat="46.447539255023003" lon="10.618223268538713">
        <ele>3602.6799999999998</ele>
        <time>2013-07-14T07:20:34Z</time>
      </trkpt>
      <trkpt lat="46.447568759322166" lon="10.618188567459583">
        <ele>3602.6799999999998</ele>
        <time>2013-07-14T07:20:44Z</time>
      </trkpt>
      <trkpt lat="46.44756892696023" lon="10.618203990161419">
        <ele>3602.1999999999998</ele>
        <time>2013-07-14T07:20:57Z</time>
      </trkpt>
      <trkpt lat="46.447561718523502" lon="10.618187561631203">
        <ele>3602.6799999999998</ele>
        <time>2013-07-14T07:21:13Z</time>
      </trkpt>
      <trkpt lat="46.447547134011984" lon="10.618174402043223">
        <ele>3601.7199999999998</ele>
        <time>2013-07-14T07:21:26Z</time>
      </trkpt>
      <trkpt lat="46.447540177032351" lon="10.618173815310001">
        <ele>3602.1999999999998</ele>
        <time>2013-07-14T07:21:56Z</time>
      </trkpt>
      <trkpt lat="46.447543865069747" lon="10.618183789774776">
        <ele>3602.6799999999998</ele>
        <time>2013-07-14T07:22:08Z</time>
      </trkpt>
      <trkpt lat="46.447564903646708" lon="10.618190411478281">
        <ele>3602.1999999999998</ele>
        <time>2013-07-14T07:22:28Z</time>
      </trkpt>
      <trkpt lat="46.447579991072416" lon="10.618188986554742">
        <ele>3602.6799999999998</ele>
        <time>2013-07-14T07:22:34Z</time>
      </trkpt>
      <trkpt lat="46.447570016607642" lon="10.618189070373774">
        <ele>3601.7199999999998</ele>
        <time>2013-07-14T07:22:48Z</time>
      </trkpt>
      <trkpt lat="46.447572614997625" lon="10.618178928270936">
        <ele>3601.7199999999998</ele>
        <time>2013-07-14T07:23:04Z</time>
      </trkpt>
      <trkpt lat="46.447576135396957" lon="10.618175240233541">
        <ele>3602.1999999999998</ele>
        <time>2013-07-14T07:23:25Z</time>
      </trkpt>
      <trkpt lat="46.447606645524502" lon="10.618187561631203">
        <ele>3601.7199999999998</ele>
        <time>2013-07-14T07:23:29Z</time>
      </trkpt>
      <trkpt lat="46.447723740711808" lon="10.618064012378454">
        <ele>3598.3499999999999</ele>
        <time>2013-07-14T07:23:45Z</time>
      </trkpt>
      <trkpt lat="46.447738828137517" lon="10.618047751486301">
        <ele>3597.8699999999999</ele>
        <time>2013-07-14T07:23:47Z</time>
      </trkpt>
      <trkpt lat="46.447813594713807" lon="10.61799687333405">
        <ele>3596.4299999999998</ele>
        <time>2013-07-14T07:23:54Z</time>
      </trkpt>
      <trkpt lat="46.447844691574574" lon="10.617981953546405">
        <ele>3594.9899999999998</ele>
        <time>2013-07-14T07:23:57Z</time>
      </trkpt>
      <trkpt lat="46.447898503392935" lon="10.617933589965105">
        <ele>3593.0599999999999</ele>
        <time>2013-07-14T07:24:03Z</time>
      </trkpt>
      <trkpt lat="46.44793052226305" lon="10.617900229990482">
        <ele>3591.1399999999999</ele>
        <time>2013-07-14T07:24:07Z</time>
      </trkpt>
      <trkpt lat="46.448006210848689" lon="10.617789169773459">
        <ele>3588.2600000000002</ele>
        <time>2013-07-14T07:24:18Z</time>
      </trkpt>
      <trkpt lat="46.448028003796935" lon="10.617771567776799">
        <ele>3587.7800000000002</ele>
        <time>2013-07-14T07:24:21Z</time>
      </trkpt>
      <trkpt lat="46.448118528351188" lon="10.617671571671963">
        <ele>3584.4099999999999</ele>
        <time>2013-07-14T07:24:33Z</time>
      </trkpt>
      <trkpt lat="46.448213830590248" lon="10.617610551416874">
        <ele>3581.5300000000002</ele>
        <time>2013-07-14T07:24:44Z</time>
      </trkpt>
      <trkpt lat="46.448255237191916" lon="10.61758297495544">
        <ele>3580.0900000000001</ele>
        <time>2013-07-14T07:24:49Z</time>
      </trkpt>
      <trkpt lat="46.448336625471711" lon="10.617519691586494">
        <ele>3577.1999999999998</ele>
        <time>2013-07-14T07:24:59Z</time>
      </trkpt>
      <trkpt lat="46.448462186381221" lon="10.617431765422225">
        <ele>3573.8400000000001</ele>
        <time>2013-07-14T07:25:13Z</time>
      </trkpt>
      <trkpt lat="46.448473921045661" lon="10.617427658289671">
        <ele>3573.8400000000001</ele>
        <time>2013-07-14T07:25:14Z</time>
      </trkpt>
      <trkpt lat="46.448572827503085" lon="10.617366386577487">
        <ele>3570.4699999999998</ele>
        <time>2013-07-14T07:25:27Z</time>
      </trkpt>
      <trkpt lat="46.448667040094733" lon="10.617275526747108">
        <ele>3569.5100000000002</ele>
        <time>2013-07-14T07:25:40Z</time>
      </trkpt>
      <trkpt lat="46.448744907975197" lon="10.617218445986509">
        <ele>3568.0700000000002</ele>
        <time>2013-07-14T07:25:53Z</time>
      </trkpt>
      <trkpt lat="46.448823614045978" lon="10.617175279185176">
        <ele>3567.1100000000001</ele>
        <time>2013-07-14T07:26:03Z</time>
      </trkpt>
      <trkpt lat="46.448933249339461" lon="10.617077713832259">
        <ele>3566.1500000000001</ele>
        <time>2013-07-14T07:26:17Z</time>
      </trkpt>
      <trkpt lat="46.449039364233613" lon="10.616992972791195">
        <ele>3564.23</ele>
        <time>2013-07-14T07:26:31Z</time>
      </trkpt>
      <trkpt lat="46.449068700894713" lon="10.616966318339109">
        <ele>3563.7399999999998</ele>
        <time>2013-07-14T07:26:35Z</time>
      </trkpt>
      <trkpt lat="46.449107676744461" lon="10.616947878152132">
        <ele>3562.7800000000002</ele>
        <time>2013-07-14T07:26:39Z</time>
      </trkpt>
      <trkpt lat="46.449122680351138" lon="10.616928264498711">
        <ele>3562.7800000000002</ele>
        <time>2013-07-14T07:26:41Z</time>
      </trkpt>
      <trkpt lat="46.44925226457417" lon="10.616832710802555">
        <ele>3560.8600000000001</ele>
        <time>2013-07-14T07:26:57Z</time>
      </trkpt>
      <trkpt lat="46.449376903474331" lon="10.61675769276917">
        <ele>3559.4200000000001</ele>
        <time>2013-07-14T07:27:11Z</time>
      </trkpt>
      <trkpt lat="46.449516294524074" lon="10.616676975041628">
        <ele>3557.02</ele>
        <time>2013-07-14T07:27:26Z</time>
      </trkpt>
      <trkpt lat="46.449626181274652" lon="10.616612266749144">
        <ele>3555.0900000000001</ele>
        <time>2013-07-14T07:27:39Z</time>
      </trkpt>
      <trkpt lat="46.449756100773811" lon="10.616516126319766">
        <ele>3552.21</ele>
        <time>2013-07-14T07:27:55Z</time>
      </trkpt>
      <trkpt lat="46.449890462681651" lon="10.616411687806249">
        <ele>3549.8099999999999</ele>
        <time>2013-07-14T07:28:11Z</time>
      </trkpt>
      <trkpt lat="46.450019711628556" lon="10.616319486871362">
        <ele>3547.8800000000001</ele>
        <time>2013-07-14T07:28:26Z</time>
      </trkpt>
      <trkpt lat="46.450128760188818" lon="10.616239607334137">
        <ele>3545.48</ele>
        <time>2013-07-14T07:28:41Z</time>
      </trkpt>
      <trkpt lat="46.450236886739731" lon="10.616173893213272">
        <ele>3542.5999999999999</ele>
        <time>2013-07-14T07:28:53Z</time>
      </trkpt>
      <trkpt lat="46.450385078787804" lon="10.616094181314111">
        <ele>3540.1900000000001</ele>
        <time>2013-07-14T07:29:08Z</time>
      </trkpt>
      <trkpt lat="46.45045917481184" lon="10.616054954007268">
        <ele>3538.27</ele>
        <time>2013-07-14T07:29:16Z</time>
      </trkpt>
      <trkpt lat="46.450467891991138" lon="10.616049505770206">
        <ele>3538.27</ele>
        <time>2013-07-14T07:29:17Z</time>
      </trkpt>
      <trkpt lat="46.450484823435545" lon="10.616032490506768">
        <ele>3538.27</ele>
        <time>2013-07-14T07:29:19Z</time>
      </trkpt>
      <trkpt lat="46.45055154338479" lon="10.615988988429308">
        <ele>3538.27</ele>
        <time>2013-07-14T07:29:27Z</time>
      </trkpt>
      <trkpt lat="46.45058230496943" lon="10.615995023399591">
        <ele>3536.8299999999999</ele>
        <time>2013-07-14T07:29:30Z</time>
      </trkpt>
      <trkpt lat="46.450611054897308" lon="10.615974152460694">
        <ele>3536.3499999999999</ele>
        <time>2013-07-14T07:29:35Z</time>
      </trkpt>
      <trkpt lat="46.450726892799139" lon="10.615881867706776">
        <ele>3534.9000000000001</ele>
        <time>2013-07-14T07:29:50Z</time>
      </trkpt>
      <trkpt lat="46.45084960386157" lon="10.615804838016629">
        <ele>3532.02</ele>
        <time>2013-07-14T07:30:05Z</time>
      </trkpt>
      <trkpt lat="46.45091992802918" lon="10.615759240463376">
        <ele>3531.0599999999999</ele>
        <time>2013-07-14T07:30:15Z</time>
      </trkpt>
      <trkpt lat="46.450985223054886" lon="10.615699980407953">
        <ele>3529.6199999999999</ele>
        <time>2013-07-14T07:30:24Z</time>
      </trkpt>
      <trkpt lat="46.451070047914982" lon="10.615646336227655">
        <ele>3527.6900000000001</ele>
        <time>2013-07-14T07:30:36Z</time>
      </trkpt>
      <trkpt lat="46.451196866109967" lon="10.615553967654705">
        <ele>3524.8099999999999</ele>
        <time>2013-07-14T07:30:52Z</time>
      </trkpt>
      <trkpt lat="46.451324690133333" lon="10.615466209128499">
        <ele>3521.4499999999998</ele>
        <time>2013-07-14T07:31:07Z</time>
      </trkpt>
      <trkpt lat="46.451445557177067" lon="10.615401668474078">
        <ele>3518.5599999999999</ele>
        <time>2013-07-14T07:31:21Z</time>
      </trkpt>
      <trkpt lat="46.45157958380878" lon="10.61530938372016">
        <ele>3515.1999999999998</ele>
        <time>2013-07-14T07:31:36Z</time>
      </trkpt>
      <trkpt lat="46.451594587415457" lon="10.61529815196991">
        <ele>3514.2399999999998</ele>
        <time>2013-07-14T07:31:38Z</time>
      </trkpt>
      <trkpt lat="46.451608166098595" lon="10.615278203040361">
        <ele>3513.7600000000002</ele>
        <time>2013-07-14T07:31:40Z</time>
      </trkpt>
      <trkpt lat="46.451708748936653" lon="10.615202430635691">
        <ele>3511.3499999999999</ele>
        <time>2013-07-14T07:31:54Z</time>
      </trkpt>
      <trkpt lat="46.451730038970709" lon="10.615184577181935">
        <ele>3511.3499999999999</ele>
        <time>2013-07-14T07:31:56Z</time>
      </trkpt>
      <trkpt lat="46.451815282925963" lon="10.615103440359235">
        <ele>3508.9499999999998</ele>
        <time>2013-07-14T07:32:09Z</time>
      </trkpt>
      <trkpt lat="46.45191477611661" lon="10.614996151998639">
        <ele>3506.0700000000002</ele>
        <time>2013-07-14T07:32:22Z</time>
      </trkpt>
      <trkpt lat="46.452010916545987" lon="10.61490386724472">
        <ele>3504.1399999999999</ele>
        <time>2013-07-14T07:32:33Z</time>
      </trkpt>
      <trkpt lat="46.452136477455497" lon="10.614765901118517">
        <ele>3502.2199999999998</ele>
        <time>2013-07-14T07:32:49Z</time>
      </trkpt>
      <trkpt lat="46.45221141166985" lon="10.614683507010341">
        <ele>3500.7800000000002</ele>
        <time>2013-07-14T07:33:03Z</time>
      </trkpt>
      <trkpt lat="46.452206214889884" lon="10.61467420309782">
        <ele>3500.7800000000002</ele>
        <time>2013-07-14T07:33:21Z</time>
      </trkpt>
      <trkpt lat="46.452257512137294" lon="10.61465023085475">
        <ele>3500.3000000000002</ele>
        <time>2013-07-14T07:33:36Z</time>
      </trkpt>
      <trkpt lat="46.452372595667839" lon="10.614567920565605">
        <ele>3499.3400000000001</ele>
        <time>2013-07-14T07:33:51Z</time>
      </trkpt>
      <trkpt lat="46.452498910948634" lon="10.614482006058097">
        <ele>3499.3400000000001</ele>
        <time>2013-07-14T07:34:06Z</time>
      </trkpt>
      <trkpt lat="46.452631847932935" lon="10.614414028823376">
        <ele>3499.8200000000002</ele>
        <time>2013-07-14T07:34:22Z</time>
      </trkpt>
      <trkpt lat="46.452711476013064" lon="10.614373628050089">
        <ele>3499.3400000000001</ele>
        <time>2013-07-14T07:34:32Z</time>
      </trkpt>
      <trkpt lat="46.452804682776332" lon="10.614317804574966">
        <ele>3499.3400000000001</ele>
        <time>2013-07-14T07:34:44Z</time>
      </trkpt>
      <trkpt lat="46.452875174582005" lon="10.614271787926555">
        <ele>3498.8600000000001</ele>
        <time>2013-07-14T07:34:54Z</time>
      </trkpt>
      <trkpt lat="46.452963603660464" lon="10.61421831138432">
        <ele>3498.8600000000001</ele>
        <time>2013-07-14T07:35:05Z</time>
      </trkpt>
      <trkpt lat="46.45307625643909" lon="10.614167433232069">
        <ele>3498.3800000000001</ele>
        <time>2013-07-14T07:35:19Z</time>
      </trkpt>
      <trkpt lat="46.453169463202357" lon="10.614119824022055">
        <ele>3497.8899999999999</ele>
        <time>2013-07-14T07:35:30Z</time>
      </trkpt>
      <trkpt lat="46.453284882009029" lon="10.614068694412708">
        <ele>3496.9299999999998</ele>
        <time>2013-07-14T07:35:43Z</time>
      </trkpt>
      <trkpt lat="46.453420501202345" lon="10.614001555368304">
        <ele>3496.4499999999998</ele>
        <time>2013-07-14T07:35:59Z</time>
      </trkpt>
      <trkpt lat="46.453486634418368" lon="10.613967021927238">
        <ele>3495.9699999999998</ele>
        <time>2013-07-14T07:36:06Z</time>
      </trkpt>
      <trkpt lat="46.453632144257426" lon="10.613893512636423">
        <ele>3495.0100000000002</ele>
        <time>2013-07-14T07:36:22Z</time>
      </trkpt>
      <trkpt lat="46.45371537655592" lon="10.613815896213055">
        <ele>3494.0500000000002</ele>
        <time>2013-07-14T07:36:32Z</time>
      </trkpt>
      <trkpt lat="46.453803554177284" lon="10.613775998353958">
        <ele>3493.5700000000002</ele>
        <time>2013-07-14T07:36:42Z</time>
      </trkpt>
      <trkpt lat="46.453900448977947" lon="10.613706512376666">
        <ele>3492.1300000000001</ele>
        <time>2013-07-14T07:36:55Z</time>
      </trkpt>
      <trkpt lat="46.453916039317846" lon="10.613698214292526">
        <ele>3492.6100000000001</ele>
        <time>2013-07-14T07:36:57Z</time>
      </trkpt>
      <trkpt lat="46.454061130061746" lon="10.613603498786688">
        <ele>3490.1999999999998</ele>
        <time>2013-07-14T07:37:14Z</time>
      </trkpt>
      <trkpt lat="46.454163221642375" lon="10.613533845171332">
        <ele>3489.2399999999998</ele>
        <time>2013-07-14T07:37:27Z</time>
      </trkpt>
      <trkpt lat="46.4542724378407" lon="10.613430412486196">
        <ele>3487.3200000000002</ele>
        <time>2013-07-14T07:37:41Z</time>
      </trkpt>
      <trkpt lat="46.454296745359898" lon="10.613411050289869">
        <ele>3487.3200000000002</ele>
        <time>2013-07-14T07:37:44Z</time>
      </trkpt>
      <trkpt lat="46.454418366774917" lon="10.61332262121141">
        <ele>3484.9200000000001</ele>
        <time>2013-07-14T07:37:59Z</time>
      </trkpt>
      <trkpt lat="46.454541413113475" lon="10.613233018666506">
        <ele>3482.0300000000002</ele>
        <time>2013-07-14T07:38:14Z</time>
      </trkpt>
      <trkpt lat="46.454588687047362" lon="10.613201754167676">
        <ele>3481.5500000000002</ele>
        <time>2013-07-14T07:38:20Z</time>
      </trkpt>
      <trkpt lat="46.45461349748075" lon="10.613181972876191">
        <ele>3480.5900000000001</ele>
        <time>2013-07-14T07:38:23Z</time>
      </trkpt>
      <trkpt lat="46.454730844125152" lon="10.613089436665177">
        <ele>3478.1900000000001</ele>
        <time>2013-07-14T07:38:37Z</time>
      </trkpt>
      <trkpt lat="46.454825894907117" lon="10.613010562956333">
        <ele>3476.75</ele>
        <time>2013-07-14T07:38:49Z</time>
      </trkpt>
      <trkpt lat="46.454944917932153" lon="10.612924732267857">
        <ele>3474.3400000000001</ele>
        <time>2013-07-14T07:39:04Z</time>
      </trkpt>
      <trkpt lat="46.455051200464368" lon="10.612838314846158">
        <ele>3472.4200000000001</ele>
        <time>2013-07-14T07:39:19Z</time>
      </trkpt>
      <trkpt lat="46.455142814666033" lon="10.612778551876545">
        <ele>3471.46</ele>
        <time>2013-07-14T07:39:29Z</time>
      </trkpt>
      <trkpt lat="46.455223197117448" lon="10.612698085606098">
        <ele>3470.02</ele>
        <time>2013-07-14T07:39:43Z</time>
      </trkpt>
      <trkpt lat="46.455283798277378" lon="10.612669754773378">
        <ele>3469.0500000000002</ele>
        <time>2013-07-14T07:39:50Z</time>
      </trkpt>
      <trkpt lat="46.455385219305754" lon="10.612572524696589">
        <ele>3467.6100000000001</ele>
        <time>2013-07-14T07:40:04Z</time>
      </trkpt>
      <trkpt lat="46.455416064709425" lon="10.612550061196089">
        <ele>3468.0900000000001</ele>
        <time>2013-07-14T07:40:08Z</time>
      </trkpt>
      <trkpt lat="46.455506589263678" lon="10.612471187487245">
        <ele>3467.1300000000001</ele>
        <time>2013-07-14T07:40:21Z</time>
      </trkpt>
      <trkpt lat="46.455597868189216" lon="10.61239960603416">
        <ele>3466.1700000000001</ele>
        <time>2013-07-14T07:40:33Z</time>
      </trkpt>
      <trkpt lat="46.455709347501397" lon="10.612306902185082">
        <ele>3465.6900000000001</ele>
        <time>2013-07-14T07:40:46Z</time>
      </trkpt>
      <trkpt lat="46.455833734944463" lon="10.612197853624821">
        <ele>3464.25</ele>
        <time>2013-07-14T07:41:00Z</time>
      </trkpt>
      <trkpt lat="46.455843122676015" lon="10.612192740663886">
        <ele>3464.25</ele>
        <time>2013-07-14T07:41:01Z</time>
      </trkpt>
      <trkpt lat="46.455950746312737" lon="10.612081680446863">
        <ele>3464.25</ele>
        <time>2013-07-14T07:41:14Z</time>
      </trkpt>
      <trkpt lat="46.45596407353878" lon="10.612068185582757">
        <ele>3463.77</ele>
        <time>2013-07-14T07:41:16Z</time>
      </trkpt>
      <trkpt lat="46.456062057986856" lon="10.611939271911979">
        <ele>3463.29</ele>
        <time>2013-07-14T07:41:29Z</time>
      </trkpt>
      <trkpt lat="46.45617219619453" lon="10.611787140369415">
        <ele>3461.3600000000001</ele>
        <time>2013-07-14T07:41:44Z</time>
      </trkpt>
      <trkpt lat="46.456249728798866" lon="10.61169695109129">
        <ele>3460.4000000000001</ele>
        <time>2013-07-14T07:41:54Z</time>
      </trkpt>
      <trkpt lat="46.456335224211216" lon="10.61160852201283">
        <ele>3459.4400000000001</ele>
        <time>2013-07-14T07:42:05Z</time>
      </trkpt>
      <trkpt lat="46.456457851454616" lon="10.611481368541718">
        <ele>3458</ele>
        <time>2013-07-14T07:42:20Z</time>
      </trkpt>
      <trkpt lat="46.456562373787165" lon="10.611380618065596">
        <ele>3455.5999999999999</ele>
        <time>2013-07-14T07:42:34Z</time>
      </trkpt>
      <trkpt lat="46.456657508388162" lon="10.61126553453505">
        <ele>3453.6700000000001</ele>
        <time>2013-07-14T07:42:49Z</time>
      </trkpt>
      <trkpt lat="46.456751301884651" lon="10.611171657219529">
        <ele>3451.27</ele>
        <time>2013-07-14T07:43:02Z</time>
      </trkpt>
      <trkpt lat="46.456816261634231" lon="10.611118096858263">
        <ele>3449.8299999999999</ele>
        <time>2013-07-14T07:43:12Z</time>
      </trkpt>
      <trkpt lat="46.456857249140739" lon="10.611054562032223">
        <ele>3447.9099999999999</ele>
        <time>2013-07-14T07:43:24Z</time>
      </trkpt>
      <trkpt lat="46.456945594400167" lon="10.610989853739738">
        <ele>3444.54</ele>
        <time>2013-07-14T07:43:38Z</time>
      </trkpt>
      <trkpt lat="46.45701658912003" lon="10.610930006951094">
        <ele>3441.1799999999998</ele>
        <time>2013-07-14T07:43:51Z</time>
      </trkpt>
      <trkpt lat="46.457096133381128" lon="10.610891617834568">
        <ele>3438.29</ele>
        <time>2013-07-14T07:44:05Z</time>
      </trkpt>
      <trkpt lat="46.457163691520691" lon="10.610838560387492">
        <ele>3434.9299999999998</ele>
        <time>2013-07-14T07:44:16Z</time>
      </trkpt>
      <trkpt lat="46.457216748967767" lon="10.610800422728062">
        <ele>3432.04</ele>
        <time>2013-07-14T07:44:25Z</time>
      </trkpt>
      <trkpt lat="46.457278188318014" lon="10.610764799639583">
        <ele>3429.1599999999999</ele>
        <time>2013-07-14T07:44:38Z</time>
      </trkpt>
      <trkpt lat="46.457322025671601" lon="10.61074074357748">
        <ele>3426.2800000000002</ele>
        <time>2013-07-14T07:44:47Z</time>
      </trkpt>
      <trkpt lat="46.457391595467925" lon="10.610698666423559">
        <ele>3422.9099999999999</ele>
        <time>2013-07-14T07:44:59Z</time>
      </trkpt>
      <trkpt lat="46.457450520247221" lon="10.610667066648602">
        <ele>3419.5500000000002</ele>
        <time>2013-07-14T07:45:10Z</time>
      </trkpt>
      <trkpt lat="46.457491340115666" lon="10.61064544133842">
        <ele>3417.6199999999999</ele>
        <time>2013-07-14T07:45:17Z</time>
      </trkpt>
      <trkpt lat="46.457547247409821" lon="10.610601603984833">
        <ele>3414.2600000000002</ele>
        <time>2013-07-14T07:45:24Z</time>
      </trkpt>
      <trkpt lat="46.457589911296964" lon="10.61057947576046">
        <ele>3411.8600000000001</ele>
        <time>2013-07-14T07:45:29Z</time>
      </trkpt>
      <trkpt lat="46.45764590241015" lon="10.610529268160462">
        <ele>3408.0100000000002</ele>
        <time>2013-07-14T07:45:37Z</time>
      </trkpt>
      <trkpt lat="46.457660906016827" lon="10.610513342544436">
        <ele>3407.0500000000002</ele>
        <time>2013-07-14T07:45:39Z</time>
      </trkpt>
      <trkpt lat="46.457725279033184" lon="10.610457267612219">
        <ele>3404.1700000000001</ele>
        <time>2013-07-14T07:45:48Z</time>
      </trkpt>
      <trkpt lat="46.457803146913648" lon="10.610393481329083">
        <ele>3400.8000000000002</ele>
        <time>2013-07-14T07:45:58Z</time>
      </trkpt>
      <trkpt lat="46.457836171612144" lon="10.610350565984845">
        <ele>3399.3600000000001</ele>
        <time>2013-07-14T07:46:11Z</time>
      </trkpt>
      <trkpt lat="46.45784237422049" lon="10.610337406396866">
        <ele>3398.8800000000001</ele>
        <time>2013-07-14T07:46:25Z</time>
      </trkpt>
      <trkpt lat="46.457862239331007" lon="10.610322318971157">
        <ele>3398.8800000000001</ele>
        <time>2013-07-14T07:46:42Z</time>
      </trkpt>
      <trkpt lat="46.457886127755046" lon="10.610309913754463">
        <ele>3397.4400000000001</ele>
        <time>2013-07-14T07:46:57Z</time>
      </trkpt>
      <trkpt lat="46.457973215728998" lon="10.610257778316736">
        <ele>3394.0700000000002</ele>
        <time>2013-07-14T07:47:08Z</time>
      </trkpt>
      <trkpt lat="46.458065416663885" lon="10.610170690342784">
        <ele>3390.71</ele>
        <time>2013-07-14T07:47:21Z</time>
      </trkpt>
      <trkpt lat="46.458123167976737" lon="10.610102629289031">
        <ele>3387.3400000000001</ele>
        <time>2013-07-14T07:47:30Z</time>
      </trkpt>
      <trkpt lat="46.458186618983746" lon="10.610020067542791">
        <ele>3383.98</ele>
        <time>2013-07-14T07:47:40Z</time>
      </trkpt>
      <trkpt lat="46.458267588168383" lon="10.609911354258657">
        <ele>3380.1300000000001</ele>
        <time>2013-07-14T07:47:50Z</time>
      </trkpt>
      <trkpt lat="46.458364315330982" lon="10.609684037044644">
        <ele>3377.25</ele>
        <time>2013-07-14T07:48:02Z</time>
      </trkpt>
      <trkpt lat="46.458415361121297" lon="10.60954799875617">
        <ele>3376.29</ele>
        <time>2013-07-14T07:48:11Z</time>
      </trkpt>
      <trkpt lat="46.458418378606439" lon="10.609532659873366">
        <ele>3376.29</ele>
        <time>2013-07-14T07:48:12Z</time>
      </trkpt>
      <trkpt lat="46.45842139609158" lon="10.609519248828292">
        <ele>3376.29</ele>
        <time>2013-07-14T07:48:13Z</time>
      </trkpt>
      <trkpt lat="46.458424497395754" lon="10.609505334869027">
        <ele>3375.8099999999999</ele>
        <time>2013-07-14T07:48:14Z</time>
      </trkpt>
      <trkpt lat="46.458427347242832" lon="10.609490163624287">
        <ele>3375.8099999999999</ele>
        <time>2013-07-14T07:48:15Z</time>
      </trkpt>
      <trkpt lat="46.458431286737323" lon="10.60947516001761">
        <ele>3375.3299999999999</ele>
        <time>2013-07-14T07:48:16Z</time>
      </trkpt>
      <trkpt lat="46.458436818793416" lon="10.609460826963186">
        <ele>3375.3299999999999</ele>
        <time>2013-07-14T07:48:17Z</time>
      </trkpt>
      <trkpt lat="46.458445452153683" lon="10.609448421746492">
        <ele>3375.8099999999999</ele>
        <time>2013-07-14T07:48:18Z</time>
      </trkpt>
      <trkpt lat="46.458452828228474" lon="10.609432831406593">
        <ele>3375.3299999999999</ele>
        <time>2013-07-14T07:48:19Z</time>
      </trkpt>
      <trkpt lat="46.458549555391073" lon="10.609226804226637">
        <ele>3374.3600000000001</ele>
        <time>2013-07-14T07:48:34Z</time>
      </trkpt>
      <trkpt lat="46.458569085225463" lon="10.609188415110111">
        <ele>3372.9200000000001</ele>
        <time>2013-07-14T07:48:37Z</time>
      </trkpt>
      <trkpt lat="46.458606384694576" lon="10.609128652140498">
        <ele>3372.9200000000001</ele>
        <time>2013-07-14T07:48:42Z</time>
      </trkpt>
      <trkpt lat="46.458611581474543" lon="10.60911113396287">
        <ele>3372.4400000000001</ele>
        <time>2013-07-14T07:48:43Z</time>
      </trkpt>
      <trkpt lat="46.458619963377714" lon="10.609099818393588">
        <ele>3372.4400000000001</ele>
        <time>2013-07-14T07:48:44Z</time>
      </trkpt>
      <trkpt lat="46.458737561479211" lon="10.608949111774564">
        <ele>3370.04</ele>
        <time>2013-07-14T07:48:59Z</time>
      </trkpt>
      <trkpt lat="46.458744602277875" lon="10.608940059319139">
        <ele>3370.04</ele>
        <time>2013-07-14T07:49:00Z</time>
      </trkpt>
      <trkpt lat="46.458754492923617" lon="10.608933689072728">
        <ele>3369.5599999999999</ele>
        <time>2013-07-14T07:49:01Z</time>
      </trkpt>
      <trkpt lat="46.458866391330957" lon="10.608778623864055">
        <ele>3366.1900000000001</ele>
        <time>2013-07-14T07:49:16Z</time>
      </trkpt>
      <trkpt lat="46.458915928378701" lon="10.608720872551203">
        <ele>3364.75</ele>
        <time>2013-07-14T07:49:22Z</time>
      </trkpt>
      <trkpt lat="46.459005028009415" lon="10.608621630817652">
        <ele>3361.8699999999999</ele>
        <time>2013-07-14T07:49:34Z</time>
      </trkpt>
      <trkpt lat="46.459094965830445" lon="10.608539152890444">
        <ele>3358.5</ele>
        <time>2013-07-14T07:49:46Z</time>
      </trkpt>
      <trkpt lat="46.459184316918254" lon="10.608448628336191">
        <ele>3355.1399999999999</ele>
        <time>2013-07-14T07:49:58Z</time>
      </trkpt>
      <trkpt lat="46.459277188405395" lon="10.60835181735456">
        <ele>3351.77</ele>
        <time>2013-07-14T07:50:11Z</time>
      </trkpt>
      <trkpt lat="46.45934684202075" lon="10.608257353305817">
        <ele>3348.8899999999999</ele>
        <time>2013-07-14T07:50:22Z</time>
      </trkpt>
      <trkpt lat="46.45943284034729" lon="10.608141431584954">
        <ele>3345.52</ele>
        <time>2013-07-14T07:50:35Z</time>
      </trkpt>
      <trkpt lat="46.45952370017767" lon="10.608026683330536">
        <ele>3342.6399999999999</ele>
        <time>2013-07-14T07:50:49Z</time>
      </trkpt>
      <trkpt lat="46.459602238610387" lon="10.607932722195983">
        <ele>3339.2800000000002</ele>
        <time>2013-07-14T07:51:03Z</time>
      </trkpt>
      <trkpt lat="46.459711035713553" lon="10.607856195420027">
        <ele>3336.3899999999999</ele>
        <time>2013-07-14T07:51:16Z</time>
      </trkpt>
      <trkpt lat="46.459813043475151" lon="10.607791654765606">
        <ele>3333.0300000000002</ele>
        <time>2013-07-14T07:51:29Z</time>
      </trkpt>
      <trkpt lat="46.459941957145929" lon="10.607749661430717">
        <ele>3330.6199999999999</ele>
        <time>2013-07-14T07:51:43Z</time>
      </trkpt>
      <trkpt lat="46.460099536925554" lon="10.607777321711183">
        <ele>3327.2600000000002</ele>
        <time>2013-07-14T07:51:58Z</time>
      </trkpt>
      <trkpt lat="46.460216632112861" lon="10.607811771333218">
        <ele>3325.3400000000001</ele>
        <time>2013-07-14T07:52:13Z</time>
      </trkpt>
      <trkpt lat="46.460313107818365" lon="10.60784513130784">
        <ele>3323.4200000000001</ele>
        <time>2013-07-14T07:52:28Z</time>
      </trkpt>
      <trkpt lat="46.460397345945239" lon="10.607875473797321">
        <ele>3320.5300000000002</ele>
        <time>2013-07-14T07:52:42Z</time>
      </trkpt>
      <trkpt lat="46.460492396727204" lon="10.607931884005666">
        <ele>3318.6100000000001</ele>
        <time>2013-07-14T07:52:58Z</time>
      </trkpt>
      <trkpt lat="46.460558865219355" lon="10.607965663075447">
        <ele>3316.6900000000001</ele>
        <time>2013-07-14T07:53:07Z</time>
      </trkpt>
      <trkpt lat="46.460640337318182" lon="10.607948312535882">
        <ele>3313.3200000000002</ele>
        <time>2013-07-14T07:53:16Z</time>
      </trkpt>
      <trkpt lat="46.460730610415339" lon="10.607883352786303">
        <ele>3309.48</ele>
        <time>2013-07-14T07:53:25Z</time>
      </trkpt>
      <trkpt lat="46.460782494395971" lon="10.607823254540563">
        <ele>3306.1100000000001</ele>
        <time>2013-07-14T07:53:31Z</time>
      </trkpt>
      <trkpt lat="46.460786936804652" lon="10.607813196256757">
        <ele>3306.1100000000001</ele>
        <time>2013-07-14T07:53:32Z</time>
      </trkpt>
      <trkpt lat="46.460865810513496" lon="10.60771906748414">
        <ele>3303.23</ele>
        <time>2013-07-14T07:53:44Z</time>
      </trkpt>
      <trkpt lat="46.460889028385282" lon="10.607678331434727">
        <ele>3303.23</ele>
        <time>2013-07-14T07:53:48Z</time>
      </trkpt>
      <trkpt lat="46.460927249863744" lon="10.607557548210025">
        <ele>3302.75</ele>
        <time>2013-07-14T07:54:00Z</time>
      </trkpt>
      <trkpt lat="46.460933703929186" lon="10.607515219599009">
        <ele>3302.75</ele>
        <time>2013-07-14T07:54:04Z</time>
      </trkpt>
      <trkpt lat="46.46092850714922" lon="10.607370715588331">
        <ele>3303.71</ele>
        <time>2013-07-14T07:54:18Z</time>
      </trkpt>
      <trkpt lat="46.460928590968251" lon="10.607281196862459">
        <ele>3304.1900000000001</ele>
        <time>2013-07-14T07:54:33Z</time>
      </trkpt>
      <trkpt lat="46.460940996184945" lon="10.607174327597022">
        <ele>3304.6700000000001</ele>
        <time>2013-07-14T07:54:47Z</time>
      </trkpt>
      <trkpt lat="46.460938984528184" lon="10.607012221589684">
        <ele>3305.1500000000001</ele>
        <time>2013-07-14T07:55:02Z</time>
      </trkpt>
      <trkpt lat="46.46096421405673" lon="10.606832262128592">
        <ele>3303.71</ele>
        <time>2013-07-14T07:55:16Z</time>
      </trkpt>
      <trkpt lat="46.460968656465411" lon="10.606764620169997">
        <ele>3302.75</ele>
        <time>2013-07-14T07:55:20Z</time>
      </trkpt>
      <trkpt lat="46.460978547111154" lon="10.606678035110235">
        <ele>3301.3000000000002</ele>
        <time>2013-07-14T07:55:26Z</time>
      </trkpt>
      <trkpt lat="46.460984582081437" lon="10.606431690976024">
        <ele>3298.4200000000001</ele>
        <time>2013-07-14T07:55:42Z</time>
      </trkpt>
      <trkpt lat="46.460996819660068" lon="10.606325911357999">
        <ele>3297.46</ele>
        <time>2013-07-14T07:55:49Z</time>
      </trkpt>
      <trkpt lat="46.461002184078097" lon="10.606296742334962">
        <ele>3296.5</ele>
        <time>2013-07-14T07:55:51Z</time>
      </trkpt>
      <trkpt lat="46.461046021431684" lon="10.606107814237475">
        <ele>3294.0900000000001</ele>
        <time>2013-07-14T07:56:05Z</time>
      </trkpt>
      <trkpt lat="46.461067982017994" lon="10.606020642444491">
        <ele>3292.6500000000001</ele>
        <time>2013-07-14T07:56:17Z</time>
      </trkpt>
      <trkpt lat="46.461074184626341" lon="10.6059614662081">
        <ele>3292.1700000000001</ele>
        <time>2013-07-14T07:56:37Z</time>
      </trkpt>
      <trkpt lat="46.461143838241696" lon="10.605809669941664">
        <ele>3289.29</ele>
        <time>2013-07-14T07:56:51Z</time>
      </trkpt>
      <trkpt lat="46.461167056113482" lon="10.605761306360364">
        <ele>3287.8499999999999</ele>
        <time>2013-07-14T07:56:55Z</time>
      </trkpt>
      <trkpt lat="46.461180467158556" lon="10.605738842859864">
        <ele>3288.3299999999999</ele>
        <time>2013-07-14T07:56:57Z</time>
      </trkpt>
      <trkpt lat="46.461278200149536" lon="10.60553734190762">
        <ele>3284</ele>
        <time>2013-07-14T07:57:14Z</time>
      </trkpt>
      <trkpt lat="46.461370484903455" lon="10.605333242565393">
        <ele>3282.0799999999999</ele>
        <time>2013-07-14T07:57:30Z</time>
      </trkpt>
      <trkpt lat="46.461484143510461" lon="10.605097627267241">
        <ele>3279.6700000000001</ele>
        <time>2013-07-14T07:57:49Z</time>
      </trkpt>
      <trkpt lat="46.461566705256701" lon="10.604919763281941">
        <ele>3278.23</ele>
        <time>2013-07-14T07:58:05Z</time>
      </trkpt>
      <trkpt lat="46.461647339165211" lon="10.604770984500647">
        <ele>3276.79</ele>
        <time>2013-07-14T07:58:20Z</time>
      </trkpt>
      <trkpt lat="46.461727470159531" lon="10.604632012546062">
        <ele>3275.3499999999999</ele>
        <time>2013-07-14T07:58:35Z</time>
      </trkpt>
      <trkpt lat="46.461785724386573" lon="10.604512738063931">
        <ele>3273.9099999999999</ele>
        <time>2013-07-14T07:58:49Z</time>
      </trkpt>
      <trkpt lat="46.461863592267036" lon="10.604376029223204">
        <ele>3271.02</ele>
        <time>2013-07-14T07:59:03Z</time>
      </trkpt>
      <trkpt lat="46.461929474025965" lon="10.604253737255931">
        <ele>3267.6599999999999</ele>
        <time>2013-07-14T07:59:15Z</time>
      </trkpt>
      <trkpt lat="46.461946740746498" lon="10.604206630960107">
        <ele>3266.6999999999998</ele>
        <time>2013-07-14T07:59:19Z</time>
      </trkpt>
      <trkpt lat="46.462012873962522" lon="10.604053912684321">
        <ele>3263.3299999999999</ele>
        <time>2013-07-14T07:59:32Z</time>
      </trkpt>
      <trkpt lat="46.462066015228629" lon="10.603939248248935">
        <ele>3261.4099999999999</ele>
        <time>2013-07-14T07:59:46Z</time>
      </trkpt>
      <trkpt lat="46.46210566163063" lon="10.603832211345434">
        <ele>3260.9299999999998</ele>
        <time>2013-07-14T08:00:00Z</time>
      </trkpt>
      <trkpt lat="46.462145810946822" lon="10.603734310716391">
        <ele>3260.4499999999998</ele>
        <time>2013-07-14T08:00:14Z</time>
      </trkpt>
      <trkpt lat="46.462194845080376" lon="10.603618221357465">
        <ele>3260.9299999999998</ele>
        <time>2013-07-14T08:00:27Z</time>
      </trkpt>
      <trkpt lat="46.462254859507084" lon="10.603493331000209">
        <ele>3262.8499999999999</ele>
        <time>2013-07-14T08:00:44Z</time>
      </trkpt>
      <trkpt lat="46.462305570021272" lon="10.60337514616549">
        <ele>3265.2600000000002</ele>
        <time>2013-07-14T08:00:59Z</time>
      </trkpt>
      <trkpt lat="46.462364243343472" lon="10.603269785642624">
        <ele>3265.2600000000002</ele>
        <time>2013-07-14T08:01:15Z</time>
      </trkpt>
      <trkpt lat="46.462423922494054" lon="10.6031484156847">
        <ele>3266.2199999999998</ele>
        <time>2013-07-14T08:01:31Z</time>
      </trkpt>
      <trkpt lat="46.462435489520431" lon="10.603141710162163">
        <ele>3266.2199999999998</ele>
        <time>2013-07-14T08:01:50Z</time>
      </trkpt>
      <trkpt lat="46.462492905557156" lon="10.602971892803907">
        <ele>3267.1799999999998</ele>
        <time>2013-07-14T08:02:02Z</time>
      </trkpt>
      <trkpt lat="46.462560128420591" lon="10.60279855504632">
        <ele>3268.6199999999999</ele>
        <time>2013-07-14T08:02:15Z</time>
      </trkpt>
      <trkpt lat="46.462622992694378" lon="10.602638209238648">
        <ele>3268.1399999999999</ele>
        <time>2013-07-14T08:02:30Z</time>
      </trkpt>
      <trkpt lat="46.462645540013909" lon="10.602602334693074">
        <ele>3267.6599999999999</ele>
        <time>2013-07-14T08:02:42Z</time>
      </trkpt>
      <trkpt lat="46.462694741785526" lon="10.602511474862695">
        <ele>3266.2199999999998</ele>
        <time>2013-07-14T08:02:54Z</time>
      </trkpt>
      <trkpt lat="46.462702536955476" lon="10.602471912279725">
        <ele>3266.2199999999998</ele>
        <time>2013-07-14T08:03:06Z</time>
      </trkpt>
      <trkpt lat="46.462710248306394" lon="10.602465625852346">
        <ele>3267.1799999999998</ele>
        <time>2013-07-14T08:03:17Z</time>
      </trkpt>
      <trkpt lat="46.462719384580851" lon="10.602449784055352">
        <ele>3267.1799999999998</ele>
        <time>2013-07-14T08:03:27Z</time>
      </trkpt>
      <trkpt lat="46.462717959657311" lon="10.602478282526135">
        <ele>3266.6999999999998</ele>
        <time>2013-07-14T08:03:32Z</time>
      </trkpt>
      <trkpt lat="46.462715025991201" lon="10.6024438329041">
        <ele>3265.7399999999998</ele>
        <time>2013-07-14T08:03:48Z</time>
      </trkpt>
      <trkpt lat="46.462719049304724" lon="10.602427152916789">
        <ele>3265.2600000000002</ele>
        <time>2013-07-14T08:04:10Z</time>
      </trkpt>
      <trkpt lat="46.462731957435608" lon="10.602428074926138">
        <ele>3265.2600000000002</ele>
        <time>2013-07-14T08:04:39Z</time>
      </trkpt>
      <trkpt lat="46.462747044861317" lon="10.602432517334819">
        <ele>3265.2600000000002</ele>
        <time>2013-07-14T08:05:15Z</time>
      </trkpt>
      <trkpt lat="46.462754253298044" lon="10.602421704679728">
        <ele>3265.2600000000002</ele>
        <time>2013-07-14T08:05:43Z</time>
      </trkpt>
      <trkpt lat="46.46273254416883" lon="10.602435786277056">
        <ele>3265.2600000000002</ele>
        <time>2013-07-14T08:06:23Z</time>
      </trkpt>
      <trkpt lat="46.462733633816242" lon="10.602436875924468">
        <ele>3265.2600000000002</ele>
        <time>2013-07-14T08:07:09Z</time>
      </trkpt>
      <trkpt lat="46.462729694321752" lon="10.602427488192916">
        <ele>3265.2600000000002</ele>
        <time>2013-07-14T08:07:48Z</time>
      </trkpt>
      <trkpt lat="46.462742434814572" lon="10.602444838732481">
        <ele>3264.77</ele>
        <time>2013-07-14T08:08:26Z</time>
      </trkpt>
      <trkpt lat="46.462731789797544" lon="10.602433355525136">
        <ele>3265.7399999999998</ele>
        <time>2013-07-14T08:09:02Z</time>
      </trkpt>
      <trkpt lat="46.462729191407561" lon="10.602440312504768">
        <ele>3265.2600000000002</ele>
        <time>2013-07-14T08:09:39Z</time>
      </trkpt>
      <trkpt lat="46.46274771541357" lon="10.602438133209944">
        <ele>3265.7399999999998</ele>
        <time>2013-07-14T08:10:14Z</time>
      </trkpt>
      <trkpt lat="46.462732292711735" lon="10.60247166082263">
        <ele>3265.2600000000002</ele>
        <time>2013-07-14T08:10:29Z</time>
      </trkpt>
      <trkpt lat="46.462735561653972" lon="10.602476103231311">
        <ele>3265.2600000000002</ele>
        <time>2013-07-14T08:10:35Z</time>
      </trkpt>
      <trkpt lat="46.462720390409231" lon="10.602490603923798">
        <ele>3266.6999999999998</ele>
        <time>2013-07-14T08:10:46Z</time>
      </trkpt>
      <trkpt lat="46.462738243862987" lon="10.602480797097087">
        <ele>3266.2199999999998</ele>
        <time>2013-07-14T08:10:48Z</time>
      </trkpt>
      <trkpt lat="46.462789960205555" lon="10.602462105453014">
        <ele>3266.2199999999998</ele>
        <time>2013-07-14T08:10:53Z</time>
      </trkpt>
      <trkpt lat="46.462866822257638" lon="10.602341573685408">
        <ele>3268.6199999999999</ele>
        <time>2013-07-14T08:11:09Z</time>
      </trkpt>
      <trkpt lat="46.462948713451624" lon="10.602308381348848">
        <ele>3271.02</ele>
        <time>2013-07-14T08:11:22Z</time>
      </trkpt>
      <trkpt lat="46.463017528876662" lon="10.602387925609946">
        <ele>3270.54</ele>
        <time>2013-07-14T08:11:34Z</time>
      </trkpt>
      <trkpt lat="46.462997663766146" lon="10.602507870644331">
        <ele>3270.54</ele>
        <time>2013-07-14T08:11:48Z</time>
      </trkpt>
      <trkpt lat="46.463008308783174" lon="10.602536285296082">
        <ele>3270.54</ele>
        <time>2013-07-14T08:11:56Z</time>
      </trkpt>
      <trkpt lat="46.463007889688015" lon="10.602532513439655">
        <ele>3270.0599999999999</ele>
        <time>2013-07-14T08:12:13Z</time>
      </trkpt>
      <trkpt lat="46.463032867759466" lon="10.602483730763197">
        <ele>3269.5799999999999</ele>
        <time>2013-07-14T08:12:44Z</time>
      </trkpt>
      <trkpt lat="46.463039657101035" lon="10.602470152080059">
        <ele>3269.5799999999999</ele>
        <time>2013-07-14T08:13:02Z</time>
      </trkpt>
      <trkpt lat="46.463017696514726" lon="10.602491861209273">
        <ele>3269.5799999999999</ele>
        <time>2013-07-14T08:13:26Z</time>
      </trkpt>
      <trkpt lat="46.463012583553791" lon="10.602456908673048">
        <ele>3269.5799999999999</ele>
        <time>2013-07-14T08:13:53Z</time>
      </trkpt>
      <trkpt lat="46.462995652109385" lon="10.602550031617284">
        <ele>3268.6199999999999</ele>
        <time>2013-07-14T08:14:16Z</time>
      </trkpt>
      <trkpt lat="46.462995735928416" lon="10.602561431005597">
        <ele>3269.5799999999999</ele>
        <time>2013-07-14T08:14:45Z</time>
      </trkpt>
      <trkpt lat="46.462997077032924" lon="10.602545589208603">
        <ele>3269.0999999999999</ele>
        <time>2013-07-14T08:15:02Z</time>
      </trkpt>
      <trkpt lat="46.463003279641271" lon="10.602534776553512">
        <ele>3269.0999999999999</ele>
        <time>2013-07-14T08:15:17Z</time>
      </trkpt>
      <trkpt lat="46.463031442835927" lon="10.602473169565201">
        <ele>3269.0999999999999</ele>
        <time>2013-07-14T08:15:46Z</time>
      </trkpt>
      <trkpt lat="46.463029012084007" lon="10.602486748248339">
        <ele>3269.0999999999999</ele>
        <time>2013-07-14T08:16:11Z</time>
      </trkpt>
      <trkpt lat="46.463018786162138" lon="10.602496219798923">
        <ele>3269.0999999999999</ele>
        <time>2013-07-14T08:16:32Z</time>
      </trkpt>
      <trkpt lat="46.463020546361804" lon="10.602541146799922">
        <ele>3269.0999999999999</ele>
        <time>2013-07-14T08:16:58Z</time>
      </trkpt>
      <trkpt lat="46.463023060932755" lon="10.602543242275715">
        <ele>3269.0999999999999</ele>
        <time>2013-07-14T08:17:22Z</time>
      </trkpt>
      <trkpt lat="46.463016523048282" lon="10.602538296952844">
        <ele>3269.0999999999999</ele>
        <time>2013-07-14T08:17:43Z</time>
      </trkpt>
      <trkpt lat="46.463030185550451" lon="10.602574003860354">
        <ele>3269.0999999999999</ele>
        <time>2013-07-14T08:18:10Z</time>
      </trkpt>
      <trkpt lat="46.463011829182506" lon="10.602616667747498">
        <ele>3269.0999999999999</ele>
        <time>2013-07-14T08:18:34Z</time>
      </trkpt>
      <trkpt lat="46.463023060932755" lon="10.602538045495749">
        <ele>3269.0999999999999</ele>
        <time>2013-07-14T08:19:04Z</time>
      </trkpt>
      <trkpt lat="46.463014762848616" lon="10.602547014132142">
        <ele>3269.0999999999999</ele>
        <time>2013-07-14T08:19:31Z</time>
      </trkpt>
      <trkpt lat="46.46302817389369" lon="10.602516001090407">
        <ele>3269.0999999999999</ele>
        <time>2013-07-14T08:19:53Z</time>
      </trkpt>
      <trkpt lat="46.463026329874992" lon="10.602535363286734">
        <ele>3269.0999999999999</ele>
        <time>2013-07-14T08:20:14Z</time>
      </trkpt>
      <trkpt lat="46.463028928264976" lon="10.602554390206933">
        <ele>3268.6199999999999</ele>
        <time>2013-07-14T08:20:39Z</time>
      </trkpt>
      <trkpt lat="46.46303890272975" lon="10.60251516290009">
        <ele>3268.6199999999999</ele>
        <time>2013-07-14T08:21:08Z</time>
      </trkpt>
      <trkpt lat="46.463032197207212" lon="10.602513905614614">
        <ele>3268.6199999999999</ele>
        <time>2013-07-14T08:21:32Z</time>
      </trkpt>
      <trkpt lat="46.46303010173142" lon="10.602528154850006">
        <ele>3268.6199999999999</ele>
        <time>2013-07-14T08:22:04Z</time>
      </trkpt>
      <trkpt lat="46.463032197207212" lon="10.602515917271376">
        <ele>3268.6199999999999</ele>
        <time>2013-07-14T08:22:38Z</time>
      </trkpt>
      <trkpt lat="46.463038986548781" lon="10.602499321103096">
        <ele>3268.6199999999999</ele>
        <time>2013-07-14T08:23:13Z</time>
      </trkpt>
      <trkpt lat="46.463029850274324" lon="10.602508960291743">
        <ele>3268.6199999999999</ele>
        <time>2013-07-14T08:23:43Z</time>
      </trkpt>
      <trkpt lat="46.463031778112054" lon="10.602524885907769">
        <ele>3268.6199999999999</ele>
        <time>2013-07-14T08:24:04Z</time>
      </trkpt>
      <trkpt lat="46.463051559403539" lon="10.602352637797594">
        <ele>3268.6199999999999</ele>
        <time>2013-07-14T08:24:34Z</time>
      </trkpt>
      <trkpt lat="46.463048877194524" lon="10.602420028299093">
        <ele>3268.1399999999999</ele>
        <time>2013-07-14T08:24:59Z</time>
      </trkpt>
      <trkpt lat="46.463036136701703" lon="10.602507367730141">
        <ele>3268.6199999999999</ele>
        <time>2013-07-14T08:25:31Z</time>
      </trkpt>
      <trkpt lat="46.463024569675326" lon="10.602556485682726">
        <ele>3268.6199999999999</ele>
        <time>2013-07-14T08:25:58Z</time>
      </trkpt>
      <trkpt lat="46.463018450886011" lon="10.602568136528134">
        <ele>3268.1399999999999</ele>
        <time>2013-07-14T08:26:28Z</time>
      </trkpt>
      <trkpt lat="46.463025994598866" lon="10.602536536753178">
        <ele>3268.6199999999999</ele>
        <time>2013-07-14T08:26:59Z</time>
      </trkpt>
      <trkpt lat="46.463028006255627" lon="10.602545756846666">
        <ele>3268.6199999999999</ele>
        <time>2013-07-14T08:27:29Z</time>
      </trkpt>
      <trkpt lat="46.463017696514726" lon="10.602540224790573">
        <ele>3268.1399999999999</ele>
        <time>2013-07-14T08:28:01Z</time>
      </trkpt>
      <trkpt lat="46.463037058711052" lon="10.602497896179557">
        <ele>3268.6199999999999</ele>
        <time>2013-07-14T08:28:33Z</time>
      </trkpt>
      <trkpt lat="46.463050469756126" lon="10.602431008592248">
        <ele>3268.6199999999999</ele>
        <time>2013-07-14T08:29:02Z</time>
      </trkpt>
      <trkpt lat="46.463049715384841" lon="10.602440815418959">
        <ele>3268.1399999999999</ele>
        <time>2013-07-14T08:29:33Z</time>
      </trkpt>
      <trkpt lat="46.463035047054291" lon="10.602502757683396">
        <ele>3268.1399999999999</ele>
        <time>2013-07-14T08:30:00Z</time>
      </trkpt>
      <trkpt lat="46.463025156408548" lon="10.602524466812611">
        <ele>3268.1399999999999</ele>
        <time>2013-07-14T08:30:29Z</time>
      </trkpt>
      <trkpt lat="46.463028928264976" lon="10.602531842887402">
        <ele>3268.6199999999999</ele>
        <time>2013-07-14T08:30:59Z</time>
      </trkpt>
      <trkpt lat="46.463032281026244" lon="10.602530417963862">
        <ele>3268.1399999999999</ele>
        <time>2013-07-14T08:31:32Z</time>
      </trkpt>
      <trkpt lat="46.463022977113724" lon="10.602550450712442">
        <ele>3268.1399999999999</ele>
        <time>2013-07-14T08:31:55Z</time>
      </trkpt>
      <trkpt lat="46.463019624352455" lon="10.60253276489675">
        <ele>3268.1399999999999</ele>
        <time>2013-07-14T08:32:25Z</time>
      </trkpt>
      <trkpt lat="46.463027251884341" lon="10.602548941969872">
        <ele>3267.6599999999999</ele>
        <time>2013-07-14T08:32:52Z</time>
      </trkpt>
      <trkpt lat="46.463020713999867" lon="10.602569142356515">
        <ele>3268.1399999999999</ele>
        <time>2013-07-14T08:33:23Z</time>
      </trkpt>
      <trkpt lat="46.463012583553791" lon="10.602547181770205">
        <ele>3268.1399999999999</ele>
        <time>2013-07-14T08:33:47Z</time>
      </trkpt>
      <trkpt lat="46.463006548583508" lon="10.602582637220621">
        <ele>3268.1399999999999</ele>
        <time>2013-07-14T08:34:12Z</time>
      </trkpt>
      <trkpt lat="46.462993891909719" lon="10.60256109572947">
        <ele>3268.6199999999999</ele>
        <time>2013-07-14T08:34:38Z</time>
      </trkpt>
      <trkpt lat="46.46303161047399" lon="10.602544499561191">
        <ele>3268.6199999999999</ele>
        <time>2013-07-14T08:34:57Z</time>
      </trkpt>
      <trkpt lat="46.463023312389851" lon="10.602558329701424">
        <ele>3268.1399999999999</ele>
        <time>2013-07-14T08:35:20Z</time>
      </trkpt>
      <trkpt lat="46.463032700121403" lon="10.602498650550842">
        <ele>3268.1399999999999</ele>
        <time>2013-07-14T08:35:47Z</time>
      </trkpt>
      <trkpt lat="46.463035633787513" lon="10.602568220347166">
        <ele>3268.1399999999999</ele>
        <time>2013-07-14T08:36:12Z</time>
      </trkpt>
      <trkpt lat="46.463042506948113" lon="10.602533770725131">
        <ele>3268.1399999999999</ele>
        <time>2013-07-14T08:36:40Z</time>
      </trkpt>
      <trkpt lat="46.46305751055479" lon="10.602742480114102">
        <ele>3268.1399999999999</ele>
        <time>2013-07-14T08:37:09Z</time>
      </trkpt>
      <trkpt lat="46.463071424514055" lon="10.602819593623281">
        <ele>3268.1399999999999</ele>
        <time>2013-07-14T08:37:43Z</time>
      </trkpt>
      <trkpt lat="46.463050888851285" lon="10.602717502042651">
        <ele>3268.1399999999999</ele>
        <time>2013-07-14T08:38:18Z</time>
      </trkpt>
      <trkpt lat="46.46303990855813" lon="10.602676011621952">
        <ele>3268.1399999999999</ele>
        <time>2013-07-14T08:38:50Z</time>
      </trkpt>
      <trkpt lat="46.463034963235259" lon="10.602587834000587">
        <ele>3268.1399999999999</ele>
        <time>2013-07-14T08:39:22Z</time>
      </trkpt>
      <trkpt lat="46.463032281026244" lon="10.602559251710773">
        <ele>3267.6599999999999</ele>
        <time>2013-07-14T08:39:39Z</time>
      </trkpt>
      <trkpt lat="46.46302524022758" lon="10.602571154013276">
        <ele>3267.1799999999998</ele>
        <time>2013-07-14T08:39:53Z</time>
      </trkpt>
      <trkpt lat="46.463030688464642" lon="10.602561263367534">
        <ele>3267.6599999999999</ele>
        <time>2013-07-14T08:40:13Z</time>
      </trkpt>
    </trkseg>
  </trk>

  <trk>
    <name>casati-forni2013-07-14</name>
    <extensions>
      <gpxx:TrackExtension>
        <gpxx:DisplayColor>Yellow</gpxx:DisplayColor>
      </gpxx:TrackExtension>
    </extensions>
    <trkseg>
      <trkpt lat="46.462966650724411" lon="10.602531591430306">
        <ele>3263.8099999999999</ele>
        <time>2013-07-14T09:15:14Z</time>
      </trkpt>
      <trkpt lat="46.462961621582508" lon="10.602542320266366">
        <ele>3266.2199999999998</ele>
        <time>2013-07-14T09:15:18Z</time>
      </trkpt>
      <trkpt lat="46.46297637373209" lon="10.602493872866035">
        <ele>3266.2199999999998</ele>
        <time>2013-07-14T09:15:36Z</time>
      </trkpt>
      <trkpt lat="46.462984839454293" lon="10.602400414645672">
        <ele>3266.6999999999998</ele>
        <time>2013-07-14T09:15:50Z</time>
      </trkpt>
      <trkpt lat="46.462961537763476" lon="10.602344507351518">
        <ele>3265.2600000000002</ele>
        <time>2013-07-14T09:16:03Z</time>
      </trkpt>
      <trkpt lat="46.462946115061641" lon="10.602341992780566">
        <ele>3265.2600000000002</ele>
        <time>2013-07-14T09:16:05Z</time>
      </trkpt>
      <trkpt lat="46.462890459224582" lon="10.60236319899559">
        <ele>3266.6999999999998</ele>
        <time>2013-07-14T09:16:19Z</time>
      </trkpt>
      <trkpt lat="46.462817452847958" lon="10.60236806049943">
        <ele>3265.7399999999998</ele>
        <time>2013-07-14T09:16:33Z</time>
      </trkpt>
      <trkpt lat="46.462844107300043" lon="10.602343669161201">
        <ele>3265.7399999999998</ele>
        <time>2013-07-14T09:16:45Z</time>
      </trkpt>
      <trkpt lat="46.462788116186857" lon="10.60233729891479">
        <ele>3265.7399999999998</ele>
        <time>2013-07-14T09:17:01Z</time>
      </trkpt>
      <trkpt lat="46.462725084275007" lon="10.602341741323471">
        <ele>3266.2199999999998</ele>
        <time>2013-07-14T09:17:14Z</time>
      </trkpt>
      <trkpt lat="46.462627351284027" lon="10.602350709959865">
        <ele>3266.6999999999998</ele>
        <time>2013-07-14T09:17:26Z</time>
      </trkpt>
      <trkpt lat="46.462536826729774" lon="10.602366048842669">
        <ele>3268.1399999999999</ele>
        <time>2013-07-14T09:17:39Z</time>
      </trkpt>
      <trkpt lat="46.462479745969176" lon="10.602358253672719">
        <ele>3269.5799999999999</ele>
        <time>2013-07-14T09:17:48Z</time>
      </trkpt>
      <trkpt lat="46.462442865595222" lon="10.602230094373226">
        <ele>3268.6199999999999</ele>
        <time>2013-07-14T09:18:00Z</time>
      </trkpt>
      <trkpt lat="46.462360639125109" lon="10.602099252864718">
        <ele>3266.2199999999998</ele>
        <time>2013-07-14T09:18:16Z</time>
      </trkpt>
      <trkpt lat="46.462354604154825" lon="10.602101096883416">
        <ele>3266.2199999999998</ele>
        <time>2013-07-14T09:18:17Z</time>
      </trkpt>
      <trkpt lat="46.462285118177533" lon="10.602048123255372">
        <ele>3264.77</ele>
        <time>2013-07-14T09:18:30Z</time>
      </trkpt>
      <trkpt lat="46.46221118979156" lon="10.601980481296778">
        <ele>3263.8099999999999</ele>
        <time>2013-07-14T09:18:44Z</time>
      </trkpt>
      <trkpt lat="46.462190486490726" lon="10.601962124928832">
        <ele>3262.8499999999999</ele>
        <time>2013-07-14T09:18:51Z</time>
      </trkpt>
      <trkpt lat="46.462207501754165" lon="10.601907055824995">
        <ele>3260.9299999999998</ele>
        <time>2013-07-14T09:18:55Z</time>
      </trkpt>
      <trkpt lat="46.462196437641978" lon="10.601836396381259">
        <ele>3258.0500000000002</ele>
        <time>2013-07-14T09:19:09Z</time>
      </trkpt>
      <trkpt lat="46.462150337174535" lon="10.60184134170413">
        <ele>3255.6399999999999</ele>
        <time>2013-07-14T09:19:23Z</time>
      </trkpt>
      <trkpt lat="46.462168861180544" lon="10.60175291262567">
        <ele>3253.2399999999998</ele>
        <time>2013-07-14T09:19:36Z</time>
      </trkpt>
      <trkpt lat="46.46213692612946" lon="10.601790966466069">
        <ele>3252.2800000000002</ele>
        <time>2013-07-14T09:19:44Z</time>
      </trkpt>
      <trkpt lat="46.462050676345825" lon="10.601916778832674">
        <ele>3251.3200000000002</ele>
        <time>2013-07-14T09:19:58Z</time>
      </trkpt>
      <trkpt lat="46.462004827335477" lon="10.601958688348532">
        <ele>3249.8699999999999</ele>
        <time>2013-07-14T09:20:10Z</time>
      </trkpt>
      <trkpt lat="46.461956379935145" lon="10.601971009746194">
        <ele>3246.9899999999998</ele>
        <time>2013-07-14T09:20:24Z</time>
      </trkpt>
      <trkpt lat="46.461943555623293" lon="10.601917365565896">
        <ele>3245.5500000000002</ele>
        <time>2013-07-14T09:20:34Z</time>
      </trkpt>
      <trkpt lat="46.461967024952173" lon="10.601826589554548">
        <ele>3243.6300000000001</ele>
        <time>2013-07-14T09:20:45Z</time>
      </trkpt>
      <trkpt lat="46.461978256702423" lon="10.601755091920495">
        <ele>3240.7399999999998</ele>
        <time>2013-07-14T09:20:56Z</time>
      </trkpt>
      <trkpt lat="46.461994852870703" lon="10.601640762761235">
        <ele>3238.8200000000002</ele>
        <time>2013-07-14T09:21:07Z</time>
      </trkpt>
      <trkpt lat="46.462023938074708" lon="10.601539090275764">
        <ele>3236.4200000000001</ele>
        <time>2013-07-14T09:21:22Z</time>
      </trkpt>
      <trkpt lat="46.461943387985229" lon="10.601580161601305">
        <ele>3233.5300000000002</ele>
        <time>2013-07-14T09:21:37Z</time>
      </trkpt>
      <trkpt lat="46.461909776553512" lon="10.601592231541872">
        <ele>3231.6100000000001</ele>
        <time>2013-07-14T09:21:47Z</time>
      </trkpt>
      <trkpt lat="46.461882451549172" lon="10.601605223491788">
        <ele>3229.6900000000001</ele>
        <time>2013-07-14T09:22:00Z</time>
      </trkpt>
      <trkpt lat="46.46187013015151" lon="10.601564152166247">
        <ele>3228.73</ele>
        <time>2013-07-14T09:22:13Z</time>
      </trkpt>
      <trkpt lat="46.46187599748373" lon="10.601507574319839">
        <ele>3226.8000000000002</ele>
        <time>2013-07-14T09:22:27Z</time>
      </trkpt>
      <trkpt lat="46.461837776005268" lon="10.601566499099135">
        <ele>3224.4000000000001</ele>
        <time>2013-07-14T09:22:42Z</time>
      </trkpt>
      <trkpt lat="46.461808523163199" lon="10.601548394188285">
        <ele>3222</ele>
        <time>2013-07-14T09:22:51Z</time>
      </trkpt>
      <trkpt lat="46.461832579225302" lon="10.601426521316171">
        <ele>3219.5900000000001</ele>
        <time>2013-07-14T09:23:04Z</time>
      </trkpt>
      <trkpt lat="46.461838446557522" lon="10.601342031732202">
        <ele>3217.6700000000001</ele>
        <time>2013-07-14T09:23:17Z</time>
      </trkpt>
      <trkpt lat="46.461795615032315" lon="10.601402800530195">
        <ele>3215.27</ele>
        <time>2013-07-14T09:23:29Z</time>
      </trkpt>
      <trkpt lat="46.461793435737491" lon="10.601309258490801">
        <ele>3212.8600000000001</ele>
        <time>2013-07-14T09:23:40Z</time>
      </trkpt>
      <trkpt lat="46.461800979450345" lon="10.601255111396313">
        <ele>3211.4200000000001</ele>
        <time>2013-07-14T09:23:55Z</time>
      </trkpt>
      <trkpt lat="46.461841883137822" lon="10.601137010380626">
        <ele>3209.98</ele>
        <time>2013-07-14T09:24:08Z</time>
      </trkpt>
      <trkpt lat="46.461842637509108" lon="10.601117312908173">
        <ele>3209.5</ele>
        <time>2013-07-14T09:24:23Z</time>
      </trkpt>
      <trkpt lat="46.461838614195585" lon="10.601162239909172">
        <ele>3208.54</ele>
        <time>2013-07-14T09:24:36Z</time>
      </trkpt>
      <trkpt lat="46.461802236735821" lon="10.601179422810674">
        <ele>3209.5</ele>
        <time>2013-07-14T09:24:49Z</time>
      </trkpt>
      <trkpt lat="46.461793100461364" lon="10.601156204938889">
        <ele>3208.54</ele>
        <time>2013-07-14T09:25:04Z</time>
      </trkpt>
      <trkpt lat="46.461784299463034" lon="10.601126616820693">
        <ele>3207.0999999999999</ele>
        <time>2013-07-14T09:25:20Z</time>
      </trkpt>
      <trkpt lat="46.461774660274386" lon="10.601135836914182">
        <ele>3205.1700000000001</ele>
        <time>2013-07-14T09:25:33Z</time>
      </trkpt>
      <trkpt lat="46.461762925609946" lon="10.601052939891815">
        <ele>3202.77</ele>
        <time>2013-07-14T09:25:46Z</time>
      </trkpt>
      <trkpt lat="46.461745323613286" lon="10.601014299318194">
        <ele>3200.8499999999999</ele>
        <time>2013-07-14T09:26:00Z</time>
      </trkpt>
      <trkpt lat="46.461718920618296" lon="10.601038774475455">
        <ele>3198.9200000000001</ele>
        <time>2013-07-14T09:26:12Z</time>
      </trkpt>
      <trkpt lat="46.461714394390583" lon="10.601077163591981">
        <ele>3198.9200000000001</ele>
        <time>2013-07-14T09:26:24Z</time>
      </trkpt>
      <trkpt lat="46.461710371077061" lon="10.601073559373617">
        <ele>3198.9200000000001</ele>
        <time>2013-07-14T09:26:43Z</time>
      </trkpt>
      <trkpt lat="46.461701821535826" lon="10.601079845800996">
        <ele>3199.4000000000001</ele>
        <time>2013-07-14T09:27:10Z</time>
      </trkpt>
      <trkpt lat="46.461700899526477" lon="10.601080683991313">
        <ele>3198.9200000000001</ele>
        <time>2013-07-14T09:27:36Z</time>
      </trkpt>
      <trkpt lat="46.461706180125475" lon="10.601079845800996">
        <ele>3198.9200000000001</ele>
        <time>2013-07-14T09:28:08Z</time>
      </trkpt>
      <trkpt lat="46.461707521229982" lon="10.601075738668442">
        <ele>3198.4400000000001</ele>
        <time>2013-07-14T09:28:40Z</time>
      </trkpt>
      <trkpt lat="46.461697546765208" lon="10.601086551323533">
        <ele>3197.96</ele>
        <time>2013-07-14T09:29:17Z</time>
      </trkpt>
      <trkpt lat="46.461707185953856" lon="10.601082695648074">
        <ele>3198.9200000000001</ele>
        <time>2013-07-14T09:29:33Z</time>
      </trkpt>
      <trkpt lat="46.461698301136494" lon="10.601045060902834">
        <ele>3199.4000000000001</ele>
        <time>2013-07-14T09:29:46Z</time>
      </trkpt>
      <trkpt lat="46.461700815707445" lon="10.601044893264771">
        <ele>3198.9200000000001</ele>
        <time>2013-07-14T09:30:02Z</time>
      </trkpt>
      <trkpt lat="46.461680699139833" lon="10.601061237975955">
        <ele>3197.96</ele>
        <time>2013-07-14T09:30:14Z</time>
      </trkpt>
      <trkpt lat="46.461679609492421" lon="10.601023100316525">
        <ele>3197</ele>
        <time>2013-07-14T09:30:26Z</time>
      </trkpt>
      <trkpt lat="46.461666952818632" lon="10.601001475006342">
        <ele>3196.04</ele>
        <time>2013-07-14T09:30:44Z</time>
      </trkpt>
      <trkpt lat="46.461684135720134" lon="10.60098621994257">
        <ele>3195.5599999999999</ele>
        <time>2013-07-14T09:31:01Z</time>
      </trkpt>
      <trkpt lat="46.46168396808207" lon="10.600958811119199">
        <ele>3196.52</ele>
        <time>2013-07-14T09:31:14Z</time>
      </trkpt>
      <trkpt lat="46.461685728281736" lon="10.600958811119199">
        <ele>3195.5599999999999</ele>
        <time>2013-07-14T09:31:33Z</time>
      </trkpt>
      <trkpt lat="46.461683800444007" lon="10.600986471399665">
        <ele>3195.5599999999999</ele>
        <time>2013-07-14T09:31:47Z</time>
      </trkpt>
      <trkpt lat="46.461669886484742" lon="10.60095839202404">
        <ele>3193.6399999999999</ele>
        <time>2013-07-14T09:31:57Z</time>
      </trkpt>
      <trkpt lat="46.461626384407282" lon="10.600987561047077">
        <ele>3192.1999999999998</ele>
        <time>2013-07-14T09:32:08Z</time>
      </trkpt>
      <trkpt lat="46.461587576195598" lon="10.600995272397995">
        <ele>3190.27</ele>
        <time>2013-07-14T09:32:19Z</time>
      </trkpt>
      <trkpt lat="46.461563855409622" lon="10.600992925465107">
        <ele>3188.8299999999999</ele>
        <time>2013-07-14T09:32:30Z</time>
      </trkpt>
      <trkpt lat="46.461536530405283" lon="10.60100038535893">
        <ele>3185.9499999999998</ele>
        <time>2013-07-14T09:32:44Z</time>
      </trkpt>
      <trkpt lat="46.461512474343181" lon="10.601037014275789">
        <ele>3184.02</ele>
        <time>2013-07-14T09:32:57Z</time>
      </trkpt>
      <trkpt lat="46.461486238986254" lon="10.601069033145905">
        <ele>3182.0999999999999</ele>
        <time>2013-07-14T09:33:10Z</time>
      </trkpt>
      <trkpt lat="46.461458494886756" lon="10.601090574637055">
        <ele>3181.1399999999999</ele>
        <time>2013-07-14T09:33:23Z</time>
      </trkpt>
      <trkpt lat="46.461436366662383" lon="10.601101806387305">
        <ele>3179.2199999999998</ele>
        <time>2013-07-14T09:33:34Z</time>
      </trkpt>
      <trkpt lat="46.461420608684421" lon="10.601110020652413">
        <ele>3177.7800000000002</ele>
        <time>2013-07-14T09:33:48Z</time>
      </trkpt>
      <trkpt lat="46.461398564279079" lon="10.601121922954917">
        <ele>3176.8099999999999</ele>
        <time>2013-07-14T09:34:01Z</time>
      </trkpt>
      <trkpt lat="46.461380962282419" lon="10.6011435482651">
        <ele>3174.8899999999999</ele>
        <time>2013-07-14T09:34:14Z</time>
      </trkpt>
      <trkpt lat="46.461359672248363" lon="10.601142793893814">
        <ele>3173.9299999999998</ele>
        <time>2013-07-14T09:34:28Z</time>
      </trkpt>
      <trkpt lat="46.461354559287429" lon="10.601143715903163">
        <ele>3173.4499999999998</ele>
        <time>2013-07-14T09:34:41Z</time>
      </trkpt>
      <trkpt lat="46.461314326152205" lon="10.601142207160592">
        <ele>3171.0500000000002</ele>
        <time>2013-07-14T09:34:53Z</time>
      </trkpt>
      <trkpt lat="46.461290940642357" lon="10.601144218817353">
        <ele>3169.1199999999999</ele>
        <time>2013-07-14T09:35:05Z</time>
      </trkpt>
      <trkpt lat="46.461274344474077" lon="10.601117564365268">
        <ele>3167.1999999999998</ele>
        <time>2013-07-14T09:35:15Z</time>
      </trkpt>
      <trkpt lat="46.461245091632009" lon="10.601135166361928">
        <ele>3165.2800000000002</ele>
        <time>2013-07-14T09:35:26Z</time>
      </trkpt>
      <trkpt lat="46.461209887638688" lon="10.601101638749242">
        <ele>3162.8800000000001</ele>
        <time>2013-07-14T09:35:40Z</time>
      </trkpt>
      <trkpt lat="46.46117527037859" lon="10.601107673719525">
        <ele>3159.5100000000002</ele>
        <time>2013-07-14T09:35:53Z</time>
      </trkpt>
      <trkpt lat="46.461148951202631" lon="10.601098034530878">
        <ele>3158.0700000000002</ele>
        <time>2013-07-14T09:36:00Z</time>
      </trkpt>
      <trkpt lat="46.461122967302799" lon="10.601087976247072">
        <ele>3156.6300000000001</ele>
        <time>2013-07-14T09:36:13Z</time>
      </trkpt>
      <trkpt lat="46.461100755259395" lon="10.601059142500162">
        <ele>3154.2199999999998</ele>
        <time>2013-07-14T09:36:25Z</time>
      </trkpt>
      <trkpt lat="46.461062030866742" lon="10.601026872172952">
        <ele>3151.3400000000001</ele>
        <time>2013-07-14T09:36:39Z</time>
      </trkpt>
      <trkpt lat="46.461025318130851" lon="10.601002816110849">
        <ele>3148.46</ele>
        <time>2013-07-14T09:36:51Z</time>
      </trkpt>
      <trkpt lat="46.460982821881771" lon="10.600981190800667">
        <ele>3145.5700000000002</ele>
        <time>2013-07-14T09:37:03Z</time>
      </trkpt>
      <trkpt lat="46.460976703092456" lon="10.600979095324874">
        <ele>3145.5700000000002</ele>
        <time>2013-07-14T09:37:04Z</time>
      </trkpt>
      <trkpt lat="46.460952144116163" lon="10.600988231599331">
        <ele>3144.1300000000001</ele>
        <time>2013-07-14T09:37:09Z</time>
      </trkpt>
      <trkpt lat="46.460878131911159" lon="10.601006336510181">
        <ele>3140.7600000000002</ele>
        <time>2013-07-14T09:37:18Z</time>
      </trkpt>
      <trkpt lat="46.460870588198304" lon="10.600996864959598">
        <ele>3141.25</ele>
        <time>2013-07-14T09:37:29Z</time>
      </trkpt>
      <trkpt lat="46.460872767493129" lon="10.601001894101501">
        <ele>3141.25</ele>
        <time>2013-07-14T09:37:30Z</time>
      </trkpt>
      <trkpt lat="46.460775788873434" lon="10.601031817495823">
        <ele>3137.8800000000001</ele>
        <time>2013-07-14T09:37:38Z</time>
      </trkpt>
      <trkpt lat="46.460685264319181" lon="10.601061405614018">
        <ele>3135.48</ele>
        <time>2013-07-14T09:37:46Z</time>
      </trkpt>
      <trkpt lat="46.460647629573941" lon="10.601077834144235">
        <ele>3134.04</ele>
        <time>2013-07-14T09:37:50Z</time>
      </trkpt>
      <trkpt lat="46.460523828864098" lon="10.601137932389975">
        <ele>3131.6300000000001</ele>
        <time>2013-07-14T09:38:04Z</time>
      </trkpt>
      <trkpt lat="46.460430957376957" lon="10.601153103634715">
        <ele>3128.75</ele>
        <time>2013-07-14T09:38:18Z</time>
      </trkpt>
      <trkpt lat="46.460385108366609" lon="10.601179758086801">
        <ele>3128.27</ele>
        <time>2013-07-14T09:38:28Z</time>
      </trkpt>
      <trkpt lat="46.460308497771621" lon="10.601218985393643">
        <ele>3126.3400000000001</ele>
        <time>2013-07-14T09:38:36Z</time>
      </trkpt>
      <trkpt lat="46.460259798914194" lon="10.60124228708446">
        <ele>3124.9000000000001</ele>
        <time>2013-07-14T09:38:41Z</time>
      </trkpt>
      <trkpt lat="46.460227612406015" lon="10.601265002042055">
        <ele>3123.46</ele>
        <time>2013-07-14T09:38:44Z</time>
      </trkpt>
      <trkpt lat="46.460132729262114" lon="10.601253854110837">
        <ele>3120.0999999999999</ele>
        <time>2013-07-14T09:38:55Z</time>
      </trkpt>
      <trkpt lat="46.460050586611032" lon="10.601232731714845">
        <ele>3117.21</ele>
        <time>2013-07-14T09:39:08Z</time>
      </trkpt>
      <trkpt lat="46.459969030693173" lon="10.601285621523857">
        <ele>3114.8099999999999</ele>
        <time>2013-07-14T09:39:21Z</time>
      </trkpt>
      <trkpt lat="46.459927540272474" lon="10.601283358410001">
        <ele>3112.8899999999999</ele>
        <time>2013-07-14T09:39:29Z</time>
      </trkpt>
      <trkpt lat="46.459854952991009" lon="10.601326022297144">
        <ele>3110</ele>
        <time>2013-07-14T09:39:42Z</time>
      </trkpt>
      <trkpt lat="46.459815222769976" lon="10.601343121379614">
        <ele>3109.04</ele>
        <time>2013-07-14T09:39:50Z</time>
      </trkpt>
      <trkpt lat="46.459765266627073" lon="10.60136592015624">
        <ele>3107.5999999999999</ele>
        <time>2013-07-14T09:40:03Z</time>
      </trkpt>
      <trkpt lat="46.45970156416297" lon="10.60133021324873">
        <ele>3104.71</ele>
        <time>2013-07-14T09:40:15Z</time>
      </trkpt>
      <trkpt lat="46.459656804800034" lon="10.601319568231702">
        <ele>3102.3099999999999</ele>
        <time>2013-07-14T09:40:26Z</time>
      </trkpt>
      <trkpt lat="46.459600729867816" lon="10.601283945143223">
        <ele>3098.4699999999998</ele>
        <time>2013-07-14T09:40:39Z</time>
      </trkpt>
      <trkpt lat="46.459528394043446" lon="10.601303642615676">
        <ele>3095.5799999999999</ele>
        <time>2013-07-14T09:40:52Z</time>
      </trkpt>
      <trkpt lat="46.459420099854469" lon="10.601374553516507">
        <ele>3092.2199999999998</ele>
        <time>2013-07-14T09:41:06Z</time>
      </trkpt>
      <trkpt lat="46.459338795393705" lon="10.601420905441046">
        <ele>3088.8499999999999</ele>
        <time>2013-07-14T09:41:18Z</time>
      </trkpt>
      <trkpt lat="46.459299568086863" lon="10.601448817178607">
        <ele>3086.9299999999998</ele>
        <time>2013-07-14T09:41:25Z</time>
      </trkpt>
      <trkpt lat="46.459256233647466" lon="10.60148268006742">
        <ele>3086.4499999999998</ele>
        <time>2013-07-14T09:41:31Z</time>
      </trkpt>
      <trkpt lat="46.459203427657485" lon="10.601484943181276">
        <ele>3085.0100000000002</ele>
        <time>2013-07-14T09:41:37Z</time>
      </trkpt>
      <trkpt lat="46.459096726030111" lon="10.601455103605986">
        <ele>3081.6399999999999</ele>
        <time>2013-07-14T09:41:50Z</time>
      </trkpt>
      <trkpt lat="46.459033777937293" lon="10.60146315023303">
        <ele>3081.6399999999999</ele>
        <time>2013-07-14T09:42:05Z</time>
      </trkpt>
      <trkpt lat="46.458952054381371" lon="10.601495672017336">
        <ele>3081.6399999999999</ele>
        <time>2013-07-14T09:42:17Z</time>
      </trkpt>
      <trkpt lat="46.458897152915597" lon="10.601450074464083">
        <ele>3078.2800000000002</ele>
        <time>2013-07-14T09:42:29Z</time>
      </trkpt>
      <trkpt lat="46.458846861496568" lon="10.60141327790916">
        <ele>3076.3600000000001</ele>
        <time>2013-07-14T09:42:41Z</time>
      </trkpt>
      <trkpt lat="46.458803862333298" lon="10.601390143856406">
        <ele>3073.9499999999998</ele>
        <time>2013-07-14T09:42:53Z</time>
      </trkpt>
      <trkpt lat="46.458748625591397" lon="10.601344630122185">
        <ele>3071.0700000000002</ele>
        <time>2013-07-14T09:43:08Z</time>
      </trkpt>
      <trkpt lat="46.458715097978711" lon="10.601324765011668">
        <ele>3069.6300000000001</ele>
        <time>2013-07-14T09:43:21Z</time>
      </trkpt>
      <trkpt lat="46.458676289767027" lon="10.601299619302154">
        <ele>3067.2199999999998</ele>
        <time>2013-07-14T09:43:32Z</time>
      </trkpt>
      <trkpt lat="46.458636727184057" lon="10.60127254575491">
        <ele>3064.8200000000002</ele>
        <time>2013-07-14T09:43:46Z</time>
      </trkpt>
      <trkpt lat="46.458589872345328" lon="10.601211190223694">
        <ele>3061.9400000000001</ele>
        <time>2013-07-14T09:44:00Z</time>
      </trkpt>
      <trkpt lat="46.458566319197416" lon="10.601191325113177">
        <ele>3060.0100000000002</ele>
        <time>2013-07-14T09:44:09Z</time>
      </trkpt>
      <trkpt lat="46.458528600633144" lon="10.601170370355248">
        <ele>3057.1300000000001</ele>
        <time>2013-07-14T09:44:19Z</time>
      </trkpt>
      <trkpt lat="46.458466993644834" lon="10.601118570193648">
        <ele>3054.25</ele>
        <time>2013-07-14T09:44:33Z</time>
      </trkpt>
      <trkpt lat="46.45842969417572" lon="10.60107758268714">
        <ele>3051.3600000000001</ele>
        <time>2013-07-14T09:44:47Z</time>
      </trkpt>
      <trkpt lat="46.458384012803435" lon="10.601031063124537">
        <ele>3049.4400000000001</ele>
        <time>2013-07-14T09:44:59Z</time>
      </trkpt>
      <trkpt lat="46.458352832123637" lon="10.60097155161202">
        <ele>3046.0700000000002</ele>
        <time>2013-07-14T09:45:10Z</time>
      </trkpt>
      <trkpt lat="46.458339337259531" lon="10.600942047312856">
        <ele>3044.6300000000001</ele>
        <time>2013-07-14T09:45:13Z</time>
      </trkpt>
      <trkpt lat="46.458298601210117" lon="10.600920589640737">
        <ele>3042.71</ele>
        <time>2013-07-14T09:45:17Z</time>
      </trkpt>
      <trkpt lat="46.458238838240504" lon="10.600859066471457">
        <ele>3039.3499999999999</ele>
        <time>2013-07-14T09:45:25Z</time>
      </trkpt>
      <trkpt lat="46.458232384175062" lon="10.600852193310857">
        <ele>3039.3499999999999</ele>
        <time>2013-07-14T09:45:26Z</time>
      </trkpt>
      <trkpt lat="46.458175890147686" lon="10.600751861929893">
        <ele>3035.5</ele>
        <time>2013-07-14T09:45:33Z</time>
      </trkpt>
      <trkpt lat="46.458167592063546" lon="10.600737864151597">
        <ele>3035.02</ele>
        <time>2013-07-14T09:45:34Z</time>
      </trkpt>
      <trkpt lat="46.458155941218138" lon="10.600714478641748">
        <ele>3033.5799999999999</ele>
        <time>2013-07-14T09:45:36Z</time>
      </trkpt>
      <trkpt lat="46.458132052794099" lon="10.60063686221838">
        <ele>3031.1700000000001</ele>
        <time>2013-07-14T09:45:41Z</time>
      </trkpt>
      <trkpt lat="46.458132974803448" lon="10.600614063441753">
        <ele>3029.73</ele>
        <time>2013-07-14T09:45:43Z</time>
      </trkpt>
      <trkpt lat="46.458095172420144" lon="10.600518342107534">
        <ele>3026.8499999999999</ele>
        <time>2013-07-14T09:45:50Z</time>
      </trkpt>
      <trkpt lat="46.458051335066557" lon="10.600464949384332">
        <ele>3024.4400000000001</ele>
        <time>2013-07-14T09:45:56Z</time>
      </trkpt>
      <trkpt lat="46.458034235984087" lon="10.600411053746939">
        <ele>3022.52</ele>
        <time>2013-07-14T09:46:00Z</time>
      </trkpt>
      <trkpt lat="46.458020908758044" lon="10.600286917760968">
        <ele>3019.1599999999999</ele>
        <time>2013-07-14T09:46:08Z</time>
      </trkpt>
      <trkpt lat="46.458008252084255" lon="10.600261939689517">
        <ele>3018.1999999999998</ele>
        <time>2013-07-14T09:46:11Z</time>
      </trkpt>
      <trkpt lat="46.457963241264224" lon="10.600204356014729">
        <ele>3014.3499999999999</ele>
        <time>2013-07-14T09:46:19Z</time>
      </trkpt>
      <trkpt lat="46.457941615954041" lon="10.600147694349289">
        <ele>3011.9499999999998</ele>
        <time>2013-07-14T09:46:24Z</time>
      </trkpt>
      <trkpt lat="46.457921750843525" lon="10.600096061825752">
        <ele>3010.0300000000002</ele>
        <time>2013-07-14T09:46:28Z</time>
      </trkpt>
      <trkpt lat="46.457909010350704" lon="10.600072676315904">
        <ele>3008.5799999999999</ele>
        <time>2013-07-14T09:46:30Z</time>
      </trkpt>
      <trkpt lat="46.457890570163727" lon="10.60001190751791">
        <ele>3005.6999999999998</ele>
        <time>2013-07-14T09:46:35Z</time>
      </trkpt>
      <trkpt lat="46.457866011187434" lon="10.599962119013071">
        <ele>3003.7800000000002</ele>
        <time>2013-07-14T09:46:39Z</time>
      </trkpt>
      <trkpt lat="46.457849247381091" lon="10.599911911413074">
        <ele>3001.8499999999999</ele>
        <time>2013-07-14T09:46:42Z</time>
      </trkpt>
      <trkpt lat="46.457841536030173" lon="10.599881317466497">
        <ele>3000.8899999999999</ele>
        <time>2013-07-14T09:46:44Z</time>
      </trkpt>
      <trkpt lat="46.457839608192444" lon="10.599867152050138">
        <ele>2999.9299999999998</ele>
        <time>2013-07-14T09:46:45Z</time>
      </trkpt>
      <trkpt lat="46.457831561565399" lon="10.599802527576685">
        <ele>2997.5300000000002</ele>
        <time>2013-07-14T09:46:49Z</time>
      </trkpt>
      <trkpt lat="46.457817396149039" lon="10.599726000800729">
        <ele>2994.6399999999999</ele>
        <time>2013-07-14T09:46:54Z</time>
      </trkpt>
      <trkpt lat="46.457812953740358" lon="10.599654586985707">
        <ele>2992.2399999999998</ele>
        <time>2013-07-14T09:46:59Z</time>
      </trkpt>
      <trkpt lat="46.457818737253547" lon="10.59963664971292">
        <ele>2990.3200000000002</ele>
        <time>2013-07-14T09:47:09Z</time>
      </trkpt>
      <trkpt lat="46.457785964012146" lon="10.59948518872261">
        <ele>2986.4699999999998</ele>
        <time>2013-07-14T09:47:21Z</time>
      </trkpt>
      <trkpt lat="46.457788478583097" lon="10.59945928864181">
        <ele>2985.9899999999998</ele>
        <time>2013-07-14T09:47:23Z</time>
      </trkpt>
      <trkpt lat="46.45778713747859" lon="10.599423414096236">
        <ele>2985.0300000000002</ele>
        <time>2013-07-14T09:47:25Z</time>
      </trkpt>
      <trkpt lat="46.457776995375752" lon="10.599333308637142">
        <ele>2981.1900000000001</ele>
        <time>2013-07-14T09:47:33Z</time>
      </trkpt>
      <trkpt lat="46.45777297206223" lon="10.599324591457844">
        <ele>2981.1900000000001</ele>
        <time>2013-07-14T09:47:34Z</time>
      </trkpt>
      <trkpt lat="46.4577676076442" lon="10.599230546504259">
        <ele>2977.8200000000002</ele>
        <time>2013-07-14T09:47:42Z</time>
      </trkpt>
      <trkpt lat="46.457768697291613" lon="10.599187128245831">
        <ele>2976.3800000000001</ele>
        <time>2013-07-14T09:47:45Z</time>
      </trkpt>
      <trkpt lat="46.457796525210142" lon="10.599060142412782">
        <ele>2973.5</ele>
        <time>2013-07-14T09:47:54Z</time>
      </trkpt>
      <trkpt lat="46.457806834951043" lon="10.59899115934968">
        <ele>2970.6100000000001</ele>
        <time>2013-07-14T09:48:00Z</time>
      </trkpt>
      <trkpt lat="46.457840781658888" lon="10.598882529884577">
        <ele>2968.21</ele>
        <time>2013-07-14T09:48:07Z</time>
      </trkpt>
      <trkpt lat="46.457848576828837" lon="10.598816564306617">
        <ele>2965.8000000000002</ele>
        <time>2013-07-14T09:48:12Z</time>
      </trkpt>
      <trkpt lat="46.457883194088936" lon="10.598698882386088">
        <ele>2962.4400000000001</ele>
        <time>2013-07-14T09:48:21Z</time>
      </trkpt>
      <trkpt lat="46.457886295393109" lon="10.598689829930663">
        <ele>2961.96</ele>
        <time>2013-07-14T09:48:22Z</time>
      </trkpt>
      <trkpt lat="46.457939688116312" lon="10.598562927916646">
        <ele>2959.0799999999999</ele>
        <time>2013-07-14T09:48:32Z</time>
      </trkpt>
      <trkpt lat="46.45793960429728" lon="10.598547756671906">
        <ele>2958.1100000000001</ele>
        <time>2013-07-14T09:48:33Z</time>
      </trkpt>
      <trkpt lat="46.457949159666896" lon="10.598515318706632">
        <ele>2957.1500000000001</ele>
        <time>2013-07-14T09:48:36Z</time>
      </trkpt>
      <trkpt lat="46.457959888502955" lon="10.598478438332677">
        <ele>2956.6700000000001</ele>
        <time>2013-07-14T09:48:38Z</time>
      </trkpt>
      <trkpt lat="46.458011101931334" lon="10.598339382559061">
        <ele>2952.8299999999999</ele>
        <time>2013-07-14T09:48:48Z</time>
      </trkpt>
      <trkpt lat="46.458030296489596" lon="10.598285319283605">
        <ele>2951.8699999999999</ele>
        <time>2013-07-14T09:48:52Z</time>
      </trkpt>
      <trkpt lat="46.458057872951031" lon="10.598235530778766">
        <ele>2950.4200000000001</ele>
        <time>2013-07-14T09:48:56Z</time>
      </trkpt>
      <trkpt lat="46.458072289824486" lon="10.598187167197466">
        <ele>2948.98</ele>
        <time>2013-07-14T09:48:59Z</time>
      </trkpt>
      <trkpt lat="46.458127275109291" lon="10.598072251304984">
        <ele>2946.5799999999999</ele>
        <time>2013-07-14T09:49:07Z</time>
      </trkpt>
      <trkpt lat="46.458142278715968" lon="10.59802221134305">
        <ele>2946.0999999999999</ele>
        <time>2013-07-14T09:49:11Z</time>
      </trkpt>
      <trkpt lat="46.458149235695601" lon="10.597990192472935">
        <ele>2945.1399999999999</ele>
        <time>2013-07-14T09:49:13Z</time>
      </trkpt>
      <trkpt lat="46.458180835470557" lon="10.597914252430201">
        <ele>2942.73</ele>
        <time>2013-07-14T09:49:20Z</time>
      </trkpt>
      <trkpt lat="46.458196761086583" lon="10.597863793373108">
        <ele>2940.8099999999999</ele>
        <time>2013-07-14T09:49:24Z</time>
      </trkpt>
      <trkpt lat="46.458230288699269" lon="10.597792798653245">
        <ele>2939.3699999999999</ele>
        <time>2013-07-14T09:49:30Z</time>
      </trkpt>
      <trkpt lat="46.458308408036828" lon="10.597667656838894">
        <ele>2936</ele>
        <time>2013-07-14T09:49:41Z</time>
      </trkpt>
      <trkpt lat="46.458335313946009" lon="10.597629267722368">
        <ele>2934.5599999999999</ele>
        <time>2013-07-14T09:49:45Z</time>
      </trkpt>
      <trkpt lat="46.458385940641165" lon="10.597536563873291">
        <ele>2931.1999999999998</ele>
        <time>2013-07-14T09:49:52Z</time>
      </trkpt>
      <trkpt lat="46.458405302837491" lon="10.597464563325047">
        <ele>2928.79</ele>
        <time>2013-07-14T09:49:58Z</time>
      </trkpt>
      <trkpt lat="46.458489708602428" lon="10.597352581098676">
        <ele>2925.4299999999998</ele>
        <time>2013-07-14T09:50:08Z</time>
      </trkpt>
      <trkpt lat="46.458532540127635" lon="10.597282340750098">
        <ele>2923.0300000000002</ele>
        <time>2013-07-14T09:50:16Z</time>
      </trkpt>
      <trkpt lat="46.458591548725963" lon="10.597169771790504">
        <ele>2919.6599999999999</ele>
        <time>2013-07-14T09:50:27Z</time>
      </trkpt>
      <trkpt lat="46.458611413836479" lon="10.59713926166296">
        <ele>2919.1799999999998</ele>
        <time>2013-07-14T09:50:30Z</time>
      </trkpt>
      <trkpt lat="46.458710320293903" lon="10.597020573914051">
        <ele>2916.7800000000002</ele>
        <time>2013-07-14T09:50:43Z</time>
      </trkpt>
      <trkpt lat="46.45872138440609" lon="10.596954859793186">
        <ele>2914.8499999999999</ele>
        <time>2013-07-14T09:50:51Z</time>
      </trkpt>
      <trkpt lat="46.458783410489559" lon="10.596859641373158">
        <ele>2912.4499999999998</ele>
        <time>2013-07-14T09:51:01Z</time>
      </trkpt>
      <trkpt lat="46.458848956972361" lon="10.596779426559806">
        <ele>2910.5300000000002</ele>
        <time>2013-07-14T09:51:08Z</time>
      </trkpt>
      <trkpt lat="46.458877120167017" lon="10.59666283428669">
        <ele>2908.6100000000001</ele>
        <time>2013-07-14T09:51:20Z</time>
      </trkpt>
      <trkpt lat="46.458901846781373" lon="10.596528556197882">
        <ele>2905.2399999999998</ele>
        <time>2013-07-14T09:51:29Z</time>
      </trkpt>
      <trkpt lat="46.458911988884211" lon="10.596489245072007">
        <ele>2904.2800000000002</ele>
        <time>2013-07-14T09:51:32Z</time>
      </trkpt>
      <trkpt lat="46.458936966955662" lon="10.596415819600224">
        <ele>2902.8400000000001</ele>
        <time>2013-07-14T09:51:37Z</time>
      </trkpt>
      <trkpt lat="46.458940571174026" lon="10.596389751881361">
        <ele>2901.4000000000001</ele>
        <time>2013-07-14T09:51:40Z</time>
      </trkpt>
      <trkpt lat="46.458938559517264" lon="10.5963652767241">
        <ele>2900.4400000000001</ele>
        <time>2013-07-14T09:51:42Z</time>
      </trkpt>
      <trkpt lat="46.458942834287882" lon="10.596277099102736">
        <ele>2898.0300000000002</ele>
        <time>2013-07-14T09:51:48Z</time>
      </trkpt>
      <trkpt lat="46.45894518122077" lon="10.596266118809581">
        <ele>2897.5500000000002</ele>
        <time>2013-07-14T09:51:49Z</time>
      </trkpt>
      <trkpt lat="46.458969572558999" lon="10.596119184046984">
        <ele>2893.71</ele>
        <time>2013-07-14T09:52:01Z</time>
      </trkpt>
      <trkpt lat="46.459018271416426" lon="10.59602421708405">
        <ele>2891.7800000000002</ele>
        <time>2013-07-14T09:52:09Z</time>
      </trkpt>
      <trkpt lat="46.45909077487886" lon="10.595890274271369">
        <ele>2888.9000000000001</ele>
        <time>2013-07-14T09:52:23Z</time>
      </trkpt>
      <trkpt lat="46.45912354812026" lon="10.59578231535852">
        <ele>2886.5</ele>
        <time>2013-07-14T09:52:31Z</time>
      </trkpt>
      <trkpt lat="46.459149783477187" lon="10.595626579597592">
        <ele>2883.1300000000001</ele>
        <time>2013-07-14T09:52:44Z</time>
      </trkpt>
      <trkpt lat="46.45919538103044" lon="10.59546279720962">
        <ele>2879.77</ele>
        <time>2013-07-14T09:52:57Z</time>
      </trkpt>
      <trkpt lat="46.459200158715248" lon="10.595311922952533">
        <ele>2876.8800000000001</ele>
        <time>2013-07-14T09:53:07Z</time>
      </trkpt>
      <trkpt lat="46.459201416000724" lon="10.595262637361884">
        <ele>2875.4400000000001</ele>
        <time>2013-07-14T09:53:11Z</time>
      </trkpt>
      <trkpt lat="46.459198230877519" lon="10.595230534672737">
        <ele>2874.96</ele>
        <time>2013-07-14T09:53:26Z</time>
      </trkpt>
      <trkpt lat="46.459193369373679" lon="10.595230618491769">
        <ele>2874.48</ele>
        <time>2013-07-14T09:53:29Z</time>
      </trkpt>
      <trkpt lat="46.459201918914914" lon="10.595201700925827">
        <ele>2874.48</ele>
        <time>2013-07-14T09:53:31Z</time>
      </trkpt>
      <trkpt lat="46.459197560325265" lon="10.595132885500789">
        <ele>2872.5599999999999</ele>
        <time>2013-07-14T09:53:36Z</time>
      </trkpt>
      <trkpt lat="46.45920124836266" lon="10.59505820274353">
        <ele>2870.6300000000001</ele>
        <time>2013-07-14T09:53:42Z</time>
      </trkpt>
      <trkpt lat="46.459201583638787" lon="10.594899952411652">
        <ele>2867.75</ele>
        <time>2013-07-14T09:53:55Z</time>
      </trkpt>
      <trkpt lat="46.459209211170673" lon="10.594753604382277">
        <ele>2864.3899999999999</ele>
        <time>2013-07-14T09:54:06Z</time>
      </trkpt>
      <trkpt lat="46.45919973962009" lon="10.594691829755902">
        <ele>2862.46</ele>
        <time>2013-07-14T09:54:11Z</time>
      </trkpt>
      <trkpt lat="46.459198649972677" lon="10.594656625762582">
        <ele>2861.98</ele>
        <time>2013-07-14T09:54:14Z</time>
      </trkpt>
      <trkpt lat="46.459206361323595" lon="10.594522347673774">
        <ele>2860.0599999999999</ele>
        <time>2013-07-14T09:54:26Z</time>
      </trkpt>
      <trkpt lat="46.459204265847802" lon="10.594507344067097">
        <ele>2860.0599999999999</ele>
        <time>2013-07-14T09:54:27Z</time>
      </trkpt>
      <trkpt lat="46.459202254191041" lon="10.594309782609344">
        <ele>2857.1799999999998</ele>
        <time>2013-07-14T09:54:40Z</time>
      </trkpt>
      <trkpt lat="46.459203260019422" lon="10.594240548089147">
        <ele>2856.21</ele>
        <time>2013-07-14T09:54:45Z</time>
      </trkpt>
      <trkpt lat="46.459204098209739" lon="10.594213139265776">
        <ele>2856.21</ele>
        <time>2013-07-14T09:54:47Z</time>
      </trkpt>
      <trkpt lat="46.459197727963328" lon="10.594048099592328">
        <ele>2854.77</ele>
        <time>2013-07-14T09:55:00Z</time>
      </trkpt>
      <trkpt lat="46.45923150703311" lon="10.593897057697177">
        <ele>2854.77</ele>
        <time>2013-07-14T09:55:13Z</time>
      </trkpt>
      <trkpt lat="46.45922714844346" lon="10.59385665692389">
        <ele>2854.77</ele>
        <time>2013-07-14T09:55:21Z</time>
      </trkpt>
      <trkpt lat="46.459188926964998" lon="10.593770742416382">
        <ele>2854.29</ele>
        <time>2013-07-14T09:55:32Z</time>
      </trkpt>
      <trkpt lat="46.45915824919939" lon="10.593731012195349">
        <ele>2854.29</ele>
        <time>2013-07-14T09:55:36Z</time>
      </trkpt>
      <trkpt lat="46.459155064076185" lon="10.593677116557956">
        <ele>2854.29</ele>
        <time>2013-07-14T09:55:40Z</time>
      </trkpt>
      <trkpt lat="46.459144670516253" lon="10.593658508732915">
        <ele>2853.8099999999999</ele>
        <time>2013-07-14T09:55:42Z</time>
      </trkpt>
      <trkpt lat="46.459139306098223" lon="10.593612492084503">
        <ele>2854.29</ele>
        <time>2013-07-14T09:55:46Z</time>
      </trkpt>
      <trkpt lat="46.459062863141298" lon="10.593505790457129">
        <ele>2854.77</ele>
        <time>2013-07-14T09:55:59Z</time>
      </trkpt>
      <trkpt lat="46.459037801250815" lon="10.59344326145947">
        <ele>2854.77</ele>
        <time>2013-07-14T09:56:04Z</time>
      </trkpt>
      <trkpt lat="46.459016092121601" lon="10.593407470732927">
        <ele>2855.25</ele>
        <time>2013-07-14T09:56:08Z</time>
      </trkpt>
      <trkpt lat="46.459000166505575" lon="10.593380313366652">
        <ele>2855.25</ele>
        <time>2013-07-14T09:56:11Z</time>
      </trkpt>
      <trkpt lat="46.458978708833456" lon="10.593356341123581">
        <ele>2855.25</ele>
        <time>2013-07-14T09:56:14Z</time>
      </trkpt>
      <trkpt lat="46.458942415192723" lon="10.593149811029434">
        <ele>2855.73</ele>
        <time>2013-07-14T09:56:29Z</time>
      </trkpt>
      <trkpt lat="46.458937972784042" lon="10.59314277023077">
        <ele>2855.73</ele>
        <time>2013-07-14T09:56:30Z</time>
      </trkpt>
      <trkpt lat="46.458928836509585" lon="10.593007067218423">
        <ele>2856.6900000000001</ele>
        <time>2013-07-14T09:56:42Z</time>
      </trkpt>
      <trkpt lat="46.458914084360003" lon="10.592970857396722">
        <ele>2856.6900000000001</ele>
        <time>2013-07-14T09:56:46Z</time>
      </trkpt>
      <trkpt lat="46.458840910345316" lon="10.592783102765679">
        <ele>2855.25</ele>
        <time>2013-07-14T09:57:00Z</time>
      </trkpt>
      <trkpt lat="46.458849376067519" lon="10.592684028670192">
        <ele>2853.3299999999999</ele>
        <time>2013-07-14T09:57:08Z</time>
      </trkpt>
      <trkpt lat="46.458869157359004" lon="10.592564167454839">
        <ele>2851.4099999999999</ele>
        <time>2013-07-14T09:57:19Z</time>
      </trkpt>
      <trkpt lat="46.458883238956332" lon="10.592432990670204">
        <ele>2849</ele>
        <time>2013-07-14T09:57:32Z</time>
      </trkpt>
      <trkpt lat="46.458891788497567" lon="10.592295443639159">
        <ele>2848.04</ele>
        <time>2013-07-14T09:57:43Z</time>
      </trkpt>
      <trkpt lat="46.458918526768684" lon="10.592114394530654">
        <ele>2845.6399999999999</ele>
        <time>2013-07-14T09:57:55Z</time>
      </trkpt>
      <trkpt lat="46.458956748247147" lon="10.591951115056872">
        <ele>2842.2800000000002</ele>
        <time>2013-07-14T09:58:06Z</time>
      </trkpt>
      <trkpt lat="46.459010224789381" lon="10.591831002384424">
        <ele>2841.3099999999999</ele>
        <time>2013-07-14T09:58:17Z</time>
      </trkpt>
      <trkpt lat="46.459053223952651" lon="10.591660011559725">
        <ele>2840.8299999999999</ele>
        <time>2013-07-14T09:58:29Z</time>
      </trkpt>
      <trkpt lat="46.459058001637459" lon="10.591527158394456">
        <ele>2839.3899999999999</ele>
        <time>2013-07-14T09:58:40Z</time>
      </trkpt>
      <trkpt lat="46.458991281688213" lon="10.591368740424514">
        <ele>2837.9499999999998</ele>
        <time>2013-07-14T09:58:54Z</time>
      </trkpt>
      <trkpt lat="46.45899698138237" lon="10.591359017416835">
        <ele>2837.9499999999998</ele>
        <time>2013-07-14T09:59:06Z</time>
      </trkpt>
      <trkpt lat="46.458991281688213" lon="10.591365974396467">
        <ele>2837.9499999999998</ele>
        <time>2013-07-14T09:59:20Z</time>
      </trkpt>
      <trkpt lat="46.458986001089215" lon="10.591366393491626">
        <ele>2837.9499999999998</ele>
        <time>2013-07-14T09:59:36Z</time>
      </trkpt>
      <trkpt lat="46.458967728540301" lon="10.591324651613832">
        <ele>2837.9499999999998</ele>
        <time>2013-07-14T09:59:48Z</time>
      </trkpt>
      <trkpt lat="46.458867229521275" lon="10.591190960258245">
        <ele>2837.4699999999998</ele>
        <time>2013-07-14T10:00:03Z</time>
      </trkpt>
      <trkpt lat="46.458761533722281" lon="10.591068584471941">
        <ele>2836.5100000000002</ele>
        <time>2013-07-14T10:00:19Z</time>
      </trkpt>
      <trkpt lat="46.458688108250499" lon="10.590939670801163">
        <ele>2836.9899999999998</ele>
        <time>2013-07-14T10:00:32Z</time>
      </trkpt>
      <trkpt lat="46.458625243976712" lon="10.590836573392153">
        <ele>2837.9499999999998</ele>
        <time>2013-07-14T10:00:44Z</time>
      </trkpt>
      <trkpt lat="46.458599176257849" lon="10.590775720775127">
        <ele>2838.4299999999998</ele>
        <time>2013-07-14T10:00:51Z</time>
      </trkpt>
      <trkpt lat="46.458553578704596" lon="10.590683100745082">
        <ele>2838.9099999999999</ele>
        <time>2013-07-14T10:01:02Z</time>
      </trkpt>
      <trkpt lat="46.458499096333981" lon="10.590589055791497">
        <ele>2840.8299999999999</ele>
        <time>2013-07-14T10:01:15Z</time>
      </trkpt>
      <trkpt lat="46.458468334749341" lon="10.590511858463287">
        <ele>2841.3099999999999</ele>
        <time>2013-07-14T10:01:24Z</time>
      </trkpt>
      <trkpt lat="46.458475291728973" lon="10.590491741895676">
        <ele>2841.3099999999999</ele>
        <time>2013-07-14T10:01:36Z</time>
      </trkpt>
      <trkpt lat="46.458473699167371" lon="10.59049878269434">
        <ele>2841.3099999999999</ele>
        <time>2013-07-14T10:01:48Z</time>
      </trkpt>
      <trkpt lat="46.458476968109608" lon="10.590482270345092">
        <ele>2841.79</ele>
        <time>2013-07-14T10:02:10Z</time>
      </trkpt>
      <trkpt lat="46.458438746631145" lon="10.590438768267632">
        <ele>2842.2800000000002</ele>
        <time>2013-07-14T10:02:29Z</time>
      </trkpt>
      <trkpt lat="46.45842969417572" lon="10.590398283675313">
        <ele>2841.3099999999999</ele>
        <time>2013-07-14T10:02:47Z</time>
      </trkpt>
      <trkpt lat="46.458403710275888" lon="10.59036492370069">
        <ele>2842.2800000000002</ele>
        <time>2013-07-14T10:03:04Z</time>
      </trkpt>
      <trkpt lat="46.458355598151684" lon="10.590265933424234">
        <ele>2841.79</ele>
        <time>2013-07-14T10:03:12Z</time>
      </trkpt>
      <trkpt lat="46.458233306184411" lon="10.59010349214077">
        <ele>2841.3099999999999</ele>
        <time>2013-07-14T10:03:26Z</time>
      </trkpt>
      <trkpt lat="46.458205981180072" lon="10.590066108852625">
        <ele>2841.79</ele>
        <time>2013-07-14T10:03:30Z</time>
      </trkpt>
      <trkpt lat="46.458209920674562" lon="10.590013973414898">
        <ele>2842.2800000000002</ele>
        <time>2013-07-14T10:03:34Z</time>
      </trkpt>
      <trkpt lat="46.458214614540339" lon="10.589953623712063">
        <ele>2842.2800000000002</ele>
        <time>2013-07-14T10:03:39Z</time>
      </trkpt>
      <trkpt lat="46.458197766914964" lon="10.589874079450965">
        <ele>2841.3099999999999</ele>
        <time>2013-07-14T10:03:46Z</time>
      </trkpt>
      <trkpt lat="46.458203131332994" lon="10.589828481897712">
        <ele>2838.9099999999999</ele>
        <time>2013-07-14T10:03:57Z</time>
      </trkpt>
      <trkpt lat="46.458216542378068" lon="10.589819764718413">
        <ele>2838.9099999999999</ele>
        <time>2013-07-14T10:04:12Z</time>
      </trkpt>
      <trkpt lat="46.458228025585413" lon="10.589801492169499">
        <ele>2837.9499999999998</ele>
        <time>2013-07-14T10:04:32Z</time>
      </trkpt>
      <trkpt lat="46.458200113847852" lon="10.589826973155141">
        <ele>2837.4699999999998</ele>
        <time>2013-07-14T10:05:09Z</time>
      </trkpt>
      <trkpt lat="46.458167340606451" lon="10.589852118864655">
        <ele>2837.4699999999998</ele>
        <time>2013-07-14T10:05:50Z</time>
      </trkpt>
      <trkpt lat="46.458131466060877" lon="10.589871313422918">
        <ele>2837.4699999999998</ele>
        <time>2013-07-14T10:06:25Z</time>
      </trkpt>
      <trkpt lat="46.45816340111196" lon="10.589857818558812">
        <ele>2836.9899999999998</ele>
        <time>2013-07-14T10:07:01Z</time>
      </trkpt>
      <trkpt lat="46.458189720287919" lon="10.58983619324863">
        <ele>2836.9899999999998</ele>
        <time>2013-07-14T10:07:38Z</time>
      </trkpt>
      <trkpt lat="46.45820003002882" lon="10.589832505211234">
        <ele>2836.5100000000002</ele>
        <time>2013-07-14T10:08:18Z</time>
      </trkpt>
      <trkpt lat="46.458208244293928" lon="10.589812723919749">
        <ele>2836.5100000000002</ele>
        <time>2013-07-14T10:08:47Z</time>
      </trkpt>
      <trkpt lat="46.458207238465548" lon="10.589800318703055">
        <ele>2836.9899999999998</ele>
        <time>2013-07-14T10:08:57Z</time>
      </trkpt>
      <trkpt lat="46.458209669217467" lon="10.589804677292705">
        <ele>2836.9899999999998</ele>
        <time>2013-07-14T10:09:08Z</time>
      </trkpt>
      <trkpt lat="46.458148984238505" lon="10.589814400300384">
        <ele>2836.5100000000002</ele>
        <time>2013-07-14T10:09:25Z</time>
      </trkpt>
      <trkpt lat="46.458031972870231" lon="10.589786069467664">
        <ele>2833.1399999999999</ele>
        <time>2013-07-14T10:09:40Z</time>
      </trkpt>
      <trkpt lat="46.45795670337975" lon="10.589743405580521">
        <ele>2831.2199999999998</ele>
        <time>2013-07-14T10:09:50Z</time>
      </trkpt>
      <trkpt lat="46.457892917096615" lon="10.589684564620256">
        <ele>2828.8200000000002</ele>
        <time>2013-07-14T10:09:59Z</time>
      </trkpt>
      <trkpt lat="46.457796022295952" lon="10.589591776952147">
        <ele>2824.9699999999998</ele>
        <time>2013-07-14T10:10:13Z</time>
      </trkpt>
      <trkpt lat="46.457699881866574" lon="10.589476777240634">
        <ele>2822.0900000000001</ele>
        <time>2013-07-14T10:10:28Z</time>
      </trkpt>
      <trkpt lat="46.457594437524676" lon="10.589356748387218">
        <ele>2818.7199999999998</ele>
        <time>2013-07-14T10:10:42Z</time>
      </trkpt>
      <trkpt lat="46.457511624321342" lon="10.589186092838645">
        <ele>2815.3600000000001</ele>
        <time>2013-07-14T10:10:56Z</time>
      </trkpt>
      <trkpt lat="46.457458566874266" lon="10.589055921882391">
        <ele>2812.4699999999998</ele>
        <time>2013-07-14T10:11:10Z</time>
      </trkpt>
      <trkpt lat="46.45745194517076" lon="10.588912842795253">
        <ele>2809.1100000000001</ele>
        <time>2013-07-14T10:11:22Z</time>
      </trkpt>
      <trkpt lat="46.457437193021178" lon="10.588822653517127">
        <ele>2806.23</ele>
        <time>2013-07-14T10:11:32Z</time>
      </trkpt>
      <trkpt lat="46.457432918250561" lon="10.588790802285075">
        <ele>2805.75</ele>
        <time>2013-07-14T10:11:34Z</time>
      </trkpt>
      <trkpt lat="46.45742654800415" lon="10.588771104812622">
        <ele>2805.75</ele>
        <time>2013-07-14T10:11:36Z</time>
      </trkpt>
      <trkpt lat="46.457300567999482" lon="10.58875291608274">
        <ele>2801.9000000000001</ele>
        <time>2013-07-14T10:11:51Z</time>
      </trkpt>
      <trkpt lat="46.457240218296647" lon="10.588730620220304">
        <ele>2799.02</ele>
        <time>2013-07-14T10:12:02Z</time>
      </trkpt>
      <trkpt lat="46.457224376499653" lon="10.588717963546515">
        <ele>2798.0500000000002</ele>
        <time>2013-07-14T10:12:04Z</time>
      </trkpt>
      <trkpt lat="46.457146760076284" lon="10.588494502007961">
        <ele>2794.6900000000001</ele>
        <time>2013-07-14T10:12:18Z</time>
      </trkpt>
      <trkpt lat="46.457128236070275" lon="10.588458124548197">
        <ele>2794.21</ele>
        <time>2013-07-14T10:12:21Z</time>
      </trkpt>
      <trkpt lat="46.457118513062596" lon="10.588399367406964">
        <ele>2793.73</ele>
        <time>2013-07-14T10:12:25Z</time>
      </trkpt>
      <trkpt lat="46.45710744895041" lon="10.588210606947541">
        <ele>2792.29</ele>
        <time>2013-07-14T10:12:36Z</time>
      </trkpt>
      <trkpt lat="46.457103677093983" lon="10.588128883391619">
        <ele>2791.3299999999999</ele>
        <time>2013-07-14T10:12:42Z</time>
      </trkpt>
      <trkpt lat="46.457093367353082" lon="10.588054535910487">
        <ele>2790.8400000000001</ele>
        <time>2013-07-14T10:12:47Z</time>
      </trkpt>
      <trkpt lat="46.457060845568776" lon="10.587785979732871">
        <ele>2787.48</ele>
        <time>2013-07-14T10:13:03Z</time>
      </trkpt>
      <trkpt lat="46.457046512514353" lon="10.587595039978623">
        <ele>2785.5599999999999</ele>
        <time>2013-07-14T10:13:15Z</time>
      </trkpt>
      <trkpt lat="46.457010051235557" lon="10.587394461035728">
        <ele>2782.1900000000001</ele>
        <time>2013-07-14T10:13:28Z</time>
      </trkpt>
      <trkpt lat="46.456980966031551" lon="10.587202766910195">
        <ele>2779.79</ele>
        <time>2013-07-14T10:13:42Z</time>
      </trkpt>
      <trkpt lat="46.456957245245576" lon="10.587090197950602">
        <ele>2777.3899999999999</ele>
        <time>2013-07-14T10:13:50Z</time>
      </trkpt>
      <trkpt lat="46.456946600228548" lon="10.58694058097899">
        <ele>2774.02</ele>
        <time>2013-07-14T10:14:02Z</time>
      </trkpt>
      <trkpt lat="46.456951797008514" lon="10.586885092779994">
        <ele>2772.5799999999999</ele>
        <time>2013-07-14T10:14:06Z</time>
      </trkpt>
      <trkpt lat="46.456994544714689" lon="10.586771350353956">
        <ele>2769.6999999999998</ele>
        <time>2013-07-14T10:14:15Z</time>
      </trkpt>
      <trkpt lat="46.456990269944072" lon="10.586740337312222">
        <ele>2769.21</ele>
        <time>2013-07-14T10:14:17Z</time>
      </trkpt>
      <trkpt lat="46.457002004608512" lon="10.58670312166214">
        <ele>2767.77</ele>
        <time>2013-07-14T10:14:20Z</time>
      </trkpt>
      <trkpt lat="46.457111304625869" lon="10.586650986224413">
        <ele>2765.8499999999999</ele>
        <time>2013-07-14T10:14:30Z</time>
      </trkpt>
      <trkpt lat="46.457206942141056" lon="10.586607987061143">
        <ele>2763.4499999999998</ele>
        <time>2013-07-14T10:14:39Z</time>
      </trkpt>
      <trkpt lat="46.457243403419852" lon="10.586492232978344">
        <ele>2762.4899999999998</ele>
        <time>2013-07-14T10:14:46Z</time>
      </trkpt>
      <trkpt lat="46.457251533865929" lon="10.586206577718258">
        <ele>2762</ele>
        <time>2013-07-14T10:15:02Z</time>
      </trkpt>
      <trkpt lat="46.45723988302052" lon="10.585945984348655">
        <ele>2761.52</ele>
        <time>2013-07-14T10:15:18Z</time>
      </trkpt>
      <trkpt lat="46.457211719825864" lon="10.585709027945995">
        <ele>2761.04</ele>
        <time>2013-07-14T10:15:33Z</time>
      </trkpt>
      <trkpt lat="46.457212055101991" lon="10.585437873378396">
        <ele>2760.0799999999999</ele>
        <time>2013-07-14T10:15:48Z</time>
      </trkpt>
      <trkpt lat="46.457178862765431" lon="10.585192032158375">
        <ele>2760.5599999999999</ele>
        <time>2013-07-14T10:16:03Z</time>
      </trkpt>
      <trkpt lat="46.457124380394816" lon="10.584990531206131">
        <ele>2761.04</ele>
        <time>2013-07-14T10:16:17Z</time>
      </trkpt>
      <trkpt lat="46.457072580233216" lon="10.584806380793452">
        <ele>2762.4899999999998</ele>
        <time>2013-07-14T10:16:31Z</time>
      </trkpt>
      <trkpt lat="46.457027401775122" lon="10.584611836820841">
        <ele>2763.9299999999998</ele>
        <time>2013-07-14T10:16:44Z</time>
      </trkpt>
      <trkpt lat="46.456990856677294" lon="10.584422657266259">
        <ele>2764.4099999999999</ele>
        <time>2013-07-14T10:16:58Z</time>
      </trkpt>
      <trkpt lat="46.456968560814857" lon="10.584222748875618">
        <ele>2764.8899999999999</ele>
        <time>2013-07-14T10:17:11Z</time>
      </trkpt>
      <trkpt lat="46.45693595521152" lon="10.584019320085645">
        <ele>2765.3699999999999</ele>
        <time>2013-07-14T10:17:24Z</time>
      </trkpt>
      <trkpt lat="46.456887256354094" lon="10.583803150802851">
        <ele>2765.3699999999999</ele>
        <time>2013-07-14T10:17:38Z</time>
      </trkpt>
      <trkpt lat="46.456819865852594" lon="10.58354607783258">
        <ele>2763.9299999999998</ele>
        <time>2013-07-14T10:17:54Z</time>
      </trkpt>
      <trkpt lat="46.456726072356105" lon="10.583318006247282">
        <ele>2762.4899999999998</ele>
        <time>2013-07-14T10:18:09Z</time>
      </trkpt>
      <trkpt lat="46.456600343808532" lon="10.583086833357811">
        <ele>2761.04</ele>
        <time>2013-07-14T10:18:26Z</time>
      </trkpt>
      <trkpt lat="46.456479979678988" lon="10.582941407337785">
        <ele>2760.0799999999999</ele>
        <time>2013-07-14T10:18:41Z</time>
      </trkpt>
      <trkpt lat="46.456473777070642" lon="10.582906622439623">
        <ele>2760.0799999999999</ele>
        <time>2013-07-14T10:18:43Z</time>
      </trkpt>
      <trkpt lat="46.456511495634913" lon="10.582643011584878">
        <ele>2758.1599999999999</ele>
        <time>2013-07-14T10:18:57Z</time>
      </trkpt>
      <trkpt lat="46.456482661888003" lon="10.582399684935808">
        <ele>2756.7199999999998</ele>
        <time>2013-07-14T10:19:11Z</time>
      </trkpt>
      <trkpt lat="46.456360789015889" lon="10.582201955839992">
        <ele>2754.8000000000002</ele>
        <time>2013-07-14T10:19:29Z</time>
      </trkpt>
      <trkpt lat="46.456260457634926" lon="10.582047812640667">
        <ele>2751.9099999999999</ele>
        <time>2013-07-14T10:19:44Z</time>
      </trkpt>
      <trkpt lat="46.456213854253292" lon="10.581853771582246">
        <ele>2748.0700000000002</ele>
        <time>2013-07-14T10:19:58Z</time>
      </trkpt>
      <trkpt lat="46.456193150952458" lon="10.58167951181531">
        <ele>2744.6999999999998</ele>
        <time>2013-07-14T10:20:13Z</time>
      </trkpt>
      <trkpt lat="46.456123664975166" lon="10.58138002641499">
        <ele>2741.3400000000001</ele>
        <time>2013-07-14T10:20:31Z</time>
      </trkpt>
      <trkpt lat="46.45607597194612" lon="10.58117332868278">
        <ele>2741.3400000000001</ele>
        <time>2013-07-14T10:20:44Z</time>
      </trkpt>
      <trkpt lat="46.45603196695447" lon="10.58094073086977">
        <ele>2738.9299999999998</ele>
        <time>2013-07-14T10:20:59Z</time>
      </trkpt>
      <trkpt lat="46.455993829295039" lon="10.580760268494487">
        <ele>2736.0500000000002</ele>
        <time>2013-07-14T10:21:12Z</time>
      </trkpt>
      <trkpt lat="46.45596164278686" lon="10.58058156631887">
        <ele>2732.6799999999998</ele>
        <time>2013-07-14T10:21:24Z</time>
      </trkpt>
      <trkpt lat="46.455930043011904" lon="10.580365983769298">
        <ele>2731.2399999999998</ele>
        <time>2013-07-14T10:21:40Z</time>
      </trkpt>
      <trkpt lat="46.455915123224258" lon="10.580266155302525">
        <ele>2730.7600000000002</ele>
        <time>2013-07-14T10:21:47Z</time>
      </trkpt>
      <trkpt lat="46.455911183729768" lon="10.580231789499521">
        <ele>2731.2399999999998</ele>
        <time>2013-07-14T10:21:49Z</time>
      </trkpt>
      <trkpt lat="46.455915039405227" lon="10.580186108127236">
        <ele>2731.2399999999998</ele>
        <time>2013-07-14T10:21:52Z</time>
      </trkpt>
      <trkpt lat="46.455885032191873" lon="10.580145204439759">
        <ele>2731.7199999999998</ele>
        <time>2013-07-14T10:21:56Z</time>
      </trkpt>
      <trkpt lat="46.455810349434614" lon="10.580056440085173">
        <ele>2731.2399999999998</ele>
        <time>2013-07-14T10:22:05Z</time>
      </trkpt>
      <trkpt lat="46.455781012773514" lon="10.5799859482795">
        <ele>2731.2399999999998</ele>
        <time>2013-07-14T10:22:11Z</time>
      </trkpt>
      <trkpt lat="46.455671712756157" lon="10.579854687675834">
        <ele>2730.2800000000002</ele>
        <time>2013-07-14T10:22:25Z</time>
      </trkpt>
      <trkpt lat="46.45552134141326" lon="10.57977975346148">
        <ele>2728.3600000000001</ele>
        <time>2013-07-14T10:22:40Z</time>
      </trkpt>
      <trkpt lat="46.455381195992231" lon="10.579697443172336">
        <ele>2727.4000000000001</ele>
        <time>2013-07-14T10:22:53Z</time>
      </trkpt>
      <trkpt lat="46.455308608710766" lon="10.579658718779683">
        <ele>2726.9200000000001</ele>
        <time>2013-07-14T10:23:00Z</time>
      </trkpt>
      <trkpt lat="46.455227807164192" lon="10.579621670767665">
        <ele>2726.9200000000001</ele>
        <time>2013-07-14T10:23:08Z</time>
      </trkpt>
      <trkpt lat="46.455200733616948" lon="10.579599374905229">
        <ele>2726.9200000000001</ele>
        <time>2013-07-14T10:23:11Z</time>
      </trkpt>
      <trkpt lat="46.455070646479726" lon="10.579488733783364">
        <ele>2727.4000000000001</ele>
        <time>2013-07-14T10:23:25Z</time>
      </trkpt>
      <trkpt lat="46.454918850213289" lon="10.579414134845138">
        <ele>2727.8800000000001</ele>
        <time>2013-07-14T10:23:39Z</time>
      </trkpt>
      <trkpt lat="46.454865038394928" lon="10.579408016055822">
        <ele>2727.8800000000001</ele>
        <time>2013-07-14T10:23:44Z</time>
      </trkpt>
      <trkpt lat="46.454699663445354" lon="10.579342804849148">
        <ele>2729.8000000000002</ele>
        <time>2013-07-14T10:24:00Z</time>
      </trkpt>
      <trkpt lat="46.454620203003287" lon="10.579313719645143">
        <ele>2731.7199999999998</ele>
        <time>2013-07-14T10:24:08Z</time>
      </trkpt>
      <trkpt lat="46.454489110037684" lon="10.57929988950491">
        <ele>2732.1999999999998</ele>
        <time>2013-07-14T10:24:23Z</time>
      </trkpt>
      <trkpt lat="46.454391377046704" lon="10.579194193705916">
        <ele>2732.6799999999998</ele>
        <time>2013-07-14T10:24:36Z</time>
      </trkpt>
      <trkpt lat="46.454304875805974" lon="10.579128814861178">
        <ele>2732.6799999999998</ele>
        <time>2013-07-14T10:24:48Z</time>
      </trkpt>
      <trkpt lat="46.45421527326107" lon="10.579175585880876">
        <ele>2732.6799999999998</ele>
        <time>2013-07-14T10:24:57Z</time>
      </trkpt>
      <trkpt lat="46.454024417325854" lon="10.579149182885885">
        <ele>2731.7199999999998</ele>
        <time>2013-07-14T10:25:13Z</time>
      </trkpt>
      <trkpt lat="46.453855102881789" lon="10.579079613089561">
        <ele>2728.8400000000001</ele>
        <time>2013-07-14T10:25:28Z</time>
      </trkpt>
      <trkpt lat="46.453793831169605" lon="10.57902479544282">
        <ele>2728.3600000000001</ele>
        <time>2013-07-14T10:25:34Z</time>
      </trkpt>
      <trkpt lat="46.453697020187974" lon="10.579007444903255">
        <ele>2726.9200000000001</ele>
        <time>2013-07-14T10:25:42Z</time>
      </trkpt>
      <trkpt lat="46.453673886135221" lon="10.579006019979715">
        <ele>2726.9200000000001</ele>
        <time>2013-07-14T10:25:44Z</time>
      </trkpt>
      <trkpt lat="46.453466853126884" lon="10.57897592894733">
        <ele>2724.9899999999998</ele>
        <time>2013-07-14T10:26:01Z</time>
      </trkpt>
      <trkpt lat="46.45328831858933" lon="10.578923374414444">
        <ele>2722.5900000000001</ele>
        <time>2013-07-14T10:26:17Z</time>
      </trkpt>
      <trkpt lat="46.453169211745262" lon="10.578897139057517">
        <ele>2719.23</ele>
        <time>2013-07-14T10:26:29Z</time>
      </trkpt>
      <trkpt lat="46.453075250610709" lon="10.578851290047169">
        <ele>2717.7800000000002</ele>
        <time>2013-07-14T10:26:38Z</time>
      </trkpt>
      <trkpt lat="46.45290769636631" lon="10.578868221491575">
        <ele>2715.3800000000001</ele>
        <time>2013-07-14T10:26:53Z</time>
      </trkpt>
      <trkpt lat="46.452836785465479" lon="10.578790521249175">
        <ele>2714.9000000000001</ele>
        <time>2013-07-14T10:27:02Z</time>
      </trkpt>
      <trkpt lat="46.452751876786351" lon="10.578693961724639">
        <ele>2715.3800000000001</ele>
        <time>2013-07-14T10:27:14Z</time>
      </trkpt>
      <trkpt lat="46.45263209939003" lon="10.578639898449183">
        <ele>2716.3400000000001</ele>
        <time>2013-07-14T10:27:28Z</time>
      </trkpt>
      <trkpt lat="46.452599242329597" lon="10.578491287305951">
        <ele>2715.8600000000001</ele>
        <time>2013-07-14T10:27:42Z</time>
      </trkpt>
      <trkpt lat="46.452611731365323" lon="10.578485168516636">
        <ele>2715.8600000000001</ele>
        <time>2013-07-14T10:27:53Z</time>
      </trkpt>
      <trkpt lat="46.452615754678845" lon="10.578486928716302">
        <ele>2714.9000000000001</ele>
        <time>2013-07-14T10:28:06Z</time>
      </trkpt>
      <trkpt lat="46.452576695010066" lon="10.578488186001778">
        <ele>2714.9000000000001</ele>
        <time>2013-07-14T10:28:37Z</time>
      </trkpt>
      <trkpt lat="46.452563116326928" lon="10.578518696129322">
        <ele>2714.9000000000001</ele>
        <time>2013-07-14T10:29:09Z</time>
      </trkpt>
      <trkpt lat="46.452558925375342" lon="10.578485252335668">
        <ele>2715.3800000000001</ele>
        <time>2013-07-14T10:29:34Z</time>
      </trkpt>
      <trkpt lat="46.452563367784023" lon="10.578487766906619">
        <ele>2714.4200000000001</ele>
        <time>2013-07-14T10:29:51Z</time>
      </trkpt>
      <trkpt lat="46.452562864869833" lon="10.578442336991429">
        <ele>2715.3800000000001</ele>
        <time>2013-07-14T10:30:18Z</time>
      </trkpt>
      <trkpt lat="46.452572336420417" lon="10.578432278707623">
        <ele>2715.8600000000001</ele>
        <time>2013-07-14T10:30:50Z</time>
      </trkpt>
      <trkpt lat="46.452527828514576" lon="10.578426662832499">
        <ele>2715.8600000000001</ele>
        <time>2013-07-14T10:31:17Z</time>
      </trkpt>
      <trkpt lat="46.452568732202053" lon="10.578429345041513">
        <ele>2716.3400000000001</ele>
        <time>2013-07-14T10:31:42Z</time>
      </trkpt>
      <trkpt lat="46.452554650604725" lon="10.578447114676237">
        <ele>2716.8200000000002</ele>
        <time>2013-07-14T10:32:12Z</time>
      </trkpt>
      <trkpt lat="46.452598655596375" lon="10.578434122726321">
        <ele>2716.3400000000001</ele>
        <time>2013-07-14T10:32:36Z</time>
      </trkpt>
      <trkpt lat="46.452547861263156" lon="10.578367654234171">
        <ele>2716.8200000000002</ele>
        <time>2013-07-14T10:33:08Z</time>
      </trkpt>
      <trkpt lat="46.452507879585028" lon="10.578353572636843">
        <ele>2716.3400000000001</ele>
        <time>2013-07-14T10:33:35Z</time>
      </trkpt>
      <trkpt lat="46.452509807422757" lon="10.578351058065891">
        <ele>2716.8200000000002</ele>
        <time>2013-07-14T10:34:14Z</time>
      </trkpt>
      <trkpt lat="46.452466221526265" lon="10.578268328681588">
        <ele>2715.8600000000001</ele>
        <time>2013-07-14T10:34:45Z</time>
      </trkpt>
      <trkpt lat="46.452478040009737" lon="10.578254582360387">
        <ele>2715.8600000000001</ele>
        <time>2013-07-14T10:35:13Z</time>
      </trkpt>
      <trkpt lat="46.452445266768336" lon="10.578277045860887">
        <ele>2715.8600000000001</ele>
        <time>2013-07-14T10:35:36Z</time>
      </trkpt>
      <trkpt lat="46.45245180465281" lon="10.578281236812472">
        <ele>2716.3400000000001</ele>
        <time>2013-07-14T10:35:37Z</time>
      </trkpt>
      <trkpt lat="46.452579880133271" lon="10.578369414433837">
        <ele>2716.3400000000001</ele>
        <time>2013-07-14T10:35:58Z</time>
      </trkpt>
      <trkpt lat="46.452579041942954" lon="10.578473769128323">
        <ele>2716.3400000000001</ele>
        <time>2013-07-14T10:36:31Z</time>
      </trkpt>
      <trkpt lat="46.452545765787363" lon="10.578461112454534">
        <ele>2716.3400000000001</ele>
        <time>2013-07-14T10:36:49Z</time>
      </trkpt>
      <trkpt lat="46.452559009194374" lon="10.578438062220812">
        <ele>2715.3800000000001</ele>
        <time>2013-07-14T10:37:11Z</time>
      </trkpt>
      <trkpt lat="46.452551800757647" lon="10.578460190445185">
        <ele>2717.3000000000002</ele>
        <time>2013-07-14T10:37:40Z</time>
      </trkpt>
      <trkpt lat="46.452535036951303" lon="10.578433452174067">
        <ele>2716.8200000000002</ele>
        <time>2013-07-14T10:38:07Z</time>
      </trkpt>
      <trkpt lat="46.452533947303891" lon="10.578422304242849">
        <ele>2716.3400000000001</ele>
        <time>2013-07-14T10:38:33Z</time>
      </trkpt>
      <trkpt lat="46.452522296458483" lon="10.578411491587758">
        <ele>2716.8200000000002</ele>
        <time>2013-07-14T10:39:09Z</time>
      </trkpt>
      <trkpt lat="46.452559260651469" lon="10.578400427475572">
        <ele>2716.8200000000002</ele>
        <time>2013-07-14T10:39:39Z</time>
      </trkpt>
      <trkpt lat="46.452565463259816" lon="10.578455915674567">
        <ele>2717.7800000000002</ele>
        <time>2013-07-14T10:40:04Z</time>
      </trkpt>
      <trkpt lat="46.45256269723177" lon="10.578454993665218">
        <ele>2712.98</ele>
        <time>2013-07-14T10:40:13Z</time>
      </trkpt>
      <trkpt lat="46.452563032507896" lon="10.578451557084918">
        <ele>2712.98</ele>
        <time>2013-07-14T10:40:14Z</time>
      </trkpt>
      <trkpt lat="46.452570157125592" lon="10.57843160815537">
        <ele>2716.3400000000001</ele>
        <time>2013-07-14T10:40:22Z</time>
      </trkpt>
      <trkpt lat="46.452576108276844" lon="10.578422890976071">
        <ele>2716.3400000000001</ele>
        <time>2013-07-14T10:40:23Z</time>
      </trkpt>
      <trkpt lat="46.452573593705893" lon="10.578401684761047">
        <ele>2717.3000000000002</ele>
        <time>2013-07-14T10:40:27Z</time>
      </trkpt>
      <trkpt lat="46.452614665031433" lon="10.578395985066891">
        <ele>2716.8200000000002</ele>
        <time>2013-07-14T10:40:40Z</time>
      </trkpt>
      <trkpt lat="46.45263846963644" lon="10.57848097756505">
        <ele>2715.8600000000001</ele>
        <time>2013-07-14T10:41:18Z</time>
      </trkpt>
      <trkpt lat="46.452613491564989" lon="10.578425489366055">
        <ele>2716.3400000000001</ele>
        <time>2013-07-14T10:41:53Z</time>
      </trkpt>
      <trkpt lat="46.452637882903218" lon="10.578423980623484">
        <ele>2715.3800000000001</ele>
        <time>2013-07-14T10:42:30Z</time>
      </trkpt>
      <trkpt lat="46.452604690566659" lon="10.578382490202785">
        <ele>2715.3800000000001</ele>
        <time>2013-07-14T10:43:07Z</time>
      </trkpt>
      <trkpt lat="46.452611144632101" lon="10.578403361141682">
        <ele>2715.3800000000001</ele>
        <time>2013-07-14T10:43:29Z</time>
      </trkpt>
      <trkpt lat="46.452639810740948" lon="10.578388189896941">
        <ele>2715.3800000000001</ele>
        <time>2013-07-14T10:44:02Z</time>
      </trkpt>
      <trkpt lat="46.452633775770664" lon="10.578355751931667">
        <ele>2715.8600000000001</ele>
        <time>2013-07-14T10:44:33Z</time>
      </trkpt>
      <trkpt lat="46.452604858204722" lon="10.578407132998109">
        <ele>2715.8600000000001</ele>
        <time>2013-07-14T10:45:12Z</time>
      </trkpt>
      <trkpt lat="46.452591111883521" lon="10.578373773023486">
        <ele>2715.8600000000001</ele>
        <time>2013-07-14T10:45:43Z</time>
      </trkpt>
      <trkpt lat="46.452572923153639" lon="10.578403696417809">
        <ele>2715.3800000000001</ele>
        <time>2013-07-14T10:46:20Z</time>
      </trkpt>
      <trkpt lat="46.452596895396709" lon="10.578403444960713">
        <ele>2715.3800000000001</ele>
        <time>2013-07-14T10:47:00Z</time>
      </trkpt>
      <trkpt lat="46.452594297006726" lon="10.578408893197775">
        <ele>2714.9000000000001</ele>
        <time>2013-07-14T10:47:40Z</time>
      </trkpt>
      <trkpt lat="46.452574348077178" lon="10.578417275100946">
        <ele>2714.9000000000001</ele>
        <time>2013-07-14T10:48:16Z</time>
      </trkpt>
      <trkpt lat="46.452580969780684" lon="10.578409396111965">
        <ele>2714.9000000000001</ele>
        <time>2013-07-14T10:48:57Z</time>
      </trkpt>
      <trkpt lat="46.452583903446794" lon="10.578404618427157">
        <ele>2715.3800000000001</ele>
        <time>2013-07-14T10:49:33Z</time>
      </trkpt>
      <trkpt lat="46.452562445774674" lon="10.578399254009128">
        <ele>2715.3800000000001</ele>
        <time>2013-07-14T10:50:07Z</time>
      </trkpt>
      <trkpt lat="46.452575353905559" lon="10.57839254848659">
        <ele>2716.3400000000001</ele>
        <time>2013-07-14T10:50:42Z</time>
      </trkpt>
      <trkpt lat="46.452554985880852" lon="10.578387100249529">
        <ele>2715.3800000000001</ele>
        <time>2013-07-14T10:51:23Z</time>
      </trkpt>
      <trkpt lat="46.452564122155309" lon="10.578410318121314">
        <ele>2715.3800000000001</ele>
        <time>2013-07-14T10:52:06Z</time>
      </trkpt>
      <trkpt lat="46.452578119933605" lon="10.578387686982751">
        <ele>2715.3800000000001</ele>
        <time>2013-07-14T10:52:40Z</time>
      </trkpt>
      <trkpt lat="46.452587004750967" lon="10.578425573185086">
        <ele>2714.9000000000001</ele>
        <time>2013-07-14T10:53:16Z</time>
      </trkpt>
      <trkpt lat="46.452585831284523" lon="10.578443845734">
        <ele>2714.9000000000001</ele>
        <time>2013-07-14T10:53:51Z</time>
      </trkpt>
      <trkpt lat="46.452593542635441" lon="10.578466225415468">
        <ele>2714.9000000000001</ele>
        <time>2013-07-14T10:54:23Z</time>
      </trkpt>
      <trkpt lat="46.452586837112904" lon="10.578486593440175">
        <ele>2714.9000000000001</ele>
        <time>2013-07-14T10:54:52Z</time>
      </trkpt>
      <trkpt lat="46.452604690566659" lon="10.578469410538673">
        <ele>2714.9000000000001</ele>
        <time>2013-07-14T10:55:30Z</time>
      </trkpt>
      <trkpt lat="46.452592704445124" lon="10.578493466600776">
        <ele>2714.4200000000001</ele>
        <time>2013-07-14T10:56:09Z</time>
      </trkpt>
      <trkpt lat="46.45257736556232" lon="10.578513499349356">
        <ele>2714.4200000000001</ele>
        <time>2013-07-14T10:56:49Z</time>
      </trkpt>
      <trkpt lat="46.452596141025424" lon="10.578495310619473">
        <ele>2713.9400000000001</ele>
        <time>2013-07-14T10:57:26Z</time>
      </trkpt>
      <trkpt lat="46.452599996700883" lon="10.578457927331328">
        <ele>2713.9400000000001</ele>
        <time>2013-07-14T10:58:05Z</time>
      </trkpt>
      <trkpt lat="46.452611647546291" lon="10.578473350033164">
        <ele>2713.46</ele>
        <time>2013-07-14T10:58:56Z</time>
      </trkpt>
      <trkpt lat="46.452597985044122" lon="10.578457340598106">
        <ele>2713.46</ele>
        <time>2013-07-14T10:59:35Z</time>
      </trkpt>
      <trkpt lat="46.452616425231099" lon="10.578476870432496">
        <ele>2713.9400000000001</ele>
        <time>2013-07-14T11:00:20Z</time>
      </trkpt>
      <trkpt lat="46.452615084126592" lon="10.578480893746018">
        <ele>2714.4200000000001</ele>
        <time>2013-07-14T11:01:02Z</time>
      </trkpt>
      <trkpt lat="46.452628327533603" lon="10.5784922093153">
        <ele>2713.46</ele>
        <time>2013-07-14T11:01:31Z</time>
      </trkpt>
      <trkpt lat="46.452602930366993" lon="10.578472092747688">
        <ele>2713.9400000000001</ele>
        <time>2013-07-14T11:02:15Z</time>
      </trkpt>
      <trkpt lat="46.452567894011736" lon="10.578470332548022">
        <ele>2713.9400000000001</ele>
        <time>2013-07-14T11:02:51Z</time>
      </trkpt>
      <trkpt lat="46.452552806586027" lon="10.578471338376403">
        <ele>2713.46</ele>
        <time>2013-07-14T11:03:39Z</time>
      </trkpt>
      <trkpt lat="46.452552974224091" lon="10.578476367518306">
        <ele>2713.46</ele>
        <time>2013-07-14T11:04:21Z</time>
      </trkpt>
      <trkpt lat="46.452587926760316" lon="10.578450048342347">
        <ele>2712.98</ele>
        <time>2013-07-14T11:05:03Z</time>
      </trkpt>
      <trkpt lat="46.452608127146959" lon="10.578471086919308">
        <ele>2713.46</ele>
        <time>2013-07-14T11:05:49Z</time>
      </trkpt>
      <trkpt lat="46.452588764950633" lon="10.578478882089257">
        <ele>2712.98</ele>
        <time>2013-07-14T11:06:31Z</time>
      </trkpt>
      <trkpt lat="46.452584490180016" lon="10.578463459387422">
        <ele>2712.5</ele>
        <time>2013-07-14T11:07:13Z</time>
      </trkpt>
      <trkpt lat="46.452597314491868" lon="10.578462285920978">
        <ele>2712.5</ele>
        <time>2013-07-14T11:07:58Z</time>
      </trkpt>
      <trkpt lat="46.452593207359314" lon="10.578474439680576">
        <ele>2713.46</ele>
        <time>2013-07-14T11:08:36Z</time>
      </trkpt>
      <trkpt lat="46.45260033197701" lon="10.578503692522645">
        <ele>2711.54</ele>
        <time>2013-07-14T11:09:16Z</time>
      </trkpt>
      <trkpt lat="46.45259547047317" lon="10.578482067212462">
        <ele>2712.02</ele>
        <time>2013-07-14T11:09:54Z</time>
      </trkpt>
      <trkpt lat="46.452589938417077" lon="10.578464632853866">
        <ele>2711.54</ele>
        <time>2013-07-14T11:10:36Z</time>
      </trkpt>
      <trkpt lat="46.452598739415407" lon="10.578477792441845">
        <ele>2711.54</ele>
        <time>2013-07-14T11:11:16Z</time>
      </trkpt>
      <trkpt lat="46.452612318098545" lon="10.578480390831828">
        <ele>2711.54</ele>
        <time>2013-07-14T11:11:53Z</time>
      </trkpt>
      <trkpt lat="46.452609887346625" lon="10.578485587611794">
        <ele>2710.5700000000002</ele>
        <time>2013-07-14T11:12:30Z</time>
      </trkpt>
      <trkpt lat="46.452612821012735" lon="10.578510146588087">
        <ele>2711.0599999999999</ele>
        <time>2013-07-14T11:13:12Z</time>
      </trkpt>
      <trkpt lat="46.452613659203053" lon="10.578515259549022">
        <ele>2711.0599999999999</ele>
        <time>2013-07-14T11:13:50Z</time>
      </trkpt>
      <trkpt lat="46.452604522928596" lon="10.578475445508957">
        <ele>2710.5700000000002</ele>
        <time>2013-07-14T11:14:38Z</time>
      </trkpt>
      <trkpt lat="46.452601924538612" lon="10.578480139374733">
        <ele>2710.5700000000002</ele>
        <time>2013-07-14T11:15:19Z</time>
      </trkpt>
      <trkpt lat="46.452581640332937" lon="10.57847854681313">
        <ele>2710.5700000000002</ele>
        <time>2013-07-14T11:16:03Z</time>
      </trkpt>
      <trkpt lat="46.452585244551301" lon="10.57850151322782">
        <ele>2710.5700000000002</ele>
        <time>2013-07-14T11:16:41Z</time>
      </trkpt>
      <trkpt lat="46.452656826004386" lon="10.578451305627823">
        <ele>2710.0900000000001</ele>
        <time>2013-07-14T11:17:15Z</time>
      </trkpt>
      <trkpt lat="46.452639643102884" lon="10.57845164090395">
        <ele>2710.0900000000001</ele>
        <time>2013-07-14T11:17:56Z</time>
      </trkpt>
      <trkpt lat="46.452628746628761" lon="10.578465722501278">
        <ele>2710.0900000000001</ele>
        <time>2013-07-14T11:18:36Z</time>
      </trkpt>
      <trkpt lat="46.452611312270164" lon="10.578453987836838">
        <ele>2710.0900000000001</ele>
        <time>2013-07-14T11:19:13Z</time>
      </trkpt>
      <trkpt lat="46.4526232983917" lon="10.578472930938005">
        <ele>2709.6100000000001</ele>
        <time>2013-07-14T11:19:50Z</time>
      </trkpt>
      <trkpt lat="46.452613659203053" lon="10.578463459387422">
        <ele>2709.1300000000001</ele>
        <time>2013-07-14T11:20:25Z</time>
      </trkpt>
      <trkpt lat="46.452602175995708" lon="10.57847511023283">
        <ele>2709.6100000000001</ele>
        <time>2013-07-14T11:21:05Z</time>
      </trkpt>
      <trkpt lat="46.452623717486858" lon="10.578465471044183">
        <ele>2709.1300000000001</ele>
        <time>2013-07-14T11:21:51Z</time>
      </trkpt>
      <trkpt lat="46.45260720513761" lon="10.578461531549692">
        <ele>2709.1300000000001</ele>
        <time>2013-07-14T11:22:34Z</time>
      </trkpt>
      <trkpt lat="46.452575270086527" lon="10.578502854332328">
        <ele>2709.1300000000001</ele>
        <time>2013-07-14T11:23:17Z</time>
      </trkpt>
      <trkpt lat="46.45256076939404" lon="10.578507967293262">
        <ele>2709.1300000000001</ele>
        <time>2013-07-14T11:24:00Z</time>
      </trkpt>
      <trkpt lat="46.452577784657478" lon="10.578506290912628">
        <ele>2709.1300000000001</ele>
        <time>2013-07-14T11:24:41Z</time>
      </trkpt>
      <trkpt lat="46.45259496755898" lon="10.578468656167388">
        <ele>2709.1300000000001</ele>
        <time>2013-07-14T11:25:25Z</time>
      </trkpt>
      <trkpt lat="46.452588010579348" lon="10.578468907624483">
        <ele>2709.1300000000001</ele>
        <time>2013-07-14T11:26:07Z</time>
      </trkpt>
      <trkpt lat="46.452573258429766" lon="10.578483240678906">
        <ele>2709.1300000000001</ele>
        <time>2013-07-14T11:26:50Z</time>
      </trkpt>
      <trkpt lat="46.452582897618413" lon="10.578468488529325">
        <ele>2708.6500000000001</ele>
        <time>2013-07-14T11:27:33Z</time>
      </trkpt>
      <trkpt lat="46.452594129368663" lon="10.578489946201444">
        <ele>2708.6500000000001</ele>
        <time>2013-07-14T11:28:12Z</time>
      </trkpt>
      <trkpt lat="46.452618772163987" lon="10.578518863767385">
        <ele>2708.6500000000001</ele>
        <time>2013-07-14T11:28:49Z</time>
      </trkpt>
      <trkpt lat="46.452624807134271" lon="10.578468907624483">
        <ele>2708.6500000000001</ele>
        <time>2013-07-14T11:29:30Z</time>
      </trkpt>
      <trkpt lat="46.452645007520914" lon="10.578464465215802">
        <ele>2709.6100000000001</ele>
        <time>2013-07-14T11:29:53Z</time>
      </trkpt>
      <trkpt lat="46.452649785205722" lon="10.57847703807056">
        <ele>2708.6500000000001</ele>
        <time>2013-07-14T11:29:55Z</time>
      </trkpt>
      <trkpt lat="46.452596392482519" lon="10.578496316447854">
        <ele>2709.1300000000001</ele>
        <time>2013-07-14T11:30:27Z</time>
      </trkpt>
      <trkpt lat="46.452629836276174" lon="10.578512074425817">
        <ele>2708.6500000000001</ele>
        <time>2013-07-14T11:30:58Z</time>
      </trkpt>
      <trkpt lat="46.452588932588696" lon="10.57847511023283">
        <ele>2706.25</ele>
        <time>2013-07-14T11:31:25Z</time>
      </trkpt>
      <trkpt lat="46.452581472694874" lon="10.5784922093153">
        <ele>2709.1300000000001</ele>
        <time>2013-07-14T11:31:49Z</time>
      </trkpt>
      <trkpt lat="46.452616341412067" lon="10.578493550419807">
        <ele>2709.1300000000001</ele>
        <time>2013-07-14T11:32:18Z</time>
      </trkpt>
      <trkpt lat="46.452610474079847" lon="10.578473769128323">
        <ele>2709.6100000000001</ele>
        <time>2013-07-14T11:32:32Z</time>
      </trkpt>
      <trkpt lat="46.452562445774674" lon="10.578490449115634">
        <ele>2707.6900000000001</ele>
        <time>2013-07-14T11:32:44Z</time>
      </trkpt>
      <trkpt lat="46.452571246773005" lon="10.57851517572999">
        <ele>2706.73</ele>
        <time>2013-07-14T11:32:59Z</time>
      </trkpt>
      <trkpt lat="46.452557668089867" lon="10.578515259549022">
        <ele>2706.73</ele>
        <time>2013-07-14T11:33:32Z</time>
      </trkpt>
      <trkpt lat="46.452542580664158" lon="10.57850880548358">
        <ele>2706.73</ele>
        <time>2013-07-14T11:34:05Z</time>
      </trkpt>
      <trkpt lat="46.452538892626762" lon="10.578525066375732">
        <ele>2706.25</ele>
        <time>2013-07-14T11:34:42Z</time>
      </trkpt>
      <trkpt lat="46.452532103285193" lon="10.578533280640841">
        <ele>2706.25</ele>
        <time>2013-07-14T11:35:15Z</time>
      </trkpt>
      <trkpt lat="46.452524308115244" lon="10.578514337539673">
        <ele>2707.21</ele>
        <time>2013-07-14T11:35:51Z</time>
      </trkpt>
      <trkpt lat="46.452547525987029" lon="10.578502770513296">
        <ele>2706.73</ele>
        <time>2013-07-14T11:36:24Z</time>
      </trkpt>
      <trkpt lat="46.452525481581688" lon="10.578504279255867">
        <ele>2706.25</ele>
        <time>2013-07-14T11:36:53Z</time>
      </trkpt>
      <trkpt lat="46.452551297843456" lon="10.57851517572999">
        <ele>2706.25</ele>
        <time>2013-07-14T11:37:25Z</time>
      </trkpt>
      <trkpt lat="46.452562948688865" lon="10.578531101346016">
        <ele>2706.73</ele>
        <time>2013-07-14T11:38:06Z</time>
      </trkpt>
      <trkpt lat="46.452575773000717" lon="10.578526826575398">
        <ele>2706.73</ele>
        <time>2013-07-14T11:38:46Z</time>
      </trkpt>
      <trkpt lat="46.452561691403389" lon="10.578523222357035">
        <ele>2706.73</ele>
        <time>2013-07-14T11:39:25Z</time>
      </trkpt>
      <trkpt lat="46.452557751908898" lon="10.578514086082578">
        <ele>2706.73</ele>
        <time>2013-07-14T11:39:58Z</time>
      </trkpt>
      <trkpt lat="46.452538389712572" lon="10.578513666987419">
        <ele>2706.73</ele>
        <time>2013-07-14T11:40:30Z</time>
      </trkpt>
      <trkpt lat="46.452551633119583" lon="10.578520623967052">
        <ele>2707.21</ele>
        <time>2013-07-14T11:41:09Z</time>
      </trkpt>
      <trkpt lat="46.452575270086527" lon="10.578530011698604">
        <ele>2706.73</ele>
        <time>2013-07-14T11:41:54Z</time>
      </trkpt>
      <trkpt lat="46.452559344470501" lon="10.578537723049521">
        <ele>2706.73</ele>
        <time>2013-07-14T11:42:41Z</time>
      </trkpt>
      <trkpt lat="46.45254953764379" lon="10.578536046668887">
        <ele>2707.21</ele>
        <time>2013-07-14T11:43:14Z</time>
      </trkpt>
      <trkpt lat="46.452564373612404" lon="10.578548535704613">
        <ele>2707.6900000000001</ele>
        <time>2013-07-14T11:43:49Z</time>
      </trkpt>
      <trkpt lat="46.452553309500217" lon="10.578540656715631">
        <ele>2707.21</ele>
        <time>2013-07-14T11:44:26Z</time>
      </trkpt>
      <trkpt lat="46.452531348913908" lon="10.578541159629822">
        <ele>2707.6900000000001</ele>
        <time>2013-07-14T11:44:56Z</time>
      </trkpt>
      <trkpt lat="46.45251777023077" lon="10.578537052497268">
        <ele>2707.6900000000001</ele>
        <time>2013-07-14T11:45:37Z</time>
      </trkpt>
      <trkpt lat="46.452535623684525" lon="10.578540489077568">
        <ele>2707.6900000000001</ele>
        <time>2013-07-14T11:46:13Z</time>
      </trkpt>
      <trkpt lat="46.452530845999718" lon="10.578537890687585">
        <ele>2707.6900000000001</ele>
        <time>2013-07-14T11:46:44Z</time>
      </trkpt>
      <trkpt lat="46.452549118548632" lon="10.578543925657868">
        <ele>2707.6900000000001</ele>
        <time>2013-07-14T11:47:21Z</time>
      </trkpt>
      <trkpt lat="46.45253973081708" lon="10.578544763848186">
        <ele>2707.6900000000001</ele>
        <time>2013-07-14T11:47:56Z</time>
      </trkpt>
      <trkpt lat="46.452536378055811" lon="10.578526575118303">
        <ele>2708.6500000000001</ele>
        <time>2013-07-14T11:48:31Z</time>
      </trkpt>
      <trkpt lat="46.452572671696544" lon="10.578536381945014">
        <ele>2708.1700000000001</ele>
        <time>2013-07-14T11:49:14Z</time>
      </trkpt>
      <trkpt lat="46.452578119933605" lon="10.578516349196434">
        <ele>2707.21</ele>
        <time>2013-07-14T11:49:54Z</time>
      </trkpt>
      <trkpt lat="46.452583819627762" lon="10.578510230407119">
        <ele>2708.1700000000001</ele>
        <time>2013-07-14T11:50:25Z</time>
      </trkpt>
      <trkpt lat="46.452545095235109" lon="10.578536046668887">
        <ele>2707.6900000000001</ele>
        <time>2013-07-14T11:51:01Z</time>
      </trkpt>
      <trkpt lat="46.452544843778014" lon="10.578544763848186">
        <ele>2708.1700000000001</ele>
        <time>2013-07-14T11:51:35Z</time>
      </trkpt>
      <trkpt lat="46.452568061649799" lon="10.57853571139276">
        <ele>2708.1700000000001</ele>
        <time>2013-07-14T11:52:10Z</time>
      </trkpt>
      <trkpt lat="46.452530510723591" lon="10.578555911779404">
        <ele>2708.1700000000001</ele>
        <time>2013-07-14T11:52:44Z</time>
      </trkpt>
      <trkpt lat="46.452547693625093" lon="10.578551301732659">
        <ele>2708.1700000000001</ele>
        <time>2013-07-14T11:53:21Z</time>
      </trkpt>
      <trkpt lat="46.452573090791702" lon="10.578547948971391">
        <ele>2708.1700000000001</ele>
        <time>2013-07-14T11:53:58Z</time>
      </trkpt>
      <trkpt lat="46.452567810192704" lon="10.578523222357035">
        <ele>2708.1700000000001</ele>
        <time>2013-07-14T11:54:34Z</time>
      </trkpt>
      <trkpt lat="46.452544927597046" lon="10.578532107174397">
        <ele>2708.6500000000001</ele>
        <time>2013-07-14T11:55:08Z</time>
      </trkpt>
      <trkpt lat="46.452550711110234" lon="10.578519199043512">
        <ele>2709.1300000000001</ele>
        <time>2013-07-14T11:55:41Z</time>
      </trkpt>
      <trkpt lat="46.452563451603055" lon="10.578526072204113">
        <ele>2708.6500000000001</ele>
        <time>2013-07-14T11:56:16Z</time>
      </trkpt>
      <trkpt lat="46.452589435502887" lon="10.578535459935665">
        <ele>2708.6500000000001</ele>
        <time>2013-07-14T11:56:56Z</time>
      </trkpt>
      <trkpt lat="46.452573090791702" lon="10.578526491299272">
        <ele>2708.1700000000001</ele>
        <time>2013-07-14T11:57:35Z</time>
      </trkpt>
      <trkpt lat="46.452574515715241" lon="10.578524982556701">
        <ele>2708.6500000000001</ele>
        <time>2013-07-14T11:58:06Z</time>
      </trkpt>
      <trkpt lat="46.45257786847651" lon="10.57852691039443">
        <ele>2708.6500000000001</ele>
        <time>2013-07-14T11:58:42Z</time>
      </trkpt>
      <trkpt lat="46.452579293400049" lon="10.578527916222811">
        <ele>2708.6500000000001</ele>
        <time>2013-07-14T11:59:14Z</time>
      </trkpt>
      <trkpt lat="46.452559512108564" lon="10.578517103567719">
        <ele>2708.1700000000001</ele>
        <time>2013-07-14T11:59:47Z</time>
      </trkpt>
      <trkpt lat="46.452548028901219" lon="10.57852447964251">
        <ele>2709.1300000000001</ele>
        <time>2013-07-14T12:00:04Z</time>
      </trkpt>
      <trkpt lat="46.452546855434775" lon="10.578526658937335">
        <ele>2709.1300000000001</ele>
        <time>2013-07-14T12:00:20Z</time>
      </trkpt>
      <trkpt lat="46.45254367031157" lon="10.578498160466552">
        <ele>2708.6500000000001</ele>
        <time>2013-07-14T12:00:31Z</time>
      </trkpt>
      <trkpt lat="46.452548950910568" lon="10.578529005870223">
        <ele>2708.6500000000001</ele>
        <time>2013-07-14T12:00:46Z</time>
      </trkpt>
      <trkpt lat="46.452574515715241" lon="10.578541494905949">
        <ele>2708.1700000000001</ele>
        <time>2013-07-14T12:00:57Z</time>
      </trkpt>
      <trkpt lat="46.452556326985359" lon="10.578524228185415">
        <ele>2709.1300000000001</ele>
        <time>2013-07-14T12:01:09Z</time>
      </trkpt>
      <trkpt lat="46.452514417469501" lon="10.57850293815136">
        <ele>2708.6500000000001</ele>
        <time>2013-07-14T12:01:24Z</time>
      </trkpt>
      <trkpt lat="46.452517854049802" lon="10.578494304791093">
        <ele>2708.1700000000001</ele>
        <time>2013-07-14T12:01:37Z</time>
      </trkpt>
      <trkpt lat="46.452501593157649" lon="10.578491119667888">
        <ele>2708.1700000000001</ele>
        <time>2013-07-14T12:01:52Z</time>
      </trkpt>
      <trkpt lat="46.452512657269835" lon="10.578485503792763">
        <ele>2709.1300000000001</ele>
        <time>2013-07-14T12:02:13Z</time>
      </trkpt>
      <trkpt lat="46.452519949525595" lon="10.578490030020475">
        <ele>2708.6500000000001</ele>
        <time>2013-07-14T12:02:28Z</time>
      </trkpt>
      <trkpt lat="46.452480386942625" lon="10.578521294519305">
        <ele>2707.21</ele>
        <time>2013-07-14T12:02:42Z</time>
      </trkpt>
      <trkpt lat="46.452486338093877" lon="10.578522216528654">
        <ele>2707.21</ele>
        <time>2013-07-14T12:02:53Z</time>
      </trkpt>
      <trkpt lat="46.45248893648386" lon="10.578516349196434">
        <ele>2707.6900000000001</ele>
        <time>2013-07-14T12:03:14Z</time>
      </trkpt>
      <trkpt lat="46.452477620914578" lon="10.578508554026484">
        <ele>2706.73</ele>
        <time>2013-07-14T12:03:30Z</time>
      </trkpt>
      <trkpt lat="46.452475693076849" lon="10.578516852110624">
        <ele>2706.25</ele>
        <time>2013-07-14T12:03:56Z</time>
      </trkpt>
      <trkpt lat="46.45249824039638" lon="10.578495059162378">
        <ele>2706.73</ele>
        <time>2013-07-14T12:04:19Z</time>
      </trkpt>
      <trkpt lat="46.452452223747969" lon="10.578509140759706">
        <ele>2707.21</ele>
        <time>2013-07-14T12:04:37Z</time>
      </trkpt>
      <trkpt lat="46.452469155192375" lon="10.578451892361045">
        <ele>2708.1700000000001</ele>
        <time>2013-07-14T12:04:52Z</time>
      </trkpt>
      <trkpt lat="46.452472591772676" lon="10.578429847955704">
        <ele>2707.21</ele>
        <time>2013-07-14T12:05:05Z</time>
      </trkpt>
      <trkpt lat="46.452453229576349" lon="10.578389028087258">
        <ele>2705.29</ele>
        <time>2013-07-14T12:05:19Z</time>
      </trkpt>
      <trkpt lat="46.452438393607736" lon="10.5783661454916">
        <ele>2704.8099999999999</ele>
        <time>2013-07-14T12:05:33Z</time>
      </trkpt>
      <trkpt lat="46.452428083866835" lon="10.57836857624352">
        <ele>2704.3299999999999</ele>
        <time>2013-07-14T12:05:48Z</time>
      </trkpt>
      <trkpt lat="46.45242054015398" lon="10.578360445797443">
        <ele>2704.3299999999999</ele>
        <time>2013-07-14T12:06:04Z</time>
      </trkpt>
      <trkpt lat="46.45241173915565" lon="10.578315518796444">
        <ele>2704.3299999999999</ele>
        <time>2013-07-14T12:06:18Z</time>
      </trkpt>
      <trkpt lat="46.45242347382009" lon="10.578283164650202">
        <ele>2704.3299999999999</ele>
        <time>2013-07-14T12:06:39Z</time>
      </trkpt>
      <trkpt lat="46.452413918450475" lon="10.578241674229503">
        <ele>2703.8499999999999</ele>
        <time>2013-07-14T12:06:48Z</time>
      </trkpt>
      <trkpt lat="46.452353820204735" lon="10.578032629564404">
        <ele>2701.9200000000001</ele>
        <time>2013-07-14T12:07:04Z</time>
      </trkpt>
      <trkpt lat="46.452221889048815" lon="10.577954007312655">
        <ele>2699.04</ele>
        <time>2013-07-14T12:07:19Z</time>
      </trkpt>
      <trkpt lat="46.452084509655833" lon="10.578001951798797">
        <ele>2696.6399999999999</ele>
        <time>2013-07-14T12:07:33Z</time>
      </trkpt>
      <trkpt lat="46.451985603198409" lon="10.577929951250553">
        <ele>2695.1900000000001</ele>
        <time>2013-07-14T12:07:43Z</time>
      </trkpt>
      <trkpt lat="46.451862137764692" lon="10.577891645953059">
        <ele>2694.23</ele>
        <time>2013-07-14T12:07:56Z</time>
      </trkpt>
      <trkpt lat="46.45182148553431" lon="10.577887119725347">
        <ele>2694.23</ele>
        <time>2013-07-14T12:08:01Z</time>
      </trkpt>
      <trkpt lat="46.451788293197751" lon="10.577899776399136">
        <ele>2693.75</ele>
        <time>2013-07-14T12:08:04Z</time>
      </trkpt>
      <trkpt lat="46.451635072007775" lon="10.577879995107651">
        <ele>2693.75</ele>
        <time>2013-07-14T12:08:19Z</time>
      </trkpt>
      <trkpt lat="46.451524011790752" lon="10.577822243794799">
        <ele>2693.75</ele>
        <time>2013-07-14T12:08:31Z</time>
      </trkpt>
      <trkpt lat="46.451497776433825" lon="10.577808078378439">
        <ele>2694.23</ele>
        <time>2013-07-14T12:08:35Z</time>
      </trkpt>
      <trkpt lat="46.451405743137002" lon="10.577727360650897">
        <ele>2694.23</ele>
        <time>2013-07-14T12:08:49Z</time>
      </trkpt>
      <trkpt lat="46.45127909258008" lon="10.577519657090306">
        <ele>2694.23</ele>
        <time>2013-07-14T12:09:07Z</time>
      </trkpt>
      <trkpt lat="46.451212540268898" lon="10.577429803088307">
        <ele>2694.23</ele>
        <time>2013-07-14T12:09:19Z</time>
      </trkpt>
      <trkpt lat="46.451102318242192" lon="10.577290579676628">
        <ele>2695.1900000000001</ele>
        <time>2013-07-14T12:09:34Z</time>
      </trkpt>
      <trkpt lat="46.451026042923331" lon="10.577110955491662">
        <ele>2693.75</ele>
        <time>2013-07-14T12:09:48Z</time>
      </trkpt>
      <trkpt lat="46.450964184477925" lon="10.577026382088661">
        <ele>2692.79</ele>
        <time>2013-07-14T12:09:56Z</time>
      </trkpt>
      <trkpt lat="46.450956305488944" lon="10.576996207237244">
        <ele>2692.3099999999999</ele>
        <time>2013-07-14T12:09:58Z</time>
      </trkpt>
      <trkpt lat="46.450846083462238" lon="10.576771069318056">
        <ele>2691.3499999999999</ele>
        <time>2013-07-14T12:10:15Z</time>
      </trkpt>
      <trkpt lat="46.450796965509653" lon="10.576572921127081">
        <ele>2692.3099999999999</ele>
        <time>2013-07-14T12:10:29Z</time>
      </trkpt>
      <trkpt lat="46.450759833678603" lon="10.576441409066319">
        <ele>2690.3899999999999</ele>
        <time>2013-07-14T12:10:43Z</time>
      </trkpt>
      <trkpt lat="46.450744075700641" lon="10.576284667477012">
        <ele>2691.3499999999999</ele>
        <time>2013-07-14T12:10:57Z</time>
      </trkpt>
      <trkpt lat="46.450719181448221" lon="10.576236806809902">
        <ele>2691.3499999999999</ele>
        <time>2013-07-14T12:11:02Z</time>
      </trkpt>
      <trkpt lat="46.450627315789461" lon="10.57604955509305">
        <ele>2691.3499999999999</ele>
        <time>2013-07-14T12:11:16Z</time>
      </trkpt>
      <trkpt lat="46.450478117913008" lon="10.575894908979535">
        <ele>2690.8699999999999</ele>
        <time>2013-07-14T12:11:32Z</time>
      </trkpt>
      <trkpt lat="46.450360855087638" lon="10.575803630053997">
        <ele>2691.8299999999999</ele>
        <time>2013-07-14T12:11:46Z</time>
      </trkpt>
      <trkpt lat="46.450263205915689" lon="10.575660299509764">
        <ele>2694.23</ele>
        <time>2013-07-14T12:12:00Z</time>
      </trkpt>
      <trkpt lat="46.450187098234892" lon="10.575463073328137">
        <ele>2693.27</ele>
        <time>2013-07-14T12:12:14Z</time>
      </trkpt>
      <trkpt lat="46.45015281625092" lon="10.575403980910778">
        <ele>2692.79</ele>
        <time>2013-07-14T12:12:19Z</time>
      </trkpt>
      <trkpt lat="46.450031027197838" lon="10.575248077511787">
        <ele>2694.71</ele>
        <time>2013-07-14T12:12:35Z</time>
      </trkpt>
      <trkpt lat="46.449904125183821" lon="10.575091755017638">
        <ele>2694.23</ele>
        <time>2013-07-14T12:12:49Z</time>
      </trkpt>
      <trkpt lat="46.449773870408535" lon="10.574892433360219">
        <ele>2694.71</ele>
        <time>2013-07-14T12:13:06Z</time>
      </trkpt>
      <trkpt lat="46.449658283963799" lon="10.574749773368239">
        <ele>2694.71</ele>
        <time>2013-07-14T12:13:22Z</time>
      </trkpt>
      <trkpt lat="46.449641603976488" lon="10.574736362323165">
        <ele>2694.23</ele>
        <time>2013-07-14T12:13:25Z</time>
      </trkpt>
      <trkpt lat="46.449626516550779" lon="10.574724040925503">
        <ele>2694.71</ele>
        <time>2013-07-14T12:13:27Z</time>
      </trkpt>
      <trkpt lat="46.449576644226909" lon="10.574679365381598">
        <ele>2694.23</ele>
        <time>2013-07-14T12:13:33Z</time>
      </trkpt>
      <trkpt lat="46.449420405551791" lon="10.574554139748216">
        <ele>2694.71</ele>
        <time>2013-07-14T12:13:49Z</time>
      </trkpt>
      <trkpt lat="46.449298281222582" lon="10.574445845559239">
        <ele>2696.1500000000001</ele>
        <time>2013-07-14T12:14:03Z</time>
      </trkpt>
      <trkpt lat="46.449128463864326" lon="10.574299748986959">
        <ele>2695.1900000000001</ele>
        <time>2013-07-14T12:14:19Z</time>
      </trkpt>
      <trkpt lat="46.449007513001561" lon="10.574224144220352">
        <ele>2692.3099999999999</ele>
        <time>2013-07-14T12:14:30Z</time>
      </trkpt>
      <trkpt lat="46.448958311229944" lon="10.574166225269437">
        <ele>2692.79</ele>
        <time>2013-07-14T12:14:46Z</time>
      </trkpt>
      <trkpt lat="46.448918581008911" lon="10.574147617444396">
        <ele>2692.3099999999999</ele>
        <time>2013-07-14T12:14:59Z</time>
      </trkpt>
      <trkpt lat="46.448754798620939" lon="10.57406765408814">
        <ele>2690.8699999999999</ele>
        <time>2013-07-14T12:15:16Z</time>
      </trkpt>
      <trkpt lat="46.448634266853333" lon="10.574009818956256">
        <ele>2690.8699999999999</ele>
        <time>2013-07-14T12:15:30Z</time>
      </trkpt>
      <trkpt lat="46.448577269911766" lon="10.573997246101499">
        <ele>2692.3099999999999</ele>
        <time>2013-07-14T12:15:35Z</time>
      </trkpt>
      <trkpt lat="46.448544999584556" lon="10.573949972167611">
        <ele>2691.8299999999999</ele>
        <time>2013-07-14T12:15:40Z</time>
      </trkpt>
      <trkpt lat="46.448512226343155" lon="10.57392742484808">
        <ele>2691.8299999999999</ele>
        <time>2013-07-14T12:15:48Z</time>
      </trkpt>
      <trkpt lat="46.448456151410937" lon="10.573904206976295">
        <ele>2690.8699999999999</ele>
        <time>2013-07-14T12:15:52Z</time>
      </trkpt>
      <trkpt lat="46.448253309354186" lon="10.573748806491494">
        <ele>2690.3899999999999</ele>
        <time>2013-07-14T12:16:11Z</time>
      </trkpt>
      <trkpt lat="46.448086844757199" lon="10.573650570586324">
        <ele>2690.8699999999999</ele>
        <time>2013-07-14T12:16:27Z</time>
      </trkpt>
      <trkpt lat="46.447922978550196" lon="10.573506066575646">
        <ele>2690.3899999999999</ele>
        <time>2013-07-14T12:16:43Z</time>
      </trkpt>
      <trkpt lat="46.447799596935511" lon="10.573366256430745">
        <ele>2690.3899999999999</ele>
        <time>2013-07-14T12:16:57Z</time>
      </trkpt>
      <trkpt lat="46.447699265554547" lon="10.573303559795022">
        <ele>2688.9400000000001</ele>
        <time>2013-07-14T12:17:07Z</time>
      </trkpt>
      <trkpt lat="46.447656434029341" lon="10.573263075202703">
        <ele>2688.46</ele>
        <time>2013-07-14T12:17:11Z</time>
      </trkpt>
      <trkpt lat="46.447632377967238" lon="10.573243629187346">
        <ele>2687.98</ele>
        <time>2013-07-14T12:17:13Z</time>
      </trkpt>
      <trkpt lat="46.447613183408976" lon="10.573220495134592">
        <ele>2687.5</ele>
        <time>2013-07-14T12:17:15Z</time>
      </trkpt>
      <trkpt lat="46.4475601259619" lon="10.573156792670488">
        <ele>2687.5</ele>
        <time>2013-07-14T12:17:21Z</time>
      </trkpt>
      <trkpt lat="46.447378154844046" lon="10.572986304759979">
        <ele>2686.0599999999999</ele>
        <time>2013-07-14T12:17:40Z</time>
      </trkpt>
      <trkpt lat="46.447208840399981" lon="10.57283878326416">
        <ele>2685.0999999999999</ele>
        <time>2013-07-14T12:17:58Z</time>
      </trkpt>
      <trkpt lat="46.447051595896482" lon="10.572670642286539">
        <ele>2686.0599999999999</ele>
        <time>2013-07-14T12:18:14Z</time>
      </trkpt>
      <trkpt lat="46.446893764659762" lon="10.572479786351323">
        <ele>2685.5799999999999</ele>
        <time>2013-07-14T12:18:33Z</time>
      </trkpt>
      <trkpt lat="46.446739118546247" lon="10.572374844923615">
        <ele>2685.5799999999999</ele>
        <time>2013-07-14T12:18:48Z</time>
      </trkpt>
      <trkpt lat="46.446591010317206" lon="10.5722426623106">
        <ele>2684.6199999999999</ele>
        <time>2013-07-14T12:19:03Z</time>
      </trkpt>
      <trkpt lat="46.446474837139249" lon="10.57213855907321">
        <ele>2684.1399999999999</ele>
        <time>2013-07-14T12:19:17Z</time>
      </trkpt>
      <trkpt lat="46.446474585682154" lon="10.572067983448505">
        <ele>2683.1799999999998</ele>
        <time>2013-07-14T12:19:28Z</time>
      </trkpt>
      <trkpt lat="46.446443405002356" lon="10.572083909064531">
        <ele>2683.1799999999998</ele>
        <time>2013-07-14T12:19:43Z</time>
      </trkpt>
      <trkpt lat="46.446433765813708" lon="10.572105785831809">
        <ele>2683.1799999999998</ele>
        <time>2013-07-14T12:20:06Z</time>
      </trkpt>
      <trkpt lat="46.446418678388" lon="10.572101678699255">
        <ele>2682.6999999999998</ele>
        <time>2013-07-14T12:20:09Z</time>
      </trkpt>
      <trkpt lat="46.4462735876441" lon="10.571999000385404">
        <ele>2682.6999999999998</ele>
        <time>2013-07-14T12:20:25Z</time>
      </trkpt>
      <trkpt lat="46.446178201586008" lon="10.571945691481233">
        <ele>2682.2199999999998</ele>
        <time>2013-07-14T12:20:41Z</time>
      </trkpt>
      <trkpt lat="46.446047108620405" lon="10.571863632649183">
        <ele>2681.25</ele>
        <time>2013-07-14T12:20:57Z</time>
      </trkpt>
      <trkpt lat="46.446047443896532" lon="10.571860112249851">
        <ele>2681.25</ele>
        <time>2013-07-14T12:20:58Z</time>
      </trkpt>
      <trkpt lat="46.445958260446787" lon="10.571826584637165">
        <ele>2681.25</ele>
        <time>2013-07-14T12:21:12Z</time>
      </trkpt>
      <trkpt lat="46.445882739499211" lon="10.571806216612458">
        <ele>2680.29</ele>
        <time>2013-07-14T12:21:19Z</time>
      </trkpt>
      <trkpt lat="46.445825910195708" lon="10.571817364543676">
        <ele>2679.8099999999999</ele>
        <time>2013-07-14T12:21:25Z</time>
      </trkpt>
      <trkpt lat="46.445731278508902" lon="10.571828009560704">
        <ele>2677.4099999999999</ele>
        <time>2013-07-14T12:21:34Z</time>
      </trkpt>
      <trkpt lat="46.445658691227436" lon="10.571839492768049">
        <ele>2675.0100000000002</ele>
        <time>2013-07-14T12:21:41Z</time>
      </trkpt>
      <trkpt lat="46.445639664307237" lon="10.571853574365377">
        <ele>2674.04</ele>
        <time>2013-07-14T12:21:43Z</time>
      </trkpt>
      <trkpt lat="46.445492645725608" lon="10.57188886217773">
        <ele>2671.1599999999999</ele>
        <time>2013-07-14T12:21:56Z</time>
      </trkpt>
      <trkpt lat="46.445382842794061" lon="10.571877127513289">
        <ele>2669.7199999999998</ele>
        <time>2013-07-14T12:22:05Z</time>
      </trkpt>
      <trkpt lat="46.44530220888555" lon="10.571859190240502">
        <ele>2668.2800000000002</ele>
        <time>2013-07-14T12:22:11Z</time>
      </trkpt>
      <trkpt lat="46.44512434490025" lon="10.571860782802105">
        <ele>2665.3899999999999</ele>
        <time>2013-07-14T12:22:25Z</time>
      </trkpt>
      <trkpt lat="46.444959221407771" lon="10.571764977648854">
        <ele>2664.9099999999999</ele>
        <time>2013-07-14T12:22:39Z</time>
      </trkpt>
      <trkpt lat="46.444782698526978" lon="10.571631956845522">
        <ele>2664.9099999999999</ele>
        <time>2013-07-14T12:22:55Z</time>
      </trkpt>
      <trkpt lat="46.444611288607121" lon="10.571503797546029">
        <ele>2665.3899999999999</ele>
        <time>2013-07-14T12:23:12Z</time>
      </trkpt>
      <trkpt lat="46.444402579218149" lon="10.571418385952711">
        <ele>2667.3099999999999</ele>
        <time>2013-07-14T12:23:30Z</time>
      </trkpt>
      <trkpt lat="46.444233264774084" lon="10.571232307702303">
        <ele>2664.4299999999998</ele>
        <time>2013-07-14T12:23:47Z</time>
      </trkpt>
      <trkpt lat="46.444186409935355" lon="10.571211855858564">
        <ele>2665.8699999999999</ele>
        <time>2013-07-14T12:23:51Z</time>
      </trkpt>
      <trkpt lat="46.444173250347376" lon="10.571187967434525">
        <ele>2666.3499999999999</ele>
        <time>2013-07-14T12:23:53Z</time>
      </trkpt>
      <trkpt lat="46.444019945338368" lon="10.571066346019506">
        <ele>2667.8000000000002</ele>
        <time>2013-07-14T12:24:09Z</time>
      </trkpt>
      <trkpt lat="46.443871585652232" lon="10.570948161184788">
        <ele>2666.3499999999999</ele>
        <time>2013-07-14T12:24:23Z</time>
      </trkpt>
      <trkpt lat="46.443683076649904" lon="10.570788905024529">
        <ele>2665.3899999999999</ele>
        <time>2013-07-14T12:24:40Z</time>
      </trkpt>
      <trkpt lat="46.443643849343061" lon="10.570769291371107">
        <ele>2664.9099999999999</ele>
        <time>2013-07-14T12:24:44Z</time>
      </trkpt>
      <trkpt lat="46.443606717512012" lon="10.570764932781458">
        <ele>2666.3499999999999</ele>
        <time>2013-07-14T12:24:47Z</time>
      </trkpt>
      <trkpt lat="46.443565897643566" lon="10.570735512301326">
        <ele>2665.8699999999999</ele>
        <time>2013-07-14T12:24:51Z</time>
      </trkpt>
      <trkpt lat="46.443482330068946" lon="10.570715563371778">
        <ele>2665.8699999999999</ele>
        <time>2013-07-14T12:24:58Z</time>
      </trkpt>
      <trkpt lat="46.443306980654597" lon="10.570595869794488">
        <ele>2666.3499999999999</ele>
        <time>2013-07-14T12:25:15Z</time>
      </trkpt>
      <trkpt lat="46.443229950964451" lon="10.570542141795158">
        <ele>2665.8699999999999</ele>
        <time>2013-07-14T12:25:27Z</time>
      </trkpt>
      <trkpt lat="46.443142276257277" lon="10.570488497614861">
        <ele>2666.3499999999999</ele>
        <time>2013-07-14T12:25:36Z</time>
      </trkpt>
      <trkpt lat="46.443088799715042" lon="10.570397302508354">
        <ele>2667.3099999999999</ele>
        <time>2013-07-14T12:25:44Z</time>
      </trkpt>
      <trkpt lat="46.44291571341455" lon="10.57034675963223">
        <ele>2668.7600000000002</ele>
        <time>2013-07-14T12:25:59Z</time>
      </trkpt>
      <trkpt lat="46.442908672615886" lon="10.570340640842915">
        <ele>2668.7600000000002</ele>
        <time>2013-07-14T12:26:00Z</time>
      </trkpt>
      <trkpt lat="46.442845640704036" lon="10.570307867601514">
        <ele>2668.7600000000002</ele>
        <time>2013-07-14T12:26:06Z</time>
      </trkpt>
      <trkpt lat="46.442805659025908" lon="10.570276603102684">
        <ele>2669.7199999999998</ele>
        <time>2013-07-14T12:26:10Z</time>
      </trkpt>
      <trkpt lat="46.44277791492641" lon="10.570235531777143">
        <ele>2670.6799999999998</ele>
        <time>2013-07-14T12:26:19Z</time>
      </trkpt>
      <trkpt lat="46.442759474739432" lon="10.570222707465291">
        <ele>2669.2399999999998</ele>
        <time>2013-07-14T12:26:21Z</time>
      </trkpt>
      <trkpt lat="46.442595776170492" lon="10.570164201781154">
        <ele>2667.3099999999999</ele>
        <time>2013-07-14T12:26:35Z</time>
      </trkpt>
      <trkpt lat="46.442385977134109" lon="10.570141654461622">
        <ele>2665.3899999999999</ele>
        <time>2013-07-14T12:26:52Z</time>
      </trkpt>
      <trkpt lat="46.442256392911077" lon="10.570088597014546">
        <ele>2664.9099999999999</ele>
        <time>2013-07-14T12:27:04Z</time>
      </trkpt>
      <trkpt lat="46.442100489512086" lon="10.570033947005868">
        <ele>2663.4699999999998</ele>
        <time>2013-07-14T12:27:19Z</time>
      </trkpt>
      <trkpt lat="46.442088587209582" lon="10.569865722209215">
        <ele>2661.5500000000002</ele>
        <time>2013-07-14T12:27:32Z</time>
      </trkpt>
      <trkpt lat="46.442084731534123" lon="10.5698855035007">
        <ele>2661.5500000000002</ele>
        <time>2013-07-14T12:27:55Z</time>
      </trkpt>
      <trkpt lat="46.442086910828948" lon="10.569894136860967">
        <ele>2661.5500000000002</ele>
        <time>2013-07-14T12:28:09Z</time>
      </trkpt>
      <trkpt lat="46.442027231678367" lon="10.569961359724402">
        <ele>2660.5900000000001</ele>
        <time>2013-07-14T12:28:18Z</time>
      </trkpt>
      <trkpt lat="46.441948274150491" lon="10.569992540404201">
        <ele>2660.1100000000001</ele>
        <time>2013-07-14T12:28:27Z</time>
      </trkpt>
      <trkpt lat="46.441799914464355" lon="10.569988684728742">
        <ele>2660.5900000000001</ele>
        <time>2013-07-14T12:28:39Z</time>
      </trkpt>
      <trkpt lat="46.44161157310009" lon="10.56986890733242">
        <ele>2660.5900000000001</ele>
        <time>2013-07-14T12:28:56Z</time>
      </trkpt>
      <trkpt lat="46.441443599760532" lon="10.569800511002541">
        <ele>2659.6199999999999</ele>
        <time>2013-07-14T12:29:11Z</time>
      </trkpt>
      <trkpt lat="46.441229777410626" lon="10.569730773568153">
        <ele>2657.6999999999998</ele>
        <time>2013-07-14T12:29:29Z</time>
      </trkpt>
      <trkpt lat="46.441138163208961" lon="10.569732449948788">
        <ele>2657.6999999999998</ele>
        <time>2013-07-14T12:29:37Z</time>
      </trkpt>
      <trkpt lat="46.440976727753878" lon="10.569665729999542">
        <ele>2656.7399999999998</ele>
        <time>2013-07-14T12:29:51Z</time>
      </trkpt>
      <trkpt lat="46.440771203488111" lon="10.569611750543118">
        <ele>2655.7800000000002</ele>
        <time>2013-07-14T12:30:07Z</time>
      </trkpt>
      <trkpt lat="46.440633237361908" lon="10.569548718631268">
        <ele>2655.3000000000002</ele>
        <time>2013-07-14T12:30:19Z</time>
      </trkpt>
      <trkpt lat="46.440609935671091" lon="10.569543773308396">
        <ele>2655.3000000000002</ele>
        <time>2013-07-14T12:30:22Z</time>
      </trkpt>
      <trkpt lat="46.440583197399974" lon="10.569531200453639">
        <ele>2655.3000000000002</ele>
        <time>2013-07-14T12:30:25Z</time>
      </trkpt>
      <trkpt lat="46.4404764957726" lon="10.569503959268332">
        <ele>2655.7800000000002</ele>
        <time>2013-07-14T12:30:34Z</time>
      </trkpt>
      <trkpt lat="46.440334338694811" lon="10.569460541009903">
        <ele>2652.9000000000001</ele>
        <time>2013-07-14T12:30:46Z</time>
      </trkpt>
      <trkpt lat="46.440108949318528" lon="10.569390300661325">
        <ele>2651.4499999999998</ele>
        <time>2013-07-14T12:31:04Z</time>
      </trkpt>
      <trkpt lat="46.439910046756268" lon="10.569302123039961">
        <ele>2651.4499999999998</ele>
        <time>2013-07-14T12:31:21Z</time>
      </trkpt>
      <trkpt lat="46.439701085910201" lon="10.569241689518094">
        <ele>2649.0500000000002</ele>
        <time>2013-07-14T12:31:38Z</time>
      </trkpt>
      <trkpt lat="46.439605532214046" lon="10.569179328158498">
        <ele>2646.6500000000001</ele>
        <time>2013-07-14T12:31:47Z</time>
      </trkpt>
      <trkpt lat="46.43960134126246" lon="10.56896734982729">
        <ele>2645.21</ele>
        <time>2013-07-14T12:32:01Z</time>
      </trkpt>
      <trkpt lat="46.439604861661792" lon="10.568886967375875">
        <ele>2645.21</ele>
        <time>2013-07-14T12:32:12Z</time>
      </trkpt>
      <trkpt lat="46.439607376232743" lon="10.56887598708272">
        <ele>2644.7199999999998</ele>
        <time>2013-07-14T12:32:15Z</time>
      </trkpt>
      <trkpt lat="46.439597988501191" lon="10.568836340680718">
        <ele>2644.7199999999998</ele>
        <time>2013-07-14T12:32:19Z</time>
      </trkpt>
      <trkpt lat="46.439567478373647" lon="10.568775152787566">
        <ele>2644.7199999999998</ele>
        <time>2013-07-14T12:32:24Z</time>
      </trkpt>
      <trkpt lat="46.439373772591352" lon="10.568762244656682">
        <ele>2642.8000000000002</ele>
        <time>2013-07-14T12:32:41Z</time>
      </trkpt>
      <trkpt lat="46.439352398738265" lon="10.568730141967535">
        <ele>2642.8000000000002</ele>
        <time>2013-07-14T12:32:44Z</time>
      </trkpt>
      <trkpt lat="46.439167745411396" lon="10.568649005144835">
        <ele>2640.8800000000001</ele>
        <time>2013-07-14T12:33:01Z</time>
      </trkpt>
      <trkpt lat="46.438998766243458" lon="10.568554289638996">
        <ele>2639.9200000000001</ele>
        <time>2013-07-14T12:33:16Z</time>
      </trkpt>
      <trkpt lat="46.438820734620094" lon="10.568479439243674">
        <ele>2637.5100000000002</ele>
        <time>2013-07-14T12:33:31Z</time>
      </trkpt>
      <trkpt lat="46.438697185367346" lon="10.56829210370779">
        <ele>2636.5500000000002</ele>
        <time>2013-07-14T12:33:46Z</time>
      </trkpt>
      <trkpt lat="46.438600793480873" lon="10.568094039335847">
        <ele>2635.5900000000001</ele>
        <time>2013-07-14T12:34:00Z</time>
      </trkpt>
      <trkpt lat="46.438485626131296" lon="10.567884407937527">
        <ele>2634.6300000000001</ele>
        <time>2013-07-14T12:34:16Z</time>
      </trkpt>
      <trkpt lat="46.438362579792738" lon="10.567675698548555">
        <ele>2633.6700000000001</ele>
        <time>2013-07-14T12:34:32Z</time>
      </trkpt>
      <trkpt lat="46.438261242583394" lon="10.567429689690471">
        <ele>2633.6700000000001</ele>
        <time>2013-07-14T12:34:50Z</time>
      </trkpt>
      <trkpt lat="46.438281778246164" lon="10.567400939762592">
        <ele>2633.6700000000001</ele>
        <time>2013-07-14T12:35:00Z</time>
      </trkpt>
      <trkpt lat="46.438280269503593" lon="10.567435808479786">
        <ele>2634.1500000000001</ele>
        <time>2013-07-14T12:35:02Z</time>
      </trkpt>
      <trkpt lat="46.438387222588062" lon="10.567672848701477">
        <ele>2634.6300000000001</ele>
        <time>2013-07-14T12:35:20Z</time>
      </trkpt>
      <trkpt lat="46.438467856496572" lon="10.567790782079101">
        <ele>2634.1500000000001</ele>
        <time>2013-07-14T12:35:31Z</time>
      </trkpt>
      <trkpt lat="46.438546478748322" lon="10.567938722670078">
        <ele>2635.1100000000001</ele>
        <time>2013-07-14T12:35:43Z</time>
      </trkpt>
      <trkpt lat="46.438620239496231" lon="10.56809077039361">
        <ele>2634.6300000000001</ele>
        <time>2013-07-14T12:35:55Z</time>
      </trkpt>
      <trkpt lat="46.438506497070193" lon="10.567908296361566">
        <ele>2634.6300000000001</ele>
        <time>2013-07-14T12:36:11Z</time>
      </trkpt>
      <trkpt lat="46.438397532328963" lon="10.567717775702477">
        <ele>2634.1500000000001</ele>
        <time>2013-07-14T12:36:26Z</time>
      </trkpt>
      <trkpt lat="46.438272222876549" lon="10.567441256716847">
        <ele>2633.6700000000001</ele>
        <time>2013-07-14T12:36:45Z</time>
      </trkpt>
      <trkpt lat="46.438157055526972" lon="10.567235732451081">
        <ele>2631.27</ele>
        <time>2013-07-14T12:37:00Z</time>
      </trkpt>
      <trkpt lat="46.438081115484238" lon="10.567114949226379">
        <ele>2630.3000000000002</ele>
        <time>2013-07-14T12:37:10Z</time>
      </trkpt>
      <trkpt lat="46.43804557621479" lon="10.567070944234729">
        <ele>2630.3000000000002</ele>
        <time>2013-07-14T12:37:14Z</time>
      </trkpt>
      <trkpt lat="46.437953794375062" lon="10.566841280087829">
        <ele>2630.79</ele>
        <time>2013-07-14T12:37:30Z</time>
      </trkpt>
      <trkpt lat="46.437886906787753" lon="10.566722759976983">
        <ele>2630.79</ele>
        <time>2013-07-14T12:37:41Z</time>
      </trkpt>
      <trkpt lat="46.43780468031764" lon="10.566538777202368">
        <ele>2630.79</ele>
        <time>2013-07-14T12:37:54Z</time>
      </trkpt>
      <trkpt lat="46.437675263732672" lon="10.566452695056796">
        <ele>2630.3000000000002</ele>
        <time>2013-07-14T12:38:06Z</time>
      </trkpt>
      <trkpt lat="46.437614411115646" lon="10.566411707550287">
        <ele>2629.8200000000002</ele>
        <time>2013-07-14T12:38:12Z</time>
      </trkpt>
      <trkpt lat="46.437546014785767" lon="10.566403241828084">
        <ele>2628.3800000000001</ele>
        <time>2013-07-14T12:38:19Z</time>
      </trkpt>
      <trkpt lat="46.437464375048876" lon="10.566408857703209">
        <ele>2627.9000000000001</ele>
        <time>2013-07-14T12:38:28Z</time>
      </trkpt>
      <trkpt lat="46.437437972053885" lon="10.566441966220737">
        <ele>2627.4200000000001</ele>
        <time>2013-07-14T12:38:32Z</time>
      </trkpt>
      <trkpt lat="46.437418023124337" lon="10.566472141072154">
        <ele>2626.46</ele>
        <time>2013-07-14T12:38:43Z</time>
      </trkpt>
      <trkpt lat="46.437302185222507" lon="10.566506674513221">
        <ele>2624.54</ele>
        <time>2013-07-14T12:38:52Z</time>
      </trkpt>
      <trkpt lat="46.437232028692961" lon="10.566498460248113">
        <ele>2623.5799999999999</ele>
        <time>2013-07-14T12:38:58Z</time>
      </trkpt>
      <trkpt lat="46.437084758654237" lon="10.566583536565304">
        <ele>2620.21</ele>
        <time>2013-07-14T12:39:13Z</time>
      </trkpt>
      <trkpt lat="46.437065564095974" lon="10.566604323685169">
        <ele>2619.25</ele>
        <time>2013-07-14T12:39:15Z</time>
      </trkpt>
      <trkpt lat="46.436902536079288" lon="10.566702140495181">
        <ele>2617.8099999999999</ele>
        <time>2013-07-14T12:39:32Z</time>
      </trkpt>
      <trkpt lat="46.436847718432546" lon="10.566747570410371">
        <ele>2617.3299999999999</ele>
        <time>2013-07-14T12:39:38Z</time>
      </trkpt>
      <trkpt lat="46.436712350696325" lon="10.566790904849768">
        <ele>2615.8800000000001</ele>
        <time>2013-07-14T12:39:51Z</time>
      </trkpt>
      <trkpt lat="46.436669351533055" lon="10.566808925941586">
        <ele>2615.4000000000001</ele>
        <time>2013-07-14T12:39:55Z</time>
      </trkpt>
      <trkpt lat="46.436589136719704" lon="10.566853266209364">
        <ele>2614.4400000000001</ele>
        <time>2013-07-14T12:40:03Z</time>
      </trkpt>
      <trkpt lat="46.436397777870297" lon="10.566945467144251">
        <ele>2613</ele>
        <time>2013-07-14T12:40:22Z</time>
      </trkpt>
      <trkpt lat="46.436228044331074" lon="10.566978575661778">
        <ele>2612.04</ele>
        <time>2013-07-14T12:40:38Z</time>
      </trkpt>
      <trkpt lat="46.436077002435923" lon="10.566979413852096">
        <ele>2610.5999999999999</ele>
        <time>2013-07-14T12:40:53Z</time>
      </trkpt>
      <trkpt lat="46.435943311080337" lon="10.567000452429056">
        <ele>2610.1199999999999</ele>
        <time>2013-07-14T12:41:07Z</time>
      </trkpt>
      <trkpt lat="46.435793275013566" lon="10.567048816010356">
        <ele>2608.6700000000001</ele>
        <time>2013-07-14T12:41:23Z</time>
      </trkpt>
      <trkpt lat="46.435677269473672" lon="10.567017802968621">
        <ele>2607.23</ele>
        <time>2013-07-14T12:41:37Z</time>
      </trkpt>
      <trkpt lat="46.435647597536445" lon="10.56701528839767">
        <ele>2606.75</ele>
        <time>2013-07-14T12:41:40Z</time>
      </trkpt>
      <trkpt lat="46.43549588508904" lon="10.567000033333898">
        <ele>2605.79</ele>
        <time>2013-07-14T12:41:57Z</time>
      </trkpt>
      <trkpt lat="46.435430590063334" lon="10.5669498257339">
        <ele>2605.79</ele>
        <time>2013-07-14T12:42:07Z</time>
      </trkpt>
      <trkpt lat="46.435331264510751" lon="10.566880004480481">
        <ele>2606.27</ele>
        <time>2013-07-14T12:42:21Z</time>
      </trkpt>
      <trkpt lat="46.435172175988555" lon="10.566757880151272">
        <ele>2606.75</ele>
        <time>2013-07-14T12:42:37Z</time>
      </trkpt>
      <trkpt lat="46.435021469369531" lon="10.566708678379655">
        <ele>2606.27</ele>
        <time>2013-07-14T12:42:51Z</time>
      </trkpt>
      <trkpt lat="46.434986349195242" lon="10.56669476442039">
        <ele>2606.27</ele>
        <time>2013-07-14T12:42:54Z</time>
      </trkpt>
      <trkpt lat="46.434949552640319" lon="10.566692166030407">
        <ele>2606.75</ele>
        <time>2013-07-14T12:42:58Z</time>
      </trkpt>
      <trkpt lat="46.43487143330276" lon="10.566661991178989">
        <ele>2606.27</ele>
        <time>2013-07-14T12:43:04Z</time>
      </trkpt>
      <trkpt lat="46.434735814109445" lon="10.56660926900804">
        <ele>2606.75</ele>
        <time>2013-07-14T12:43:17Z</time>
      </trkpt>
      <trkpt lat="46.434596171602607" lon="10.56653693318367">
        <ele>2607.23</ele>
        <time>2013-07-14T12:43:33Z</time>
      </trkpt>
      <trkpt lat="46.434479998424649" lon="10.56643140502274">
        <ele>2606.75</ele>
        <time>2013-07-14T12:43:49Z</time>
      </trkpt>
      <trkpt lat="46.434357538819313" lon="10.566333839669824">
        <ele>2606.27</ele>
        <time>2013-07-14T12:44:04Z</time>
      </trkpt>
      <trkpt lat="46.434288639575243" lon="10.566307520493865">
        <ele>2605.79</ele>
        <time>2013-07-14T12:44:11Z</time>
      </trkpt>
      <trkpt lat="46.43417414277792" lon="10.566281452775002">
        <ele>2605.3099999999999</ele>
        <time>2013-07-14T12:44:23Z</time>
      </trkpt>
      <trkpt lat="46.434022346511483" lon="10.566265191882849">
        <ele>2604.3499999999999</ele>
        <time>2013-07-14T12:44:41Z</time>
      </trkpt>
      <trkpt lat="46.433862671256065" lon="10.566252619028091">
        <ele>2603.3899999999999</ele>
        <time>2013-07-14T12:44:58Z</time>
      </trkpt>
      <trkpt lat="46.43368162214756" lon="10.566262677311897">
        <ele>2601.9499999999998</ele>
        <time>2013-07-14T12:45:14Z</time>
      </trkpt>
      <trkpt lat="46.433630157262087" lon="10.566246248781681">
        <ele>2601.46</ele>
        <time>2013-07-14T12:45:19Z</time>
      </trkpt>
      <trkpt lat="46.433494118973613" lon="10.566207859665155">
        <ele>2600.5</ele>
        <time>2013-07-14T12:45:36Z</time>
      </trkpt>
      <trkpt lat="46.433340897783637" lon="10.566213726997375">
        <ele>2599.54</ele>
        <time>2013-07-14T12:45:52Z</time>
      </trkpt>
      <trkpt lat="46.433267975226045" lon="10.566225377842784">
        <ele>2599.54</ele>
        <time>2013-07-14T12:46:00Z</time>
      </trkpt>
      <trkpt lat="46.433115340769291" lon="10.566175589337945">
        <ele>2599.54</ele>
        <time>2013-07-14T12:46:14Z</time>
      </trkpt>
      <trkpt lat="46.432985253632069" lon="10.566100906580687">
        <ele>2599.54</ele>
        <time>2013-07-14T12:46:28Z</time>
      </trkpt>
      <trkpt lat="46.432863464578986" lon="10.566035946831107">
        <ele>2600.02</ele>
        <time>2013-07-14T12:46:42Z</time>
      </trkpt>
      <trkpt lat="46.432723654434085" lon="10.566028235480189">
        <ele>2600.02</ele>
        <time>2013-07-14T12:46:55Z</time>
      </trkpt>
      <trkpt lat="46.432574456557631" lon="10.565981296822429">
        <ele>2600.5</ele>
        <time>2013-07-14T12:47:10Z</time>
      </trkpt>
      <trkpt lat="46.432567499577999" lon="10.565978363156319">
        <ele>2600.5</ele>
        <time>2013-07-14T12:47:11Z</time>
      </trkpt>
      <trkpt lat="46.432471359148622" lon="10.565961012616754">
        <ele>2600.5</ele>
        <time>2013-07-14T12:47:23Z</time>
      </trkpt>
      <trkpt lat="46.432340852916241" lon="10.565977105870843">
        <ele>2600.98</ele>
        <time>2013-07-14T12:47:35Z</time>
      </trkpt>
      <trkpt lat="46.432218309491873" lon="10.565918851643801">
        <ele>2600.98</ele>
        <time>2013-07-14T12:47:47Z</time>
      </trkpt>
      <trkpt lat="46.432079002261162" lon="10.566016752272844">
        <ele>2598.0999999999999</ele>
        <time>2013-07-14T12:48:03Z</time>
      </trkpt>
      <trkpt lat="46.431876663118601" lon="10.566002922132611">
        <ele>2595.6999999999998</ele>
        <time>2013-07-14T12:48:20Z</time>
      </trkpt>
      <trkpt lat="46.431778259575367" lon="10.566002335399389">
        <ele>2594.25</ele>
        <time>2013-07-14T12:48:32Z</time>
      </trkpt>
      <trkpt lat="46.431774152442813" lon="10.566006442531943">
        <ele>2593.77</ele>
        <time>2013-07-14T12:48:36Z</time>
      </trkpt>
      <trkpt lat="46.431697877123952" lon="10.566017590463161">
        <ele>2592.8099999999999</ele>
        <time>2013-07-14T12:48:43Z</time>
      </trkpt>
      <trkpt lat="46.431546835228801" lon="10.56597987189889">
        <ele>2590.8899999999999</ele>
        <time>2013-07-14T12:48:57Z</time>
      </trkpt>
      <trkpt lat="46.431512469425797" lon="10.565908793359995">
        <ele>2590.4099999999999</ele>
        <time>2013-07-14T12:49:02Z</time>
      </trkpt>
      <trkpt lat="46.431403923779726" lon="10.565769150853157">
        <ele>2590.4099999999999</ele>
        <time>2013-07-14T12:49:15Z</time>
      </trkpt>
      <trkpt lat="46.431392272934318" lon="10.565739562734962">
        <ele>2590.8899999999999</ele>
        <time>2013-07-14T12:49:18Z</time>
      </trkpt>
      <trkpt lat="46.431349189952016" lon="10.565715590491891">
        <ele>2590.8899999999999</ele>
        <time>2013-07-14T12:49:23Z</time>
      </trkpt>
      <trkpt lat="46.431285822764039" lon="10.565665131434798">
        <ele>2589.9299999999998</ele>
        <time>2013-07-14T12:49:33Z</time>
      </trkpt>
      <trkpt lat="46.431177193298936" lon="10.565620036795735">
        <ele>2589.4499999999998</ele>
        <time>2013-07-14T12:49:43Z</time>
      </trkpt>
      <trkpt lat="46.431003771722317" lon="10.565593633800745">
        <ele>2586.5599999999999</ele>
        <time>2013-07-14T12:49:59Z</time>
      </trkpt>
      <trkpt lat="46.430859435349703" lon="10.565604362636805">
        <ele>2584.1599999999999</ele>
        <time>2013-07-14T12:50:13Z</time>
      </trkpt>
      <trkpt lat="46.430784501135349" lon="10.565604530274868">
        <ele>2583.6799999999998</ele>
        <time>2013-07-14T12:50:21Z</time>
      </trkpt>
      <trkpt lat="46.430741334334016" lon="10.565594555810094">
        <ele>2583.1999999999998</ele>
        <time>2013-07-14T12:50:25Z</time>
      </trkpt>
      <trkpt lat="46.430576462298632" lon="10.565605955198407">
        <ele>2581.2800000000002</ele>
        <time>2013-07-14T12:50:42Z</time>
      </trkpt>
      <trkpt lat="46.430529188364744" lon="10.565601261332631">
        <ele>2581.2800000000002</ele>
        <time>2013-07-14T12:50:46Z</time>
      </trkpt>
      <trkpt lat="46.430351072922349" lon="10.565555496141315">
        <ele>2579.8400000000001</ele>
        <time>2013-07-14T12:51:02Z</time>
      </trkpt>
      <trkpt lat="46.4302690140903" lon="10.565557172521949">
        <ele>2578.8699999999999</ele>
        <time>2013-07-14T12:51:10Z</time>
      </trkpt>
      <trkpt lat="46.430070782080293" lon="10.565571002662182">
        <ele>2577.9099999999999</ele>
        <time>2013-07-14T12:51:28Z</time>
      </trkpt>
      <trkpt lat="46.429890738800168" lon="10.565534541383386">
        <ele>2575.9899999999998</ele>
        <time>2013-07-14T12:51:44Z</time>
      </trkpt>
      <trkpt lat="46.429686220362782" lon="10.565503612160683">
        <ele>2574.0700000000002</ele>
        <time>2013-07-14T12:52:02Z</time>
      </trkpt>
      <trkpt lat="46.429565520957112" lon="10.565554071217775">
        <ele>2571.6599999999999</ele>
        <time>2013-07-14T12:52:19Z</time>
      </trkpt>
      <trkpt lat="46.429619248956442" lon="10.565570667386055">
        <ele>2571.6599999999999</ele>
        <time>2013-07-14T12:52:25Z</time>
      </trkpt>
      <trkpt lat="46.429643724113703" lon="10.56559438817203">
        <ele>2571.1799999999998</ele>
        <time>2013-07-14T12:52:36Z</time>
      </trkpt>
      <trkpt lat="46.429634755477309" lon="10.565626323223114">
        <ele>2571.6599999999999</ele>
        <time>2013-07-14T12:52:50Z</time>
      </trkpt>
      <trkpt lat="46.429636431857944" lon="10.565672926604748">
        <ele>2570.6999999999998</ele>
        <time>2013-07-14T12:52:54Z</time>
      </trkpt>
      <trkpt lat="46.429586978629231" lon="10.56569698266685">
        <ele>2570.2199999999998</ele>
        <time>2013-07-14T12:52:59Z</time>
      </trkpt>
      <trkpt lat="46.429570382460952" lon="10.565705196931958">
        <ele>2569.2600000000002</ele>
        <time>2013-07-14T12:53:01Z</time>
      </trkpt>
      <trkpt lat="46.429427303373814" lon="10.565705616027117">
        <ele>2567.8200000000002</ele>
        <time>2013-07-14T12:53:17Z</time>
      </trkpt>
      <trkpt lat="46.429301574826241" lon="10.565733863040805">
        <ele>2565.9000000000001</ele>
        <time>2013-07-14T12:53:32Z</time>
      </trkpt>
      <trkpt lat="46.429254719987512" lon="10.565761607140303">
        <ele>2564.4499999999998</ele>
        <time>2013-07-14T12:53:38Z</time>
      </trkpt>
      <trkpt lat="46.429247511550784" lon="10.565786752849817">
        <ele>2563.4899999999998</ele>
        <time>2013-07-14T12:53:40Z</time>
      </trkpt>
      <trkpt lat="46.429210714995861" lon="10.565801588818431">
        <ele>2562.5300000000002</ele>
        <time>2013-07-14T12:53:44Z</time>
      </trkpt>
      <trkpt lat="46.429175427183509" lon="10.565869985148311">
        <ele>2561.5700000000002</ele>
        <time>2013-07-14T12:53:50Z</time>
      </trkpt>
      <trkpt lat="46.429049614816904" lon="10.565913151949644">
        <ele>2560.6100000000001</ele>
        <time>2013-07-14T12:54:04Z</time>
      </trkpt>
      <trkpt lat="46.42903913743794" lon="10.565957743674517">
        <ele>2559.1700000000001</ele>
        <time>2013-07-14T12:54:14Z</time>
      </trkpt>
      <trkpt lat="46.429037963971496" lon="10.565969729796052">
        <ele>2558.6900000000001</ele>
        <time>2013-07-14T12:54:41Z</time>
      </trkpt>
      <trkpt lat="46.429033353924751" lon="10.565970065072179">
        <ele>2558.6900000000001</ele>
        <time>2013-07-14T12:55:13Z</time>
      </trkpt>
      <trkpt lat="46.429049614816904" lon="10.56596914306283">
        <ele>2558.21</ele>
        <time>2013-07-14T12:55:28Z</time>
      </trkpt>
      <trkpt lat="46.429024552926421" lon="10.565969729796052">
        <ele>2560.1300000000001</ele>
        <time>2013-07-14T12:55:32Z</time>
      </trkpt>
      <trkpt lat="46.428989516571164" lon="10.565968137234449">
        <ele>2560.1300000000001</ele>
        <time>2013-07-14T12:55:46Z</time>
      </trkpt>
      <trkpt lat="46.428976356983185" lon="10.565974926576018">
        <ele>2560.6100000000001</ele>
        <time>2013-07-14T12:55:49Z</time>
      </trkpt>
      <trkpt lat="46.428871667012572" lon="10.565858082845807">
        <ele>2559.1700000000001</ele>
        <time>2013-07-14T12:56:02Z</time>
      </trkpt>
      <trkpt lat="46.428848365321755" lon="10.56582891382277">
        <ele>2558.21</ele>
        <time>2013-07-14T12:56:06Z</time>
      </trkpt>
      <trkpt lat="46.428846688941121" lon="10.565760433673859">
        <ele>2557.73</ele>
        <time>2013-07-14T12:56:11Z</time>
      </trkpt>
      <trkpt lat="46.428772760555148" lon="10.565667897462845">
        <ele>2553.8800000000001</ele>
        <time>2013-07-14T12:56:24Z</time>
      </trkpt>
      <trkpt lat="46.428722636774182" lon="10.565657336264849">
        <ele>2552.4400000000001</ele>
        <time>2013-07-14T12:56:39Z</time>
      </trkpt>
      <trkpt lat="46.428698496893048" lon="10.565660689026117">
        <ele>2551.48</ele>
        <time>2013-07-14T12:56:58Z</time>
      </trkpt>
      <trkpt lat="46.42869028262794" lon="10.565660437569022">
        <ele>2551.48</ele>
        <time>2013-07-14T12:57:12Z</time>
      </trkpt>
      <trkpt lat="46.428673770278692" lon="10.565622383728623">
        <ele>2550.5100000000002</ele>
        <time>2013-07-14T12:57:44Z</time>
      </trkpt>
      <trkpt lat="46.428662957623601" lon="10.565609810873866">
        <ele>2550.5100000000002</ele>
        <time>2013-07-14T12:58:14Z</time>
      </trkpt>
      <trkpt lat="46.428685504943132" lon="10.565668903291225">
        <ele>2551.96</ele>
        <time>2013-07-14T12:58:38Z</time>
      </trkpt>
      <trkpt lat="46.428689863532782" lon="10.565656833350658">
        <ele>2551.96</ele>
        <time>2013-07-14T12:58:52Z</time>
      </trkpt>
      <trkpt lat="46.428628088906407" lon="10.565631184726954">
        <ele>2549.5500000000002</ele>
        <time>2013-07-14T12:59:15Z</time>
      </trkpt>
      <trkpt lat="46.428528260439634" lon="10.565581144765019">
        <ele>2546.6700000000001</ele>
        <time>2013-07-14T12:59:29Z</time>
      </trkpt>
      <trkpt lat="46.428507389500737" lon="10.565578462556005">
        <ele>2546.1900000000001</ele>
        <time>2013-07-14T12:59:32Z</time>
      </trkpt>
      <trkpt lat="46.428407728672028" lon="10.565528757870197">
        <ele>2543.79</ele>
        <time>2013-07-14T12:59:44Z</time>
      </trkpt>
      <trkpt lat="46.428338745608926" lon="10.565598076209426">
        <ele>2541.3800000000001</ele>
        <time>2013-07-14T12:59:58Z</time>
      </trkpt>
      <trkpt lat="46.428332207724452" lon="10.565690360963345">
        <ele>2539.9400000000001</ele>
        <time>2013-07-14T13:00:06Z</time>
      </trkpt>
      <trkpt lat="46.428315779194236" lon="10.565726989880204">
        <ele>2539.46</ele>
        <time>2013-07-14T13:00:09Z</time>
      </trkpt>
      <trkpt lat="46.428286023437977" lon="10.565885324031115">
        <ele>2538.02</ele>
        <time>2013-07-14T13:00:24Z</time>
      </trkpt>
      <trkpt lat="46.428220560774207" lon="10.565860932692885">
        <ele>2536.0999999999999</ele>
        <time>2013-07-14T13:00:31Z</time>
      </trkpt>
      <trkpt lat="46.428191559389234" lon="10.565861938521266">
        <ele>2534.1700000000001</ele>
        <time>2013-07-14T13:00:36Z</time>
      </trkpt>
      <trkpt lat="46.428103884682059" lon="10.565757332369685">
        <ele>2532.25</ele>
        <time>2013-07-14T13:00:50Z</time>
      </trkpt>
      <trkpt lat="46.428037667647004" lon="10.565646775066853">
        <ele>2528.8899999999999</ele>
        <time>2013-07-14T13:01:02Z</time>
      </trkpt>
      <trkpt lat="46.428016377612948" lon="10.565635208040476">
        <ele>2529.3699999999999</ele>
        <time>2013-07-14T13:01:13Z</time>
      </trkpt>
      <trkpt lat="46.427958877757192" lon="10.56556555442512">
        <ele>2527.4400000000001</ele>
        <time>2013-07-14T13:01:21Z</time>
      </trkpt>
      <trkpt lat="46.427836250513792" lon="10.56542482227087">
        <ele>2524.0799999999999</ele>
        <time>2013-07-14T13:01:37Z</time>
      </trkpt>
      <trkpt lat="46.427748994901776" lon="10.565319377928972">
        <ele>2522.1599999999999</ele>
        <time>2013-07-14T13:01:51Z</time>
      </trkpt>
      <trkpt lat="46.427662661299109" lon="10.565190045163035">
        <ele>2519.27</ele>
        <time>2013-07-14T13:02:05Z</time>
      </trkpt>
      <trkpt lat="46.427558306604624" lon="10.565086528658867">
        <ele>2517.3499999999999</ele>
        <time>2013-07-14T13:02:21Z</time>
      </trkpt>
      <trkpt lat="46.42745747230947" lon="10.564982509240508">
        <ele>2514.9499999999998</ele>
        <time>2013-07-14T13:02:36Z</time>
      </trkpt>
      <trkpt lat="46.427354961633682" lon="10.564862815663218">
        <ele>2512.0599999999999</ele>
        <time>2013-07-14T13:02:51Z</time>
      </trkpt>
      <trkpt lat="46.42732503823936" lon="10.56483406573534">
        <ele>2511.0999999999999</ele>
        <time>2013-07-14T13:02:55Z</time>
      </trkpt>
      <trkpt lat="46.427250187844038" lon="10.564687130972743">
        <ele>2508.6999999999998</ele>
        <time>2013-07-14T13:03:10Z</time>
      </trkpt>
      <trkpt lat="46.427181456238031" lon="10.564541704952717">
        <ele>2507.2600000000002</ele>
        <time>2013-07-14T13:03:25Z</time>
      </trkpt>
      <trkpt lat="46.427110210061073" lon="10.56448420509696">
        <ele>2505.8099999999999</ele>
        <time>2013-07-14T13:03:35Z</time>
      </trkpt>
      <trkpt lat="46.427011303603649" lon="10.564379934221506">
        <ele>2503.4099999999999</ele>
        <time>2013-07-14T13:03:50Z</time>
      </trkpt>
      <trkpt lat="46.42698984593153" lon="10.564313298091292">
        <ele>2502.4499999999998</ele>
        <time>2013-07-14T13:03:55Z</time>
      </trkpt>
      <trkpt lat="46.426900578662753" lon="10.564111294224858">
        <ele>2499.5700000000002</ele>
        <time>2013-07-14T13:04:12Z</time>
      </trkpt>
      <trkpt lat="46.426822794601321" lon="10.563927227631211">
        <ele>2497.6399999999999</ele>
        <time>2013-07-14T13:04:28Z</time>
      </trkpt>
      <trkpt lat="46.426748614758253" lon="10.563792111352086">
        <ele>2495.7199999999998</ele>
        <time>2013-07-14T13:04:41Z</time>
      </trkpt>
      <trkpt lat="46.426726067438722" lon="10.56374148465693">
        <ele>2495.2399999999998</ele>
        <time>2013-07-14T13:04:46Z</time>
      </trkpt>
      <trkpt lat="46.426688265055418" lon="10.563717177137733">
        <ele>2494.7600000000002</ele>
        <time>2013-07-14T13:04:50Z</time>
      </trkpt>
      <trkpt lat="46.426672758534551" lon="10.563695384189487">
        <ele>2494.7600000000002</ele>
        <time>2013-07-14T13:04:52Z</time>
      </trkpt>
      <trkpt lat="46.42662045545876" lon="10.56351525709033">
        <ele>2492.3600000000001</ele>
        <time>2013-07-14T13:05:08Z</time>
      </trkpt>
      <trkpt lat="46.426552394405007" lon="10.563439652323723">
        <ele>2491.3899999999999</ele>
        <time>2013-07-14T13:05:17Z</time>
      </trkpt>
      <trkpt lat="46.42649631947279" lon="10.563362119719386">
        <ele>2489.9499999999998</ele>
        <time>2013-07-14T13:05:26Z</time>
      </trkpt>
      <trkpt lat="46.426371848210692" lon="10.563236977905035">
        <ele>2487.0700000000002</ele>
        <time>2013-07-14T13:05:43Z</time>
      </trkpt>
      <trkpt lat="46.42626372165978" lon="10.563138490542769">
        <ele>2485.1500000000001</ele>
        <time>2013-07-14T13:05:59Z</time>
      </trkpt>
      <trkpt lat="46.426168335601687" lon="10.563089288771152">
        <ele>2482.7399999999998</ele>
        <time>2013-07-14T13:06:12Z</time>
      </trkpt>
      <trkpt lat="46.426081918179989" lon="10.562985520809889">
        <ele>2480.8200000000002</ele>
        <time>2013-07-14T13:06:26Z</time>
      </trkpt>
      <trkpt lat="46.426075883209705" lon="10.562980575487018">
        <ele>2480.3400000000001</ele>
        <time>2013-07-14T13:06:29Z</time>
      </trkpt>
      <trkpt lat="46.426039505749941" lon="10.562933217734098">
        <ele>2480.3400000000001</ele>
        <time>2013-07-14T13:06:34Z</time>
      </trkpt>
      <trkpt lat="46.425979072228074" lon="10.56272123940289">
        <ele>2477.4499999999998</ele>
        <time>2013-07-14T13:06:50Z</time>
      </trkpt>
      <trkpt lat="46.425946047529578" lon="10.562612023204565">
        <ele>2476.0100000000002</ele>
        <time>2013-07-14T13:07:00Z</time>
      </trkpt>
      <trkpt lat="46.425945125520229" lon="10.562584949657321">
        <ele>2475.5300000000002</ele>
        <time>2013-07-14T13:07:02Z</time>
      </trkpt>
      <trkpt lat="46.425869269296527" lon="10.562415551394224">
        <ele>2472.1700000000001</ele>
        <time>2013-07-14T13:07:19Z</time>
      </trkpt>
      <trkpt lat="46.425814619287848" lon="10.562216732650995">
        <ele>2469.7600000000002</ele>
        <time>2013-07-14T13:07:36Z</time>
      </trkpt>
      <trkpt lat="46.425786623731256" lon="10.562165770679712">
        <ele>2469.2800000000002</ele>
        <time>2013-07-14T13:07:41Z</time>
      </trkpt>
      <trkpt lat="46.42571160569787" lon="10.561999306082726">
        <ele>2466.8800000000001</ele>
        <time>2013-07-14T13:07:56Z</time>
      </trkpt>
      <trkpt lat="46.425659973174334" lon="10.561796380206943">
        <ele>2463.52</ele>
        <time>2013-07-14T13:08:12Z</time>
      </trkpt>
      <trkpt lat="46.425600796937943" lon="10.561667550355196">
        <ele>2462.0700000000002</ele>
        <time>2013-07-14T13:08:24Z</time>
      </trkpt>
      <trkpt lat="46.425563916563988" lon="10.561648020520806">
        <ele>2460.6300000000001</ele>
        <time>2013-07-14T13:08:29Z</time>
      </trkpt>
      <trkpt lat="46.425537178292871" lon="10.561875170096755">
        <ele>2460.1500000000001</ele>
        <time>2013-07-14T13:08:46Z</time>
      </trkpt>
      <trkpt lat="46.425534831359982" lon="10.562081532552838">
        <ele>2458.71</ele>
        <time>2013-07-14T13:09:01Z</time>
      </trkpt>
      <trkpt lat="46.4255356695503" lon="10.5621871445328">
        <ele>2457.75</ele>
        <time>2013-07-14T13:09:10Z</time>
      </trkpt>
      <trkpt lat="46.425539273768663" lon="10.562259396538138">
        <ele>2457.27</ele>
        <time>2013-07-14T13:09:16Z</time>
      </trkpt>
      <trkpt lat="46.425552098080516" lon="10.562411276623607">
        <ele>2456.3099999999999</ele>
        <time>2013-07-14T13:09:26Z</time>
      </trkpt>
      <trkpt lat="46.425539776682854" lon="10.562544297426939">
        <ele>2455.3400000000001</ele>
        <time>2013-07-14T13:09:35Z</time>
      </trkpt>
      <trkpt lat="46.42554447054863" lon="10.562751833349466">
        <ele>2453.4200000000001</ele>
        <time>2013-07-14T13:09:49Z</time>
      </trkpt>
      <trkpt lat="46.425518235191703" lon="10.562867000699043">
        <ele>2451.98</ele>
        <time>2013-07-14T13:09:57Z</time>
      </trkpt>
      <trkpt lat="46.425509098917246" lon="10.562923243269324">
        <ele>2451.5</ele>
        <time>2013-07-14T13:10:01Z</time>
      </trkpt>
      <trkpt lat="46.425496023148298" lon="10.562962805852294">
        <ele>2451.02</ele>
        <time>2013-07-14T13:10:04Z</time>
      </trkpt>
      <trkpt lat="46.425496442243457" lon="10.562990717589855">
        <ele>2450.54</ele>
        <time>2013-07-14T13:10:06Z</time>
      </trkpt>
      <trkpt lat="46.425473056733608" lon="10.563026508316398">
        <ele>2450.0599999999999</ele>
        <time>2013-07-14T13:10:10Z</time>
      </trkpt>
      <trkpt lat="46.425459561869502" lon="10.563062885776162">
        <ele>2449.5799999999999</ele>
        <time>2013-07-14T13:10:13Z</time>
      </trkpt>
      <trkpt lat="46.425395356491208" lon="10.563143435865641">
        <ele>2447.6500000000001</ele>
        <time>2013-07-14T13:10:23Z</time>
      </trkpt>
      <trkpt lat="46.425366019830108" lon="10.56310772895813">
        <ele>2446.6900000000001</ele>
        <time>2013-07-14T13:10:28Z</time>
      </trkpt>
      <trkpt lat="46.42531237564981" lon="10.56303639896214">
        <ele>2446.21</ele>
        <time>2013-07-14T13:10:35Z</time>
      </trkpt>
      <trkpt lat="46.425213636830449" lon="10.562968086451292">
        <ele>2442.8499999999999</ele>
        <time>2013-07-14T13:10:50Z</time>
      </trkpt>
      <trkpt lat="46.425093440338969" lon="10.562834898009896">
        <ele>2439.96</ele>
        <time>2013-07-14T13:11:07Z</time>
      </trkpt>
      <trkpt lat="46.425025295466185" lon="10.562687208876014">
        <ele>2439</ele>
        <time>2013-07-14T13:11:21Z</time>
      </trkpt>
      <trkpt lat="46.424975758418441" lon="10.5625687725842">
        <ele>2435.6399999999999</ele>
        <time>2013-07-14T13:11:33Z</time>
      </trkpt>
      <trkpt lat="46.424900405108929" lon="10.562363164499402">
        <ele>2432.75</ele>
        <time>2013-07-14T13:11:50Z</time>
      </trkpt>
      <trkpt lat="46.424869392067194" lon="10.5622614081949">
        <ele>2431.79</ele>
        <time>2013-07-14T13:11:58Z</time>
      </trkpt>
      <trkpt lat="46.424855478107929" lon="10.562154874205589">
        <ele>2430.8299999999999</ele>
        <time>2013-07-14T13:12:06Z</time>
      </trkpt>
      <trkpt lat="46.424862770363688" lon="10.562118999660015">
        <ele>2430.8299999999999</ele>
        <time>2013-07-14T13:12:09Z</time>
      </trkpt>
      <trkpt lat="46.424843240529299" lon="10.562040628865361">
        <ele>2429.8699999999999</ele>
        <time>2013-07-14T13:12:16Z</time>
      </trkpt>
      <trkpt lat="46.424793284386396" lon="10.561985224485397">
        <ele>2427.9499999999998</ele>
        <time>2013-07-14T13:12:23Z</time>
      </trkpt>
      <trkpt lat="46.424758415669203" lon="10.561965275555849">
        <ele>2427.4699999999998</ele>
        <time>2013-07-14T13:12:27Z</time>
      </trkpt>
      <trkpt lat="46.424735197797418" lon="10.56186854839325">
        <ele>2426.02</ele>
        <time>2013-07-14T13:12:35Z</time>
      </trkpt>
      <trkpt lat="46.424696054309607" lon="10.561790512874722">
        <ele>2425.54</ele>
        <time>2013-07-14T13:12:43Z</time>
      </trkpt>
      <trkpt lat="46.424691611900926" lon="10.561754051595926">
        <ele>2425.0599999999999</ele>
        <time>2013-07-14T13:12:46Z</time>
      </trkpt>
      <trkpt lat="46.424656743183732" lon="10.561590436846018">
        <ele>2422.1799999999998</ele>
        <time>2013-07-14T13:13:02Z</time>
      </trkpt>
      <trkpt lat="46.4246238861233" lon="10.561438472941518">
        <ele>2419.7800000000002</ele>
        <time>2013-07-14T13:13:16Z</time>
      </trkpt>
      <trkpt lat="46.424589185044169" lon="10.561349373310804">
        <ele>2418.3299999999999</ele>
        <time>2013-07-14T13:13:24Z</time>
      </trkpt>
      <trkpt lat="46.424478460103273" lon="10.561242001131177">
        <ele>2416.4099999999999</ele>
        <time>2013-07-14T13:13:39Z</time>
      </trkpt>
      <trkpt lat="46.424423893913627" lon="10.561090456321836">
        <ele>2413.0500000000002</ele>
        <time>2013-07-14T13:13:53Z</time>
      </trkpt>
      <trkpt lat="46.424349630251527" lon="10.560924410820007">
        <ele>2410.6399999999999</ele>
        <time>2013-07-14T13:14:09Z</time>
      </trkpt>
      <trkpt lat="46.424270756542683" lon="10.560780074447393">
        <ele>2407.7600000000002</ele>
        <time>2013-07-14T13:14:24Z</time>
      </trkpt>
      <trkpt lat="46.424189116805792" lon="10.560706984251738">
        <ele>2404.8800000000001</ele>
        <time>2013-07-14T13:14:39Z</time>
      </trkpt>
      <trkpt lat="46.424181237816811" lon="10.560702374204993">
        <ele>2405.3600000000001</ele>
        <time>2013-07-14T13:14:40Z</time>
      </trkpt>
      <trkpt lat="46.424148799851537" lon="10.560661219060421">
        <ele>2403.9099999999999</ele>
        <time>2013-07-14T13:14:54Z</time>
      </trkpt>
      <trkpt lat="46.424059448763728" lon="10.560566755011678">
        <ele>2401.9899999999998</ele>
        <time>2013-07-14T13:15:09Z</time>
      </trkpt>
      <trkpt lat="46.424029190093279" lon="10.560556529089808">
        <ele>2400.5500000000002</ele>
        <time>2013-07-14T13:15:13Z</time>
      </trkpt>
      <trkpt lat="46.423924500122666" lon="10.560422418639064">
        <ele>2397.6700000000001</ele>
        <time>2013-07-14T13:15:28Z</time>
      </trkpt>
      <trkpt lat="46.423875046893954" lon="10.560295516625047">
        <ele>2396.2199999999998</ele>
        <time>2013-07-14T13:15:40Z</time>
      </trkpt>
      <trkpt lat="46.423817547038198" lon="10.560166016221046">
        <ele>2394.3000000000002</ele>
        <time>2013-07-14T13:15:53Z</time>
      </trkpt>
      <trkpt lat="46.423720652237535" lon="10.560107007622719">
        <ele>2391.4200000000001</ele>
        <time>2013-07-14T13:16:04Z</time>
      </trkpt>
      <trkpt lat="46.423688633367419" lon="10.559988655149937">
        <ele>2389.9699999999998</ele>
        <time>2013-07-14T13:16:15Z</time>
      </trkpt>
      <trkpt lat="46.42365787178278" lon="10.559791596606374">
        <ele>2387.0900000000001</ele>
        <time>2013-07-14T13:16:31Z</time>
      </trkpt>
      <trkpt lat="46.423654686659575" lon="10.559633010998368">
        <ele>2385.6500000000001</ele>
        <time>2013-07-14T13:16:43Z</time>
      </trkpt>
      <trkpt lat="46.423643035814166" lon="10.559528656303883">
        <ele>2384.21</ele>
        <time>2013-07-14T13:16:51Z</time>
      </trkpt>
      <trkpt lat="46.423554103821516" lon="10.559341907501221">
        <ele>2380.8400000000001</ele>
        <time>2013-07-14T13:17:09Z</time>
      </trkpt>
      <trkpt lat="46.423552930355072" lon="10.559326903894544">
        <ele>2381.3200000000002</ele>
        <time>2013-07-14T13:17:10Z</time>
      </trkpt>
      <trkpt lat="46.423534573987126" lon="10.559111908078194">
        <ele>2378.4400000000001</ele>
        <time>2013-07-14T13:17:27Z</time>
      </trkpt>
      <trkpt lat="46.42344924621284" lon="10.558967823162675">
        <ele>2375.0700000000002</ele>
        <time>2013-07-14T13:17:42Z</time>
      </trkpt>
      <trkpt lat="46.423439858481288" lon="10.558941252529621">
        <ele>2375.5500000000002</ele>
        <time>2013-07-14T13:17:44Z</time>
      </trkpt>
      <trkpt lat="46.423441451042891" lon="10.558906048536301">
        <ele>2374.5900000000001</ele>
        <time>2013-07-14T13:17:47Z</time>
      </trkpt>
      <trkpt lat="46.423373473808169" lon="10.55872424505651">
        <ele>2372.6700000000001</ele>
        <time>2013-07-14T13:18:02Z</time>
      </trkpt>
      <trkpt lat="46.423314716666937" lon="10.558591475710273">
        <ele>2369.3099999999999</ele>
        <time>2013-07-14T13:18:16Z</time>
      </trkpt>
      <trkpt lat="46.423280853778124" lon="10.558439511805773">
        <ele>2367.3800000000001</ele>
        <time>2013-07-14T13:18:29Z</time>
      </trkpt>
      <trkpt lat="46.423307927325368" lon="10.558239938691258">
        <ele>2364.98</ele>
        <time>2013-07-14T13:18:44Z</time>
      </trkpt>
      <trkpt lat="46.42332661896944" lon="10.558037180453539">
        <ele>2362.5799999999999</ele>
        <time>2013-07-14T13:19:00Z</time>
      </trkpt>
      <trkpt lat="46.4233632478863" lon="10.55788773111999">
        <ele>2361.1399999999999</ele>
        <time>2013-07-14T13:19:12Z</time>
      </trkpt>
      <trkpt lat="46.423348160460591" lon="10.557715818285942">
        <ele>2358.73</ele>
        <time>2013-07-14T13:19:28Z</time>
      </trkpt>
      <trkpt lat="46.423349166288972" lon="10.5575833003968">
        <ele>2355.8499999999999</ele>
        <time>2013-07-14T13:19:39Z</time>
      </trkpt>
      <trkpt lat="46.42336961813271" lon="10.557388504967093">
        <ele>2352.96</ele>
        <time>2013-07-14T13:19:54Z</time>
      </trkpt>
      <trkpt lat="46.423363331705332" lon="10.557182226330042">
        <ele>2350.0799999999999</ele>
        <time>2013-07-14T13:20:10Z</time>
      </trkpt>
      <trkpt lat="46.423350004479289" lon="10.557013750076294">
        <ele>2347.1999999999998</ele>
        <time>2013-07-14T13:20:24Z</time>
      </trkpt>
      <trkpt lat="46.423332989215851" lon="10.557023724541068">
        <ele>2345.75</ele>
        <time>2013-07-14T13:20:28Z</time>
      </trkpt>
      <trkpt lat="46.423283955082297" lon="10.557228913530707">
        <ele>2343.3499999999999</ele>
        <time>2013-07-14T13:20:44Z</time>
      </trkpt>
      <trkpt lat="46.423267191275954" lon="10.557271158322692">
        <ele>2342.8699999999999</ele>
        <time>2013-07-14T13:20:48Z</time>
      </trkpt>
      <trkpt lat="46.42323668114841" lon="10.557378279045224">
        <ele>2341.4299999999998</ele>
        <time>2013-07-14T13:20:59Z</time>
      </trkpt>
      <trkpt lat="46.423164345324039" lon="10.557468133047223">
        <ele>2339.5100000000002</ele>
        <time>2013-07-14T13:21:13Z</time>
      </trkpt>
      <trkpt lat="46.423127045854926" lon="10.557500654831529">
        <ele>2338.0599999999999</ele>
        <time>2013-07-14T13:21:22Z</time>
      </trkpt>
      <trkpt lat="46.423072479665279" lon="10.5575608368963">
        <ele>2337.5799999999999</ele>
        <time>2013-07-14T13:21:31Z</time>
      </trkpt>
      <trkpt lat="46.423001401126385" lon="10.557677010074258">
        <ele>2336.1399999999999</ele>
        <time>2013-07-14T13:21:48Z</time>
      </trkpt>
      <trkpt lat="46.422948427498341" lon="10.557724200189114">
        <ele>2335.1799999999998</ele>
        <time>2013-07-14T13:22:03Z</time>
      </trkpt>
      <trkpt lat="46.422912636771798" lon="10.557672064751387">
        <ele>2333.2600000000002</ele>
        <time>2013-07-14T13:22:17Z</time>
      </trkpt>
      <trkpt lat="46.422817083075643" lon="10.557761499658227">
        <ele>2330.8499999999999</ele>
        <time>2013-07-14T13:22:29Z</time>
      </trkpt>
      <trkpt lat="46.42280668951571" lon="10.557764014229178">
        <ele>2330.8499999999999</ele>
        <time>2013-07-14T13:22:30Z</time>
      </trkpt>
      <trkpt lat="46.422722535207868" lon="10.557716824114323">
        <ele>2329.8899999999999</ele>
        <time>2013-07-14T13:22:40Z</time>
      </trkpt>
      <trkpt lat="46.422702586278319" lon="10.557737024500966">
        <ele>2329.4099999999999</ele>
        <time>2013-07-14T13:22:43Z</time>
      </trkpt>
      <trkpt lat="46.42266939394176" lon="10.557751776650548">
        <ele>2328.4499999999998</ele>
        <time>2013-07-14T13:22:47Z</time>
      </trkpt>
      <trkpt lat="46.422630250453949" lon="10.557779101654887">
        <ele>2327.4899999999998</ele>
        <time>2013-07-14T13:22:52Z</time>
      </trkpt>
      <trkpt lat="46.422489685937762" lon="10.557740293443203">
        <ele>2324.1199999999999</ele>
        <time>2013-07-14T13:23:06Z</time>
      </trkpt>
      <trkpt lat="46.422478873282671" lon="10.557735599577427">
        <ele>2323.6399999999999</ele>
        <time>2013-07-14T13:23:07Z</time>
      </trkpt>
      <trkpt lat="46.422448195517063" lon="10.557771557942033">
        <ele>2322.6799999999998</ele>
        <time>2013-07-14T13:23:13Z</time>
      </trkpt>
      <trkpt lat="46.422414164990187" lon="10.557847246527672">
        <ele>2321.2399999999998</ele>
        <time>2013-07-14T13:23:21Z</time>
      </trkpt>
      <trkpt lat="46.422337470576167" lon="10.557925449684262">
        <ele>2317.8800000000001</ele>
        <time>2013-07-14T13:23:33Z</time>
      </trkpt>
      <trkpt lat="46.422288520261645" lon="10.55797079578042">
        <ele>2316.4299999999998</ele>
        <time>2013-07-14T13:23:43Z</time>
      </trkpt>
      <trkpt lat="46.422266894951463" lon="10.55801622569561">
        <ele>2314.9899999999998</ele>
        <time>2013-07-14T13:23:47Z</time>
      </trkpt>
      <trkpt lat="46.422243593260646" lon="10.558034330606461">
        <ele>2314.9899999999998</ele>
        <time>2013-07-14T13:23:50Z</time>
      </trkpt>
      <trkpt lat="46.422153152525425" lon="10.558138517662883">
        <ele>2311.6300000000001</ele>
        <time>2013-07-14T13:24:03Z</time>
      </trkpt>
      <trkpt lat="46.422065813094378" lon="10.558245219290257">
        <ele>2308.7399999999998</ele>
        <time>2013-07-14T13:24:16Z</time>
      </trkpt>
      <trkpt lat="46.422026585787535" lon="10.558297941461205">
        <ele>2307.3000000000002</ele>
        <time>2013-07-14T13:24:21Z</time>
      </trkpt>
      <trkpt lat="46.421969672665" lon="10.558214457705617">
        <ele>2305.8600000000001</ele>
        <time>2013-07-14T13:24:32Z</time>
      </trkpt>
      <trkpt lat="46.421962296590209" lon="10.558105912059546">
        <ele>2303.9400000000001</ele>
        <time>2013-07-14T13:24:40Z</time>
      </trkpt>
      <trkpt lat="46.421970007941127" lon="10.558071546256542">
        <ele>2303.46</ele>
        <time>2013-07-14T13:24:43Z</time>
      </trkpt>
      <trkpt lat="46.421976545825601" lon="10.558003317564726">
        <ele>2302.0100000000002</ele>
        <time>2013-07-14T13:24:48Z</time>
      </trkpt>
      <trkpt lat="46.421979647129774" lon="10.557797541841865">
        <ele>2299.6100000000001</ele>
        <time>2013-07-14T13:25:02Z</time>
      </trkpt>
      <trkpt lat="46.421956596896052" lon="10.557757811620831">
        <ele>2297.6900000000001</ele>
        <time>2013-07-14T13:25:09Z</time>
      </trkpt>
      <trkpt lat="46.421857941895723" lon="10.557965850457549">
        <ele>2295.77</ele>
        <time>2013-07-14T13:25:26Z</time>
      </trkpt>
      <trkpt lat="46.421819552779198" lon="10.558039778843522">
        <ele>2293.8400000000001</ele>
        <time>2013-07-14T13:25:33Z</time>
      </trkpt>
      <trkpt lat="46.421804549172521" lon="10.558069366961718">
        <ele>2293.8400000000001</ele>
        <time>2013-07-14T13:25:35Z</time>
      </trkpt>
      <trkpt lat="46.421755515038967" lon="10.558274807408452">
        <ele>2292.4000000000001</ele>
        <time>2013-07-14T13:25:51Z</time>
      </trkpt>
      <trkpt lat="46.421727854758501" lon="10.558256953954697">
        <ele>2291.4400000000001</ele>
        <time>2013-07-14T13:25:58Z</time>
      </trkpt>
      <trkpt lat="46.421731039881706" lon="10.55804162286222">
        <ele>2288.0799999999999</ele>
        <time>2013-07-14T13:26:14Z</time>
      </trkpt>
      <trkpt lat="46.421721233054996" lon="10.557905165478587">
        <ele>2285.6700000000001</ele>
        <time>2013-07-14T13:26:25Z</time>
      </trkpt>
      <trkpt lat="46.421709749847651" lon="10.557778431102633">
        <ele>2283.27</ele>
        <time>2013-07-14T13:26:35Z</time>
      </trkpt>
      <trkpt lat="46.421699607744813" lon="10.557671310380101">
        <ele>2281.3499999999999</ele>
        <time>2013-07-14T13:26:43Z</time>
      </trkpt>
      <trkpt lat="46.421719053760171" lon="10.557616660371423">
        <ele>2281.3499999999999</ele>
        <time>2013-07-14T13:26:47Z</time>
      </trkpt>
      <trkpt lat="46.421737493947148" lon="10.55743963457644">
        <ele>2278.9400000000001</ele>
        <time>2013-07-14T13:26:59Z</time>
      </trkpt>
      <trkpt lat="46.421758197247982" lon="10.557252466678619">
        <ele>2276.0599999999999</ele>
        <time>2013-07-14T13:27:13Z</time>
      </trkpt>
      <trkpt lat="46.421783342957497" lon="10.557209132239223">
        <ele>2275.0999999999999</ele>
        <time>2013-07-14T13:27:17Z</time>
      </trkpt>
      <trkpt lat="46.421749563887715" lon="10.557042164728045">
        <ele>2273.1700000000001</ele>
        <time>2013-07-14T13:27:31Z</time>
      </trkpt>
      <trkpt lat="46.421693321317434" lon="10.556964296847582">
        <ele>2269.3299999999999</ele>
        <time>2013-07-14T13:27:43Z</time>
      </trkpt>
      <trkpt lat="46.421679826453328" lon="10.556952646002173">
        <ele>2268.8499999999999</ele>
        <time>2013-07-14T13:27:45Z</time>
      </trkpt>
      <trkpt lat="46.421640180051327" lon="10.556896822527051">
        <ele>2266.9299999999998</ele>
        <time>2013-07-14T13:27:53Z</time>
      </trkpt>
      <trkpt lat="46.42158854752779" lon="10.55674678646028">
        <ele>2263.5599999999999</ele>
        <time>2013-07-14T13:28:05Z</time>
      </trkpt>
      <trkpt lat="46.421553175896406" lon="10.556552493944764">
        <ele>2260.6799999999998</ele>
        <time>2013-07-14T13:28:19Z</time>
      </trkpt>
      <trkpt lat="46.421532304957509" lon="10.5563934892416">
        <ele>2257.79</ele>
        <time>2013-07-14T13:28:32Z</time>
      </trkpt>
      <trkpt lat="46.421537920832634" lon="10.556173631921411">
        <ele>2254.4299999999998</ele>
        <time>2013-07-14T13:28:48Z</time>
      </trkpt>
      <trkpt lat="46.421537837013602" lon="10.556097691878676">
        <ele>2253.4699999999998</ele>
        <time>2013-07-14T13:28:54Z</time>
      </trkpt>
      <trkpt lat="46.421527024358511" lon="10.556018147617579">
        <ele>2252.5100000000002</ele>
        <time>2013-07-14T13:29:00Z</time>
      </trkpt>
      <trkpt lat="46.42157438211143" lon="10.555823016911745">
        <ele>2249.1399999999999</ele>
        <time>2013-07-14T13:29:15Z</time>
      </trkpt>
      <trkpt lat="46.421577483415604" lon="10.555729810148478">
        <ele>2248.1799999999998</ele>
        <time>2013-07-14T13:29:22Z</time>
      </trkpt>
      <trkpt lat="46.42154605127871" lon="10.555557897314429">
        <ele>2244.8200000000002</ele>
        <time>2013-07-14T13:29:37Z</time>
      </trkpt>
      <trkpt lat="46.421539764851332" lon="10.555548006668687">
        <ele>2245.3000000000002</ele>
        <time>2013-07-14T13:29:38Z</time>
      </trkpt>
      <trkpt lat="46.421439684927464" lon="10.555420015007257">
        <ele>2241.4499999999998</ele>
        <time>2013-07-14T13:29:53Z</time>
      </trkpt>
      <trkpt lat="46.42143851146102" lon="10.555422278121114">
        <ele>2241.4499999999998</ele>
        <time>2013-07-14T13:29:56Z</time>
      </trkpt>
      <trkpt lat="46.421449072659016" lon="10.555456979200244">
        <ele>2240.4899999999998</ele>
        <time>2013-07-14T13:30:00Z</time>
      </trkpt>
      <trkpt lat="46.421433733776212" lon="10.555560914799571">
        <ele>2239.5300000000002</ele>
        <time>2013-07-14T13:30:08Z</time>
      </trkpt>
      <trkpt lat="46.421359553933144" lon="10.55562537163496">
        <ele>2238.0900000000001</ele>
        <time>2013-07-14T13:30:16Z</time>
      </trkpt>
      <trkpt lat="46.421345053240657" lon="10.555658480152488">
        <ele>2237.1300000000001</ele>
        <time>2013-07-14T13:30:19Z</time>
      </trkpt>
      <trkpt lat="46.421276489272714" lon="10.555831985548139">
        <ele>2233.7600000000002</ele>
        <time>2013-07-14T13:30:33Z</time>
      </trkpt>
      <trkpt lat="46.421158388257027" lon="10.555983278900385">
        <ele>2230.8800000000001</ele>
        <time>2013-07-14T13:30:49Z</time>
      </trkpt>
      <trkpt lat="46.421136595308781" lon="10.556012280285358">
        <ele>2229.9200000000001</ele>
        <time>2013-07-14T13:30:52Z</time>
      </trkpt>
      <trkpt lat="46.421016650274396" lon="10.556138008832932">
        <ele>2226.5500000000002</ele>
        <time>2013-07-14T13:31:05Z</time>
      </trkpt>
      <trkpt lat="46.420923778787255" lon="10.556250577792525">
        <ele>2223.1900000000001</ele>
        <time>2013-07-14T13:31:13Z</time>
      </trkpt>
      <trkpt lat="46.42086879350245" lon="10.556311765685678">
        <ele>2219.8200000000002</ele>
        <time>2013-07-14T13:31:22Z</time>
      </trkpt>
      <trkpt lat="46.420858819037676" lon="10.556322578340769">
        <ele>2219.8200000000002</ele>
        <time>2013-07-14T13:31:23Z</time>
      </trkpt>
      <trkpt lat="46.420849347487092" lon="10.556337414309382">
        <ele>2219.8200000000002</ele>
        <time>2013-07-14T13:31:24Z</time>
      </trkpt>
      <trkpt lat="46.420797128230333" lon="10.556442523375154">
        <ele>2216.46</ele>
        <time>2013-07-14T13:31:34Z</time>
      </trkpt>
      <trkpt lat="46.420747507363558" lon="10.556417293846607">
        <ele>2216.46</ele>
        <time>2013-07-14T13:31:38Z</time>
      </trkpt>
      <trkpt lat="46.420737616717815" lon="10.556406732648611">
        <ele>2215.98</ele>
        <time>2013-07-14T13:31:39Z</time>
      </trkpt>
      <trkpt lat="46.420715907588601" lon="10.556334732100368">
        <ele>2215.0100000000002</ele>
        <time>2013-07-14T13:31:44Z</time>
      </trkpt>
      <trkpt lat="46.420718505978584" lon="10.556316375732422">
        <ele>2215.0100000000002</ele>
        <time>2013-07-14T13:31:45Z</time>
      </trkpt>
      <trkpt lat="46.420777766034007" lon="10.556135075166821">
        <ele>2212.1300000000001</ele>
        <time>2013-07-14T13:31:57Z</time>
      </trkpt>
      <trkpt lat="46.420786567032337" lon="10.556094087660313">
        <ele>2210.6900000000001</ele>
        <time>2013-07-14T13:32:00Z</time>
      </trkpt>
      <trkpt lat="46.420789919793606" lon="10.55607589893043">
        <ele>2210.6900000000001</ele>
        <time>2013-07-14T13:32:01Z</time>
      </trkpt>
      <trkpt lat="46.420792937278748" lon="10.556057542562485">
        <ele>2210.21</ele>
        <time>2013-07-14T13:32:02Z</time>
      </trkpt>
      <trkpt lat="46.420786399394274" lon="10.555905578657985">
        <ele>2207.3200000000002</ele>
        <time>2013-07-14T13:32:13Z</time>
      </trkpt>
      <trkpt lat="46.420783130452037" lon="10.555891916155815">
        <ele>2206.3600000000001</ele>
        <time>2013-07-14T13:32:14Z</time>
      </trkpt>
      <trkpt lat="46.420780783519149" lon="10.555878756567836">
        <ele>2206.3600000000001</ele>
        <time>2013-07-14T13:32:15Z</time>
      </trkpt>
      <trkpt lat="46.420775586739182" lon="10.555858807638288">
        <ele>2206.3600000000001</ele>
        <time>2013-07-14T13:32:16Z</time>
      </trkpt>
      <trkpt lat="46.420769803225994" lon="10.555843133479357">
        <ele>2205.8800000000001</ele>
        <time>2013-07-14T13:32:17Z</time>
      </trkpt>
      <trkpt lat="46.420735772699118" lon="10.555734587833285">
        <ele>2202.52</ele>
        <time>2013-07-14T13:32:25Z</time>
      </trkpt>
      <trkpt lat="46.420688331127167" lon="10.55551590397954">
        <ele>2199.6300000000001</ele>
        <time>2013-07-14T13:32:40Z</time>
      </trkpt>
      <trkpt lat="46.420623790472746" lon="10.555462762713432">
        <ele>2197.23</ele>
        <time>2013-07-14T13:32:49Z</time>
      </trkpt>
      <trkpt lat="46.420618090778589" lon="10.555476592853665">
        <ele>2197.23</ele>
        <time>2013-07-14T13:32:50Z</time>
      </trkpt>
      <trkpt lat="46.420612977817655" lon="10.555544150993228">
        <ele>2196.75</ele>
        <time>2013-07-14T13:33:05Z</time>
      </trkpt>
      <trkpt lat="46.42060149461031" lon="10.555558819323778">
        <ele>2195.3099999999999</ele>
        <time>2013-07-14T13:33:24Z</time>
      </trkpt>
      <trkpt lat="46.420587496832013" lon="10.555580612272024">
        <ele>2194.8299999999999</ele>
        <time>2013-07-14T13:33:42Z</time>
      </trkpt>
      <trkpt lat="46.420563189312816" lon="10.555570302531123">
        <ele>2194.8299999999999</ele>
        <time>2013-07-14T13:34:08Z</time>
      </trkpt>
      <trkpt lat="46.420611217617989" lon="10.555556220933795">
        <ele>2194.8299999999999</ele>
        <time>2013-07-14T13:34:34Z</time>
      </trkpt>
      <trkpt lat="46.420625550672412" lon="10.555574158206582">
        <ele>2194.3499999999999</ele>
        <time>2013-07-14T13:35:00Z</time>
      </trkpt>
      <trkpt lat="46.420628065243363" lon="10.555555047467351">
        <ele>2194.8299999999999</ele>
        <time>2013-07-14T13:35:14Z</time>
      </trkpt>
      <trkpt lat="46.42060442827642" lon="10.555473156273365">
        <ele>2195.3099999999999</ele>
        <time>2013-07-14T13:35:23Z</time>
      </trkpt>
      <trkpt lat="46.420529494062066" lon="10.555413393303752">
        <ele>2194.3499999999999</ele>
        <time>2013-07-14T13:35:36Z</time>
      </trkpt>
      <trkpt lat="46.420529996976256" lon="10.555399814620614">
        <ele>2195.3099999999999</ele>
        <time>2013-07-14T13:35:53Z</time>
      </trkpt>
      <trkpt lat="46.420536786317825" lon="10.555390510708094">
        <ele>2195.3099999999999</ele>
        <time>2013-07-14T13:36:03Z</time>
      </trkpt>
      <trkpt lat="46.420533182099462" lon="10.555354049429297">
        <ele>2194.8299999999999</ele>
        <time>2013-07-14T13:36:18Z</time>
      </trkpt>
    </trkseg>
  </trk>

  <trk>
    <name>forni-casati2013-07-13</name>
    <extensions>
      <gpxx:TrackExtension>
        <gpxx:DisplayColor>Yellow</gpxx:DisplayColor>
      </gpxx:TrackExtension>
    </extensions>
    <trkseg>
      <trkpt lat="46.420572577044368" lon="10.555951595306396">
        <ele>2203.96</ele>
        <time>2013-07-13T11:21:27Z</time>
      </trkpt>
      <trkpt lat="46.420566542074084" lon="10.555945644155145">
        <ele>2205.4000000000001</ele>
        <time>2013-07-13T11:21:30Z</time>
      </trkpt>
      <trkpt lat="46.420560507103801" lon="10.555937932804227">
        <ele>2203.96</ele>
        <time>2013-07-13T11:21:37Z</time>
      </trkpt>
      <trkpt lat="46.420517340302467" lon="10.555873475968838">
        <ele>2204.4400000000001</ele>
        <time>2013-07-13T11:22:05Z</time>
      </trkpt>
      <trkpt lat="46.420494625344872" lon="10.555868949741125">
        <ele>2205.4000000000001</ele>
        <time>2013-07-13T11:22:37Z</time>
      </trkpt>
      <trkpt lat="46.420546760782599" lon="10.555878169834614">
        <ele>2205.4000000000001</ele>
        <time>2013-07-13T11:23:10Z</time>
      </trkpt>
      <trkpt lat="46.420511389151216" lon="10.555877583101392">
        <ele>2205.4000000000001</ele>
        <time>2013-07-13T11:23:36Z</time>
      </trkpt>
      <trkpt lat="46.420486159622669" lon="10.555875990539789">
        <ele>2206.3600000000001</ele>
        <time>2013-07-13T11:24:03Z</time>
      </trkpt>
      <trkpt lat="46.420489009469748" lon="10.555861657485366">
        <ele>2206.8400000000001</ele>
        <time>2013-07-13T11:24:24Z</time>
      </trkpt>
      <trkpt lat="46.420529745519161" lon="10.55584916844964">
        <ele>2207.8099999999999</ele>
        <time>2013-07-13T11:24:44Z</time>
      </trkpt>
      <trkpt lat="46.420543659478426" lon="10.555856628343463">
        <ele>2208.29</ele>
        <time>2013-07-13T11:25:01Z</time>
      </trkpt>
      <trkpt lat="46.42052723094821" lon="10.555854616686702">
        <ele>2207.8099999999999</ele>
        <time>2013-07-13T11:25:16Z</time>
      </trkpt>
      <trkpt lat="46.420554388314486" lon="10.555856376886368">
        <ele>2207.3200000000002</ele>
        <time>2013-07-13T11:25:37Z</time>
      </trkpt>
      <trkpt lat="46.420572241768241" lon="10.555805834010243">
        <ele>2207.3200000000002</ele>
        <time>2013-07-13T11:25:56Z</time>
      </trkpt>
      <trkpt lat="46.420680955052376" lon="10.555665856227279">
        <ele>2206.3600000000001</ele>
        <time>2013-07-13T11:26:13Z</time>
      </trkpt>
      <trkpt lat="46.42074566334486" lon="10.555595699697733">
        <ele>2207.8099999999999</ele>
        <time>2013-07-13T11:26:26Z</time>
      </trkpt>
      <trkpt lat="46.420770054683089" lon="10.555646410211921">
        <ele>2209.25</ele>
        <time>2013-07-13T11:26:39Z</time>
      </trkpt>
      <trkpt lat="46.420792350545526" lon="10.555743053555489">
        <ele>2210.21</ele>
        <time>2013-07-13T11:26:53Z</time>
      </trkpt>
      <trkpt lat="46.420818334445357" lon="10.555845061317086">
        <ele>2213.0900000000001</ele>
        <time>2013-07-13T11:27:08Z</time>
      </trkpt>
      <trkpt lat="46.420809449627995" lon="10.55599233135581">
        <ele>2215.0100000000002</ele>
        <time>2013-07-13T11:27:23Z</time>
      </trkpt>
      <trkpt lat="46.420774664729834" lon="10.556121077388525">
        <ele>2217.4200000000001</ele>
        <time>2013-07-13T11:27:38Z</time>
      </trkpt>
      <trkpt lat="46.420739041641355" lon="10.556220570579171">
        <ele>2219.8200000000002</ele>
        <time>2013-07-13T11:27:52Z</time>
      </trkpt>
      <trkpt lat="46.420715237036347" lon="10.556360548362136">
        <ele>2220.7800000000002</ele>
        <time>2013-07-13T11:28:06Z</time>
      </trkpt>
      <trkpt lat="46.420766701921821" lon="10.556428777053952">
        <ele>2221.2600000000002</ele>
        <time>2013-07-13T11:28:19Z</time>
      </trkpt>
      <trkpt lat="46.420835265889764" lon="10.55634805932641">
        <ele>2224.1500000000001</ele>
        <time>2013-07-13T11:28:32Z</time>
      </trkpt>
      <trkpt lat="46.420878348872066" lon="10.556236663833261">
        <ele>2225.5900000000001</ele>
        <time>2013-07-13T11:28:47Z</time>
      </trkpt>
      <trkpt lat="46.420959150418639" lon="10.5561638250947">
        <ele>2227.9899999999998</ele>
        <time>2013-07-13T11:29:03Z</time>
      </trkpt>
      <trkpt lat="46.421025786548853" lon="10.556090483441949">
        <ele>2230.4000000000001</ele>
        <time>2013-07-13T11:29:19Z</time>
      </trkpt>
      <trkpt lat="46.421075072139502" lon="10.556050417944789">
        <ele>2231.8400000000001</ele>
        <time>2013-07-13T11:29:35Z</time>
      </trkpt>
      <trkpt lat="46.421121088787913" lon="10.555968107655644">
        <ele>2233.2800000000002</ele>
        <time>2013-07-13T11:29:47Z</time>
      </trkpt>
      <trkpt lat="46.421214882284403" lon="10.555859478190541">
        <ele>2235.6799999999998</ele>
        <time>2013-07-13T11:30:03Z</time>
      </trkpt>
      <trkpt lat="46.421279590576887" lon="10.555776245892048">
        <ele>2236.6399999999999</ele>
        <time>2013-07-13T11:30:16Z</time>
      </trkpt>
      <trkpt lat="46.421330384910107" lon="10.555675411596894">
        <ele>2239.0500000000002</ele>
        <time>2013-07-13T11:30:30Z</time>
      </trkpt>
      <trkpt lat="46.421374641358852" lon="10.555562674999237">
        <ele>2240.9699999999998</ele>
        <time>2013-07-13T11:30:44Z</time>
      </trkpt>
      <trkpt lat="46.421397691592574" lon="10.555517915636301">
        <ele>2241.9299999999998</ele>
        <time>2013-07-13T11:30:58Z</time>
      </trkpt>
      <trkpt lat="46.421393919736147" lon="10.555516071617603">
        <ele>2241.9299999999998</ele>
        <time>2013-07-13T11:31:11Z</time>
      </trkpt>
      <trkpt lat="46.421420741826296" lon="10.555489920079708">
        <ele>2241.9299999999998</ele>
        <time>2013-07-13T11:31:26Z</time>
      </trkpt>
      <trkpt lat="46.421455023810267" lon="10.555389923974872">
        <ele>2243.8499999999999</ele>
        <time>2013-07-13T11:31:39Z</time>
      </trkpt>
      <trkpt lat="46.421488467603922" lon="10.555398724973202">
        <ele>2244.8200000000002</ele>
        <time>2013-07-13T11:31:50Z</time>
      </trkpt>
      <trkpt lat="46.421542027965188" lon="10.555478604510427">
        <ele>2246.7399999999998</ele>
        <time>2013-07-13T11:32:03Z</time>
      </trkpt>
      <trkpt lat="46.421589637175202" lon="10.555587653070688">
        <ele>2248.1799999999998</ele>
        <time>2013-07-13T11:32:17Z</time>
      </trkpt>
      <trkpt lat="46.421580333262682" lon="10.555708771571517">
        <ele>2249.6199999999999</ele>
        <time>2013-07-13T11:32:34Z</time>
      </trkpt>
      <trkpt lat="46.421568682417274" lon="10.555870709940791">
        <ele>2251.54</ele>
        <time>2013-07-13T11:32:49Z</time>
      </trkpt>
      <trkpt lat="46.421553008258343" lon="10.556024769321084">
        <ele>2253.4699999999998</ele>
        <time>2013-07-13T11:33:02Z</time>
      </trkpt>
      <trkpt lat="46.421560300514102" lon="10.556179247796535">
        <ele>2256.3499999999999</ele>
        <time>2013-07-13T11:33:18Z</time>
      </trkpt>
      <trkpt lat="46.421562060713768" lon="10.556348981335759">
        <ele>2258.75</ele>
        <time>2013-07-13T11:33:37Z</time>
      </trkpt>
      <trkpt lat="46.421576477587223" lon="10.556511338800192">
        <ele>2260.6799999999998</ele>
        <time>2013-07-13T11:33:53Z</time>
      </trkpt>
      <trkpt lat="46.421595588326454" lon="10.556632541120052">
        <ele>2262.5999999999999</ele>
        <time>2013-07-13T11:34:09Z</time>
      </trkpt>
      <trkpt lat="46.421624757349491" lon="10.556774782016873">
        <ele>2265.48</ele>
        <time>2013-07-13T11:34:24Z</time>
      </trkpt>
      <trkpt lat="46.421647723764181" lon="10.556821385398507">
        <ele>2266.9299999999998</ele>
        <time>2013-07-13T11:34:39Z</time>
      </trkpt>
      <trkpt lat="46.421684771776199" lon="10.556917525827885">
        <ele>2268.8499999999999</ele>
        <time>2013-07-13T11:34:54Z</time>
      </trkpt>
      <trkpt lat="46.421726681292057" lon="10.556953987106681">
        <ele>2271.25</ele>
        <time>2013-07-13T11:35:07Z</time>
      </trkpt>
      <trkpt lat="46.421765992417932" lon="10.557006290182471">
        <ele>2272.6900000000001</ele>
        <time>2013-07-13T11:35:20Z</time>
      </trkpt>
      <trkpt lat="46.421795580536127" lon="10.557171246036887">
        <ele>2275.0999999999999</ele>
        <time>2013-07-13T11:35:35Z</time>
      </trkpt>
      <trkpt lat="46.421773536130786" lon="10.557305691763759">
        <ele>2277.02</ele>
        <time>2013-07-13T11:35:48Z</time>
      </trkpt>
      <trkpt lat="46.421764148399234" lon="10.55740786716342">
        <ele>2278.46</ele>
        <time>2013-07-13T11:35:59Z</time>
      </trkpt>
      <trkpt lat="46.421760208904743" lon="10.557535188272595">
        <ele>2280.3800000000001</ele>
        <time>2013-07-13T11:36:11Z</time>
      </trkpt>
      <trkpt lat="46.421735733747482" lon="10.557682374492288">
        <ele>2281.8299999999999</ele>
        <time>2013-07-13T11:36:26Z</time>
      </trkpt>
      <trkpt lat="46.421742355450988" lon="10.557813216000795">
        <ele>2284.71</ele>
        <time>2013-07-13T11:36:41Z</time>
      </trkpt>
      <trkpt lat="46.421740846708417" lon="10.557958893477917">
        <ele>2286.1500000000001</ele>
        <time>2013-07-13T11:36:56Z</time>
      </trkpt>
      <trkpt lat="46.421761382371187" lon="10.558078670874238">
        <ele>2288.0799999999999</ele>
        <time>2013-07-13T11:37:10Z</time>
      </trkpt>
      <trkpt lat="46.421765657141805" lon="10.558236334472895">
        <ele>2291.4400000000001</ele>
        <time>2013-07-13T11:37:27Z</time>
      </trkpt>
      <trkpt lat="46.421799939125776" lon="10.558225940912962">
        <ele>2291.9200000000001</ele>
        <time>2013-07-13T11:37:39Z</time>
      </trkpt>
      <trkpt lat="46.421827599406242" lon="10.558132398873568">
        <ele>2292.4000000000001</ele>
        <time>2013-07-13T11:37:48Z</time>
      </trkpt>
      <trkpt lat="46.421833634376526" lon="10.558088142424822">
        <ele>2292.8800000000001</ele>
        <time>2013-07-13T11:37:53Z</time>
      </trkpt>
      <trkpt lat="46.421859702095389" lon="10.557916900143027">
        <ele>2294.8000000000002</ele>
        <time>2013-07-13T11:38:08Z</time>
      </trkpt>
      <trkpt lat="46.421906808391213" lon="10.557771725580096">
        <ele>2296.73</ele>
        <time>2013-07-13T11:38:23Z</time>
      </trkpt>
      <trkpt lat="46.421973025426269" lon="10.557779772207141">
        <ele>2298.1700000000001</ele>
        <time>2013-07-13T11:38:37Z</time>
      </trkpt>
      <trkpt lat="46.421989956870675" lon="10.557922599837184">
        <ele>2299.6100000000001</ele>
        <time>2013-07-13T11:38:50Z</time>
      </trkpt>
      <trkpt lat="46.421983502805233" lon="10.558068444952369">
        <ele>2301.5300000000002</ele>
        <time>2013-07-13T11:39:06Z</time>
      </trkpt>
      <trkpt lat="46.421990962699056" lon="10.558199370279908">
        <ele>2303.9400000000001</ele>
        <time>2013-07-13T11:39:21Z</time>
      </trkpt>
      <trkpt lat="46.422021221369505" lon="10.55828352458775">
        <ele>2305.8600000000001</ele>
        <time>2013-07-13T11:39:37Z</time>
      </trkpt>
      <trkpt lat="46.422062627971172" lon="10.558171877637506">
        <ele>2307.7800000000002</ele>
        <time>2013-07-13T11:39:53Z</time>
      </trkpt>
      <trkpt lat="46.422120044007897" lon="10.558091746643186">
        <ele>2309.6999999999998</ele>
        <time>2013-07-13T11:40:08Z</time>
      </trkpt>
      <trkpt lat="46.422179555520415" lon="10.558026116341352">
        <ele>2311.1500000000001</ele>
        <time>2013-07-13T11:40:21Z</time>
      </trkpt>
      <trkpt lat="46.422250214964151" lon="10.55794782936573">
        <ele>2313.5500000000002</ele>
        <time>2013-07-13T11:40:36Z</time>
      </trkpt>
      <trkpt lat="46.422329507768154" lon="10.557864513248205">
        <ele>2315.9499999999998</ele>
        <time>2013-07-13T11:40:52Z</time>
      </trkpt>
      <trkpt lat="46.422393880784512" lon="10.557796200737357">
        <ele>2317.4000000000001</ele>
        <time>2013-07-13T11:41:10Z</time>
      </trkpt>
      <trkpt lat="46.422429168596864" lon="10.557732582092285">
        <ele>2318.8400000000001</ele>
        <time>2013-07-13T11:41:21Z</time>
      </trkpt>
      <trkpt lat="46.42246319912374" lon="10.557679943740368">
        <ele>2320.2800000000002</ele>
        <time>2013-07-13T11:41:32Z</time>
      </trkpt>
      <trkpt lat="46.422526817768812" lon="10.557720176875591">
        <ele>2321.7199999999998</ele>
        <time>2013-07-13T11:41:44Z</time>
      </trkpt>
      <trkpt lat="46.422607786953449" lon="10.557741969823837">
        <ele>2323.1599999999999</ele>
        <time>2013-07-13T11:41:56Z</time>
      </trkpt>
      <trkpt lat="46.422664364799857" lon="10.557686649262905">
        <ele>2325.5700000000002</ele>
        <time>2013-07-13T11:42:07Z</time>
      </trkpt>
      <trkpt lat="46.422746758908033" lon="10.557688158005476">
        <ele>2327.4899999999998</ele>
        <time>2013-07-13T11:42:21Z</time>
      </trkpt>
      <trkpt lat="46.422826386988163" lon="10.55774012580514">
        <ele>2328.4499999999998</ele>
        <time>2013-07-13T11:42:34Z</time>
      </trkpt>
      <trkpt lat="46.422902159392834" lon="10.557695366442204">
        <ele>2329.8899999999999</ele>
        <time>2013-07-13T11:42:48Z</time>
      </trkpt>
      <trkpt lat="46.422966867685318" lon="10.55761163122952">
        <ele>2332.3000000000002</ele>
        <time>2013-07-13T11:43:04Z</time>
      </trkpt>
      <trkpt lat="46.423037108033895" lon="10.557518424466252">
        <ele>2333.7399999999998</ele>
        <time>2013-07-13T11:43:17Z</time>
      </trkpt>
      <trkpt lat="46.423096200451255" lon="10.557515155524015">
        <ele>2334.6999999999998</ele>
        <time>2013-07-13T11:43:32Z</time>
      </trkpt>
      <trkpt lat="46.42312771640718" lon="10.557532254606485">
        <ele>2336.6199999999999</ele>
        <time>2013-07-13T11:43:47Z</time>
      </trkpt>
      <trkpt lat="46.423129476606846" lon="10.557520603761077">
        <ele>2336.6199999999999</ele>
        <time>2013-07-13T11:43:48Z</time>
      </trkpt>
      <trkpt lat="46.423132829368114" lon="10.557501828297973">
        <ele>2337.0999999999999</ele>
        <time>2013-07-13T11:43:50Z</time>
      </trkpt>
      <trkpt lat="46.423206171020865" lon="10.557334944605827">
        <ele>2337.0999999999999</ele>
        <time>2013-07-13T11:44:06Z</time>
      </trkpt>
      <trkpt lat="46.423249505460262" lon="10.55726571008563">
        <ele>2337.0999999999999</ele>
        <time>2013-07-13T11:44:19Z</time>
      </trkpt>
      <trkpt lat="46.423257049173117" lon="10.557193206623197">
        <ele>2339.02</ele>
        <time>2013-07-13T11:44:43Z</time>
      </trkpt>
      <trkpt lat="46.423294097185135" lon="10.557107124477625">
        <ele>2340.9499999999998</ele>
        <time>2013-07-13T11:44:54Z</time>
      </trkpt>
      <trkpt lat="46.423295605927706" lon="10.557054737582803">
        <ele>2340.4699999999998</ele>
        <time>2013-07-13T11:44:58Z</time>
      </trkpt>
      <trkpt lat="46.423350255936384" lon="10.557073429226875">
        <ele>2343.3499999999999</ele>
        <time>2013-07-13T11:45:14Z</time>
      </trkpt>
      <trkpt lat="46.423365594819188" lon="10.557148698717356">
        <ele>2343.8299999999999</ele>
        <time>2013-07-13T11:45:27Z</time>
      </trkpt>
      <trkpt lat="46.423392919823527" lon="10.557299656793475">
        <ele>2346.23</ele>
        <time>2013-07-13T11:45:42Z</time>
      </trkpt>
      <trkpt lat="46.423379760235548" lon="10.557432845234871">
        <ele>2348.1599999999999</ele>
        <time>2013-07-13T11:45:56Z</time>
      </trkpt>
      <trkpt lat="46.423369953408837" lon="10.557594113051891">
        <ele>2350.0799999999999</ele>
        <time>2013-07-13T11:46:12Z</time>
      </trkpt>
      <trkpt lat="46.42336961813271" lon="10.557733504101634">
        <ele>2352</ele>
        <time>2013-07-13T11:46:27Z</time>
      </trkpt>
      <trkpt lat="46.423370288684964" lon="10.557844564318657">
        <ele>2353.9299999999998</ele>
        <time>2013-07-13T11:46:40Z</time>
      </trkpt>
      <trkpt lat="46.423356961458921" lon="10.558003066107631">
        <ele>2356.3299999999999</ele>
        <time>2013-07-13T11:46:56Z</time>
      </trkpt>
      <trkpt lat="46.423341287299991" lon="10.558147402480245">
        <ele>2358.25</ele>
        <time>2013-07-13T11:47:09Z</time>
      </trkpt>
      <trkpt lat="46.423327540978789" lon="10.558270113542676">
        <ele>2360.1700000000001</ele>
        <time>2013-07-13T11:47:21Z</time>
      </trkpt>
      <trkpt lat="46.42331924289465" lon="10.55843741632998">
        <ele>2361.6199999999999</ele>
        <time>2013-07-13T11:47:35Z</time>
      </trkpt>
      <trkpt lat="46.423349920660257" lon="10.558575633913279">
        <ele>2363.54</ele>
        <time>2013-07-13T11:47:49Z</time>
      </trkpt>
      <trkpt lat="46.423398954793811" lon="10.558679569512606">
        <ele>2365.46</ele>
        <time>2013-07-13T11:48:02Z</time>
      </trkpt>
      <trkpt lat="46.423429632559419" lon="10.55883027613163">
        <ele>2366.9000000000001</ele>
        <time>2013-07-13T11:48:16Z</time>
      </trkpt>
      <trkpt lat="46.423480175435543" lon="10.55896463803947">
        <ele>2368.8299999999999</ele>
        <time>2013-07-13T11:48:32Z</time>
      </trkpt>
      <trkpt lat="46.423526275902987" lon="10.559049462899566">
        <ele>2370.75</ele>
        <time>2013-07-13T11:48:44Z</time>
      </trkpt>
      <trkpt lat="46.423576986417174" lon="10.559200420975685">
        <ele>2372.6700000000001</ele>
        <time>2013-07-13T11:49:00Z</time>
      </trkpt>
      <trkpt lat="46.423579500988126" lon="10.559354145079851">
        <ele>2374.5900000000001</ele>
        <time>2013-07-13T11:49:14Z</time>
      </trkpt>
      <trkpt lat="46.423640185967088" lon="10.559475095942616">
        <ele>2377</ele>
        <time>2013-07-13T11:49:30Z</time>
      </trkpt>
      <trkpt lat="46.42366616986692" lon="10.559578277170658">
        <ele>2377.96</ele>
        <time>2013-07-13T11:49:43Z</time>
      </trkpt>
      <trkpt lat="46.423667510971427" lon="10.559636866673827">
        <ele>2378.4400000000001</ele>
        <time>2013-07-13T11:49:48Z</time>
      </trkpt>
      <trkpt lat="46.42367304302752" lon="10.559832500293851">
        <ele>2380.3600000000001</ele>
        <time>2013-07-13T11:50:05Z</time>
      </trkpt>
      <trkpt lat="46.42370967194438" lon="10.559966694563627">
        <ele>2382.2800000000002</ele>
        <time>2013-07-13T11:50:19Z</time>
      </trkpt>
      <trkpt lat="46.423734147101641" lon="10.560099883005023">
        <ele>2383.73</ele>
        <time>2013-07-13T11:50:33Z</time>
      </trkpt>
      <trkpt lat="46.423774631693959" lon="10.560135589912534">
        <ele>2384.6900000000001</ele>
        <time>2013-07-13T11:50:42Z</time>
      </trkpt>
      <trkpt lat="46.423851912841201" lon="10.560223432257771">
        <ele>2387.0900000000001</ele>
        <time>2013-07-13T11:50:57Z</time>
      </trkpt>
      <trkpt lat="46.423915782943368" lon="10.560372546315193">
        <ele>2389.4899999999998</ele>
        <time>2013-07-13T11:51:15Z</time>
      </trkpt>
      <trkpt lat="46.423922153189778" lon="10.560388052836061">
        <ele>2389.9699999999998</ele>
        <time>2013-07-13T11:51:32Z</time>
      </trkpt>
      <trkpt lat="46.423963895067573" lon="10.560443457216024">
        <ele>2390.9400000000001</ele>
        <time>2013-07-13T11:51:46Z</time>
      </trkpt>
      <trkpt lat="46.424050480127335" lon="10.560529371723533">
        <ele>2393.3400000000001</ele>
        <time>2013-07-13T11:52:02Z</time>
      </trkpt>
      <trkpt lat="46.424122815951705" lon="10.560617381706834">
        <ele>2395.2600000000002</ele>
        <time>2013-07-13T11:52:17Z</time>
      </trkpt>
      <trkpt lat="46.424172604456544" lon="10.560658033937216">
        <ele>2397.1799999999998</ele>
        <time>2013-07-13T11:52:32Z</time>
      </trkpt>
      <trkpt lat="46.424237228929996" lon="10.560692483559251">
        <ele>2398.1500000000001</ele>
        <time>2013-07-13T11:52:44Z</time>
      </trkpt>
      <trkpt lat="46.424286011606455" lon="10.560757108032703">
        <ele>2399.5900000000001</ele>
        <time>2013-07-13T11:52:57Z</time>
      </trkpt>
      <trkpt lat="46.424348121508956" lon="10.560862217098475">
        <ele>2401.5100000000002</ele>
        <time>2013-07-13T11:53:10Z</time>
      </trkpt>
      <trkpt lat="46.42440595664084" lon="10.560979647561908">
        <ele>2403.4299999999998</ele>
        <time>2013-07-13T11:53:25Z</time>
      </trkpt>
      <trkpt lat="46.42445482313633" lon="10.561116272583604">
        <ele>2405.8400000000001</ele>
        <time>2013-07-13T11:53:41Z</time>
      </trkpt>
      <trkpt lat="46.424509640783072" lon="10.561228506267071">
        <ele>2408.2399999999998</ele>
        <time>2013-07-13T11:53:58Z</time>
      </trkpt>
      <trkpt lat="46.424536630511284" lon="10.561246024444699">
        <ele>2408.7199999999998</ele>
        <time>2013-07-13T11:54:03Z</time>
      </trkpt>
      <trkpt lat="46.424606451764703" lon="10.561328418552876">
        <ele>2410.1599999999999</ele>
        <time>2013-07-13T11:54:17Z</time>
      </trkpt>
      <trkpt lat="46.424656743183732" lon="10.561461774632335">
        <ele>2412.5700000000002</ele>
        <time>2013-07-13T11:54:32Z</time>
      </trkpt>
      <trkpt lat="46.424684235826135" lon="10.561599573120475">
        <ele>2414.4899999999998</ele>
        <time>2013-07-13T11:54:46Z</time>
      </trkpt>
      <trkpt lat="46.42471332103014" lon="10.561732929199934">
        <ele>2415.9299999999998</ele>
        <time>2013-07-13T11:55:02Z</time>
      </trkpt>
      <trkpt lat="46.424727905541658" lon="10.56176595389843">
        <ele>2416.4099999999999</ele>
        <time>2013-07-13T11:55:05Z</time>
      </trkpt>
      <trkpt lat="46.42478222027421" lon="10.561913559213281">
        <ele>2418.8099999999999</ele>
        <time>2013-07-13T11:55:20Z</time>
      </trkpt>
      <trkpt lat="46.424857070669532" lon="10.561992768198252">
        <ele>2419.7800000000002</ele>
        <time>2013-07-13T11:55:33Z</time>
      </trkpt>
      <trkpt lat="46.424876097589731" lon="10.562081784009933">
        <ele>2421.2199999999998</ele>
        <time>2013-07-13T11:55:40Z</time>
      </trkpt>
      <trkpt lat="46.424891771748662" lon="10.562262162566185">
        <ele>2422.6599999999999</ele>
        <time>2013-07-13T11:55:55Z</time>
      </trkpt>
      <trkpt lat="46.424916917458177" lon="10.562320835888386">
        <ele>2423.6199999999999</ele>
        <time>2013-07-13T11:56:01Z</time>
      </trkpt>
      <trkpt lat="46.424980536103249" lon="10.562514625489712">
        <ele>2426.02</ele>
        <time>2013-07-13T11:56:18Z</time>
      </trkpt>
      <trkpt lat="46.425024121999741" lon="10.562641862779856">
        <ele>2428.4299999999998</ele>
        <time>2013-07-13T11:56:34Z</time>
      </trkpt>
      <trkpt lat="46.425039209425449" lon="10.56269190274179">
        <ele>2429.3899999999999</ele>
        <time>2013-07-13T11:56:42Z</time>
      </trkpt>
      <trkpt lat="46.425110120326281" lon="10.562808997929096">
        <ele>2431.3099999999999</ele>
        <time>2013-07-13T11:56:56Z</time>
      </trkpt>
      <trkpt lat="46.425183964893222" lon="10.562889715656638">
        <ele>2433.23</ele>
        <time>2013-07-13T11:57:09Z</time>
      </trkpt>
      <trkpt lat="46.425274657085538" lon="10.562965571880341">
        <ele>2435.6399999999999</ele>
        <time>2013-07-13T11:57:23Z</time>
      </trkpt>
      <trkpt lat="46.425280021503568" lon="10.562969762831926">
        <ele>2436.1199999999999</ele>
        <time>2013-07-13T11:57:24Z</time>
      </trkpt>
      <trkpt lat="46.425365516915917" lon="10.563050145283341">
        <ele>2437.5599999999999</ele>
        <time>2013-07-13T11:57:37Z</time>
      </trkpt>
      <trkpt lat="46.425408180803061" lon="10.563090881332755">
        <ele>2439.48</ele>
        <time>2013-07-13T11:57:46Z</time>
      </trkpt>
      <trkpt lat="46.425416562706232" lon="10.56306472979486">
        <ele>2439</ele>
        <time>2013-07-13T11:57:49Z</time>
      </trkpt>
      <trkpt lat="46.425475906580687" lon="10.562943611294031">
        <ele>2440.9200000000001</ele>
        <time>2013-07-13T11:58:02Z</time>
      </trkpt>
      <trkpt lat="46.425482276827097" lon="10.562904132530093">
        <ele>2441.8899999999999</ele>
        <time>2013-07-13T11:58:06Z</time>
      </trkpt>
      <trkpt lat="46.425523348152637" lon="10.562722496688366">
        <ele>2443.3299999999999</ele>
        <time>2013-07-13T11:58:21Z</time>
      </trkpt>
      <trkpt lat="46.42552787438035" lon="10.562587296590209">
        <ele>2444.77</ele>
        <time>2013-07-13T11:58:32Z</time>
      </trkpt>
      <trkpt lat="46.425524521619081" lon="10.562438014894724">
        <ele>2445.73</ele>
        <time>2013-07-13T11:58:43Z</time>
      </trkpt>
      <trkpt lat="46.425525527447462" lon="10.562288146466017">
        <ele>2447.1700000000001</ele>
        <time>2013-07-13T11:58:54Z</time>
      </trkpt>
      <trkpt lat="46.425513960421085" lon="10.562197118997574">
        <ele>2447.6500000000001</ele>
        <time>2013-07-13T11:59:05Z</time>
      </trkpt>
      <trkpt lat="46.425513122230768" lon="10.562074324116111">
        <ele>2448.6199999999999</ele>
        <time>2013-07-13T11:59:14Z</time>
      </trkpt>
      <trkpt lat="46.425512367859483" lon="10.562042724341154">
        <ele>2449.0999999999999</ele>
        <time>2013-07-13T11:59:16Z</time>
      </trkpt>
      <trkpt lat="46.425513541325927" lon="10.561979357153177">
        <ele>2449.5799999999999</ele>
        <time>2013-07-13T11:59:20Z</time>
      </trkpt>
      <trkpt lat="46.42551127821207" lon="10.561916828155518">
        <ele>2450.0599999999999</ele>
        <time>2013-07-13T11:59:24Z</time>
      </trkpt>
      <trkpt lat="46.425525695085526" lon="10.561807863414288">
        <ele>2451.02</ele>
        <time>2013-07-13T11:59:31Z</time>
      </trkpt>
      <trkpt lat="46.425629965960979" lon="10.561822364106774">
        <ele>2452.46</ele>
        <time>2013-07-13T11:59:43Z</time>
      </trkpt>
      <trkpt lat="46.425687717273831" lon="10.56186025030911">
        <ele>2455.3400000000001</ele>
        <time>2013-07-13T11:59:54Z</time>
      </trkpt>
      <trkpt lat="46.425748569890857" lon="10.562037192285061">
        <ele>2457.75</ele>
        <time>2013-07-13T12:00:10Z</time>
      </trkpt>
      <trkpt lat="46.425788216292858" lon="10.562120927497745">
        <ele>2458.23</ele>
        <time>2013-07-13T12:00:18Z</time>
      </trkpt>
      <trkpt lat="46.425852254033089" lon="10.562278004363179">
        <ele>2460.6300000000001</ele>
        <time>2013-07-13T12:00:32Z</time>
      </trkpt>
      <trkpt lat="46.42585669644177" lon="10.562289319932461">
        <ele>2460.6300000000001</ele>
        <time>2013-07-13T12:00:33Z</time>
      </trkpt>
      <trkpt lat="46.425896929576993" lon="10.562435332685709">
        <ele>2462.5500000000002</ele>
        <time>2013-07-13T12:00:47Z</time>
      </trkpt>
      <trkpt lat="46.425962392240763" lon="10.562583189457655">
        <ele>2464.96</ele>
        <time>2013-07-13T12:01:03Z</time>
      </trkpt>
      <trkpt lat="46.426017880439758" lon="10.562724592164159">
        <ele>2466.8800000000001</ele>
        <time>2013-07-13T12:01:17Z</time>
      </trkpt>
      <trkpt lat="46.426048139110208" lon="10.562850655987859">
        <ele>2468.8000000000002</ele>
        <time>2013-07-13T12:01:31Z</time>
      </trkpt>
      <trkpt lat="46.426051408052444" lon="10.562878819182515">
        <ele>2469.2800000000002</ele>
        <time>2013-07-13T12:01:51Z</time>
      </trkpt>
      <trkpt lat="46.426057862117887" lon="10.562882507219911">
        <ele>2469.7600000000002</ele>
        <time>2013-07-13T12:02:11Z</time>
      </trkpt>
      <trkpt lat="46.42608099617064" lon="10.562917375937104">
        <ele>2470.73</ele>
        <time>2013-07-13T12:02:25Z</time>
      </trkpt>
      <trkpt lat="46.426157271489501" lon="10.563040673732758">
        <ele>2472.6500000000001</ele>
        <time>2013-07-13T12:02:40Z</time>
      </trkpt>
      <trkpt lat="46.42625936307013" lon="10.563094904646277">
        <ele>2474.0900000000001</ele>
        <time>2013-07-13T12:02:55Z</time>
      </trkpt>
      <trkpt lat="46.426339661702514" lon="10.563154416158795">
        <ele>2476.0100000000002</ele>
        <time>2013-07-13T12:03:09Z</time>
      </trkpt>
      <trkpt lat="46.426428509876132" lon="10.563246281817555">
        <ele>2477.9400000000001</ele>
        <time>2013-07-13T12:03:24Z</time>
      </trkpt>
      <trkpt lat="46.426518196240067" lon="10.563340075314045">
        <ele>2479.8600000000001</ele>
        <time>2013-07-13T12:03:40Z</time>
      </trkpt>
      <trkpt lat="46.426596147939563" lon="10.563461780548096">
        <ele>2481.3000000000002</ele>
        <time>2013-07-13T12:03:58Z</time>
      </trkpt>
      <trkpt lat="46.426658006384969" lon="10.563571080565453">
        <ele>2482.7399999999998</ele>
        <time>2013-07-13T12:04:14Z</time>
      </trkpt>
      <trkpt lat="46.426712404936552" lon="10.563703598454595">
        <ele>2484.6599999999999</ele>
        <time>2013-07-13T12:04:29Z</time>
      </trkpt>
      <trkpt lat="46.42678021453321" lon="10.56382111273706">
        <ele>2487.0700000000002</ele>
        <time>2013-07-13T12:04:44Z</time>
      </trkpt>
      <trkpt lat="46.426864620298147" lon="10.56394281797111">
        <ele>2488.0300000000002</ele>
        <time>2013-07-13T12:04:59Z</time>
      </trkpt>
      <trkpt lat="46.426913067698479" lon="10.564075252041221">
        <ele>2489.4699999999998</ele>
        <time>2013-07-13T12:05:12Z</time>
      </trkpt>
      <trkpt lat="46.426959251984954" lon="10.564219504594803">
        <ele>2490.9099999999999</ele>
        <time>2013-07-13T12:05:27Z</time>
      </trkpt>
      <trkpt lat="46.427028151229024" lon="10.564348585903645">
        <ele>2493.3200000000002</ele>
        <time>2013-07-13T12:05:44Z</time>
      </trkpt>
      <trkpt lat="46.427107695490122" lon="10.564426453784108">
        <ele>2494.7600000000002</ele>
        <time>2013-07-13T12:05:58Z</time>
      </trkpt>
      <trkpt lat="46.427197214215994" lon="10.564521672204137">
        <ele>2497.1599999999999</ele>
        <time>2013-07-13T12:06:14Z</time>
      </trkpt>
      <trkpt lat="46.427206182852387" lon="10.56453206576407">
        <ele>2496.6799999999998</ele>
        <time>2013-07-13T12:06:16Z</time>
      </trkpt>
      <trkpt lat="46.427219426259398" lon="10.564567102119327">
        <ele>2497.6399999999999</ele>
        <time>2013-07-13T12:06:19Z</time>
      </trkpt>
      <trkpt lat="46.427279189229012" lon="10.564700877293944">
        <ele>2498.1199999999999</ele>
        <time>2013-07-13T12:06:33Z</time>
      </trkpt>
      <trkpt lat="46.427343813702464" lon="10.564829120412469">
        <ele>2501.4899999999998</ele>
        <time>2013-07-13T12:06:50Z</time>
      </trkpt>
      <trkpt lat="46.427424866706133" lon="10.564914783462882">
        <ele>2502.9299999999998</ele>
        <time>2013-07-13T12:07:05Z</time>
      </trkpt>
      <trkpt lat="46.427499800920486" lon="10.564997009932995">
        <ele>2504.3699999999999</ele>
        <time>2013-07-13T12:07:17Z</time>
      </trkpt>
      <trkpt lat="46.427579177543521" lon="10.565097257494926">
        <ele>2506.29</ele>
        <time>2013-07-13T12:07:32Z</time>
      </trkpt>
      <trkpt lat="46.427653022110462" lon="10.565176047384739">
        <ele>2507.7399999999998</ele>
        <time>2013-07-13T12:07:45Z</time>
      </trkpt>
      <trkpt lat="46.427689902484417" lon="10.565218040719628">
        <ele>2508.6999999999998</ele>
        <time>2013-07-13T12:07:51Z</time>
      </trkpt>
      <trkpt lat="46.427768943831325" lon="10.565328849479556">
        <ele>2510.6199999999999</ele>
        <time>2013-07-13T12:08:06Z</time>
      </trkpt>
      <trkpt lat="46.427804064005613" lon="10.565367573872209">
        <ele>2512.0599999999999</ele>
        <time>2013-07-13T12:08:12Z</time>
      </trkpt>
      <trkpt lat="46.427811607718468" lon="10.565369166433811">
        <ele>2512.54</ele>
        <time>2013-07-13T12:08:13Z</time>
      </trkpt>
      <trkpt lat="46.427879082038999" lon="10.565477376803756">
        <ele>2514.4699999999998</ele>
        <time>2013-07-13T12:08:28Z</time>
      </trkpt>
      <trkpt lat="46.427961979061365" lon="10.56557091884315">
        <ele>2516.8699999999999</ele>
        <time>2013-07-13T12:08:42Z</time>
      </trkpt>
      <trkpt lat="46.428046887740493" lon="10.56565348058939">
        <ele>2518.79</ele>
        <time>2013-07-13T12:08:57Z</time>
      </trkpt>
      <trkpt lat="46.428108578547835" lon="10.565763451159">
        <ele>2520.71</ele>
        <time>2013-07-13T12:09:12Z</time>
      </trkpt>
      <trkpt lat="46.428184183314443" lon="10.565832434222102">
        <ele>2523.1199999999999</ele>
        <time>2013-07-13T12:09:27Z</time>
      </trkpt>
      <trkpt lat="46.42824268899858" lon="10.565845593810081">
        <ele>2525.04</ele>
        <time>2013-07-13T12:09:39Z</time>
      </trkpt>
      <trkpt lat="46.428312342613935" lon="10.565813323482871">
        <ele>2527.4400000000001</ele>
        <time>2013-07-13T12:09:53Z</time>
      </trkpt>
      <trkpt lat="46.42836632207036" lon="10.565766803920269">
        <ele>2529.3699999999999</ele>
        <time>2013-07-13T12:10:06Z</time>
      </trkpt>
      <trkpt lat="46.428413596004248" lon="10.565731599926949">
        <ele>2531.77</ele>
        <time>2013-07-13T12:10:16Z</time>
      </trkpt>
      <trkpt lat="46.428487775847316" lon="10.56569111533463">
        <ele>2533.21</ele>
        <time>2013-07-13T12:10:30Z</time>
      </trkpt>
      <trkpt lat="46.42855441197753" lon="10.565631184726954">
        <ele>2535.1300000000001</ele>
        <time>2013-07-13T12:10:43Z</time>
      </trkpt>
      <trkpt lat="46.428598081693053" lon="10.565572511404753">
        <ele>2537.0599999999999</ele>
        <time>2013-07-13T12:10:53Z</time>
      </trkpt>
      <trkpt lat="46.428669160231948" lon="10.565593801438808">
        <ele>2538.98</ele>
        <time>2013-07-13T12:11:05Z</time>
      </trkpt>
      <trkpt lat="46.428762953728437" lon="10.565636465325952">
        <ele>2541.8600000000001</ele>
        <time>2013-07-13T12:11:22Z</time>
      </trkpt>
      <trkpt lat="46.428813328966498" lon="10.565681727603078">
        <ele>2544.27</ele>
        <time>2013-07-13T12:11:36Z</time>
      </trkpt>
      <trkpt lat="46.428863033652306" lon="10.565721457824111">
        <ele>2545.23</ele>
        <time>2013-07-13T12:11:48Z</time>
      </trkpt>
      <trkpt lat="46.428938470780849" lon="10.565800750628114">
        <ele>2547.1500000000001</ele>
        <time>2013-07-13T12:12:02Z</time>
      </trkpt>
      <trkpt lat="46.429001586511731" lon="10.565876606851816">
        <ele>2548.1100000000001</ele>
        <time>2013-07-13T12:12:16Z</time>
      </trkpt>
      <trkpt lat="46.42903964035213" lon="10.565880630165339">
        <ele>2548.1100000000001</ele>
        <time>2013-07-13T12:12:27Z</time>
      </trkpt>
      <trkpt lat="46.42903134226799" lon="10.565922874957323">
        <ele>2548.1100000000001</ele>
        <time>2013-07-13T12:12:43Z</time>
      </trkpt>
      <trkpt lat="46.42901910468936" lon="10.565937040373683">
        <ele>2548.1100000000001</ele>
        <time>2013-07-13T12:12:56Z</time>
      </trkpt>
      <trkpt lat="46.429053470492363" lon="10.565881384536624">
        <ele>2549.0700000000002</ele>
        <time>2013-07-13T12:13:10Z</time>
      </trkpt>
      <trkpt lat="46.429066210985184" lon="10.565801924094558">
        <ele>2551</ele>
        <time>2013-07-13T12:13:23Z</time>
      </trkpt>
      <trkpt lat="46.429064115509391" lon="10.565806031227112">
        <ele>2551</ele>
        <time>2013-07-13T12:13:29Z</time>
      </trkpt>
      <trkpt lat="46.429076353088021" lon="10.56581374257803">
        <ele>2550.5100000000002</ele>
        <time>2013-07-13T12:13:31Z</time>
      </trkpt>
      <trkpt lat="46.429090686142445" lon="10.565810557454824">
        <ele>2549.5500000000002</ele>
        <time>2013-07-13T12:13:48Z</time>
      </trkpt>
      <trkpt lat="46.429092781618237" lon="10.565821537747979">
        <ele>2549.5500000000002</ele>
        <time>2013-07-13T12:14:15Z</time>
      </trkpt>
      <trkpt lat="46.429091859608889" lon="10.565815418958664">
        <ele>2551</ele>
        <time>2013-07-13T12:14:34Z</time>
      </trkpt>
      <trkpt lat="46.429087920114398" lon="10.56582304649055">
        <ele>2549.5500000000002</ele>
        <time>2013-07-13T12:15:00Z</time>
      </trkpt>
      <trkpt lat="46.429095966741443" lon="10.565826902166009">
        <ele>2550.5100000000002</ele>
        <time>2013-07-13T12:15:33Z</time>
      </trkpt>
      <trkpt lat="46.4290860760957" lon="10.565835786983371">
        <ele>2550.5100000000002</ele>
        <time>2013-07-13T12:15:55Z</time>
      </trkpt>
      <trkpt lat="46.429082890972495" lon="10.56582354940474">
        <ele>2549.5500000000002</ele>
        <time>2013-07-13T12:16:15Z</time>
      </trkpt>
      <trkpt lat="46.429093200713396" lon="10.565829332917929">
        <ele>2550.0300000000002</ele>
        <time>2013-07-13T12:16:43Z</time>
      </trkpt>
      <trkpt lat="46.42909144051373" lon="10.565809132531285">
        <ele>2550.5100000000002</ele>
        <time>2013-07-13T12:16:51Z</time>
      </trkpt>
      <trkpt lat="46.429072329774499" lon="10.565801672637463">
        <ele>2551</ele>
        <time>2013-07-13T12:17:00Z</time>
      </trkpt>
      <trkpt lat="46.429066210985184" lon="10.565755236893892">
        <ele>2551.48</ele>
        <time>2013-07-13T12:17:13Z</time>
      </trkpt>
      <trkpt lat="46.429059254005551" lon="10.565736796706915">
        <ele>2551.48</ele>
        <time>2013-07-13T12:17:18Z</time>
      </trkpt>
      <trkpt lat="46.429054224863648" lon="10.56567108258605">
        <ele>2551.96</ele>
        <time>2013-07-13T12:17:30Z</time>
      </trkpt>
      <trkpt lat="46.42908071167767" lon="10.565655156970024">
        <ele>2551.96</ele>
        <time>2013-07-13T12:17:44Z</time>
      </trkpt>
      <trkpt lat="46.429071491584182" lon="10.565690696239471">
        <ele>2551.96</ele>
        <time>2013-07-13T12:18:02Z</time>
      </trkpt>
      <trkpt lat="46.42909336835146" lon="10.565692372620106">
        <ele>2551.96</ele>
        <time>2013-07-13T12:18:32Z</time>
      </trkpt>
      <trkpt lat="46.429079873487353" lon="10.565685499459505">
        <ele>2551.48</ele>
        <time>2013-07-13T12:18:52Z</time>
      </trkpt>
      <trkpt lat="46.429092194885015" lon="10.56565348058939">
        <ele>2552.9200000000001</ele>
        <time>2013-07-13T12:19:11Z</time>
      </trkpt>
      <trkpt lat="46.429085824638605" lon="10.565652474761009">
        <ele>2553.4000000000001</ele>
        <time>2013-07-13T12:19:26Z</time>
      </trkpt>
      <trkpt lat="46.429076939821243" lon="10.565650211647153">
        <ele>2553.4000000000001</ele>
        <time>2013-07-13T12:19:45Z</time>
      </trkpt>
      <trkpt lat="46.429080041125417" lon="10.565629759803414">
        <ele>2553.4000000000001</ele>
        <time>2013-07-13T12:20:00Z</time>
      </trkpt>
      <trkpt lat="46.429093619808555" lon="10.565629508346319">
        <ele>2553.4000000000001</ele>
        <time>2013-07-13T12:20:12Z</time>
      </trkpt>
      <trkpt lat="46.429109713062644" lon="10.565643003210425">
        <ele>2552.4400000000001</ele>
        <time>2013-07-13T12:20:27Z</time>
      </trkpt>
      <trkpt lat="46.429139217361808" lon="10.56561928242445">
        <ele>2553.4000000000001</ele>
        <time>2013-07-13T12:20:56Z</time>
      </trkpt>
      <trkpt lat="46.429155813530087" lon="10.56559975259006">
        <ele>2553.8800000000001</ele>
        <time>2013-07-13T12:20:59Z</time>
      </trkpt>
      <trkpt lat="46.429254552349448" lon="10.565587095916271">
        <ele>2555.8000000000002</ele>
        <time>2013-07-13T12:21:14Z</time>
      </trkpt>
      <trkpt lat="46.429323200136423" lon="10.565570080652833">
        <ele>2556.7600000000002</ele>
        <time>2013-07-13T12:21:22Z</time>
      </trkpt>
      <trkpt lat="46.429429482668638" lon="10.565550718456507">
        <ele>2558.21</ele>
        <time>2013-07-13T12:21:36Z</time>
      </trkpt>
      <trkpt lat="46.429461250081658" lon="10.565511994063854">
        <ele>2559.1700000000001</ele>
        <time>2013-07-13T12:21:40Z</time>
      </trkpt>
      <trkpt lat="46.42957666888833" lon="10.565518951043487">
        <ele>2560.6100000000001</ele>
        <time>2013-07-13T12:21:54Z</time>
      </trkpt>
      <trkpt lat="46.429668869823217" lon="10.565508306026459">
        <ele>2562.5300000000002</ele>
        <time>2013-07-13T12:22:09Z</time>
      </trkpt>
      <trkpt lat="46.429759813472629" lon="10.565470419824123">
        <ele>2564.4499999999998</ele>
        <time>2013-07-13T12:22:23Z</time>
      </trkpt>
      <trkpt lat="46.429832568392158" lon="10.565490117296576">
        <ele>2564.9299999999998</ele>
        <time>2013-07-13T12:22:32Z</time>
      </trkpt>
      <trkpt lat="46.429964918643236" lon="10.56553672067821">
        <ele>2565.9000000000001</ele>
        <time>2013-07-13T12:22:49Z</time>
      </trkpt>
      <trkpt lat="46.430093916133046" lon="10.565560609102249">
        <ele>2567.3400000000001</ele>
        <time>2013-07-13T12:23:05Z</time>
      </trkpt>
      <trkpt lat="46.430213944986463" lon="10.56556798517704">
        <ele>2568.3000000000002</ele>
        <time>2013-07-13T12:23:20Z</time>
      </trkpt>
      <trkpt lat="46.430303631350398" lon="10.565540241077542">
        <ele>2569.7399999999998</ele>
        <time>2013-07-13T12:23:33Z</time>
      </trkpt>
      <trkpt lat="46.430414272472262" lon="10.565543426200747">
        <ele>2570.2199999999998</ele>
        <time>2013-07-13T12:23:48Z</time>
      </trkpt>
      <trkpt lat="46.430520806461573" lon="10.565591370686889">
        <ele>2571.1799999999998</ele>
        <time>2013-07-13T12:24:02Z</time>
      </trkpt>
      <trkpt lat="46.430626921355724" lon="10.565585754811764">
        <ele>2572.6300000000001</ele>
        <time>2013-07-13T12:24:17Z</time>
      </trkpt>
      <trkpt lat="46.430758098140359" lon="10.565568823367357">
        <ele>2574.0700000000002</ele>
        <time>2013-07-13T12:24:33Z</time>
      </trkpt>
      <trkpt lat="46.430860860273242" lon="10.565563794225454">
        <ele>2575.5100000000002</ele>
        <time>2013-07-13T12:24:46Z</time>
      </trkpt>
      <trkpt lat="46.430975692346692" lon="10.56557628326118">
        <ele>2576.9499999999998</ele>
        <time>2013-07-13T12:25:01Z</time>
      </trkpt>
      <trkpt lat="46.43108599819243" lon="10.565587850287557">
        <ele>2578.8699999999999</ele>
        <time>2013-07-13T12:25:16Z</time>
      </trkpt>
      <trkpt lat="46.431173253804445" lon="10.565589442849159">
        <ele>2579.3499999999999</ele>
        <time>2013-07-13T12:25:28Z</time>
      </trkpt>
      <trkpt lat="46.431286660954356" lon="10.565652474761009">
        <ele>2580.8000000000002</ele>
        <time>2013-07-13T12:25:43Z</time>
      </trkpt>
      <trkpt lat="46.431406941264868" lon="10.565716428682208">
        <ele>2581.7600000000002</ele>
        <time>2013-07-13T12:25:59Z</time>
      </trkpt>
      <trkpt lat="46.431482378393412" lon="10.565746184438467">
        <ele>2582.2399999999998</ele>
        <time>2013-07-13T12:26:09Z</time>
      </trkpt>
      <trkpt lat="46.43149889074266" lon="10.565743502229452">
        <ele>2582.7199999999998</ele>
        <time>2013-07-13T12:26:11Z</time>
      </trkpt>
      <trkpt lat="46.431572148576379" lon="10.565779209136963">
        <ele>2583.1999999999998</ele>
        <time>2013-07-13T12:26:19Z</time>
      </trkpt>
      <trkpt lat="46.431599389761686" lon="10.565779125317931">
        <ele>2583.1999999999998</ele>
        <time>2013-07-13T12:26:23Z</time>
      </trkpt>
      <trkpt lat="46.431656973436475" lon="10.565794631838799">
        <ele>2583.1999999999998</ele>
        <time>2013-07-13T12:26:30Z</time>
      </trkpt>
      <trkpt lat="46.431779768317938" lon="10.565808797255158">
        <ele>2584.6399999999999</ele>
        <time>2013-07-13T12:26:45Z</time>
      </trkpt>
      <trkpt lat="46.431869622319937" lon="10.565802678465843">
        <ele>2585.5999999999999</ele>
        <time>2013-07-13T12:26:59Z</time>
      </trkpt>
      <trkpt lat="46.431957464665174" lon="10.565808294340968">
        <ele>2587.04</ele>
        <time>2013-07-13T12:27:14Z</time>
      </trkpt>
      <trkpt lat="46.432071374729276" lon="10.565823717042804">
        <ele>2588.4899999999998</ele>
        <time>2013-07-13T12:27:29Z</time>
      </trkpt>
      <trkpt lat="46.432171789929271" lon="10.565828997641802">
        <ele>2589.9299999999998</ele>
        <time>2013-07-13T12:27:43Z</time>
      </trkpt>
      <trkpt lat="46.432260051369667" lon="10.565886832773685">
        <ele>2591.3699999999999</ele>
        <time>2013-07-13T12:27:55Z</time>
      </trkpt>
      <trkpt lat="46.432398352771997" lon="10.56590611115098">
        <ele>2591.8499999999999</ele>
        <time>2013-07-13T12:28:11Z</time>
      </trkpt>
      <trkpt lat="46.432555681094527" lon="10.565917007625103">
        <ele>2591.3699999999999</ele>
        <time>2013-07-13T12:28:27Z</time>
      </trkpt>
      <trkpt lat="46.432712590321898" lon="10.565969394519925">
        <ele>2591.3699999999999</ele>
        <time>2013-07-13T12:28:42Z</time>
      </trkpt>
      <trkpt lat="46.432862374931574" lon="10.565997725352645">
        <ele>2590.8899999999999</ele>
        <time>2013-07-13T12:28:56Z</time>
      </trkpt>
      <trkpt lat="46.432976955547929" lon="10.566046424210072">
        <ele>2590.4099999999999</ele>
        <time>2013-07-13T12:29:08Z</time>
      </trkpt>
      <trkpt lat="46.433115256950259" lon="10.566091602668166">
        <ele>2590.4099999999999</ele>
        <time>2013-07-13T12:29:22Z</time>
      </trkpt>
      <trkpt lat="46.433234447613358" lon="10.566163687035441">
        <ele>2589.9299999999998</ele>
        <time>2013-07-13T12:29:35Z</time>
      </trkpt>
      <trkpt lat="46.433389680460095" lon="10.566147426143289">
        <ele>2590.4099999999999</ele>
        <time>2013-07-13T12:29:51Z</time>
      </trkpt>
      <trkpt lat="46.433399990200996" lon="10.566141474992037">
        <ele>2590.4099999999999</ele>
        <time>2013-07-13T12:29:52Z</time>
      </trkpt>
      <trkpt lat="46.433567795902491" lon="10.566163184121251">
        <ele>2591.8499999999999</ele>
        <time>2013-07-13T12:30:08Z</time>
      </trkpt>
      <trkpt lat="46.433710874989629" lon="10.566192017868161">
        <ele>2592.3299999999999</ele>
        <time>2013-07-13T12:30:23Z</time>
      </trkpt>
      <trkpt lat="46.433750269934535" lon="10.56623543612659">
        <ele>2592.8099999999999</ele>
        <time>2013-07-13T12:30:36Z</time>
      </trkpt>
      <trkpt lat="46.433735601603985" lon="10.566238705068827">
        <ele>2592.8099999999999</ele>
        <time>2013-07-13T12:30:51Z</time>
      </trkpt>
      <trkpt lat="46.433728560805321" lon="10.566247589886189">
        <ele>2592.3299999999999</ele>
        <time>2013-07-13T12:31:10Z</time>
      </trkpt>
      <trkpt lat="46.43372755497694" lon="10.566249014809728">
        <ele>2592.8099999999999</ele>
        <time>2013-07-13T12:31:28Z</time>
      </trkpt>
      <trkpt lat="46.43373535014689" lon="10.566242896020412">
        <ele>2593.29</ele>
        <time>2013-07-13T12:31:45Z</time>
      </trkpt>
      <trkpt lat="46.433830820024014" lon="10.566212050616741">
        <ele>2593.77</ele>
        <time>2013-07-13T12:31:58Z</time>
      </trkpt>
      <trkpt lat="46.433971049264073" lon="10.566213726997375">
        <ele>2593.77</ele>
        <time>2013-07-13T12:32:12Z</time>
      </trkpt>
      <trkpt lat="46.434104824438691" lon="10.566249433904886">
        <ele>2594.7399999999998</ele>
        <time>2013-07-13T12:32:25Z</time>
      </trkpt>
      <trkpt lat="46.434201886877418" lon="10.566241722553968">
        <ele>2595.6999999999998</ele>
        <time>2013-07-13T12:32:34Z</time>
      </trkpt>
      <trkpt lat="46.434352174401283" lon="10.5662677064538">
        <ele>2596.6599999999999</ele>
        <time>2013-07-13T12:32:49Z</time>
      </trkpt>
      <trkpt lat="46.434502210468054" lon="10.566355548799038">
        <ele>2597.6199999999999</ele>
        <time>2013-07-13T12:33:03Z</time>
      </trkpt>
      <trkpt lat="46.434615785256028" lon="10.566489575430751">
        <ele>2598.0999999999999</ele>
        <time>2013-07-13T12:33:17Z</time>
      </trkpt>
      <trkpt lat="46.434752661734819" lon="10.566563839092851">
        <ele>2598.0999999999999</ele>
        <time>2013-07-13T12:33:30Z</time>
      </trkpt>
      <trkpt lat="46.434875540435314" lon="10.56660826317966">
        <ele>2598.0999999999999</ele>
        <time>2013-07-13T12:33:42Z</time>
      </trkpt>
      <trkpt lat="46.435062792152166" lon="10.566701050847769">
        <ele>2598.0999999999999</ele>
        <time>2013-07-13T12:33:58Z</time>
      </trkpt>
      <trkpt lat="46.43524182960391" lon="10.566775063052773">
        <ele>2597.1399999999999</ele>
        <time>2013-07-13T12:34:13Z</time>
      </trkpt>
      <trkpt lat="46.43540745601058" lon="10.56689509190619">
        <ele>2597.1399999999999</ele>
        <time>2013-07-13T12:34:27Z</time>
      </trkpt>
      <trkpt lat="46.435440061613917" lon="10.566920237615705">
        <ele>2597.1399999999999</ele>
        <time>2013-07-13T12:34:30Z</time>
      </trkpt>
      <trkpt lat="46.435573836788535" lon="10.566962566226721">
        <ele>2597.1399999999999</ele>
        <time>2013-07-13T12:34:43Z</time>
      </trkpt>
      <trkpt lat="46.435695374384522" lon="10.566986622288823">
        <ele>2598.0999999999999</ele>
        <time>2013-07-13T12:34:55Z</time>
      </trkpt>
      <trkpt lat="46.435747090727091" lon="10.567017216235399">
        <ele>2598.5799999999999</ele>
        <time>2013-07-13T12:35:00Z</time>
      </trkpt>
      <trkpt lat="46.43588388338685" lon="10.566978910937905">
        <ele>2598.5799999999999</ele>
        <time>2013-07-13T12:35:15Z</time>
      </trkpt>
      <trkpt lat="46.435969211161137" lon="10.566983018070459">
        <ele>2598.5799999999999</ele>
        <time>2013-07-13T12:35:24Z</time>
      </trkpt>
      <trkpt lat="46.435999302193522" lon="10.566970780491829">
        <ele>2598.5799999999999</ele>
        <time>2013-07-13T12:35:27Z</time>
      </trkpt>
      <trkpt lat="46.436146320775151" lon="10.5669722892344">
        <ele>2600.5</ele>
        <time>2013-07-13T12:35:43Z</time>
      </trkpt>
      <trkpt lat="46.436234833672643" lon="10.566965667530894">
        <ele>2601.46</ele>
        <time>2013-07-13T12:35:54Z</time>
      </trkpt>
      <trkpt lat="46.436241623014212" lon="10.566966840997338">
        <ele>2601.9499999999998</ele>
        <time>2013-07-13T12:35:55Z</time>
      </trkpt>
      <trkpt lat="46.436279341578484" lon="10.566965080797672">
        <ele>2601.9499999999998</ele>
        <time>2013-07-13T12:35:59Z</time>
      </trkpt>
      <trkpt lat="46.436369195580482" lon="10.566929876804352">
        <ele>2603.8699999999999</ele>
        <time>2013-07-13T12:36:10Z</time>
      </trkpt>
      <trkpt lat="46.436424432322383" lon="10.566874807700515">
        <ele>2603.8699999999999</ele>
        <time>2013-07-13T12:36:17Z</time>
      </trkpt>
      <trkpt lat="46.436490565538406" lon="10.566836586222053">
        <ele>2604.3499999999999</ele>
        <time>2013-07-13T12:36:23Z</time>
      </trkpt>
      <trkpt lat="46.436552507802844" lon="10.566787384450436">
        <ele>2605.3099999999999</ele>
        <time>2013-07-13T12:36:29Z</time>
      </trkpt>
      <trkpt lat="46.43675702624023" lon="10.566688226535916">
        <ele>2606.75</ele>
        <time>2013-07-13T12:36:47Z</time>
      </trkpt>
      <trkpt lat="46.436905385926366" lon="10.566634749993682">
        <ele>2608.1900000000001</ele>
        <time>2013-07-13T12:37:01Z</time>
      </trkpt>
      <trkpt lat="46.437039412558079" lon="10.566585548222065">
        <ele>2609.6399999999999</ele>
        <time>2013-07-13T12:37:15Z</time>
      </trkpt>
      <trkpt lat="46.437064642086625" lon="10.566561911255121">
        <ele>2610.1199999999999</ele>
        <time>2013-07-13T12:37:18Z</time>
      </trkpt>
      <trkpt lat="46.437120046466589" lon="10.566565096378326">
        <ele>2611.0799999999999</ele>
        <time>2013-07-13T12:37:23Z</time>
      </trkpt>
      <trkpt lat="46.43722758628428" lon="10.566473063081503">
        <ele>2613</ele>
        <time>2013-07-13T12:37:37Z</time>
      </trkpt>
      <trkpt lat="46.437313500791788" lon="10.566469961777329">
        <ele>2615.4000000000001</ele>
        <time>2013-07-13T12:37:48Z</time>
      </trkpt>
      <trkpt lat="46.43740201368928" lon="10.566414892673492">
        <ele>2616.8499999999999</ele>
        <time>2013-07-13T12:38:00Z</time>
      </trkpt>
      <trkpt lat="46.437489269301295" lon="10.566379772499204">
        <ele>2618.29</ele>
        <time>2013-07-13T12:38:11Z</time>
      </trkpt>
      <trkpt lat="46.437580464407802" lon="10.566369630396366">
        <ele>2620.6900000000001</ele>
        <time>2013-07-13T12:38:22Z</time>
      </trkpt>
      <trkpt lat="46.437656823545694" lon="10.566407348960638">
        <ele>2621.1700000000001</ele>
        <time>2013-07-13T12:38:30Z</time>
      </trkpt>
      <trkpt lat="46.437798645347357" lon="10.56651153601706">
        <ele>2621.1700000000001</ele>
        <time>2013-07-13T12:38:45Z</time>
      </trkpt>
      <trkpt lat="46.437862934544683" lon="10.566647071391344">
        <ele>2621.6500000000001</ele>
        <time>2013-07-13T12:38:56Z</time>
      </trkpt>
      <trkpt lat="46.437968127429485" lon="10.56678269058466">
        <ele>2621.1700000000001</ele>
        <time>2013-07-13T12:39:10Z</time>
      </trkpt>
      <trkpt lat="46.437972402200103" lon="10.566791072487831">
        <ele>2621.1700000000001</ele>
        <time>2013-07-13T12:39:11Z</time>
      </trkpt>
      <trkpt lat="46.4380157366395" lon="10.566846812143922">
        <ele>2621.6500000000001</ele>
        <time>2013-07-13T12:39:16Z</time>
      </trkpt>
      <trkpt lat="46.438058568164706" lon="10.566943790763617">
        <ele>2621.6500000000001</ele>
        <time>2013-07-13T12:39:23Z</time>
      </trkpt>
      <trkpt lat="46.438067872077227" lon="10.566969439387321">
        <ele>2621.6500000000001</ele>
        <time>2013-07-13T12:39:25Z</time>
      </trkpt>
      <trkpt lat="46.438091928139329" lon="10.5670499894768">
        <ele>2622.1300000000001</ele>
        <time>2013-07-13T12:39:30Z</time>
      </trkpt>
      <trkpt lat="46.438126042485237" lon="10.567158786579967">
        <ele>2621.6500000000001</ele>
        <time>2013-07-13T12:39:37Z</time>
      </trkpt>
      <trkpt lat="46.438162503764033" lon="10.567188458517194">
        <ele>2622.1300000000001</ele>
        <time>2013-07-13T12:39:41Z</time>
      </trkpt>
      <trkpt lat="46.438253112137318" lon="10.567307397723198">
        <ele>2622.6100000000001</ele>
        <time>2013-07-13T12:39:52Z</time>
      </trkpt>
      <trkpt lat="46.438273480162024" lon="10.567357018589973">
        <ele>2624.0599999999999</ele>
        <time>2013-07-13T12:39:56Z</time>
      </trkpt>
      <trkpt lat="46.438283203169703" lon="10.567383673042059">
        <ele>2624.0599999999999</ele>
        <time>2013-07-13T12:39:58Z</time>
      </trkpt>
      <trkpt lat="46.438334248960018" lon="10.567521639168262">
        <ele>2625.02</ele>
        <time>2013-07-13T12:40:07Z</time>
      </trkpt>
      <trkpt lat="46.438465425744653" lon="10.5677804723382">
        <ele>2624.0599999999999</ele>
        <time>2013-07-13T12:40:24Z</time>
      </trkpt>
      <trkpt lat="46.438594507053494" lon="10.567992785945535">
        <ele>2625.5</ele>
        <time>2013-07-13T12:40:40Z</time>
      </trkpt>
      <trkpt lat="46.438694000244141" lon="10.568229490891099">
        <ele>2625.5</ele>
        <time>2013-07-13T12:40:56Z</time>
      </trkpt>
      <trkpt lat="46.438790559768677" lon="10.568352788686752">
        <ele>2626.46</ele>
        <time>2013-07-13T12:41:09Z</time>
      </trkpt>
      <trkpt lat="46.438889550045133" lon="10.568453958258033">
        <ele>2626.9400000000001</ele>
        <time>2013-07-13T12:41:23Z</time>
      </trkpt>
      <trkpt lat="46.438989797607064" lon="10.568513218313456">
        <ele>2628.3800000000001</ele>
        <time>2013-07-13T12:41:37Z</time>
      </trkpt>
      <trkpt lat="46.439104210585356" lon="10.568592511117458">
        <ele>2629.8200000000002</ele>
        <time>2013-07-13T12:41:52Z</time>
      </trkpt>
      <trkpt lat="46.439175037667155" lon="10.5686214286834">
        <ele>2630.79</ele>
        <time>2013-07-13T12:42:01Z</time>
      </trkpt>
      <trkpt lat="46.439303951337934" lon="10.568676581606269">
        <ele>2631.75</ele>
        <time>2013-07-13T12:42:16Z</time>
      </trkpt>
      <trkpt lat="46.439430601894855" lon="10.568758891895413">
        <ele>2632.71</ele>
        <time>2013-07-13T12:42:32Z</time>
      </trkpt>
      <trkpt lat="46.439436469227076" lon="10.568761993199587">
        <ele>2633.1900000000001</ele>
        <time>2013-07-13T12:42:33Z</time>
      </trkpt>
      <trkpt lat="46.439525233581662" lon="10.5687474925071">
        <ele>2633.6700000000001</ele>
        <time>2013-07-13T12:42:43Z</time>
      </trkpt>
      <trkpt lat="46.439577788114548" lon="10.56874799542129">
        <ele>2634.6300000000001</ele>
        <time>2013-07-13T12:42:49Z</time>
      </trkpt>
      <trkpt lat="46.43961844034493" lon="10.568857127800584">
        <ele>2635.1100000000001</ele>
        <time>2013-07-13T12:42:56Z</time>
      </trkpt>
      <trkpt lat="46.439623637124896" lon="10.568911107257009">
        <ele>2634.6300000000001</ele>
        <time>2013-07-13T12:43:00Z</time>
      </trkpt>
      <trkpt lat="46.439619027078152" lon="10.569043289870024">
        <ele>2635.5900000000001</ele>
        <time>2013-07-13T12:43:11Z</time>
      </trkpt>
      <trkpt lat="46.43962531350553" lon="10.56906851939857">
        <ele>2636.0700000000002</ele>
        <time>2013-07-13T12:43:15Z</time>
      </trkpt>
      <trkpt lat="46.43964827992022" lon="10.569175640121102">
        <ele>2636.5500000000002</ele>
        <time>2013-07-13T12:43:24Z</time>
      </trkpt>
      <trkpt lat="46.439703684300184" lon="10.569198103621602">
        <ele>2637.5100000000002</ele>
        <time>2013-07-13T12:43:33Z</time>
      </trkpt>
      <trkpt lat="46.43976747058332" lon="10.569209922105074">
        <ele>2638.48</ele>
        <time>2013-07-13T12:43:42Z</time>
      </trkpt>
      <trkpt lat="46.439791694283485" lon="10.569216040894389">
        <ele>2638.96</ele>
        <time>2013-07-13T12:43:45Z</time>
      </trkpt>
      <trkpt lat="46.439930833876133" lon="10.569256944581866">
        <ele>2639.9200000000001</ele>
        <time>2013-07-13T12:43:59Z</time>
      </trkpt>
      <trkpt lat="46.440063267946243" lon="10.569330872967839">
        <ele>2641.3600000000001</ele>
        <time>2013-07-13T12:44:12Z</time>
      </trkpt>
      <trkpt lat="46.440091598778963" lon="10.569333890452981">
        <ele>2641.3600000000001</ele>
        <time>2013-07-13T12:44:18Z</time>
      </trkpt>
      <trkpt lat="46.440179022029042" lon="10.569376135244966">
        <ele>2641.8400000000001</ele>
        <time>2013-07-13T12:44:28Z</time>
      </trkpt>
      <trkpt lat="46.440336937084794" lon="10.569413853809237">
        <ele>2642.8000000000002</ele>
        <time>2013-07-13T12:44:42Z</time>
      </trkpt>
      <trkpt lat="46.440457636490464" lon="10.569442855194211">
        <ele>2644.7199999999998</ele>
        <time>2013-07-13T12:44:56Z</time>
      </trkpt>
      <trkpt lat="46.440618317574263" lon="10.569503623992205">
        <ele>2645.6900000000001</ele>
        <time>2013-07-13T12:45:10Z</time>
      </trkpt>
      <trkpt lat="46.440742202103138" lon="10.569572020322084">
        <ele>2646.1700000000001</ele>
        <time>2013-07-13T12:45:21Z</time>
      </trkpt>
      <trkpt lat="46.440789056941867" lon="10.569589957594872">
        <ele>2646.1700000000001</ele>
        <time>2013-07-13T12:45:25Z</time>
      </trkpt>
      <trkpt lat="46.440950240939856" lon="10.569625496864319">
        <ele>2647.1300000000001</ele>
        <time>2013-07-13T12:45:39Z</time>
      </trkpt>
      <trkpt lat="46.440993826836348" lon="10.569653157144785">
        <ele>2647.6100000000001</ele>
        <time>2013-07-13T12:45:43Z</time>
      </trkpt>
      <trkpt lat="46.441166494041681" lon="10.569700011983514">
        <ele>2649.0500000000002</ele>
        <time>2013-07-13T12:45:57Z</time>
      </trkpt>
      <trkpt lat="46.441370509564877" lon="10.569746196269989">
        <ele>2649.5300000000002</ele>
        <time>2013-07-13T12:46:13Z</time>
      </trkpt>
      <trkpt lat="46.44146891310811" lon="10.569773269817233">
        <ele>2650.0100000000002</ele>
        <time>2013-07-13T12:46:22Z</time>
      </trkpt>
      <trkpt lat="46.441618278622627" lon="10.569828087463975">
        <ele>2650.9699999999998</ele>
        <time>2013-07-13T12:46:34Z</time>
      </trkpt>
      <trkpt lat="46.441780300810933" lon="10.569954570382833">
        <ele>2651.9299999999998</ele>
        <time>2013-07-13T12:46:49Z</time>
      </trkpt>
      <trkpt lat="46.441934444010258" lon="10.569962952286005">
        <ele>2651.9299999999998</ele>
        <time>2013-07-13T12:47:02Z</time>
      </trkpt>
      <trkpt lat="46.442057909443974" lon="10.570000167936087">
        <ele>2652.4200000000001</ele>
        <time>2013-07-13T12:47:12Z</time>
      </trkpt>
      <trkpt lat="46.442182464525104" lon="10.570026654750109">
        <ele>2652.9000000000001</ele>
        <time>2013-07-13T12:47:22Z</time>
      </trkpt>
      <trkpt lat="46.442387150600553" lon="10.570086417719722">
        <ele>2654.8200000000002</ele>
        <time>2013-07-13T12:47:39Z</time>
      </trkpt>
      <trkpt lat="46.442553950473666" lon="10.570116508752108">
        <ele>2655.3000000000002</ele>
        <time>2013-07-13T12:47:53Z</time>
      </trkpt>
      <trkpt lat="46.442641289904714" lon="10.570127153769135">
        <ele>2656.2600000000002</ele>
        <time>2013-07-13T12:48:00Z</time>
      </trkpt>
      <trkpt lat="46.442733909934759" lon="10.570148359984159">
        <ele>2657.2199999999998</ele>
        <time>2013-07-13T12:48:08Z</time>
      </trkpt>
      <trkpt lat="46.442832732573152" lon="10.570239471271634">
        <ele>2658.6599999999999</ele>
        <time>2013-07-13T12:48:17Z</time>
      </trkpt>
      <trkpt lat="46.442918730899692" lon="10.570288253948092">
        <ele>2658.6599999999999</ele>
        <time>2013-07-13T12:48:26Z</time>
      </trkpt>
      <trkpt lat="46.443102043122053" lon="10.570366121828556">
        <ele>2658.1799999999998</ele>
        <time>2013-07-13T12:48:40Z</time>
      </trkpt>
      <trkpt lat="46.443334305658937" lon="10.570553625002503">
        <ele>2656.7399999999998</ele>
        <time>2013-07-13T12:48:59Z</time>
      </trkpt>
      <trkpt lat="46.443499010056257" lon="10.570665774866939">
        <ele>2657.2199999999998</ele>
        <time>2013-07-13T12:49:13Z</time>
      </trkpt>
      <trkpt lat="46.443595737218857" lon="10.570702655240893">
        <ele>2656.2600000000002</ele>
        <time>2013-07-13T12:49:20Z</time>
      </trkpt>
      <trkpt lat="46.443613339215517" lon="10.570741631090641">
        <ele>2656.2600000000002</ele>
        <time>2013-07-13T12:49:30Z</time>
      </trkpt>
      <trkpt lat="46.443682573735714" lon="10.57075671851635">
        <ele>2656.2600000000002</ele>
        <time>2013-07-13T12:49:35Z</time>
      </trkpt>
      <trkpt lat="46.443867394700646" lon="10.570902228355408">
        <ele>2657.2199999999998</ele>
        <time>2013-07-13T12:49:50Z</time>
      </trkpt>
      <trkpt lat="46.444006366655231" lon="10.570990070700645">
        <ele>2657.2199999999998</ele>
        <time>2013-07-13T12:50:02Z</time>
      </trkpt>
      <trkpt lat="46.444200742989779" lon="10.571145638823509">
        <ele>2657.6999999999998</ele>
        <time>2013-07-13T12:50:18Z</time>
      </trkpt>
      <trkpt lat="46.444342732429504" lon="10.571317551657557">
        <ele>2656.2600000000002</ele>
        <time>2013-07-13T12:50:31Z</time>
      </trkpt>
      <trkpt lat="46.44453844986856" lon="10.571436239406466">
        <ele>2657.2199999999998</ele>
        <time>2013-07-13T12:50:47Z</time>
      </trkpt>
      <trkpt lat="46.44477884285152" lon="10.571584431454539">
        <ele>2656.2600000000002</ele>
        <time>2013-07-13T12:51:04Z</time>
      </trkpt>
      <trkpt lat="46.444987133145332" lon="10.571738323196769">
        <ele>2656.7399999999998</ele>
        <time>2013-07-13T12:51:21Z</time>
      </trkpt>
      <trkpt lat="46.4451287034899" lon="10.571821136400104">
        <ele>2656.7399999999998</ele>
        <time>2013-07-13T12:51:33Z</time>
      </trkpt>
      <trkpt lat="46.445137839764357" lon="10.571824908256531">
        <ele>2656.7399999999998</ele>
        <time>2013-07-13T12:51:34Z</time>
      </trkpt>
      <trkpt lat="46.445310087874532" lon="10.571818873286247">
        <ele>2659.1399999999999</ele>
        <time>2013-07-13T12:51:50Z</time>
      </trkpt>
      <trkpt lat="46.445443024858832" lon="10.571833625435829">
        <ele>2662.0300000000002</ele>
        <time>2013-07-13T12:52:04Z</time>
      </trkpt>
      <trkpt lat="46.44555970095098" lon="10.571821136400104">
        <ele>2664.4299999999998</ele>
        <time>2013-07-13T12:52:17Z</time>
      </trkpt>
      <trkpt lat="46.445679729804397" lon="10.571793057024479">
        <ele>2666.8299999999999</ele>
        <time>2013-07-13T12:52:32Z</time>
      </trkpt>
      <trkpt lat="46.445790035650134" lon="10.571797080338001">
        <ele>2669.2399999999998</ele>
        <time>2013-07-13T12:52:46Z</time>
      </trkpt>
      <trkpt lat="46.445876369252801" lon="10.571766318753362">
        <ele>2671.6399999999999</ele>
        <time>2013-07-13T12:52:59Z</time>
      </trkpt>
      <trkpt lat="46.445910986512899" lon="10.571765061467886">
        <ele>2672.1199999999999</ele>
        <time>2013-07-13T12:53:03Z</time>
      </trkpt>
      <trkpt lat="46.446049204096198" lon="10.571861788630486">
        <ele>2673.0799999999999</ele>
        <time>2013-07-13T12:53:17Z</time>
      </trkpt>
      <trkpt lat="46.446221703663468" lon="10.571936219930649">
        <ele>2674.04</ele>
        <time>2013-07-13T12:53:33Z</time>
      </trkpt>
      <trkpt lat="46.446377523243427" lon="10.572035880759358">
        <ele>2674.52</ele>
        <time>2013-07-13T12:53:47Z</time>
      </trkpt>
      <trkpt lat="46.446396801620722" lon="10.572050549089909">
        <ele>2674.52</ele>
        <time>2013-07-13T12:53:49Z</time>
      </trkpt>
      <trkpt lat="46.446459330618382" lon="10.572104444727302">
        <ele>2675.0100000000002</ele>
        <time>2013-07-13T12:53:55Z</time>
      </trkpt>
      <trkpt lat="46.446555387228727" lon="10.572171164676547">
        <ele>2675.4899999999998</ele>
        <time>2013-07-13T12:54:04Z</time>
      </trkpt>
      <trkpt lat="46.446575252339244" lon="10.5721839889884">
        <ele>2675.9699999999998</ele>
        <time>2013-07-13T12:54:06Z</time>
      </trkpt>
      <trkpt lat="46.446628477424383" lon="10.572207206860185">
        <ele>2675.4899999999998</ele>
        <time>2013-07-13T12:54:11Z</time>
      </trkpt>
      <trkpt lat="46.446753367781639" lon="10.572336791083217">
        <ele>2676.4499999999998</ele>
        <time>2013-07-13T12:54:24Z</time>
      </trkpt>
      <trkpt lat="46.446912623941898" lon="10.572434607893229">
        <ele>2676.4499999999998</ele>
        <time>2013-07-13T12:54:38Z</time>
      </trkpt>
      <trkpt lat="46.447042794898152" lon="10.572605179622769">
        <ele>2677.4099999999999</ele>
        <time>2013-07-13T12:54:53Z</time>
      </trkpt>
      <trkpt lat="46.447208756580949" lon="10.572785725817084">
        <ele>2676.9299999999998</ele>
        <time>2013-07-13T12:55:11Z</time>
      </trkpt>
      <trkpt lat="46.447356194257736" lon="10.572919249534607">
        <ele>2678.3699999999999</ele>
        <time>2013-07-13T12:55:26Z</time>
      </trkpt>
      <trkpt lat="46.447539841756225" lon="10.573112787678838">
        <ele>2677.8899999999999</ele>
        <time>2013-07-13T12:55:42Z</time>
      </trkpt>
      <trkpt lat="46.447573034092784" lon="10.573127204552293">
        <ele>2677.8899999999999</ele>
        <time>2013-07-13T12:55:45Z</time>
      </trkpt>
      <trkpt lat="46.447603041306138" lon="10.573171796277165">
        <ele>2678.8499999999999</ele>
        <time>2013-07-13T12:55:49Z</time>
      </trkpt>
      <trkpt lat="46.447715191170573" lon="10.573264248669147">
        <ele>2679.8099999999999</ele>
        <time>2013-07-13T12:56:02Z</time>
      </trkpt>
      <trkpt lat="46.447822479531169" lon="10.573327532038093">
        <ele>2681.25</ele>
        <time>2013-07-13T12:56:14Z</time>
      </trkpt>
      <trkpt lat="46.44782985560596" lon="10.573336919769645">
        <ele>2681.25</ele>
        <time>2013-07-13T12:56:15Z</time>
      </trkpt>
      <trkpt lat="46.447917530313134" lon="10.573444878682494">
        <ele>2682.2199999999998</ele>
        <time>2013-07-13T12:56:25Z</time>
      </trkpt>
      <trkpt lat="46.448089443147182" lon="10.573615785688162">
        <ele>2682.6999999999998</ele>
        <time>2013-07-13T12:56:42Z</time>
      </trkpt>
      <trkpt lat="46.448272168636322" lon="10.573730953037739">
        <ele>2682.2199999999998</ele>
        <time>2013-07-13T12:56:58Z</time>
      </trkpt>
      <trkpt lat="46.448345175012946" lon="10.5737623013556">
        <ele>2682.6999999999998</ele>
        <time>2013-07-13T12:57:05Z</time>
      </trkpt>
      <trkpt lat="46.448420695960522" lon="10.573841258883476">
        <ele>2683.1799999999998</ele>
        <time>2013-07-13T12:57:13Z</time>
      </trkpt>
      <trkpt lat="46.448496133089066" lon="10.5738814920187">
        <ele>2683.6599999999999</ele>
        <time>2013-07-13T12:57:20Z</time>
      </trkpt>
      <trkpt lat="46.448584645986557" lon="10.573972100391984">
        <ele>2683.1799999999998</ele>
        <time>2013-07-13T12:57:29Z</time>
      </trkpt>
      <trkpt lat="46.448610294610262" lon="10.573982996866107">
        <ele>2683.6599999999999</ele>
        <time>2013-07-13T12:57:32Z</time>
      </trkpt>
      <trkpt lat="46.448643654584885" lon="10.57398266158998">
        <ele>2683.1799999999998</ele>
        <time>2013-07-13T12:57:36Z</time>
      </trkpt>
      <trkpt lat="46.44866444170475" lon="10.573995653539896">
        <ele>2683.1799999999998</ele>
        <time>2013-07-13T12:57:38Z</time>
      </trkpt>
      <trkpt lat="46.448688330128789" lon="10.574019374325871">
        <ele>2683.1799999999998</ele>
        <time>2013-07-13T12:57:41Z</time>
      </trkpt>
      <trkpt lat="46.448862757533789" lon="10.574104953557253">
        <ele>2683.6599999999999</ele>
        <time>2013-07-13T12:57:56Z</time>
      </trkpt>
      <trkpt lat="46.448997454717755" lon="10.574183743447065">
        <ele>2684.6199999999999</ele>
        <time>2013-07-13T12:58:09Z</time>
      </trkpt>
      <trkpt lat="46.449120584875345" lon="10.574252475053072">
        <ele>2685.5799999999999</ele>
        <time>2013-07-13T12:58:21Z</time>
      </trkpt>
      <trkpt lat="46.449157549068332" lon="10.574277453124523">
        <ele>2686.0599999999999</ele>
        <time>2013-07-13T12:58:25Z</time>
      </trkpt>
      <trkpt lat="46.449199039489031" lon="10.574316009879112">
        <ele>2687.02</ele>
        <time>2013-07-13T12:58:29Z</time>
      </trkpt>
      <trkpt lat="46.449267687276006" lon="10.574375353753567">
        <ele>2687.5</ele>
        <time>2013-07-13T12:58:37Z</time>
      </trkpt>
      <trkpt lat="46.449420321732759" lon="10.574516085907817">
        <ele>2687.02</ele>
        <time>2013-07-13T12:58:51Z</time>
      </trkpt>
      <trkpt lat="46.44953515380621" lon="10.574620692059398">
        <ele>2686.0599999999999</ele>
        <time>2013-07-13T12:59:03Z</time>
      </trkpt>
      <trkpt lat="46.449577063322067" lon="10.574661092832685">
        <ele>2687.02</ele>
        <time>2013-07-13T12:59:10Z</time>
      </trkpt>
      <trkpt lat="46.449667755514383" lon="10.574704008176923">
        <ele>2686.54</ele>
        <time>2013-07-13T12:59:19Z</time>
      </trkpt>
      <trkpt lat="46.44969399087131" lon="10.574769135564566">
        <ele>2687.5</ele>
        <time>2013-07-13T12:59:25Z</time>
      </trkpt>
      <trkpt lat="46.449798513203859" lon="10.574888745322824">
        <ele>2686.54</ele>
        <time>2013-07-13T12:59:35Z</time>
      </trkpt>
      <trkpt lat="46.44994611851871" lon="10.575144728645682">
        <ele>2686.0599999999999</ele>
        <time>2013-07-13T12:59:53Z</time>
      </trkpt>
      <trkpt lat="46.45008584484458" lon="10.575298368930817">
        <ele>2686.54</ele>
        <time>2013-07-13T13:00:08Z</time>
      </trkpt>
      <trkpt lat="46.45021484233439" lon="10.57548763230443">
        <ele>2686.54</ele>
        <time>2013-07-13T13:00:23Z</time>
      </trkpt>
      <trkpt lat="46.450292794033885" lon="10.575705729424953">
        <ele>2686.0599999999999</ele>
        <time>2013-07-13T13:00:37Z</time>
      </trkpt>
      <trkpt lat="46.450455151498318" lon="10.575858447700739">
        <ele>2683.1799999999998</ele>
        <time>2013-07-13T13:00:52Z</time>
      </trkpt>
      <trkpt lat="46.450628740713" lon="10.576030947268009">
        <ele>2684.1399999999999</ele>
        <time>2013-07-13T13:01:09Z</time>
      </trkpt>
      <trkpt lat="46.450670901685953" lon="10.576119460165501">
        <ele>2684.1399999999999</ele>
        <time>2013-07-13T13:01:14Z</time>
      </trkpt>
      <trkpt lat="46.450760839506984" lon="10.576271675527096">
        <ele>2683.6599999999999</ele>
        <time>2013-07-13T13:01:26Z</time>
      </trkpt>
      <trkpt lat="46.450769724324346" lon="10.576436799019575">
        <ele>2683.1799999999998</ele>
        <time>2013-07-13T13:01:38Z</time>
      </trkpt>
      <trkpt lat="46.450787577778101" lon="10.576506536453962">
        <ele>2683.6599999999999</ele>
        <time>2013-07-13T13:01:46Z</time>
      </trkpt>
      <trkpt lat="46.450826302170753" lon="10.576716586947441">
        <ele>2684.1399999999999</ele>
        <time>2013-07-13T13:01:59Z</time>
      </trkpt>
      <trkpt lat="46.450841473415494" lon="10.57676637545228">
        <ele>2684.1399999999999</ele>
        <time>2013-07-13T13:02:02Z</time>
      </trkpt>
      <trkpt lat="46.450882628560066" lon="10.576875004917383">
        <ele>2683.6599999999999</ele>
        <time>2013-07-13T13:02:08Z</time>
      </trkpt>
      <trkpt lat="46.450981702655554" lon="10.577019173651934">
        <ele>2684.6199999999999</ele>
        <time>2013-07-13T13:02:21Z</time>
      </trkpt>
      <trkpt lat="46.451062168926001" lon="10.577160157263279">
        <ele>2687.02</ele>
        <time>2013-07-13T13:02:34Z</time>
      </trkpt>
      <trkpt lat="46.451081531122327" lon="10.5772056709975">
        <ele>2687.98</ele>
        <time>2013-07-13T13:02:38Z</time>
      </trkpt>
      <trkpt lat="46.451230393722653" lon="10.577407171949744">
        <ele>2687.02</ele>
        <time>2013-07-13T13:02:55Z</time>
      </trkpt>
      <trkpt lat="46.451268447563052" lon="10.577467856928706">
        <ele>2687.5</ele>
        <time>2013-07-13T13:03:00Z</time>
      </trkpt>
      <trkpt lat="46.451314715668559" lon="10.577529296278954">
        <ele>2687.02</ele>
        <time>2013-07-13T13:03:05Z</time>
      </trkpt>
      <trkpt lat="46.451397864148021" lon="10.577653599902987">
        <ele>2687.02</ele>
        <time>2013-07-13T13:03:15Z</time>
      </trkpt>
      <trkpt lat="46.45145888440311" lon="10.577727360650897">
        <ele>2687.5</ele>
        <time>2013-07-13T13:03:32Z</time>
      </trkpt>
      <trkpt lat="46.451467936858535" lon="10.577731803059578">
        <ele>2687.5</ele>
        <time>2013-07-13T13:03:33Z</time>
      </trkpt>
      <trkpt lat="46.451558545231819" lon="10.577798103913665">
        <ele>2687.02</ele>
        <time>2013-07-13T13:03:41Z</time>
      </trkpt>
      <trkpt lat="46.451741019263864" lon="10.577859291806817">
        <ele>2687.02</ele>
        <time>2013-07-13T13:03:56Z</time>
      </trkpt>
      <trkpt lat="46.451836572960019" lon="10.577857363969088">
        <ele>2687.98</ele>
        <time>2013-07-13T13:04:04Z</time>
      </trkpt>
      <trkpt lat="46.451878733932972" lon="10.577863398939371">
        <ele>2687.98</ele>
        <time>2013-07-13T13:04:08Z</time>
      </trkpt>
      <trkpt lat="46.4520672429353" lon="10.577884772792459">
        <ele>2690.8699999999999</ele>
        <time>2013-07-13T13:04:25Z</time>
      </trkpt>
      <trkpt lat="46.452083503827453" lon="10.577896675094962">
        <ele>2690.8699999999999</ele>
        <time>2013-07-13T13:04:27Z</time>
      </trkpt>
      <trkpt lat="46.452105632051826" lon="10.577892987057567">
        <ele>2690.8699999999999</ele>
        <time>2013-07-13T13:04:29Z</time>
      </trkpt>
      <trkpt lat="46.452154750004411" lon="10.577907152473927">
        <ele>2691.8299999999999</ele>
        <time>2013-07-13T13:04:34Z</time>
      </trkpt>
      <trkpt lat="46.452202023938298" lon="10.577927436679602">
        <ele>2691.8299999999999</ele>
        <time>2013-07-13T13:04:38Z</time>
      </trkpt>
      <trkpt lat="46.45229883491993" lon="10.57792391628027">
        <ele>2693.75</ele>
        <time>2013-07-13T13:04:49Z</time>
      </trkpt>
      <trkpt lat="46.452351557090878" lon="10.578000359237194">
        <ele>2694.71</ele>
        <time>2013-07-13T13:04:57Z</time>
      </trkpt>
      <trkpt lat="46.452358765527606" lon="10.578033216297626">
        <ele>2694.71</ele>
        <time>2013-07-13T13:04:59Z</time>
      </trkpt>
      <trkpt lat="46.452382570132613" lon="10.578089458867908">
        <ele>2694.71</ele>
        <time>2013-07-13T13:05:03Z</time>
      </trkpt>
      <trkpt lat="46.452399333938956" lon="10.578199261799455">
        <ele>2695.6700000000001</ele>
        <time>2013-07-13T13:05:11Z</time>
      </trkpt>
      <trkpt lat="46.452397825196385" lon="10.578285763040185">
        <ele>2697.1199999999999</ele>
        <time>2013-07-13T13:05:18Z</time>
      </trkpt>
      <trkpt lat="46.452416265383363" lon="10.578326415270567">
        <ele>2697.1199999999999</ele>
        <time>2013-07-13T13:05:21Z</time>
      </trkpt>
      <trkpt lat="46.452492289245129" lon="10.578431943431497">
        <ele>2700</ele>
        <time>2013-07-13T13:05:34Z</time>
      </trkpt>
      <trkpt lat="46.452553980052471" lon="10.578448288142681">
        <ele>2702.4000000000001</ele>
        <time>2013-07-13T13:05:44Z</time>
      </trkpt>
      <trkpt lat="46.452610557898879" lon="10.578493466600776">
        <ele>2705.29</ele>
        <time>2013-07-13T13:05:56Z</time>
      </trkpt>
      <trkpt lat="46.452602343633771" lon="10.578510984778404">
        <ele>2704.8099999999999</ele>
        <time>2013-07-13T13:06:08Z</time>
      </trkpt>
      <trkpt lat="46.452611396089196" lon="10.578513666987419">
        <ele>2704.3299999999999</ele>
        <time>2013-07-13T13:06:20Z</time>
      </trkpt>
      <trkpt lat="46.452599326148629" lon="10.578475194051862">
        <ele>2704.3299999999999</ele>
        <time>2013-07-13T13:06:44Z</time>
      </trkpt>
      <trkpt lat="46.452606869861484" lon="10.578498663380742">
        <ele>2704.8099999999999</ele>
        <time>2013-07-13T13:07:05Z</time>
      </trkpt>
      <trkpt lat="46.452632015570998" lon="10.57852984406054">
        <ele>2704.8099999999999</ele>
        <time>2013-07-13T13:07:28Z</time>
      </trkpt>
      <trkpt lat="46.452628914266825" lon="10.578553145751357">
        <ele>2704.8099999999999</ele>
        <time>2013-07-13T13:07:56Z</time>
      </trkpt>
      <trkpt lat="46.452620029449463" lon="10.57855817489326">
        <ele>2704.8099999999999</ele>
        <time>2013-07-13T13:08:19Z</time>
      </trkpt>
      <trkpt lat="46.452638385817409" lon="10.578562701120973">
        <ele>2705.29</ele>
        <time>2013-07-13T13:08:49Z</time>
      </trkpt>
      <trkpt lat="46.452650455757976" lon="10.578532945364714">
        <ele>2705.29</ele>
        <time>2013-07-13T13:09:21Z</time>
      </trkpt>
      <trkpt lat="46.452641319483519" lon="10.57852883823216">
        <ele>2704.8099999999999</ele>
        <time>2013-07-13T13:09:51Z</time>
      </trkpt>
      <trkpt lat="46.452658334746957" lon="10.578501429408789">
        <ele>2705.29</ele>
        <time>2013-07-13T13:10:23Z</time>
      </trkpt>
      <trkpt lat="46.452616425231099" lon="10.578503524884582">
        <ele>2705.77</ele>
        <time>2013-07-13T13:10:51Z</time>
      </trkpt>
      <trkpt lat="46.452613491564989" lon="10.578477624803782">
        <ele>2706.25</ele>
        <time>2013-07-13T13:11:08Z</time>
      </trkpt>
      <trkpt lat="46.452625142410398" lon="10.578551301732659">
        <ele>2706.25</ele>
        <time>2013-07-13T13:11:37Z</time>
      </trkpt>
      <trkpt lat="46.452673003077507" lon="10.578498328104615">
        <ele>2705.77</ele>
        <time>2013-07-13T13:11:57Z</time>
      </trkpt>
      <trkpt lat="46.452562361955643" lon="10.578552894294262">
        <ele>2705.77</ele>
        <time>2013-07-13T13:12:28Z</time>
      </trkpt>
      <trkpt lat="46.452563535422087" lon="10.578554151579738">
        <ele>2705.77</ele>
        <time>2013-07-13T13:12:59Z</time>
      </trkpt>
      <trkpt lat="46.452555991709232" lon="10.578548703342676">
        <ele>2706.25</ele>
        <time>2013-07-13T13:13:25Z</time>
      </trkpt>
      <trkpt lat="46.452566217631102" lon="10.578537052497268">
        <ele>2705.77</ele>
        <time>2013-07-13T13:13:58Z</time>
      </trkpt>
      <trkpt lat="46.452564373612404" lon="10.578540489077568">
        <ele>2705.77</ele>
        <time>2013-07-13T13:14:35Z</time>
      </trkpt>
      <trkpt lat="46.452553980052471" lon="10.578550631180406">
        <ele>2706.25</ele>
        <time>2013-07-13T13:15:04Z</time>
      </trkpt>
      <trkpt lat="46.452568648383021" lon="10.578548954799771">
        <ele>2706.25</ele>
        <time>2013-07-13T13:15:29Z</time>
      </trkpt>
      <trkpt lat="46.45256026647985" lon="10.578562868759036">
        <ele>2706.25</ele>
        <time>2013-07-13T13:16:00Z</time>
      </trkpt>
      <trkpt lat="46.452596057206392" lon="10.578532107174397">
        <ele>2706.25</ele>
        <time>2013-07-13T13:16:34Z</time>
      </trkpt>
      <trkpt lat="46.452608210965991" lon="10.578536381945014">
        <ele>2705.77</ele>
        <time>2013-07-13T13:17:06Z</time>
      </trkpt>
      <trkpt lat="46.45258960314095" lon="10.578532945364714">
        <ele>2705.77</ele>
        <time>2013-07-13T13:17:37Z</time>
      </trkpt>
      <trkpt lat="46.452626064419746" lon="10.578513331711292">
        <ele>2705.77</ele>
        <time>2013-07-13T13:18:04Z</time>
      </trkpt>
      <trkpt lat="46.452603600919247" lon="10.578533113002777">
        <ele>2705.77</ele>
        <time>2013-07-13T13:18:37Z</time>
      </trkpt>
      <trkpt lat="46.452594548463821" lon="10.578529508784413">
        <ele>2706.25</ele>
        <time>2013-07-13T13:18:59Z</time>
      </trkpt>
      <trkpt lat="46.452575856819749" lon="10.578535795211792">
        <ele>2705.77</ele>
        <time>2013-07-13T13:19:28Z</time>
      </trkpt>
      <trkpt lat="46.452613240107894" lon="10.578525820747018">
        <ele>2706.25</ele>
        <time>2013-07-13T13:19:57Z</time>
      </trkpt>
      <trkpt lat="46.452604606747627" lon="10.578520037233829">
        <ele>2706.25</ele>
        <time>2013-07-13T13:20:38Z</time>
      </trkpt>
      <trkpt lat="46.45259010605514" lon="10.578538561239839">
        <ele>2706.73</ele>
        <time>2013-07-13T13:21:05Z</time>
      </trkpt>
      <trkpt lat="46.452608294785023" lon="10.578516600653529">
        <ele>2705.77</ele>
        <time>2013-07-13T13:21:34Z</time>
      </trkpt>
      <trkpt lat="46.452612653374672" lon="10.578520791605115">
        <ele>2706.25</ele>
        <time>2013-07-13T13:22:03Z</time>
      </trkpt>
      <trkpt lat="46.452604774385691" lon="10.578534537926316">
        <ele>2706.25</ele>
        <time>2013-07-13T13:22:27Z</time>
      </trkpt>
      <trkpt lat="46.452592452988029" lon="10.578531604260206">
        <ele>2706.25</ele>
        <time>2013-07-13T13:22:57Z</time>
      </trkpt>
      <trkpt lat="46.45259446464479" lon="10.578537303954363">
        <ele>2706.25</ele>
        <time>2013-07-13T13:23:27Z</time>
      </trkpt>
      <trkpt lat="46.452560015022755" lon="10.578544680029154">
        <ele>2705.77</ele>
        <time>2013-07-13T13:24:09Z</time>
      </trkpt>
      <trkpt lat="46.452551297843456" lon="10.578542081639171">
        <ele>2705.77</ele>
        <time>2013-07-13T13:24:41Z</time>
      </trkpt>
      <trkpt lat="46.452548280358315" lon="10.578539315611124">
        <ele>2705.29</ele>
        <time>2013-07-13T13:25:18Z</time>
      </trkpt>
      <trkpt lat="46.452557081356645" lon="10.578528922051191">
        <ele>2705.77</ele>
        <time>2013-07-13T13:25:46Z</time>
      </trkpt>
      <trkpt lat="46.452550124377012" lon="10.578536717221141">
        <ele>2706.25</ele>
        <time>2013-07-13T13:26:11Z</time>
      </trkpt>
      <trkpt lat="46.452538724988699" lon="10.578543171286583">
        <ele>2705.29</ele>
        <time>2013-07-13T13:26:35Z</time>
      </trkpt>
      <trkpt lat="46.452573845162988" lon="10.578521378338337">
        <ele>2705.77</ele>
        <time>2013-07-13T13:27:06Z</time>
      </trkpt>
      <trkpt lat="46.452554482966661" lon="10.578543925657868">
        <ele>2706.25</ele>
        <time>2013-07-13T13:27:32Z</time>
      </trkpt>
      <trkpt lat="46.452532019466162" lon="10.578552139922976">
        <ele>2706.25</ele>
        <time>2013-07-13T13:28:02Z</time>
      </trkpt>
      <trkpt lat="46.45254953764379" lon="10.578534789383411">
        <ele>2706.25</ele>
        <time>2013-07-13T13:28:32Z</time>
      </trkpt>
      <trkpt lat="46.452557668089867" lon="10.578533532097936">
        <ele>2706.25</ele>
        <time>2013-07-13T13:28:54Z</time>
      </trkpt>
      <trkpt lat="46.452584993094206" lon="10.578521881252527">
        <ele>2706.25</ele>
        <time>2013-07-13T13:29:23Z</time>
      </trkpt>
      <trkpt lat="46.452581472694874" lon="10.578515594825149">
        <ele>2706.25</ele>
        <time>2013-07-13T13:29:58Z</time>
      </trkpt>
      <trkpt lat="46.452597565948963" lon="10.578500423580408">
        <ele>2706.25</ele>
        <time>2013-07-13T13:30:25Z</time>
      </trkpt>
      <trkpt lat="46.452591028064489" lon="10.578514002263546">
        <ele>2706.25</ele>
        <time>2013-07-13T13:30:50Z</time>
      </trkpt>
      <trkpt lat="46.452607456594706" lon="10.578506290912628">
        <ele>2706.25</ele>
        <time>2013-07-13T13:31:13Z</time>
      </trkpt>
      <trkpt lat="46.452579712495208" lon="10.578525317832828">
        <ele>2705.77</ele>
        <time>2013-07-13T13:31:44Z</time>
      </trkpt>
      <trkpt lat="46.452582143247128" lon="10.578516768291593">
        <ele>2706.25</ele>
        <time>2013-07-13T13:32:09Z</time>
      </trkpt>
      <trkpt lat="46.452599409967661" lon="10.57851517572999">
        <ele>2706.73</ele>
        <time>2013-07-13T13:32:21Z</time>
      </trkpt>
      <trkpt lat="46.452584490180016" lon="10.578509140759706">
        <ele>2706.73</ele>
        <time>2013-07-13T13:32:34Z</time>
      </trkpt>
      <trkpt lat="46.452601840719581" lon="10.578505955636501">
        <ele>2706.73</ele>
        <time>2013-07-13T13:32:49Z</time>
      </trkpt>
      <trkpt lat="46.452586837112904" lon="10.578503189608455">
        <ele>2706.25</ele>
        <time>2013-07-13T13:33:04Z</time>
      </trkpt>
      <trkpt lat="46.452593123540282" lon="10.578523138538003">
        <ele>2706.25</ele>
        <time>2013-07-13T13:33:19Z</time>
      </trkpt>
      <trkpt lat="46.452596057206392" lon="10.578519953414798">
        <ele>2707.21</ele>
        <time>2013-07-13T13:33:36Z</time>
      </trkpt>
      <trkpt lat="46.452644672244787" lon="10.578630175441504">
        <ele>2707.6900000000001</ele>
        <time>2013-07-13T13:33:46Z</time>
      </trkpt>
      <trkpt lat="46.452782386913896" lon="10.578682981431484">
        <ele>2707.6900000000001</ele>
        <time>2013-07-13T13:34:00Z</time>
      </trkpt>
      <trkpt lat="46.452772915363312" lon="10.578714329749346">
        <ele>2707.6900000000001</ele>
        <time>2013-07-13T13:34:14Z</time>
      </trkpt>
      <trkpt lat="46.452819602563977" lon="10.578760094940662">
        <ele>2707.6900000000001</ele>
        <time>2013-07-13T13:34:25Z</time>
      </trkpt>
      <trkpt lat="46.452853716909885" lon="10.578776188194752">
        <ele>2707.21</ele>
        <time>2013-07-13T13:34:32Z</time>
      </trkpt>
      <trkpt lat="46.452956981956959" lon="10.578858414664865">
        <ele>2706.73</ele>
        <time>2013-07-13T13:34:44Z</time>
      </trkpt>
      <trkpt lat="46.453061169013381" lon="10.578845171257854">
        <ele>2708.1700000000001</ele>
        <time>2013-07-13T13:34:57Z</time>
      </trkpt>
      <trkpt lat="46.453140377998352" lon="10.578870736062527">
        <ele>2710.5700000000002</ele>
        <time>2013-07-13T13:35:09Z</time>
      </trkpt>
      <trkpt lat="46.453154040500522" lon="10.578868053853512">
        <ele>2710.5700000000002</ele>
        <time>2013-07-13T13:35:11Z</time>
      </trkpt>
      <trkpt lat="46.453221011906862" lon="10.57887576520443">
        <ele>2712.02</ele>
        <time>2013-07-13T13:35:21Z</time>
      </trkpt>
      <trkpt lat="46.453340370208025" lon="10.578908957540989">
        <ele>2713.9400000000001</ele>
        <time>2013-07-13T13:35:37Z</time>
      </trkpt>
      <trkpt lat="46.453464170917869" lon="10.578937288373709">
        <ele>2715.8600000000001</ele>
        <time>2013-07-13T13:35:52Z</time>
      </trkpt>
      <trkpt lat="46.453580427914858" lon="10.578943071886897">
        <ele>2716.8200000000002</ele>
        <time>2013-07-13T13:36:04Z</time>
      </trkpt>
      <trkpt lat="46.453686626628041" lon="10.578953213989735">
        <ele>2718.27</ele>
        <time>2013-07-13T13:36:16Z</time>
      </trkpt>
      <trkpt lat="46.453793998807669" lon="10.579016916453838">
        <ele>2719.71</ele>
        <time>2013-07-13T13:36:28Z</time>
      </trkpt>
      <trkpt lat="46.453893324360251" lon="10.579085145145655">
        <ele>2721.1500000000001</ele>
        <time>2013-07-13T13:36:42Z</time>
      </trkpt>
      <trkpt lat="46.453934814780951" lon="10.579093862324953">
        <ele>2721.6300000000001</ele>
        <time>2013-07-13T13:36:47Z</time>
      </trkpt>
      <trkpt lat="46.454062974080443" lon="10.579129066318274">
        <ele>2723.5500000000002</ele>
        <time>2013-07-13T13:37:02Z</time>
      </trkpt>
      <trkpt lat="46.454188702628016" lon="10.579185392707586">
        <ele>2725.48</ele>
        <time>2013-07-13T13:37:17Z</time>
      </trkpt>
      <trkpt lat="46.454250058159232" lon="10.579252364113927">
        <ele>2725.96</ele>
        <time>2013-07-13T13:37:25Z</time>
      </trkpt>
      <trkpt lat="46.454363465309143" lon="10.579302906990051">
        <ele>2724.9899999999998</ele>
        <time>2013-07-13T13:37:36Z</time>
      </trkpt>
      <trkpt lat="46.454506795853376" lon="10.579362502321601">
        <ele>2725.96</ele>
        <time>2013-07-13T13:37:50Z</time>
      </trkpt>
      <trkpt lat="46.454516518861055" lon="10.579369543120265">
        <ele>2725.96</ele>
        <time>2013-07-13T13:37:51Z</time>
      </trkpt>
      <trkpt lat="46.454569743946195" lon="10.579385133460164">
        <ele>2725.48</ele>
        <time>2013-07-13T13:38:04Z</time>
      </trkpt>
      <trkpt lat="46.454691784456372" lon="10.579442214220762">
        <ele>2723.5500000000002</ele>
        <time>2013-07-13T13:38:16Z</time>
      </trkpt>
      <trkpt lat="46.454839138314128" lon="10.579491499811411">
        <ele>2720.6700000000001</ele>
        <time>2013-07-13T13:38:29Z</time>
      </trkpt>
      <trkpt lat="46.455035358667374" lon="10.579557633027434">
        <ele>2719.23</ele>
        <time>2013-07-13T13:38:45Z</time>
      </trkpt>
      <trkpt lat="46.45519838668406" lon="10.579593256115913">
        <ele>2718.27</ele>
        <time>2013-07-13T13:38:59Z</time>
      </trkpt>
      <trkpt lat="46.455315398052335" lon="10.579670453444123">
        <ele>2718.27</ele>
        <time>2013-07-13T13:39:11Z</time>
      </trkpt>
      <trkpt lat="46.455408940091729" lon="10.579753685742617">
        <ele>2718.75</ele>
        <time>2013-07-13T13:39:23Z</time>
      </trkpt>
      <trkpt lat="46.455432241782546" lon="10.579765252768993">
        <ele>2719.23</ele>
        <time>2013-07-13T13:39:26Z</time>
      </trkpt>
      <trkpt lat="46.455467529594898" lon="10.579795343801379">
        <ele>2720.1900000000001</ele>
        <time>2013-07-13T13:39:31Z</time>
      </trkpt>
      <trkpt lat="46.455596778541803" lon="10.579865500330925">
        <ele>2721.1500000000001</ele>
        <time>2013-07-13T13:39:45Z</time>
      </trkpt>
      <trkpt lat="46.455615302547812" lon="10.579864410683513">
        <ele>2720.6700000000001</ele>
        <time>2013-07-13T13:39:47Z</time>
      </trkpt>
      <trkpt lat="46.455732230097055" lon="10.579904895275831">
        <ele>2721.6300000000001</ele>
        <time>2013-07-13T13:40:00Z</time>
      </trkpt>
      <trkpt lat="46.455767769366503" lon="10.579925514757633">
        <ele>2722.5900000000001</ele>
        <time>2013-07-13T13:40:05Z</time>
      </trkpt>
      <trkpt lat="46.455779755488038" lon="10.579913863912225">
        <ele>2721.1500000000001</ele>
        <time>2013-07-13T13:40:13Z</time>
      </trkpt>
      <trkpt lat="46.455764919519424" lon="10.579949654638767">
        <ele>2722.1100000000001</ele>
        <time>2013-07-13T13:40:30Z</time>
      </trkpt>
      <trkpt lat="46.455816552042961" lon="10.580016039311886">
        <ele>2723.5500000000002</ele>
        <time>2013-07-13T13:40:40Z</time>
      </trkpt>
      <trkpt lat="46.455884194001555" lon="10.580119220539927">
        <ele>2723.0700000000002</ele>
        <time>2013-07-13T13:40:51Z</time>
      </trkpt>
      <trkpt lat="46.45590933971107" lon="10.580168589949608">
        <ele>2723.0700000000002</ele>
        <time>2013-07-13T13:40:57Z</time>
      </trkpt>
      <trkpt lat="46.455943286418915" lon="10.58028694242239">
        <ele>2722.5900000000001</ele>
        <time>2013-07-13T13:41:05Z</time>
      </trkpt>
      <trkpt lat="46.455948986113071" lon="10.580319128930569">
        <ele>2722.5900000000001</ele>
        <time>2013-07-13T13:41:07Z</time>
      </trkpt>
      <trkpt lat="46.455956446006894" lon="10.580356428399682">
        <ele>2722.5900000000001</ele>
        <time>2013-07-13T13:41:09Z</time>
      </trkpt>
      <trkpt lat="46.455989135429263" lon="10.580467320978642">
        <ele>2722.5900000000001</ele>
        <time>2013-07-13T13:41:21Z</time>
      </trkpt>
      <trkpt lat="46.455987207591534" lon="10.580473858863115">
        <ele>2723.0700000000002</ele>
        <time>2013-07-13T13:41:22Z</time>
      </trkpt>
      <trkpt lat="46.455963989719748" lon="10.580528425052762">
        <ele>2723.5500000000002</ele>
        <time>2013-07-13T13:41:26Z</time>
      </trkpt>
      <trkpt lat="46.45600900053978" lon="10.580677874386311">
        <ele>2725.96</ele>
        <time>2013-07-13T13:41:40Z</time>
      </trkpt>
      <trkpt lat="46.45603590644896" lon="10.580827156081796">
        <ele>2727.8800000000001</ele>
        <time>2013-07-13T13:41:53Z</time>
      </trkpt>
      <trkpt lat="46.456077145412564" lon="10.580941066145897">
        <ele>2730.7600000000002</ele>
        <time>2013-07-13T13:42:06Z</time>
      </trkpt>
      <trkpt lat="46.456115953624249" lon="10.581135945394635">
        <ele>2732.1999999999998</ele>
        <time>2013-07-13T13:42:22Z</time>
      </trkpt>
      <trkpt lat="46.456150403246284" lon="10.581417325884104">
        <ele>2733.1700000000001</ele>
        <time>2013-07-13T13:42:42Z</time>
      </trkpt>
      <trkpt lat="46.456199185922742" lon="10.581577084958553">
        <ele>2734.6100000000001</ele>
        <time>2013-07-13T13:42:55Z</time>
      </trkpt>
      <trkpt lat="46.456241682171822" lon="10.581708094105124">
        <ele>2736.5300000000002</ele>
        <time>2013-07-13T13:43:09Z</time>
      </trkpt>
      <trkpt lat="46.456232629716396" lon="10.58185494504869">
        <ele>2739.4099999999999</ele>
        <time>2013-07-13T13:43:22Z</time>
      </trkpt>
      <trkpt lat="46.456251069903374" lon="10.58199517428875">
        <ele>2741.8200000000002</ele>
        <time>2013-07-13T13:43:36Z</time>
      </trkpt>
      <trkpt lat="46.456275545060635" lon="10.582120735198259">
        <ele>2744.6999999999998</ele>
        <time>2013-07-13T13:43:50Z</time>
      </trkpt>
      <trkpt lat="46.456334805116057" lon="10.582177145406604">
        <ele>2745.6599999999999</ele>
        <time>2013-07-13T13:44:01Z</time>
      </trkpt>
      <trkpt lat="46.456410409882665" lon="10.582255180925131">
        <ele>2747.0999999999999</ele>
        <time>2013-07-13T13:44:14Z</time>
      </trkpt>
      <trkpt lat="46.456451062113047" lon="10.582314860075712">
        <ele>2748.0700000000002</ele>
        <time>2013-07-13T13:44:22Z</time>
      </trkpt>
      <trkpt lat="46.456501772627234" lon="10.582522479817271">
        <ele>2749.0300000000002</ele>
        <time>2013-07-13T13:44:37Z</time>
      </trkpt>
      <trkpt lat="46.456519290804863" lon="10.582615938037634">
        <ele>2749.5100000000002</ele>
        <time>2013-07-13T13:44:44Z</time>
      </trkpt>
      <trkpt lat="46.456520715728402" lon="10.582661451771855">
        <ele>2750.4699999999998</ele>
        <time>2013-07-13T13:44:47Z</time>
      </trkpt>
      <trkpt lat="46.456479392945766" lon="10.582805536687374">
        <ele>2751.9099999999999</ele>
        <time>2013-07-13T13:44:59Z</time>
      </trkpt>
      <trkpt lat="46.456485511735082" lon="10.582843003794551">
        <ele>2751.9099999999999</ele>
        <time>2013-07-13T13:45:01Z</time>
      </trkpt>
      <trkpt lat="46.456483500078321" lon="10.582870161160827">
        <ele>2751.9099999999999</ele>
        <time>2013-07-13T13:45:08Z</time>
      </trkpt>
      <trkpt lat="46.456578383222222" lon="10.583064956590533">
        <ele>2752.3899999999999</ele>
        <time>2013-07-13T13:45:23Z</time>
      </trkpt>
      <trkpt lat="46.456642420962453" lon="10.583159672096372">
        <ele>2752.3899999999999</ele>
        <time>2013-07-13T13:45:32Z</time>
      </trkpt>
      <trkpt lat="46.456659939140081" lon="10.583204599097371">
        <ele>2753.3499999999999</ele>
        <time>2013-07-13T13:45:35Z</time>
      </trkpt>
      <trkpt lat="46.456746440380812" lon="10.583357317373157">
        <ele>2754.8000000000002</ele>
        <time>2013-07-13T13:45:47Z</time>
      </trkpt>
      <trkpt lat="46.456792037934065" lon="10.583482626825571">
        <ele>2755.7600000000002</ele>
        <time>2013-07-13T13:45:55Z</time>
      </trkpt>
      <trkpt lat="46.456828415393829" lon="10.583585305139422">
        <ele>2756.7199999999998</ele>
        <time>2013-07-13T13:46:02Z</time>
      </trkpt>
      <trkpt lat="46.456845682114363" lon="10.583644565194845">
        <ele>2756.7199999999998</ele>
        <time>2013-07-13T13:46:06Z</time>
      </trkpt>
      <trkpt lat="46.456857835873961" lon="10.58367314748466">
        <ele>2756.2399999999998</ele>
        <time>2013-07-13T13:46:08Z</time>
      </trkpt>
      <trkpt lat="46.45687242038548" lon="10.583752691745758">
        <ele>2756.7199999999998</ele>
        <time>2013-07-13T13:46:13Z</time>
      </trkpt>
      <trkpt lat="46.456889938563108" lon="10.583814969286323">
        <ele>2757.1999999999998</ele>
        <time>2013-07-13T13:46:17Z</time>
      </trkpt>
      <trkpt lat="46.456926148384809" lon="10.583950504660606">
        <ele>2756.7199999999998</ele>
        <time>2013-07-13T13:46:25Z</time>
      </trkpt>
      <trkpt lat="46.45695204846561" lon="10.584123339504004">
        <ele>2757.1999999999998</ele>
        <time>2013-07-13T13:46:35Z</time>
      </trkpt>
      <trkpt lat="46.456981552764773" lon="10.584303718060255">
        <ele>2756.7199999999998</ele>
        <time>2013-07-13T13:46:45Z</time>
      </trkpt>
      <trkpt lat="46.457004686817527" lon="10.584550313651562">
        <ele>2755.2800000000002</ele>
        <time>2013-07-13T13:46:59Z</time>
      </trkpt>
      <trkpt lat="46.457011895254254" lon="10.58457369916141">
        <ele>2755.2800000000002</ele>
        <time>2013-07-13T13:47:01Z</time>
      </trkpt>
      <trkpt lat="46.457031089812517" lon="10.584664894267917">
        <ele>2755.2800000000002</ele>
        <time>2013-07-13T13:47:06Z</time>
      </trkpt>
      <trkpt lat="46.45704542286694" lon="10.584723651409149">
        <ele>2755.2800000000002</ele>
        <time>2013-07-13T13:47:10Z</time>
      </trkpt>
      <trkpt lat="46.457132343202829" lon="10.585029171779752">
        <ele>2752.3899999999999</ele>
        <time>2013-07-13T13:47:26Z</time>
      </trkpt>
      <trkpt lat="46.457186574116349" lon="10.58532128110528">
        <ele>2751.4299999999998</ele>
        <time>2013-07-13T13:47:42Z</time>
      </trkpt>
      <trkpt lat="46.457194704562426" lon="10.585380373522639">
        <ele>2751.9099999999999</ele>
        <time>2013-07-13T13:47:46Z</time>
      </trkpt>
      <trkpt lat="46.457217251881957" lon="10.585451787337661">
        <ele>2751.4299999999998</ele>
        <time>2013-07-13T13:47:51Z</time>
      </trkpt>
      <trkpt lat="46.45721641369164" lon="10.585711626335979">
        <ele>2752.3899999999999</ele>
        <time>2013-07-13T13:48:08Z</time>
      </trkpt>
      <trkpt lat="46.45721985027194" lon="10.585803994908929">
        <ele>2752.8699999999999</ele>
        <time>2013-07-13T13:48:15Z</time>
      </trkpt>
      <trkpt lat="46.457251533865929" lon="10.585876246914268">
        <ele>2751.9099999999999</ele>
        <time>2013-07-13T13:48:30Z</time>
      </trkpt>
      <trkpt lat="46.457231920212507" lon="10.585852358490229">
        <ele>2752.3899999999999</ele>
        <time>2013-07-13T13:48:49Z</time>
      </trkpt>
      <trkpt lat="46.457235272973776" lon="10.585916144773364">
        <ele>2752.8699999999999</ele>
        <time>2013-07-13T13:48:52Z</time>
      </trkpt>
      <trkpt lat="46.457226974889636" lon="10.585950510576367">
        <ele>2751.9099999999999</ele>
        <time>2013-07-13T13:49:06Z</time>
      </trkpt>
      <trkpt lat="46.457221023738384" lon="10.585966100916266">
        <ele>2752.3899999999999</ele>
        <time>2013-07-13T13:49:11Z</time>
      </trkpt>
      <trkpt lat="46.457233428955078" lon="10.586033156141639">
        <ele>2753.3499999999999</ele>
        <time>2013-07-13T13:49:15Z</time>
      </trkpt>
      <trkpt lat="46.457245834171772" lon="10.586181934922934">
        <ele>2752.8699999999999</ele>
        <time>2013-07-13T13:49:26Z</time>
      </trkpt>
      <trkpt lat="46.457258071750402" lon="10.586302969604731">
        <ele>2752.8699999999999</ele>
        <time>2013-07-13T13:49:38Z</time>
      </trkpt>
      <trkpt lat="46.457255221903324" lon="10.586421573534608">
        <ele>2753.3499999999999</ele>
        <time>2013-07-13T13:49:46Z</time>
      </trkpt>
      <trkpt lat="46.457246337085962" lon="10.58644856326282">
        <ele>2753.8299999999999</ele>
        <time>2013-07-13T13:49:48Z</time>
      </trkpt>
      <trkpt lat="46.457222113385797" lon="10.586598096415401">
        <ele>2754.3099999999999</ele>
        <time>2013-07-13T13:49:58Z</time>
      </trkpt>
      <trkpt lat="46.457124883309007" lon="10.586680993437767">
        <ele>2756.7199999999998</ele>
        <time>2013-07-13T13:50:11Z</time>
      </trkpt>
      <trkpt lat="46.456986917182803" lon="10.586716448888183">
        <ele>2759.1199999999999</ele>
        <time>2013-07-13T13:50:28Z</time>
      </trkpt>
      <trkpt lat="46.456972165033221" lon="10.586720556020737">
        <ele>2759.1199999999999</ele>
        <time>2013-07-13T13:50:30Z</time>
      </trkpt>
      <trkpt lat="46.456905361264944" lon="10.58676321990788">
        <ele>2761.04</ele>
        <time>2013-07-13T13:50:41Z</time>
      </trkpt>
      <trkpt lat="46.456889435648918" lon="10.586790293455124">
        <ele>2762</ele>
        <time>2013-07-13T13:50:45Z</time>
      </trkpt>
      <trkpt lat="46.456864876672626" lon="10.586949801072478">
        <ele>2762.9699999999998</ele>
        <time>2013-07-13T13:51:00Z</time>
      </trkpt>
      <trkpt lat="46.456877952441573" lon="10.587072931230068">
        <ele>2765.8499999999999</ele>
        <time>2013-07-13T13:51:15Z</time>
      </trkpt>
      <trkpt lat="46.456871749833226" lon="10.587224056944251">
        <ele>2767.77</ele>
        <time>2013-07-13T13:51:29Z</time>
      </trkpt>
      <trkpt lat="46.45686118863523" lon="10.587336793541908">
        <ele>2769.6999999999998</ele>
        <time>2013-07-13T13:51:41Z</time>
      </trkpt>
      <trkpt lat="46.456885831430554" lon="10.587450116872787">
        <ele>2771.6199999999999</ele>
        <time>2013-07-13T13:51:55Z</time>
      </trkpt>
      <trkpt lat="46.456954227760434" lon="10.587499067187309">
        <ele>2773.54</ele>
        <time>2013-07-13T13:52:08Z</time>
      </trkpt>
      <trkpt lat="46.456968812271953" lon="10.587509544566274">
        <ele>2773.54</ele>
        <time>2013-07-13T13:52:11Z</time>
      </trkpt>
      <trkpt lat="46.457020360976458" lon="10.587593615055084">
        <ele>2774.98</ele>
        <time>2013-07-13T13:52:22Z</time>
      </trkpt>
      <trkpt lat="46.457059169188142" lon="10.587733006104827">
        <ele>2777.8699999999999</ele>
        <time>2013-07-13T13:52:37Z</time>
      </trkpt>
      <trkpt lat="46.457064198330045" lon="10.587751865386963">
        <ele>2778.3499999999999</ele>
        <time>2013-07-13T13:52:40Z</time>
      </trkpt>
      <trkpt lat="46.457080207765102" lon="10.587923694401979">
        <ele>2780.27</ele>
        <time>2013-07-13T13:52:53Z</time>
      </trkpt>
      <trkpt lat="46.457098061218858" lon="10.588081860914826">
        <ele>2781.71</ele>
        <time>2013-07-13T13:53:07Z</time>
      </trkpt>
      <trkpt lat="46.457115411758423" lon="10.588294509798288">
        <ele>2783.6300000000001</ele>
        <time>2013-07-13T13:53:25Z</time>
      </trkpt>
      <trkpt lat="46.457132762297988" lon="10.588486371561885">
        <ele>2785.0799999999999</ele>
        <time>2013-07-13T13:53:40Z</time>
      </trkpt>
      <trkpt lat="46.457186825573444" lon="10.588623080402613">
        <ele>2786.52</ele>
        <time>2013-07-13T13:53:54Z</time>
      </trkpt>
      <trkpt lat="46.457223035395145" lon="10.58874755166471">
        <ele>2788.4400000000001</ele>
        <time>2013-07-13T13:54:07Z</time>
      </trkpt>
      <trkpt lat="46.457232339307666" lon="10.588773535564542">
        <ele>2788.9200000000001</ele>
        <time>2013-07-13T13:54:10Z</time>
      </trkpt>
      <trkpt lat="46.457269303500652" lon="10.588839082047343">
        <ele>2790.3600000000001</ele>
        <time>2013-07-13T13:54:23Z</time>
      </trkpt>
      <trkpt lat="46.4573376160115" lon="10.58875878341496">
        <ele>2793.73</ele>
        <time>2013-07-13T13:54:39Z</time>
      </trkpt>
      <trkpt lat="46.457436522468925" lon="10.588800525292754">
        <ele>2796.6100000000001</ele>
        <time>2013-07-13T13:54:53Z</time>
      </trkpt>
      <trkpt lat="46.457508020102978" lon="10.588900437578559">
        <ele>2798.0500000000002</ele>
        <time>2013-07-13T13:55:07Z</time>
      </trkpt>
      <trkpt lat="46.457584295421839" lon="10.589000266045332">
        <ele>2799.5</ele>
        <time>2013-07-13T13:55:23Z</time>
      </trkpt>
      <trkpt lat="46.457669204100966" lon="10.58907494880259">
        <ele>2801.9000000000001</ele>
        <time>2013-07-13T13:55:38Z</time>
      </trkpt>
      <trkpt lat="46.45775243639946" lon="10.589161114767194">
        <ele>2805.2600000000002</ele>
        <time>2013-07-13T13:55:54Z</time>
      </trkpt>
      <trkpt lat="46.457815049216151" lon="10.589207550510764">
        <ele>2807.6700000000001</ele>
        <time>2013-07-13T13:56:08Z</time>
      </trkpt>
      <trkpt lat="46.457830807194114" lon="10.589288771152496">
        <ele>2808.6300000000001</ele>
        <time>2013-07-13T13:56:21Z</time>
      </trkpt>
      <trkpt lat="46.457809181883931" lon="10.589407542720437">
        <ele>2810.0700000000002</ele>
        <time>2013-07-13T13:56:34Z</time>
      </trkpt>
      <trkpt lat="46.457759309560061" lon="10.589499324560165">
        <ele>2812.96</ele>
        <time>2013-07-13T13:56:49Z</time>
      </trkpt>
      <trkpt lat="46.457810522988439" lon="10.589602589607239">
        <ele>2815.3600000000001</ele>
        <time>2013-07-13T13:57:04Z</time>
      </trkpt>
      <trkpt lat="46.457876907661557" lon="10.589672159403563">
        <ele>2817.2800000000002</ele>
        <time>2013-07-13T13:57:19Z</time>
      </trkpt>
      <trkpt lat="46.457944717258215" lon="10.589751536026597">
        <ele>2820.1599999999999</ele>
        <time>2013-07-13T13:57:35Z</time>
      </trkpt>
      <trkpt lat="46.458030380308628" lon="10.589803922921419">
        <ele>2823.0500000000002</ele>
        <time>2013-07-13T13:57:51Z</time>
      </trkpt>
      <trkpt lat="46.458094166591763" lon="10.58982009999454">
        <ele>2824.4899999999998</ele>
        <time>2013-07-13T13:58:04Z</time>
      </trkpt>
      <trkpt lat="46.458185026422143" lon="10.58984499424696">
        <ele>2826.4099999999999</ele>
        <time>2013-07-13T13:58:19Z</time>
      </trkpt>
      <trkpt lat="46.458269264549017" lon="10.5898826289922">
        <ele>2828.8200000000002</ele>
        <time>2013-07-13T13:58:35Z</time>
      </trkpt>
      <trkpt lat="46.458347467705607" lon="10.58991439640522">
        <ele>2831.2199999999998</ele>
        <time>2013-07-13T13:58:50Z</time>
      </trkpt>
      <trkpt lat="46.45842575468123" lon="10.58998036198318">
        <ele>2832.6599999999999</ele>
        <time>2013-07-13T13:59:02Z</time>
      </trkpt>
      <trkpt lat="46.458441009745002" lon="10.59007273055613">
        <ele>2833.6199999999999</ele>
        <time>2013-07-13T13:59:15Z</time>
      </trkpt>
      <trkpt lat="46.458428520709276" lon="10.590172475203872">
        <ele>2832.1799999999998</ele>
        <time>2013-07-13T13:59:28Z</time>
      </trkpt>
      <trkpt lat="46.458423072472215" lon="10.590194687247276">
        <ele>2831.6999999999998</ele>
        <time>2013-07-13T13:59:31Z</time>
      </trkpt>
      <trkpt lat="46.458404380828142" lon="10.590239278972149">
        <ele>2830.2600000000002</ele>
        <time>2013-07-13T13:59:37Z</time>
      </trkpt>
      <trkpt lat="46.458402704447508" lon="10.590328713878989">
        <ele>2829.3000000000002</ele>
        <time>2013-07-13T13:59:43Z</time>
      </trkpt>
      <trkpt lat="46.458411086350679" lon="10.590392500162125">
        <ele>2828.8200000000002</ele>
        <time>2013-07-13T13:59:48Z</time>
      </trkpt>
      <trkpt lat="46.458512842655182" lon="10.590581344440579">
        <ele>2828.3400000000001</ele>
        <time>2013-07-13T14:00:05Z</time>
      </trkpt>
      <trkpt lat="46.458517368882895" lon="10.590592240914702">
        <ele>2828.3400000000001</ele>
        <time>2013-07-13T14:00:06Z</time>
      </trkpt>
      <trkpt lat="46.458540419116616" lon="10.590662900358438">
        <ele>2827.3699999999999</ele>
        <time>2013-07-13T14:00:12Z</time>
      </trkpt>
      <trkpt lat="46.458631530404091" lon="10.590820563957095">
        <ele>2825.4499999999998</ele>
        <time>2013-07-13T14:00:27Z</time>
      </trkpt>
      <trkpt lat="46.45863588899374" lon="10.590832130983472">
        <ele>2825.4499999999998</ele>
        <time>2013-07-13T14:00:28Z</time>
      </trkpt>
      <trkpt lat="46.458733035251498" lon="10.590984681621194">
        <ele>2824.4899999999998</ele>
        <time>2013-07-13T14:00:44Z</time>
      </trkpt>
      <trkpt lat="46.458794139325619" lon="10.591108314692974">
        <ele>2824.4899999999998</ele>
        <time>2013-07-13T14:00:58Z</time>
      </trkpt>
      <trkpt lat="46.458800341933966" lon="10.591114265844226">
        <ele>2824.0100000000002</ele>
        <time>2013-07-13T14:00:59Z</time>
      </trkpt>
      <trkpt lat="46.45886848680675" lon="10.591207975521684">
        <ele>2824.4899999999998</ele>
        <time>2013-07-13T14:01:12Z</time>
      </trkpt>
      <trkpt lat="46.458917940035462" lon="10.591269917786121">
        <ele>2825.4499999999998</ele>
        <time>2013-07-13T14:01:22Z</time>
      </trkpt>
      <trkpt lat="46.458966052159667" lon="10.591364046558738">
        <ele>2824.9699999999998</ele>
        <time>2013-07-13T14:01:34Z</time>
      </trkpt>
      <trkpt lat="46.458973679691553" lon="10.59137879870832">
        <ele>2825.4499999999998</ele>
        <time>2013-07-13T14:01:36Z</time>
      </trkpt>
      <trkpt lat="46.459036879241467" lon="10.59149463661015">
        <ele>2825.9299999999998</ele>
        <time>2013-07-13T14:01:48Z</time>
      </trkpt>
      <trkpt lat="46.459043165668845" lon="10.591559931635857">
        <ele>2826.4099999999999</ele>
        <time>2013-07-13T14:01:55Z</time>
      </trkpt>
      <trkpt lat="46.459030508995056" lon="10.591663867235184">
        <ele>2827.3699999999999</ele>
        <time>2013-07-13T14:02:07Z</time>
      </trkpt>
      <trkpt lat="46.459028581157327" lon="10.59167543426156">
        <ele>2827.8499999999999</ele>
        <time>2013-07-13T14:02:08Z</time>
      </trkpt>
      <trkpt lat="46.459013661369681" lon="10.591804767027497">
        <ele>2828.3400000000001</ele>
        <time>2013-07-13T14:02:21Z</time>
      </trkpt>
      <trkpt lat="46.458972170948982" lon="10.591924879699945">
        <ele>2828.8200000000002</ele>
        <time>2013-07-13T14:02:33Z</time>
      </trkpt>
      <trkpt lat="46.458919448778033" lon="10.592016829177737">
        <ele>2829.7800000000002</ele>
        <time>2013-07-13T14:02:46Z</time>
      </trkpt>
      <trkpt lat="46.458860943093896" lon="10.592093355953693">
        <ele>2831.2199999999998</ele>
        <time>2013-07-13T14:02:59Z</time>
      </trkpt>
      <trkpt lat="46.458795145153999" lon="10.592191675677896">
        <ele>2832.1799999999998</ele>
        <time>2013-07-13T14:03:14Z</time>
      </trkpt>
      <trkpt lat="46.458777710795403" lon="10.592267364263535">
        <ele>2833.6199999999999</ele>
        <time>2013-07-13T14:03:26Z</time>
      </trkpt>
      <trkpt lat="46.45872482098639" lon="10.592329893261194">
        <ele>2835.5500000000002</ele>
        <time>2013-07-13T14:03:38Z</time>
      </trkpt>
      <trkpt lat="46.458699507638812" lon="10.592374484986067">
        <ele>2836.0300000000002</ele>
        <time>2013-07-13T14:03:48Z</time>
      </trkpt>
      <trkpt lat="46.458635637536645" lon="10.592449503019452">
        <ele>2838.9099999999999</ele>
        <time>2013-07-13T14:04:04Z</time>
      </trkpt>
      <trkpt lat="46.458616694435477" lon="10.592486467212439">
        <ele>2839.3899999999999</ele>
        <time>2013-07-13T14:04:14Z</time>
      </trkpt>
      <trkpt lat="46.45863932557404" lon="10.592547990381718">
        <ele>2839.3899999999999</ele>
        <time>2013-07-13T14:04:31Z</time>
      </trkpt>
      <trkpt lat="46.458626501262188" lon="10.592509768903255">
        <ele>2840.3499999999999</ele>
        <time>2013-07-13T14:04:49Z</time>
      </trkpt>
      <trkpt lat="46.458634883165359" lon="10.592522174119949">
        <ele>2840.3499999999999</ele>
        <time>2013-07-13T14:05:02Z</time>
      </trkpt>
      <trkpt lat="46.458664974197745" lon="10.592620996758342">
        <ele>2841.3099999999999</ele>
        <time>2013-07-13T14:05:12Z</time>
      </trkpt>
      <trkpt lat="46.45875072106719" lon="10.592764997854829">
        <ele>2842.7600000000002</ele>
        <time>2013-07-13T14:05:28Z</time>
      </trkpt>
      <trkpt lat="46.458761785179377" lon="10.592785114422441">
        <ele>2842.7600000000002</ele>
        <time>2013-07-13T14:05:30Z</time>
      </trkpt>
      <trkpt lat="46.458774274215102" lon="10.592869352549314">
        <ele>2843.7199999999998</ele>
        <time>2013-07-13T14:05:37Z</time>
      </trkpt>
      <trkpt lat="46.458804029971361" lon="10.593046294525266">
        <ele>2843.7199999999998</ele>
        <time>2013-07-13T14:05:50Z</time>
      </trkpt>
      <trkpt lat="46.458874689415097" lon="10.593186942860484">
        <ele>2843.7199999999998</ele>
        <time>2013-07-13T14:06:03Z</time>
      </trkpt>
      <trkpt lat="46.458943085744977" lon="10.593342008069158">
        <ele>2843.7199999999998</ele>
        <time>2013-07-13T14:06:20Z</time>
      </trkpt>
      <trkpt lat="46.458944929763675" lon="10.593387354165316">
        <ele>2843.7199999999998</ele>
        <time>2013-07-13T14:06:27Z</time>
      </trkpt>
      <trkpt lat="46.459035705775023" lon="10.593580640852451">
        <ele>2842.7600000000002</ele>
        <time>2013-07-13T14:06:43Z</time>
      </trkpt>
      <trkpt lat="46.45909714512527" lon="10.593692287802696">
        <ele>2842.2800000000002</ele>
        <time>2013-07-13T14:06:54Z</time>
      </trkpt>
      <trkpt lat="46.459138970822096" lon="10.59382438659668">
        <ele>2842.2800000000002</ele>
        <time>2013-07-13T14:07:04Z</time>
      </trkpt>
      <trkpt lat="46.459125811234117" lon="10.593993365764618">
        <ele>2842.2800000000002</ele>
        <time>2013-07-13T14:07:20Z</time>
      </trkpt>
      <trkpt lat="46.459131175652146" lon="10.594141557812691">
        <ele>2843.2399999999998</ele>
        <time>2013-07-13T14:07:36Z</time>
      </trkpt>
      <trkpt lat="46.459140311926603" lon="10.594303496181965">
        <ele>2844.6799999999998</ele>
        <time>2013-07-13T14:07:52Z</time>
      </trkpt>
      <trkpt lat="46.459125643596053" lon="10.594414807856083">
        <ele>2846.1199999999999</ele>
        <time>2013-07-13T14:08:06Z</time>
      </trkpt>
      <trkpt lat="46.459128744900227" lon="10.594484126195312">
        <ele>2847.5599999999999</ele>
        <time>2013-07-13T14:08:18Z</time>
      </trkpt>
      <trkpt lat="46.459148777648807" lon="10.594566687941551">
        <ele>2848.04</ele>
        <time>2013-07-13T14:08:32Z</time>
      </trkpt>
      <trkpt lat="46.459142155945301" lon="10.594657212495804">
        <ele>2849.48</ele>
        <time>2013-07-13T14:08:44Z</time>
      </trkpt>
      <trkpt lat="46.459141485393047" lon="10.594709599390626">
        <ele>2851.4099999999999</ele>
        <time>2013-07-13T14:08:53Z</time>
      </trkpt>
      <trkpt lat="46.459145424887538" lon="10.594783360138535">
        <ele>2852.8499999999999</ele>
        <time>2013-07-13T14:09:05Z</time>
      </trkpt>
      <trkpt lat="46.459158919751644" lon="10.594891989603639">
        <ele>2855.25</ele>
        <time>2013-07-13T14:09:20Z</time>
      </trkpt>
      <trkpt lat="46.459156824275851" lon="10.594968684017658">
        <ele>2856.6900000000001</ele>
        <time>2013-07-13T14:09:33Z</time>
      </trkpt>
      <trkpt lat="46.459143497049809" lon="10.595010844990611">
        <ele>2858.1399999999999</ele>
        <time>2013-07-13T14:09:43Z</time>
      </trkpt>
      <trkpt lat="46.459111561998725" lon="10.595086868852377">
        <ele>2860.0599999999999</ele>
        <time>2013-07-13T14:09:57Z</time>
      </trkpt>
      <trkpt lat="46.459147268906236" lon="10.595164066180587">
        <ele>2861.5</ele>
        <time>2013-07-13T14:10:11Z</time>
      </trkpt>
      <trkpt lat="46.459109801799059" lon="10.595145374536514">
        <ele>2861.98</ele>
        <time>2013-07-13T14:10:25Z</time>
      </trkpt>
      <trkpt lat="46.459112567827106" lon="10.595223996788263">
        <ele>2862.46</ele>
        <time>2013-07-13T14:10:39Z</time>
      </trkpt>
      <trkpt lat="46.459126984700561" lon="10.595336481928825">
        <ele>2865.3499999999999</ele>
        <time>2013-07-13T14:10:53Z</time>
      </trkpt>
      <trkpt lat="46.459142407402396" lon="10.595438238233328">
        <ele>2867.27</ele>
        <time>2013-07-13T14:11:06Z</time>
      </trkpt>
      <trkpt lat="46.459118686616421" lon="10.595517195761204">
        <ele>2869.1900000000001</ele>
        <time>2013-07-13T14:11:19Z</time>
      </trkpt>
      <trkpt lat="46.459114328026772" lon="10.595612498000264">
        <ele>2871.1100000000001</ele>
        <time>2013-07-13T14:11:33Z</time>
      </trkpt>
      <trkpt lat="46.459104353561997" lon="10.595692209899426">
        <ele>2872.5599999999999</ele>
        <time>2013-07-13T14:11:46Z</time>
      </trkpt>
      <trkpt lat="46.459084991365671" lon="10.595775106921792">
        <ele>2874.48</ele>
        <time>2013-07-13T14:11:59Z</time>
      </trkpt>
      <trkpt lat="46.459066802635789" lon="10.595872504636645">
        <ele>2876.4000000000001</ele>
        <time>2013-07-13T14:12:14Z</time>
      </trkpt>
      <trkpt lat="46.459013912826777" lon="10.595938973128796">
        <ele>2878.3200000000002</ele>
        <time>2013-07-13T14:12:27Z</time>
      </trkpt>
      <trkpt lat="46.458948366343975" lon="10.59598314575851">
        <ele>2879.29</ele>
        <time>2013-07-13T14:12:40Z</time>
      </trkpt>
      <trkpt lat="46.458953814581037" lon="10.595983732491732">
        <ele>2879.77</ele>
        <time>2013-07-13T14:13:03Z</time>
      </trkpt>
      <trkpt lat="46.458914587274194" lon="10.59606327675283">
        <ele>2881.6900000000001</ele>
        <time>2013-07-13T14:13:17Z</time>
      </trkpt>
      <trkpt lat="46.458878796547651" lon="10.596170565113425">
        <ele>2884.5700000000002</ele>
        <time>2013-07-13T14:13:34Z</time>
      </trkpt>
      <trkpt lat="46.458864798769355" lon="10.596243739128113">
        <ele>2886.5</ele>
        <time>2013-07-13T14:13:46Z</time>
      </trkpt>
      <trkpt lat="46.458851639181376" lon="10.596320852637291">
        <ele>2887.9400000000001</ele>
        <time>2013-07-13T14:13:59Z</time>
      </trkpt>
      <trkpt lat="46.458863792940974" lon="10.596372652798891">
        <ele>2888.9000000000001</ele>
        <time>2013-07-13T14:14:10Z</time>
      </trkpt>
      <trkpt lat="46.458877036347985" lon="10.596425458788872">
        <ele>2890.8200000000002</ele>
        <time>2013-07-13T14:14:22Z</time>
      </trkpt>
      <trkpt lat="46.458852477371693" lon="10.59649913571775">
        <ele>2892.7399999999998</ele>
        <time>2013-07-13T14:14:35Z</time>
      </trkpt>
      <trkpt lat="46.458825822919607" lon="10.596532160416245">
        <ele>2893.71</ele>
        <time>2013-07-13T14:14:48Z</time>
      </trkpt>
      <trkpt lat="46.458829008042812" lon="10.596603909507394">
        <ele>2895.1500000000001</ele>
        <time>2013-07-13T14:15:01Z</time>
      </trkpt>
      <trkpt lat="46.458824565634131" lon="10.59668093919754">
        <ele>2898.0300000000002</ele>
        <time>2013-07-13T14:15:17Z</time>
      </trkpt>
      <trkpt lat="46.458829259499907" lon="10.596766266971827">
        <ele>2898.9899999999998</ele>
        <time>2013-07-13T14:15:28Z</time>
      </trkpt>
      <trkpt lat="46.458788607269526" lon="10.596860982477665">
        <ele>2901.4000000000001</ele>
        <time>2013-07-13T14:15:43Z</time>
      </trkpt>
      <trkpt lat="46.458777124062181" lon="10.596935665234923">
        <ele>2902.3600000000001</ele>
        <time>2013-07-13T14:15:55Z</time>
      </trkpt>
      <trkpt lat="46.458742590621114" lon="10.596967516466975">
        <ele>2902.3600000000001</ele>
        <time>2013-07-13T14:16:00Z</time>
      </trkpt>
      <trkpt lat="46.458709565922618" lon="10.597031554207206">
        <ele>2904.2800000000002</ele>
        <time>2013-07-13T14:16:12Z</time>
      </trkpt>
      <trkpt lat="46.458666734397411" lon="10.597117133438587">
        <ele>2906.1999999999998</ele>
        <time>2013-07-13T14:16:27Z</time>
      </trkpt>
      <trkpt lat="46.458642510697246" lon="10.597181590273976">
        <ele>2907.1599999999999</ele>
        <time>2013-07-13T14:16:40Z</time>
      </trkpt>
      <trkpt lat="46.45859188400209" lon="10.597259039059281">
        <ele>2909.0900000000001</ele>
        <time>2013-07-13T14:16:53Z</time>
      </trkpt>
      <trkpt lat="46.45860219374299" lon="10.59734252281487">
        <ele>2911.4899999999998</ele>
        <time>2013-07-13T14:17:08Z</time>
      </trkpt>
      <trkpt lat="46.458597164601088" lon="10.597346629947424">
        <ele>2911.4899999999998</ele>
        <time>2013-07-13T14:17:09Z</time>
      </trkpt>
      <trkpt lat="46.458580903708935" lon="10.5973513238132">
        <ele>2912.4499999999998</ele>
        <time>2013-07-13T14:17:11Z</time>
      </trkpt>
      <trkpt lat="46.458523320034146" lon="10.597426174208522">
        <ele>2913.8899999999999</ele>
        <time>2013-07-13T14:17:25Z</time>
      </trkpt>
      <trkpt lat="46.458508651703596" lon="10.597485853359103">
        <ele>2915.8200000000002</ele>
        <time>2013-07-13T14:17:38Z</time>
      </trkpt>
      <trkpt lat="46.458491468802094" lon="10.597558356821537">
        <ele>2918.2199999999998</ele>
        <time>2013-07-13T14:17:52Z</time>
      </trkpt>
      <trkpt lat="46.458431035280228" lon="10.597613845020533">
        <ele>2920.1399999999999</ele>
        <time>2013-07-13T14:18:05Z</time>
      </trkpt>
      <trkpt lat="46.458370182663202" lon="10.597664471715689">
        <ele>2921.5799999999999</ele>
        <time>2013-07-13T14:18:17Z</time>
      </trkpt>
      <trkpt lat="46.45833489485085" lon="10.597719373181462">
        <ele>2924.4699999999998</ele>
        <time>2013-07-13T14:18:32Z</time>
      </trkpt>
      <trkpt lat="46.458307988941669" lon="10.597777124494314">
        <ele>2926.3899999999999</ele>
        <time>2013-07-13T14:18:45Z</time>
      </trkpt>
      <trkpt lat="46.458265660330653" lon="10.597837306559086">
        <ele>2927.8299999999999</ele>
        <time>2013-07-13T14:18:57Z</time>
      </trkpt>
      <trkpt lat="46.458225762471557" lon="10.597835630178452">
        <ele>2928.3099999999999</ele>
        <time>2013-07-13T14:19:10Z</time>
      </trkpt>
      <trkpt lat="46.458195336163044" lon="10.597831690683961">
        <ele>2928.3099999999999</ele>
        <time>2013-07-13T14:19:29Z</time>
      </trkpt>
      <trkpt lat="46.458230288699269" lon="10.597835211083293">
        <ele>2928.3099999999999</ele>
        <time>2013-07-13T14:19:38Z</time>
      </trkpt>
      <trkpt lat="46.458187540993094" lon="10.597825320437551">
        <ele>2928.79</ele>
        <time>2013-07-13T14:19:51Z</time>
      </trkpt>
      <trkpt lat="46.458178488537669" lon="10.597879216074944">
        <ele>2929.75</ele>
        <time>2013-07-13T14:20:06Z</time>
      </trkpt>
      <trkpt lat="46.458139764145017" lon="10.597961945459247">
        <ele>2932.1599999999999</ele>
        <time>2013-07-13T14:20:20Z</time>
      </trkpt>
      <trkpt lat="46.458113361150026" lon="10.598058253526688">
        <ele>2934.5599999999999</ele>
        <time>2013-07-13T14:20:33Z</time>
      </trkpt>
      <trkpt lat="46.458075139671564" lon="10.598173504695296">
        <ele>2936.48</ele>
        <time>2013-07-13T14:20:50Z</time>
      </trkpt>
      <trkpt lat="46.458042282611132" lon="10.598245924338698">
        <ele>2938.4099999999999</ele>
        <time>2013-07-13T14:21:03Z</time>
      </trkpt>
      <trkpt lat="46.458004061132669" lon="10.598324127495289">
        <ele>2940.3299999999999</ele>
        <time>2013-07-13T14:21:18Z</time>
      </trkpt>
      <trkpt lat="46.457957373932004" lon="10.598423788323998">
        <ele>2942.73</ele>
        <time>2013-07-13T14:21:36Z</time>
      </trkpt>
      <trkpt lat="46.457930635660887" lon="10.598504673689604">
        <ele>2945.6199999999999</ele>
        <time>2013-07-13T14:21:52Z</time>
      </trkpt>
      <trkpt lat="46.457916470244527" lon="10.598591510206461">
        <ele>2947.54</ele>
        <time>2013-07-13T14:22:07Z</time>
      </trkpt>
      <trkpt lat="46.457884199917316" lon="10.598667785525322">
        <ele>2949.46</ele>
        <time>2013-07-13T14:22:21Z</time>
      </trkpt>
      <trkpt lat="46.457865675911307" lon="10.598717071115971">
        <ele>2951.3800000000001</ele>
        <time>2013-07-13T14:22:33Z</time>
      </trkpt>
      <trkpt lat="46.457848744466901" lon="10.598798459395766">
        <ele>2952.8299999999999</ele>
        <time>2013-07-13T14:22:45Z</time>
      </trkpt>
      <trkpt lat="46.457861484959722" lon="10.598811116069555">
        <ele>2954.75</ele>
        <time>2013-07-13T14:22:57Z</time>
      </trkpt>
      <trkpt lat="46.457838434726" lon="10.598853696137667">
        <ele>2955.23</ele>
        <time>2013-07-13T14:23:13Z</time>
      </trkpt>
      <trkpt lat="46.457806499674916" lon="10.598923517391086">
        <ele>2957.6300000000001</ele>
        <time>2013-07-13T14:23:25Z</time>
      </trkpt>
      <trkpt lat="46.457799961790442" lon="10.59899652376771">
        <ele>2959.5599999999999</ele>
        <time>2013-07-13T14:23:38Z</time>
      </trkpt>
      <trkpt lat="46.457786383107305" lon="10.599041869863868">
        <ele>2961</ele>
        <time>2013-07-13T14:23:49Z</time>
      </trkpt>
      <trkpt lat="46.457790322601795" lon="10.599095430225134">
        <ele>2962.4400000000001</ele>
        <time>2013-07-13T14:23:59Z</time>
      </trkpt>
      <trkpt lat="46.457796776667237" lon="10.599166257306933">
        <ele>2964.3600000000001</ele>
        <time>2013-07-13T14:24:12Z</time>
      </trkpt>
      <trkpt lat="46.457783868536353" lon="10.599204981699586">
        <ele>2965.8000000000002</ele>
        <time>2013-07-13T14:24:22Z</time>
      </trkpt>
      <trkpt lat="46.457788478583097" lon="10.599226523190737">
        <ele>2967.73</ele>
        <time>2013-07-13T14:24:33Z</time>
      </trkpt>
      <trkpt lat="46.457752855494618" lon="10.599210681393743">
        <ele>2967.73</ele>
        <time>2013-07-13T14:24:47Z</time>
      </trkpt>
      <trkpt lat="46.457726452499628" lon="10.599235575646162">
        <ele>2968.21</ele>
        <time>2013-07-13T14:25:00Z</time>
      </trkpt>
      <trkpt lat="46.457746317610145" lon="10.59929265640676">
        <ele>2970.1300000000001</ele>
        <time>2013-07-13T14:25:12Z</time>
      </trkpt>
      <trkpt lat="46.457759393379092" lon="10.599351329728961">
        <ele>2972.0500000000002</ele>
        <time>2013-07-13T14:25:24Z</time>
      </trkpt>
      <trkpt lat="46.457772050052881" lon="10.599416121840477">
        <ele>2973.98</ele>
        <time>2013-07-13T14:25:37Z</time>
      </trkpt>
      <trkpt lat="46.457772217690945" lon="10.599463814869523">
        <ele>2975.4200000000001</ele>
        <time>2013-07-13T14:25:49Z</time>
      </trkpt>
      <trkpt lat="46.457779593765736" lon="10.599510921165347">
        <ele>2977.3400000000001</ele>
        <time>2013-07-13T14:26:02Z</time>
      </trkpt>
      <trkpt lat="46.457804068922997" lon="10.599548975005746">
        <ele>2979.7399999999998</ele>
        <time>2013-07-13T14:26:15Z</time>
      </trkpt>
      <trkpt lat="46.457800045609474" lon="10.599601697176695">
        <ele>2981.1900000000001</ele>
        <time>2013-07-13T14:26:28Z</time>
      </trkpt>
      <trkpt lat="46.4578125346452" lon="10.599636062979698">
        <ele>2982.1500000000001</ele>
        <time>2013-07-13T14:26:37Z</time>
      </trkpt>
      <trkpt lat="46.457833740860224" lon="10.599680487066507">
        <ele>2984.5500000000002</ele>
        <time>2013-07-13T14:26:48Z</time>
      </trkpt>
      <trkpt lat="46.457843631505966" lon="10.599691970273852">
        <ele>2984.0700000000002</ele>
        <time>2013-07-13T14:27:03Z</time>
      </trkpt>
      <trkpt lat="46.457846397534013" lon="10.599725916981697">
        <ele>2985.0300000000002</ele>
        <time>2013-07-13T14:27:07Z</time>
      </trkpt>
      <trkpt lat="46.457860143855214" lon="10.599775705486536">
        <ele>2986.9499999999998</ele>
        <time>2013-07-13T14:27:17Z</time>
      </trkpt>
      <trkpt lat="46.457886043936014" lon="10.599833792075515">
        <ele>2988.4000000000001</ele>
        <time>2013-07-13T14:27:28Z</time>
      </trkpt>
      <trkpt lat="46.457906328141689" lon="10.599876036867499">
        <ele>2990.3200000000002</ele>
        <time>2013-07-13T14:27:39Z</time>
      </trkpt>
      <trkpt lat="46.457892498001456" lon="10.599870420992374">
        <ele>2991.2800000000002</ele>
        <time>2013-07-13T14:27:55Z</time>
      </trkpt>
      <trkpt lat="46.457899706438184" lon="10.599913755431771">
        <ele>2992.2399999999998</ele>
        <time>2013-07-13T14:28:03Z</time>
      </trkpt>
      <trkpt lat="46.457922756671906" lon="10.599958933889866">
        <ele>2994.1599999999999</ele>
        <time>2013-07-13T14:28:13Z</time>
      </trkpt>
      <trkpt lat="46.457946142181754" lon="10.600002435967326">
        <ele>2995.5999999999999</ele>
        <time>2013-07-13T14:28:24Z</time>
      </trkpt>
      <trkpt lat="46.457951841875911" lon="10.600023306906223">
        <ele>2997.0500000000002</ele>
        <time>2013-07-13T14:28:32Z</time>
      </trkpt>
      <trkpt lat="46.457984112203121" lon="10.600043004378676">
        <ele>2998.0100000000002</ele>
        <time>2013-07-13T14:28:45Z</time>
      </trkpt>
      <trkpt lat="46.45800163038075" lon="10.600085584446788">
        <ele>2999.4499999999998</ele>
        <time>2013-07-13T14:28:55Z</time>
      </trkpt>
      <trkpt lat="46.457998193800449" lon="10.600114837288857">
        <ele>3000.8899999999999</ele>
        <time>2013-07-13T14:29:04Z</time>
      </trkpt>
      <trkpt lat="46.458020238205791" lon="10.600159680470824">
        <ele>3002.8200000000002</ele>
        <time>2013-07-13T14:29:17Z</time>
      </trkpt>
      <trkpt lat="46.458029877394438" lon="10.600186586380005">
        <ele>3004.7399999999998</ele>
        <time>2013-07-13T14:29:26Z</time>
      </trkpt>
      <trkpt lat="46.458060387521982" lon="10.600208798423409">
        <ele>3005.2199999999998</ele>
        <time>2013-07-13T14:29:40Z</time>
      </trkpt>
      <trkpt lat="46.45807740278542" lon="10.600241320207715">
        <ele>3006.6599999999999</ele>
        <time>2013-07-13T14:29:50Z</time>
      </trkpt>
      <trkpt lat="46.458116797730327" lon="10.600289348512888">
        <ele>3009.54</ele>
        <time>2013-07-13T14:30:02Z</time>
      </trkpt>
      <trkpt lat="46.458149906247854" lon="10.600333856418729">
        <ele>3010.5100000000002</ele>
        <time>2013-07-13T14:30:11Z</time>
      </trkpt>
      <trkpt lat="46.458114702254534" lon="10.600342825055122">
        <ele>3010.9899999999998</ele>
        <time>2013-07-13T14:30:28Z</time>
      </trkpt>
      <trkpt lat="46.458124341443181" lon="10.600329916924238">
        <ele>3010.9899999999998</ele>
        <time>2013-07-13T14:30:47Z</time>
      </trkpt>
      <trkpt lat="46.458142111077905" lon="10.600368054583669">
        <ele>3011.4699999999998</ele>
        <time>2013-07-13T14:31:02Z</time>
      </trkpt>
      <trkpt lat="46.458158204331994" lon="10.600443659350276">
        <ele>3012.9099999999999</ele>
        <time>2013-07-13T14:31:11Z</time>
      </trkpt>
      <trkpt lat="46.458186702802777" lon="10.600495794788003">
        <ele>3015.3099999999999</ele>
        <time>2013-07-13T14:31:20Z</time>
      </trkpt>
      <trkpt lat="46.458200113847852" lon="10.600525634363294">
        <ele>3016.75</ele>
        <time>2013-07-13T14:31:30Z</time>
      </trkpt>
      <trkpt lat="46.458213105797768" lon="10.600556395947933">
        <ele>3018.1999999999998</ele>
        <time>2013-07-13T14:31:39Z</time>
      </trkpt>
      <trkpt lat="46.458230121061206" lon="10.600608363747597">
        <ele>3019.6399999999999</ele>
        <time>2013-07-13T14:31:49Z</time>
      </trkpt>
      <trkpt lat="46.458256356418133" lon="10.600663935765624">
        <ele>3021.5599999999999</ele>
        <time>2013-07-13T14:32:02Z</time>
      </trkpt>
      <trkpt lat="46.458275970071554" lon="10.60071162879467">
        <ele>3023</ele>
        <time>2013-07-13T14:32:14Z</time>
      </trkpt>
      <trkpt lat="46.458289213478565" lon="10.600755633786321">
        <ele>3024.4400000000001</ele>
        <time>2013-07-13T14:32:25Z</time>
      </trkpt>
      <trkpt lat="46.45830949768424" lon="10.600779773667455">
        <ele>3025.4099999999999</ele>
        <time>2013-07-13T14:32:37Z</time>
      </trkpt>
      <trkpt lat="46.458340175449848" lon="10.600830400362611">
        <ele>3028.29</ele>
        <time>2013-07-13T14:32:50Z</time>
      </trkpt>
      <trkpt lat="46.458364902064204" lon="10.600859234109521">
        <ele>3029.73</ele>
        <time>2013-07-13T14:33:01Z</time>
      </trkpt>
      <trkpt lat="46.458404883742332" lon="10.600894773378968">
        <ele>3031.1700000000001</ele>
        <time>2013-07-13T14:33:14Z</time>
      </trkpt>
      <trkpt lat="46.458434723317623" lon="10.600911704823375">
        <ele>3032.6199999999999</ele>
        <time>2013-07-13T14:33:28Z</time>
      </trkpt>
      <trkpt lat="46.458461964502931" lon="10.600926289334893">
        <ele>3034.0599999999999</ele>
        <time>2013-07-13T14:33:38Z</time>
      </trkpt>
      <trkpt lat="46.458490546792746" lon="10.600968282669783">
        <ele>3035.02</ele>
        <time>2013-07-13T14:33:47Z</time>
      </trkpt>
      <trkpt lat="46.458508567884564" lon="10.600977838039398">
        <ele>3036.9400000000001</ele>
        <time>2013-07-13T14:34:00Z</time>
      </trkpt>
      <trkpt lat="46.458541508764029" lon="10.60101605951786">
        <ele>3038.8600000000001</ele>
        <time>2013-07-13T14:34:15Z</time>
      </trkpt>
      <trkpt lat="46.458562128245831" lon="10.601044474169612">
        <ele>3039.8299999999999</ele>
        <time>2013-07-13T14:34:25Z</time>
      </trkpt>
      <trkpt lat="46.45859582349658" lon="10.601060818880796">
        <ele>3042.23</ele>
        <time>2013-07-13T14:34:39Z</time>
      </trkpt>
      <trkpt lat="46.458617197349668" lon="10.601091496646404">
        <ele>3043.1900000000001</ele>
        <time>2013-07-13T14:34:55Z</time>
      </trkpt>
      <trkpt lat="46.458652652800083" lon="10.601129299029708">
        <ele>3045.1100000000001</ele>
        <time>2013-07-13T14:35:08Z</time>
      </trkpt>
      <trkpt lat="46.458689700812101" lon="10.601139944046736">
        <ele>3047.04</ele>
        <time>2013-07-13T14:35:19Z</time>
      </trkpt>
      <trkpt lat="46.458691209554672" lon="10.601141536608338">
        <ele>3048</ele>
        <time>2013-07-13T14:35:32Z</time>
      </trkpt>
      <trkpt lat="46.458689114078879" lon="10.601141704246402">
        <ele>3048.48</ele>
        <time>2013-07-13T14:35:49Z</time>
      </trkpt>
      <trkpt lat="46.458716858178377" lon="10.601160395890474">
        <ele>3049.4400000000001</ele>
        <time>2013-07-13T14:36:14Z</time>
      </trkpt>
      <trkpt lat="46.458713673055172" lon="10.601170035079122">
        <ele>3050.4000000000001</ele>
        <time>2013-07-13T14:36:30Z</time>
      </trkpt>
      <trkpt lat="46.458773016929626" lon="10.601210100576282">
        <ele>3052.3200000000002</ele>
        <time>2013-07-13T14:36:42Z</time>
      </trkpt>
      <trkpt lat="46.458820458501577" lon="10.601240778341889">
        <ele>3054.73</ele>
        <time>2013-07-13T14:36:53Z</time>
      </trkpt>
      <trkpt lat="46.458852477371693" lon="10.601267013698816">
        <ele>3056.6500000000001</ele>
        <time>2013-07-13T14:37:06Z</time>
      </trkpt>
      <trkpt lat="46.458860021084547" lon="10.601266426965594">
        <ele>3057.1300000000001</ele>
        <time>2013-07-13T14:37:18Z</time>
      </trkpt>
      <trkpt lat="46.458886926993728" lon="10.601283526048064">
        <ele>3058.5700000000002</ele>
        <time>2013-07-13T14:37:31Z</time>
      </trkpt>
      <trkpt lat="46.458930680528283" lon="10.6012989487499">
        <ele>3060.0100000000002</ele>
        <time>2013-07-13T14:37:44Z</time>
      </trkpt>
      <trkpt lat="46.458976194262505" lon="10.601344294846058">
        <ele>3061.9400000000001</ele>
        <time>2013-07-13T14:37:57Z</time>
      </trkpt>
      <trkpt lat="46.459019780158997" lon="10.60137371532619">
        <ele>3063.8600000000001</ele>
        <time>2013-07-13T14:38:08Z</time>
      </trkpt>
      <trkpt lat="46.459046434611082" lon="10.60138444416225">
        <ele>3065.3000000000002</ele>
        <time>2013-07-13T14:38:19Z</time>
      </trkpt>
      <trkpt lat="46.459088008850813" lon="10.601410763338208">
        <ele>3066.2600000000002</ele>
        <time>2013-07-13T14:38:30Z</time>
      </trkpt>
      <trkpt lat="46.459117094054818" lon="10.601439094170928">
        <ele>3068.1900000000001</ele>
        <time>2013-07-13T14:38:42Z</time>
      </trkpt>
      <trkpt lat="46.459163194522262" lon="10.601468933746219">
        <ele>3070.1100000000001</ele>
        <time>2013-07-13T14:38:54Z</time>
      </trkpt>
      <trkpt lat="46.459196554496884" lon="10.601490726694465">
        <ele>3071.0700000000002</ele>
        <time>2013-07-13T14:39:04Z</time>
      </trkpt>
      <trkpt lat="46.459178365767002" lon="10.601496594026685">
        <ele>3072.0300000000002</ele>
        <time>2013-07-13T14:39:19Z</time>
      </trkpt>
      <trkpt lat="46.459173671901226" lon="10.601482093334198">
        <ele>3071.0700000000002</ele>
        <time>2013-07-13T14:39:40Z</time>
      </trkpt>
      <trkpt lat="46.459177695214748" lon="10.601490810513496">
        <ele>3071.0700000000002</ele>
        <time>2013-07-13T14:39:57Z</time>
      </trkpt>
      <trkpt lat="46.4591802097857" lon="10.601503551006317">
        <ele>3071.5500000000002</ele>
        <time>2013-07-13T14:40:16Z</time>
      </trkpt>
      <trkpt lat="46.459162104874849" lon="10.601497180759907">
        <ele>3071.0700000000002</ele>
        <time>2013-07-13T14:40:33Z</time>
      </trkpt>
      <trkpt lat="46.459166882559657" lon="10.601496007293463">
        <ele>3070.5900000000001</ele>
        <time>2013-07-13T14:40:34Z</time>
      </trkpt>
      <trkpt lat="46.459139054641128" lon="10.601515369489789">
        <ele>3070.5900000000001</ele>
        <time>2013-07-13T14:40:50Z</time>
      </trkpt>
      <trkpt lat="46.45914651453495" lon="10.601486871019006">
        <ele>3070.5900000000001</ele>
        <time>2013-07-13T14:41:08Z</time>
      </trkpt>
      <trkpt lat="46.459146430715919" lon="10.601470023393631">
        <ele>3071.0700000000002</ele>
        <time>2013-07-13T14:41:23Z</time>
      </trkpt>
      <trkpt lat="46.459149196743965" lon="10.601481422781944">
        <ele>3071.5500000000002</ele>
        <time>2013-07-13T14:41:43Z</time>
      </trkpt>
      <trkpt lat="46.459156488999724" lon="10.601460551843047">
        <ele>3072.0300000000002</ele>
        <time>2013-07-13T14:42:05Z</time>
      </trkpt>
      <trkpt lat="46.459144083783031" lon="10.601481674239039">
        <ele>3071.0700000000002</ele>
        <time>2013-07-13T14:42:24Z</time>
      </trkpt>
      <trkpt lat="46.459195297211409" lon="10.601459462195635">
        <ele>3072.0300000000002</ele>
        <time>2013-07-13T14:42:42Z</time>
      </trkpt>
      <trkpt lat="46.459224969148636" lon="10.601459043100476">
        <ele>3073.4699999999998</ele>
        <time>2013-07-13T14:42:47Z</time>
      </trkpt>
      <trkpt lat="46.459331251680851" lon="10.601450074464083">
        <ele>3072.5100000000002</ele>
        <time>2013-07-13T14:43:05Z</time>
      </trkpt>
      <trkpt lat="46.459407862275839" lon="10.601472286507487">
        <ele>3073.9499999999998</ele>
        <time>2013-07-13T14:43:19Z</time>
      </trkpt>
      <trkpt lat="46.459468798711896" lon="10.601468347012997">
        <ele>3075.8800000000001</ele>
        <time>2013-07-13T14:43:32Z</time>
      </trkpt>
      <trkpt lat="46.459535015746951" lon="10.601428030058742">
        <ele>3077.8000000000002</ele>
        <time>2013-07-13T14:43:46Z</time>
      </trkpt>
      <trkpt lat="46.459585390985012" lon="10.601391233503819">
        <ele>3079.7199999999998</ele>
        <time>2013-07-13T14:44:00Z</time>
      </trkpt>
      <trkpt lat="46.459618164226413" lon="10.601362315937877">
        <ele>3081.6399999999999</ele>
        <time>2013-07-13T14:44:12Z</time>
      </trkpt>
      <trkpt lat="46.459669461473823" lon="10.601326357573271">
        <ele>3083.0900000000001</ele>
        <time>2013-07-13T14:44:23Z</time>
      </trkpt>
      <trkpt lat="46.459732661023736" lon="10.601282687857747">
        <ele>3085.0100000000002</ele>
        <time>2013-07-13T14:44:39Z</time>
      </trkpt>
      <trkpt lat="46.45977683365345" lon="10.601250501349568">
        <ele>3086.9299999999998</ele>
        <time>2013-07-13T14:44:53Z</time>
      </trkpt>
      <trkpt lat="46.459824945777655" lon="10.60126424767077">
        <ele>3087.4099999999999</ele>
        <time>2013-07-13T14:45:03Z</time>
      </trkpt>
      <trkpt lat="46.459857048466802" lon="10.601257793605328">
        <ele>3089.3299999999999</ele>
        <time>2013-07-13T14:45:13Z</time>
      </trkpt>
      <trkpt lat="46.459914296865463" lon="10.601249663159251">
        <ele>3090.7800000000002</ele>
        <time>2013-07-13T14:45:26Z</time>
      </trkpt>
      <trkpt lat="46.459939861670136" lon="10.6012471485883">
        <ele>3092.2199999999998</ele>
        <time>2013-07-13T14:45:35Z</time>
      </trkpt>
      <trkpt lat="46.459990991279483" lon="10.601236335933208">
        <ele>3093.6599999999999</ele>
        <time>2013-07-13T14:45:51Z</time>
      </trkpt>
      <trkpt lat="46.460035834461451" lon="10.601232647895813">
        <ele>3095.0999999999999</ele>
        <time>2013-07-13T14:46:02Z</time>
      </trkpt>
      <trkpt lat="46.460070367902517" lon="10.601223176345229">
        <ele>3097.5100000000002</ele>
        <time>2013-07-13T14:46:17Z</time>
      </trkpt>
      <trkpt lat="46.460101883858442" lon="10.601226864382625">
        <ele>3098.4699999999998</ele>
        <time>2013-07-13T14:46:27Z</time>
      </trkpt>
      <trkpt lat="46.46012619137764" lon="10.601219236850739">
        <ele>3099.4299999999998</ele>
        <time>2013-07-13T14:46:42Z</time>
      </trkpt>
      <trkpt lat="46.460159886628389" lon="10.601246729493141">
        <ele>3101.3499999999999</ele>
        <time>2013-07-13T14:46:53Z</time>
      </trkpt>
      <trkpt lat="46.460209172219038" lon="10.601253435015678">
        <ele>3102.3099999999999</ele>
        <time>2013-07-13T14:47:06Z</time>
      </trkpt>
      <trkpt lat="46.460240939632058" lon="10.601237341761589">
        <ele>3104.23</ele>
        <time>2013-07-13T14:47:18Z</time>
      </trkpt>
      <trkpt lat="46.460219817236066" lon="10.6012471485883">
        <ele>3105.1999999999998</ele>
        <time>2013-07-13T14:47:32Z</time>
      </trkpt>
      <trkpt lat="46.460219565778971" lon="10.60125888325274">
        <ele>3104.23</ele>
        <time>2013-07-13T14:47:49Z</time>
      </trkpt>
      <trkpt lat="46.460223002359271" lon="10.60123248025775">
        <ele>3103.75</ele>
        <time>2013-07-13T14:48:12Z</time>
      </trkpt>
      <trkpt lat="46.460221409797668" lon="10.601218231022358">
        <ele>3104.71</ele>
        <time>2013-07-13T14:48:40Z</time>
      </trkpt>
      <trkpt lat="46.460215291008353" lon="10.601250668987632">
        <ele>3104.71</ele>
        <time>2013-07-13T14:48:59Z</time>
      </trkpt>
      <trkpt lat="46.460190396755934" lon="10.601247735321522">
        <ele>3104.71</ele>
        <time>2013-07-13T14:49:19Z</time>
      </trkpt>
      <trkpt lat="46.460200706496835" lon="10.601251423358917">
        <ele>3105.1999999999998</ele>
        <time>2013-07-13T14:49:40Z</time>
      </trkpt>
      <trkpt lat="46.460194084793329" lon="10.601221919059753">
        <ele>3104.71</ele>
        <time>2013-07-13T14:50:02Z</time>
      </trkpt>
      <trkpt lat="46.46019022911787" lon="10.601234659552574">
        <ele>3106.1599999999999</ele>
        <time>2013-07-13T14:50:23Z</time>
      </trkpt>
      <trkpt lat="46.460168687626719" lon="10.601224265992641">
        <ele>3106.6399999999999</ele>
        <time>2013-07-13T14:50:42Z</time>
      </trkpt>
      <trkpt lat="46.460166005417705" lon="10.601225690916181">
        <ele>3106.6399999999999</ele>
        <time>2013-07-13T14:51:04Z</time>
      </trkpt>
      <trkpt lat="46.460171202197671" lon="10.601229714229703">
        <ele>3104.71</ele>
        <time>2013-07-13T14:51:06Z</time>
      </trkpt>
      <trkpt lat="46.460176231339574" lon="10.601220410317183">
        <ele>3104.23</ele>
        <time>2013-07-13T14:51:32Z</time>
      </trkpt>
      <trkpt lat="46.460177656263113" lon="10.601236084476113">
        <ele>3104.71</ele>
        <time>2013-07-13T14:52:03Z</time>
      </trkpt>
      <trkpt lat="46.460257116705179" lon="10.601205406710505">
        <ele>3107.1199999999999</ele>
        <time>2013-07-13T14:52:16Z</time>
      </trkpt>
      <trkpt lat="46.46033288910985" lon="10.601208675652742">
        <ele>3110</ele>
        <time>2013-07-13T14:52:30Z</time>
      </trkpt>
      <trkpt lat="46.460239011794329" lon="10.601252261549234">
        <ele>3112.4099999999999</ele>
        <time>2013-07-13T14:52:44Z</time>
      </trkpt>
      <trkpt lat="46.460296595469117" lon="10.601201383396983">
        <ele>3114.3299999999999</ele>
        <time>2013-07-13T14:52:58Z</time>
      </trkpt>
      <trkpt lat="46.460347305983305" lon="10.601189145818353">
        <ele>3115.77</ele>
        <time>2013-07-13T14:53:10Z</time>
      </trkpt>
      <trkpt lat="46.46040472202003" lon="10.601153522729874">
        <ele>3117.21</ele>
        <time>2013-07-13T14:53:25Z</time>
      </trkpt>
      <trkpt lat="46.460490301251411" lon="10.601114127784967">
        <ele>3119.1300000000001</ele>
        <time>2013-07-13T14:53:46Z</time>
      </trkpt>
      <trkpt lat="46.460570683702826" lon="10.601094095036387">
        <ele>3121.0599999999999</ele>
        <time>2013-07-13T14:54:02Z</time>
      </trkpt>
      <trkpt lat="46.460627596825361" lon="10.601058220490813">
        <ele>3122.02</ele>
        <time>2013-07-13T14:54:15Z</time>
      </trkpt>
      <trkpt lat="46.460696579888463" lon="10.601027458906174">
        <ele>3124.4200000000001</ele>
        <time>2013-07-13T14:54:32Z</time>
      </trkpt>
      <trkpt lat="46.460780147463083" lon="10.60102041810751">
        <ele>3125.8600000000001</ele>
        <time>2013-07-13T14:54:46Z</time>
      </trkpt>
      <trkpt lat="46.460842257365584" lon="10.600999295711517">
        <ele>3127.79</ele>
        <time>2013-07-13T14:54:59Z</time>
      </trkpt>
      <trkpt lat="46.460870504379272" lon="10.600976329296827">
        <ele>3129.23</ele>
        <time>2013-07-13T14:55:11Z</time>
      </trkpt>
      <trkpt lat="46.460921382531524" lon="10.600967025384307">
        <ele>3130.6700000000001</ele>
        <time>2013-07-13T14:55:24Z</time>
      </trkpt>
      <trkpt lat="46.460972763597965" lon="10.600975323468447">
        <ele>3132.1100000000001</ele>
        <time>2013-07-13T14:55:38Z</time>
      </trkpt>
      <trkpt lat="46.461007883772254" lon="10.60097842477262">
        <ele>3134.52</ele>
        <time>2013-07-13T14:55:51Z</time>
      </trkpt>
      <trkpt lat="46.461029509082437" lon="10.600993763655424">
        <ele>3136.4400000000001</ele>
        <time>2013-07-13T14:56:03Z</time>
      </trkpt>
      <trkpt lat="46.4610555768013" lon="10.601005498319864">
        <ele>3137.8800000000001</ele>
        <time>2013-07-13T14:56:17Z</time>
      </trkpt>
      <trkpt lat="46.461077621206641" lon="10.60101019218564">
        <ele>3139.8000000000002</ele>
        <time>2013-07-13T14:56:29Z</time>
      </trkpt>
      <trkpt lat="46.461099246516824" lon="10.601035170257092">
        <ele>3141.25</ele>
        <time>2013-07-13T14:56:40Z</time>
      </trkpt>
      <trkpt lat="46.461103605106473" lon="10.601049084216356">
        <ele>3142.6900000000001</ele>
        <time>2013-07-13T14:56:55Z</time>
      </trkpt>
      <trkpt lat="46.461126990616322" lon="10.601062076166272">
        <ele>3144.6100000000001</ele>
        <time>2013-07-13T14:57:13Z</time>
      </trkpt>
      <trkpt lat="46.461146352812648" lon="10.601090909913182">
        <ele>3147.0100000000002</ele>
        <time>2013-07-13T14:57:28Z</time>
      </trkpt>
      <trkpt lat="46.461162446066737" lon="10.601081773638725">
        <ele>3148.46</ele>
        <time>2013-07-13T14:57:42Z</time>
      </trkpt>
      <trkpt lat="46.461189687252045" lon="10.601088982075453">
        <ele>3150.3800000000001</ele>
        <time>2013-07-13T14:57:56Z</time>
      </trkpt>
      <trkpt lat="46.461210390552878" lon="10.601120665669441">
        <ele>3151.8200000000002</ele>
        <time>2013-07-13T14:58:18Z</time>
      </trkpt>
      <trkpt lat="46.461234362795949" lon="10.601108595728874">
        <ele>3154.6999999999998</ele>
        <time>2013-07-13T14:58:36Z</time>
      </trkpt>
      <trkpt lat="46.46123637445271" lon="10.601105913519859">
        <ele>3155.6599999999999</ele>
        <time>2013-07-13T14:58:49Z</time>
      </trkpt>
      <trkpt lat="46.461254227906466" lon="10.601107506081462">
        <ele>3157.5900000000001</ele>
        <time>2013-07-13T14:59:02Z</time>
      </trkpt>
      <trkpt lat="46.46127543412149" lon="10.601118318736553">
        <ele>3159.5100000000002</ele>
        <time>2013-07-13T14:59:17Z</time>
      </trkpt>
      <trkpt lat="46.461289180442691" lon="10.601126533001661">
        <ele>3160.9499999999998</ele>
        <time>2013-07-13T14:59:29Z</time>
      </trkpt>
      <trkpt lat="46.461297646164894" lon="10.601132400333881">
        <ele>3162.8800000000001</ele>
        <time>2013-07-13T14:59:41Z</time>
      </trkpt>
      <trkpt lat="46.461315918713808" lon="10.601128796115518">
        <ele>3163.3600000000001</ele>
        <time>2013-07-13T14:59:55Z</time>
      </trkpt>
      <trkpt lat="46.461331089958549" lon="10.601123012602329">
        <ele>3165.2800000000002</ele>
        <time>2013-07-13T15:00:07Z</time>
      </trkpt>
      <trkpt lat="46.461332179605961" lon="10.601118821650743">
        <ele>3168.6399999999999</ele>
        <time>2013-07-13T15:00:24Z</time>
      </trkpt>
      <trkpt lat="46.461384315043688" lon="10.601098788902164">
        <ele>3168.6399999999999</ele>
        <time>2013-07-13T15:00:42Z</time>
      </trkpt>
      <trkpt lat="46.461426392197609" lon="10.601081103086472">
        <ele>3170.5700000000002</ele>
        <time>2013-07-13T15:00:55Z</time>
      </trkpt>
      <trkpt lat="46.461463272571564" lon="10.601055538281798">
        <ele>3172.9699999999998</ele>
        <time>2013-07-13T15:01:06Z</time>
      </trkpt>
      <trkpt lat="46.46149487234652" lon="10.601022262126207">
        <ele>3174.4099999999999</ele>
        <time>2013-07-13T15:01:16Z</time>
      </trkpt>
      <trkpt lat="46.461513312533498" lon="10.600993679836392">
        <ele>3176.3299999999999</ele>
        <time>2013-07-13T15:01:29Z</time>
      </trkpt>
      <trkpt lat="46.461547259241343" lon="10.60096861794591">
        <ele>3178.2600000000002</ele>
        <time>2013-07-13T15:01:42Z</time>
      </trkpt>
      <trkpt lat="46.461561843752861" lon="10.600965768098831">
        <ele>3179.2199999999998</ele>
        <time>2013-07-13T15:01:52Z</time>
      </trkpt>
      <trkpt lat="46.461571315303445" lon="10.600961660966277">
        <ele>3180.6599999999999</ele>
        <time>2013-07-13T15:02:04Z</time>
      </trkpt>
      <trkpt lat="46.461600819602609" lon="10.600962499156594">
        <ele>3181.6199999999999</ele>
        <time>2013-07-13T15:02:23Z</time>
      </trkpt>
      <trkpt lat="46.461631078273058" lon="10.600951602682471">
        <ele>3183.54</ele>
        <time>2013-07-13T15:02:35Z</time>
      </trkpt>
      <trkpt lat="46.461664186790586" lon="10.600948082283139">
        <ele>3185.4699999999998</ele>
        <time>2013-07-13T15:02:46Z</time>
      </trkpt>
      <trkpt lat="46.461699977517128" lon="10.60093735344708">
        <ele>3187.3899999999999</ele>
        <time>2013-07-13T15:02:57Z</time>
      </trkpt>
      <trkpt lat="46.461736438795924" lon="10.600939532741904">
        <ele>3189.3099999999999</ele>
        <time>2013-07-13T15:03:10Z</time>
      </trkpt>
      <trkpt lat="46.461742976680398" lon="10.60097448527813">
        <ele>3190.27</ele>
        <time>2013-07-13T15:03:24Z</time>
      </trkpt>
      <trkpt lat="46.461737276986241" lon="10.601040031760931">
        <ele>3191.23</ele>
        <time>2013-07-13T15:03:39Z</time>
      </trkpt>
      <trkpt lat="46.461731493473053" lon="10.601039780303836">
        <ele>3192.6799999999998</ele>
        <time>2013-07-13T15:04:02Z</time>
      </trkpt>
      <trkpt lat="46.461747167631984" lon="10.601028967648745">
        <ele>3191.23</ele>
        <time>2013-07-13T15:04:21Z</time>
      </trkpt>
      <trkpt lat="46.46175479516387" lon="10.601040786132216">
        <ele>3191.71</ele>
        <time>2013-07-13T15:04:37Z</time>
      </trkpt>
      <trkpt lat="46.46175186149776" lon="10.601044138893485">
        <ele>3191.71</ele>
        <time>2013-07-13T15:04:58Z</time>
      </trkpt>
      <trkpt lat="46.461758147925138" lon="10.601017232984304">
        <ele>3193.1599999999999</ele>
        <time>2013-07-13T15:05:09Z</time>
      </trkpt>
      <trkpt lat="46.461753873154521" lon="10.601017903536558">
        <ele>3192.1999999999998</ele>
        <time>2013-07-13T15:05:26Z</time>
      </trkpt>
      <trkpt lat="46.461754711344838" lon="10.601015221327543">
        <ele>3192.1999999999998</ele>
        <time>2013-07-13T15:05:48Z</time>
      </trkpt>
      <trkpt lat="46.46175186149776" lon="10.601014718413353">
        <ele>3192.6799999999998</ele>
        <time>2013-07-13T15:06:10Z</time>
      </trkpt>
      <trkpt lat="46.461754459887743" lon="10.601010276004672">
        <ele>3192.6799999999998</ele>
        <time>2013-07-13T15:06:28Z</time>
      </trkpt>
      <trkpt lat="46.46180173382163" lon="10.600997200235724">
        <ele>3194.5999999999999</ele>
        <time>2013-07-13T15:06:41Z</time>
      </trkpt>
      <trkpt lat="46.461866023018956" lon="10.601034499704838">
        <ele>3197.48</ele>
        <time>2013-07-13T15:06:56Z</time>
      </trkpt>
      <trkpt lat="46.461853869259357" lon="10.601089736446738">
        <ele>3199.4000000000001</ele>
        <time>2013-07-13T15:07:10Z</time>
      </trkpt>
      <trkpt lat="46.461848840117455" lon="10.601151762530208">
        <ele>3201.8099999999999</ele>
        <time>2013-07-13T15:07:24Z</time>
      </trkpt>
      <trkpt lat="46.461811289191246" lon="10.601240275427699">
        <ele>3202.77</ele>
        <time>2013-07-13T15:07:38Z</time>
      </trkpt>
      <trkpt lat="46.461807182058692" lon="10.601305654272437">
        <ele>3204.6900000000001</ele>
        <time>2013-07-13T15:07:53Z</time>
      </trkpt>
      <trkpt lat="46.461802404373884" lon="10.601363237947226">
        <ele>3206.6100000000001</ele>
        <time>2013-07-13T15:08:08Z</time>
      </trkpt>
      <trkpt lat="46.461847666651011" lon="10.601323340088129">
        <ele>3208.0599999999999</ele>
        <time>2013-07-13T15:08:19Z</time>
      </trkpt>
      <trkpt lat="46.461865687742829" lon="10.601360891014338">
        <ele>3209.98</ele>
        <time>2013-07-13T15:08:30Z</time>
      </trkpt>
      <trkpt lat="46.461832327768207" lon="10.601438758894801">
        <ele>3211.9000000000001</ele>
        <time>2013-07-13T15:08:44Z</time>
      </trkpt>
      <trkpt lat="46.46183735691011" lon="10.60149441473186">
        <ele>3213.3400000000001</ele>
        <time>2013-07-13T15:08:55Z</time>
      </trkpt>
      <trkpt lat="46.461838781833649" lon="10.601531630381942">
        <ele>3215.27</ele>
        <time>2013-07-13T15:09:07Z</time>
      </trkpt>
      <trkpt lat="46.461871303617954" lon="10.601497599855065">
        <ele>3216.71</ele>
        <time>2013-07-13T15:09:21Z</time>
      </trkpt>
      <trkpt lat="46.461894689127803" lon="10.601538335904479">
        <ele>3218.6300000000001</ele>
        <time>2013-07-13T15:09:37Z</time>
      </trkpt>
      <trkpt lat="46.461877422407269" lon="10.601601535454392">
        <ele>3220.5500000000002</ele>
        <time>2013-07-13T15:09:49Z</time>
      </trkpt>
      <trkpt lat="46.461915140971541" lon="10.601556189358234">
        <ele>3221.52</ele>
        <time>2013-07-13T15:10:01Z</time>
      </trkpt>
      <trkpt lat="46.461950931698084" lon="10.601579491049051">
        <ele>3222.96</ele>
        <time>2013-07-13T15:10:14Z</time>
      </trkpt>
      <trkpt lat="46.46196492947638" lon="10.601544370874763">
        <ele>3224.4000000000001</ele>
        <time>2013-07-13T15:10:26Z</time>
      </trkpt>
      <trkpt lat="46.461997367441654" lon="10.601526098325849">
        <ele>3225.8400000000001</ele>
        <time>2013-07-13T15:10:40Z</time>
      </trkpt>
      <trkpt lat="46.462037852033973" lon="10.601516626775265">
        <ele>3227.7600000000002</ele>
        <time>2013-07-13T15:10:53Z</time>
      </trkpt>
      <trkpt lat="46.462032906711102" lon="10.6015994399786">
        <ele>3228.73</ele>
        <time>2013-07-13T15:11:06Z</time>
      </trkpt>
      <trkpt lat="46.461995523422956" lon="10.601679235696793">
        <ele>3230.1700000000001</ele>
        <time>2013-07-13T15:11:19Z</time>
      </trkpt>
      <trkpt lat="46.461985548958182" lon="10.601754002273083">
        <ele>3232.5700000000002</ele>
        <time>2013-07-13T15:11:35Z</time>
      </trkpt>
      <trkpt lat="46.461971215903759" lon="10.601828936487436">
        <ele>3234.0100000000002</ele>
        <time>2013-07-13T15:11:48Z</time>
      </trkpt>
      <trkpt lat="46.461948500946164" lon="10.601924657821655">
        <ele>3235.4499999999998</ele>
        <time>2013-07-13T15:12:02Z</time>
      </trkpt>
      <trkpt lat="46.461964594200253" lon="10.601935219019651">
        <ele>3236.9000000000001</ele>
        <time>2013-07-13T15:12:16Z</time>
      </trkpt>
      <trkpt lat="46.461998289451003" lon="10.601913258433342">
        <ele>3238.8200000000002</ele>
        <time>2013-07-13T15:12:29Z</time>
      </trkpt>
      <trkpt lat="46.462027123197913" lon="10.601914096623659">
        <ele>3240.7399999999998</ele>
        <time>2013-07-13T15:12:41Z</time>
      </trkpt>
      <trkpt lat="46.462043132632971" lon="10.601882832124829">
        <ele>3241.6999999999998</ele>
        <time>2013-07-13T15:12:56Z</time>
      </trkpt>
      <trkpt lat="46.462065512314439" lon="10.60187017545104">
        <ele>3242.1799999999998</ele>
        <time>2013-07-13T15:13:22Z</time>
      </trkpt>
      <trkpt lat="46.462081857025623" lon="10.601842263713479">
        <ele>3242.1799999999998</ele>
        <time>2013-07-13T15:13:38Z</time>
      </trkpt>
      <trkpt lat="46.462084455415606" lon="10.601821895688772">
        <ele>3242.1799999999998</ele>
        <time>2013-07-13T15:13:45Z</time>
      </trkpt>
      <trkpt lat="46.462167017161846" lon="10.601746374741197">
        <ele>3243.1399999999999</ele>
        <time>2013-07-13T15:13:59Z</time>
      </trkpt>
      <trkpt lat="46.462151510640979" lon="10.601858524605632">
        <ele>3246.0300000000002</ele>
        <time>2013-07-13T15:14:14Z</time>
      </trkpt>
      <trkpt lat="46.462200209498405" lon="10.601816866546869">
        <ele>3247.4699999999998</ele>
        <time>2013-07-13T15:14:27Z</time>
      </trkpt>
      <trkpt lat="46.462212363258004" lon="10.601892387494445">
        <ele>3249.3899999999999</ele>
        <time>2013-07-13T15:14:41Z</time>
      </trkpt>
      <trkpt lat="46.46221311762929" lon="10.601895824074745">
        <ele>3250.3499999999999</ele>
        <time>2013-07-13T15:14:59Z</time>
      </trkpt>
      <trkpt lat="46.462200293317437" lon="10.601949971169233">
        <ele>3251.8000000000002</ele>
        <time>2013-07-13T15:15:12Z</time>
      </trkpt>
      <trkpt lat="46.462258044630289" lon="10.601961119100451">
        <ele>3254.1999999999998</ele>
        <time>2013-07-13T15:15:25Z</time>
      </trkpt>
      <trkpt lat="46.462309090420604" lon="10.602016355842352">
        <ele>3255.1599999999999</ele>
        <time>2013-07-13T15:15:39Z</time>
      </trkpt>
      <trkpt lat="46.462354604154825" lon="10.602025324478745">
        <ele>3256.1199999999999</ele>
        <time>2013-07-13T15:15:47Z</time>
      </trkpt>
      <trkpt lat="46.462443368509412" lon="10.602113083004951">
        <ele>3258.0500000000002</ele>
        <time>2013-07-13T15:16:02Z</time>
      </trkpt>
      <trkpt lat="46.462485697120428" lon="10.602226657792926">
        <ele>3259.4899999999998</ele>
        <time>2013-07-13T15:16:17Z</time>
      </trkpt>
      <trkpt lat="46.462504891678691" lon="10.602267812937498">
        <ele>3260.4499999999998</ele>
        <time>2013-07-13T15:16:31Z</time>
      </trkpt>
      <trkpt lat="46.46257471293211" lon="10.602343836799264">
        <ele>3258.5300000000002</ele>
        <time>2013-07-13T15:16:45Z</time>
      </trkpt>
      <trkpt lat="46.462590638548136" lon="10.602342579513788">
        <ele>3258.0500000000002</ele>
        <time>2013-07-13T15:16:47Z</time>
      </trkpt>
      <trkpt lat="46.462721396237612" lon="10.602289270609617">
        <ele>3256.5999999999999</ele>
        <time>2013-07-13T15:17:01Z</time>
      </trkpt>
      <trkpt lat="46.462805550545454" lon="10.602295557036996">
        <ele>3257.0799999999999</ele>
        <time>2013-07-13T15:17:12Z</time>
      </trkpt>
      <trkpt lat="46.46291820332408" lon="10.602293880656362">
        <ele>3256.5999999999999</ele>
        <time>2013-07-13T15:17:27Z</time>
      </trkpt>
      <trkpt lat="46.462941588833928" lon="10.602295054122806">
        <ele>3256.5999999999999</ele>
        <time>2013-07-13T15:17:30Z</time>
      </trkpt>
      <trkpt lat="46.463008392602205" lon="10.602326653897762">
        <ele>3256.1199999999999</ele>
        <time>2013-07-13T15:17:38Z</time>
      </trkpt>
      <trkpt lat="46.463004788383842" lon="10.602487418800592">
        <ele>3256.5999999999999</ele>
        <time>2013-07-13T15:17:52Z</time>
      </trkpt>
      <trkpt lat="46.463032029569149" lon="10.602557407692075">
        <ele>3256.5999999999999</ele>
        <time>2013-07-13T15:18:08Z</time>
      </trkpt>
      <trkpt lat="46.46311710588634" lon="10.602600490674376">
        <ele>3257.0799999999999</ele>
        <time>2013-07-13T15:18:23Z</time>
      </trkpt>
      <trkpt lat="46.463106209412217" lon="10.602589007467031">
        <ele>3257.0799999999999</ele>
        <time>2013-07-13T15:18:38Z</time>
      </trkpt>
      <trkpt lat="46.463113250210881" lon="10.602576434612274">
        <ele>3257.5599999999999</ele>
        <time>2013-07-13T15:18:55Z</time>
      </trkpt>
    </trkseg>
  </trk>

</gpx>